<?xml version='1.0' encoding='UTF-8'?><gpx version="1.1" creator="JPX - https://github.com/jenetics/jpx" xmlns="http://www.topografix.com/GPX/1/1"><trk><trkseg><trkpt lat="44.88302245031131" lon="8.97400372495772"><ele>291.0</ele><time>2026-05-01T13:14:25Z</time></trkpt><trkpt lat="44.88291278750863" lon="8.974020538405798"><ele>291.0</ele><time>2026-05-01T13:14:27Z</time></trkpt><trkpt lat="44.88281265149502" lon="8.974012778129822"><ele>291.0</ele><time>2026-05-01T13:14:28Z</time></trkpt><trkpt lat="44.88272911108871" lon="8.974014072811974"><ele>291.0</ele><time>2026-05-01T13:14:29Z</time></trkpt><trkpt lat="44.882619882869385" lon="8.9740020505906"><ele>291.0</ele><time>2026-05-01T13:14:30Z</time></trkpt><trkpt lat="44.882520014525106" lon="8.973968633514108"><ele>291.40000000000003</ele><time>2026-05-01T13:14:31Z</time></trkpt><trkpt lat="44.88243256955649" lon="8.973915499314478"><ele>291.8</ele><time>2026-05-01T13:14:32Z</time></trkpt><trkpt lat="44.88234178611068" lon="8.973855878510928"><ele>292.20000000000005</ele><time>2026-05-01T13:14:33Z</time></trkpt><trkpt lat="44.88225470079583" lon="8.97379240219548"><ele>292.6</ele><time>2026-05-01T13:14:34Z</time></trkpt><trkpt lat="44.882178818940524" lon="8.97371462449822"><ele>293.0</ele><time>2026-05-01T13:14:35Z</time></trkpt><trkpt lat="44.88211335597882" lon="8.973638923193802"><ele>293.0</ele><time>2026-05-01T13:14:36Z</time></trkpt><trkpt lat="44.882044073669945" lon="8.973597021569871"><ele>293.0</ele><time>2026-05-01T13:14:37Z</time></trkpt><trkpt lat="44.88194013637831" lon="8.973501277577197"><ele>293.0</ele><time>2026-05-01T13:14:39Z</time></trkpt><trkpt lat="44.88186117551637" lon="8.973437137862257"><ele>293.0</ele><time>2026-05-01T13:14:40Z</time></trkpt><trkpt lat="44.88178518463449" lon="8.97335816319115"><ele>293.0</ele><time>2026-05-01T13:14:41Z</time></trkpt><trkpt lat="44.88170032775756" lon="8.973258636550742"><ele>295.0</ele><time>2026-05-01T13:14:42Z</time></trkpt><trkpt lat="44.88161412255974" lon="8.973151240387208"><ele>297.0</ele><time>2026-05-01T13:14:43Z</time></trkpt><trkpt lat="44.881522562303445" lon="8.973041817421036"><ele>299.0</ele><time>2026-05-01T13:14:44Z</time></trkpt><trkpt lat="44.881429919312914" lon="8.972949361553376"><ele>301.0</ele><time>2026-05-01T13:14:45Z</time></trkpt><trkpt lat="44.88133217275794" lon="8.972859697139826"><ele>301.0</ele><time>2026-05-01T13:14:46Z</time></trkpt><trkpt lat="44.88123320608315" lon="8.972786551093602"><ele>301.0</ele><time>2026-05-01T13:14:47Z</time></trkpt><trkpt lat="44.881135766445865" lon="8.97271987934621"><ele>301.0</ele><time>2026-05-01T13:14:48Z</time></trkpt><trkpt lat="44.88104515145271" lon="8.972678071446255"><ele>301.0</ele><time>2026-05-01T13:14:49Z</time></trkpt><trkpt lat="44.88096426227314" lon="8.972655086912187"><ele>301.0</ele><time>2026-05-01T13:14:50Z</time></trkpt><trkpt lat="44.880873183088006" lon="8.97263747873272"><ele>301.40000000000003</ele><time>2026-05-01T13:14:51Z</time></trkpt><trkpt lat="44.88077460770066" lon="8.972642085518062"><ele>301.8</ele><time>2026-05-01T13:14:52Z</time></trkpt><trkpt lat="44.88066615872676" lon="8.972663904274679"><ele>302.20000000000005</ele><time>2026-05-01T13:14:53Z</time></trkpt><trkpt lat="44.880563882857494" lon="8.972700150806705"><ele>302.6</ele><time>2026-05-01T13:14:54Z</time></trkpt><trkpt lat="44.8804531641032" lon="8.972731108763279"><ele>303.0</ele><time>2026-05-01T13:14:55Z</time></trkpt><trkpt lat="44.88033872920428" lon="8.972748788246017"><ele>303.0</ele><time>2026-05-01T13:14:56Z</time></trkpt><trkpt lat="44.88022495802247" lon="8.972774561035253"><ele>303.0</ele><time>2026-05-01T13:14:57Z</time></trkpt><trkpt lat="44.88011372159095" lon="8.97277538662251"><ele>303.0</ele><time>2026-05-01T13:14:58Z</time></trkpt><trkpt lat="44.87999922280749" lon="8.972756609635674"><ele>303.0</ele><time>2026-05-01T13:14:59Z</time></trkpt><trkpt lat="44.87988163401737" lon="8.972717817861158"><ele>305.0</ele><time>2026-05-01T13:15:00Z</time></trkpt><trkpt lat="44.87976661638517" lon="8.97267555606984"><ele>307.0</ele><time>2026-05-01T13:15:01Z</time></trkpt><trkpt lat="44.879642707685576" lon="8.972629219183471"><ele>309.0</ele><time>2026-05-01T13:15:01.999Z</time></trkpt><trkpt lat="44.87951708893863" lon="8.97258354073605"><ele>311.0</ele><time>2026-05-01T13:15:02.999Z</time></trkpt><trkpt lat="44.87939131785503" lon="8.972540752044143"><ele>312.75</ele><time>2026-05-01T13:15:03.999Z</time></trkpt><trkpt lat="44.879270165996026" lon="8.972498047375169"><ele>314.5</ele><time>2026-05-01T13:15:04.999Z</time></trkpt><trkpt lat="44.87915873285675" lon="8.972449800151711"><ele>316.25</ele><time>2026-05-01T13:15:05.999Z</time></trkpt><trkpt lat="44.87903583854932" lon="8.972383412262989"><ele>318.0</ele><time>2026-05-01T13:15:06.999Z</time></trkpt><trkpt lat="44.87891763417447" lon="8.97231628507743"><ele>318.0</ele><time>2026-05-01T13:15:07.999Z</time></trkpt><trkpt lat="44.87881602623736" lon="8.97225594703791"><ele>318.0</ele><time>2026-05-01T13:15:08.999Z</time></trkpt><trkpt lat="44.87872661916989" lon="8.972192532854372"><ele>318.0</ele><time>2026-05-01T13:15:09.999Z</time></trkpt><trkpt lat="44.878646684493376" lon="8.972124894071463"><ele>318.0</ele><time>2026-05-01T13:15:10.999Z</time></trkpt><trkpt lat="44.87856347847787" lon="8.97205670677372"><ele>318.0</ele><time>2026-05-01T13:15:11.999Z</time></trkpt><trkpt lat="44.87846066439411" lon="8.97200030809865"><ele>316.5</ele><time>2026-05-01T13:15:12.999Z</time></trkpt><trkpt lat="44.87836917078394" lon="8.971909521088152"><ele>315.0</ele><time>2026-05-01T13:15:13.999Z</time></trkpt><trkpt lat="44.87826678094799" lon="8.971836726279495"><ele>313.5</ele><time>2026-05-01T13:15:14.999Z</time></trkpt><trkpt lat="44.878154545607536" lon="8.97176360453586"><ele>312.0</ele><time>2026-05-01T13:15:15.999Z</time></trkpt><trkpt lat="44.87804314961944" lon="8.971696946669397"><ele>311.75</ele><time>2026-05-01T13:15:16.999Z</time></trkpt><trkpt lat="44.87793322779463" lon="8.971634765746904"><ele>311.5</ele><time>2026-05-01T13:15:17.999Z</time></trkpt><trkpt lat="44.87782142500109" lon="8.971579670676618"><ele>311.25</ele><time>2026-05-01T13:15:18.999Z</time></trkpt><trkpt lat="44.87771313293154" lon="8.971530656345223"><ele>311.0</ele><time>2026-05-01T13:15:19.999Z</time></trkpt><trkpt lat="44.87760194180656" lon="8.971477242218754"><ele>310.25</ele><time>2026-05-01T13:15:20.999Z</time></trkpt><trkpt lat="44.8775032738286" lon="8.971392020601494"><ele>309.5</ele><time>2026-05-01T13:15:21.999Z</time></trkpt><trkpt lat="44.877394019692595" lon="8.971317471297075"><ele>308.75</ele><time>2026-05-01T13:15:22.999Z</time></trkpt><trkpt lat="44.87728235749075" lon="8.97123858354963"><ele>308.0</ele><time>2026-05-01T13:15:23.999Z</time></trkpt><trkpt lat="44.87716235147509" lon="8.971169732156712"><ele>308.0</ele><time>2026-05-01T13:15:24.999Z</time></trkpt><trkpt lat="44.8770483170866" lon="8.971083984647"><ele>308.0</ele><time>2026-05-01T13:15:25.999Z</time></trkpt><trkpt lat="44.87693678522547" lon="8.970994360855492"><ele>308.0</ele><time>2026-05-01T13:15:26.999Z</time></trkpt><trkpt lat="44.87682331756528" lon="8.970896134814058"><ele>308.0</ele><time>2026-05-01T13:15:27.999Z</time></trkpt><trkpt lat="44.87672580049918" lon="8.970804144563013"><ele>306.5</ele><time>2026-05-01T13:15:28.999Z</time></trkpt><trkpt lat="44.876625428949886" lon="8.970703472189019"><ele>305.0</ele><time>2026-05-01T13:15:29.999Z</time></trkpt><trkpt lat="44.87651178134746" lon="8.970633059635185"><ele>303.5</ele><time>2026-05-01T13:15:30.999Z</time></trkpt><trkpt lat="44.876381673051704" lon="8.970571404682985"><ele>302.0</ele><time>2026-05-01T13:15:31.999Z</time></trkpt><trkpt lat="44.87625227841014" lon="8.970536069863703"><ele>302.0</ele><time>2026-05-01T13:15:32.999Z</time></trkpt><trkpt lat="44.876118717301125" lon="8.970518647158102"><ele>302.0</ele><time>2026-05-01T13:15:33.999Z</time></trkpt><trkpt lat="44.87598400341202" lon="8.970516430043586"><ele>302.0</ele><time>2026-05-01T13:15:34.998Z</time></trkpt><trkpt lat="44.87585554900297" lon="8.9705227129258"><ele>302.0</ele><time>2026-05-01T13:15:35.998Z</time></trkpt><trkpt lat="44.87573836472323" lon="8.9704883423353"><ele>301.75</ele><time>2026-05-01T13:15:36.998Z</time></trkpt><trkpt lat="44.87561016563392" lon="8.970459301633019"><ele>301.5</ele><time>2026-05-01T13:15:37.998Z</time></trkpt><trkpt lat="44.875486474083104" lon="8.97044448522364"><ele>301.25</ele><time>2026-05-01T13:15:38.998Z</time></trkpt><trkpt lat="44.87536302861168" lon="8.970414097018857"><ele>301.0</ele><time>2026-05-01T13:15:39.998Z</time></trkpt><trkpt lat="44.875247783885285" lon="8.970374198669457"><ele>301.0</ele><time>2026-05-01T13:15:40.998Z</time></trkpt><trkpt lat="44.87512827647883" lon="8.970348015495487"><ele>301.0</ele><time>2026-05-01T13:15:41.998Z</time></trkpt><trkpt lat="44.87500906096783" lon="8.970315982976889"><ele>301.0</ele><time>2026-05-01T13:15:42.998Z</time></trkpt><trkpt lat="44.87488868136158" lon="8.970287484132554"><ele>301.0</ele><time>2026-05-01T13:15:43.998Z</time></trkpt><trkpt lat="44.874772287095986" lon="8.970251333262874"><ele>300.75</ele><time>2026-05-01T13:15:44.998Z</time></trkpt><trkpt lat="44.87466522107983" lon="8.970237651992491"><ele>300.5</ele><time>2026-05-01T13:15:45.998Z</time></trkpt><trkpt lat="44.87455553157079" lon="8.97022547616232"><ele>300.25</ele><time>2026-05-01T13:15:46.998Z</time></trkpt><trkpt lat="44.874437676089094" lon="8.970247965576819"><ele>300.0</ele><time>2026-05-01T13:15:47.998Z</time></trkpt><trkpt lat="44.874327092343584" lon="8.970292885049885"><ele>301.0</ele><time>2026-05-01T13:15:48.998Z</time></trkpt><trkpt lat="44.87421957201512" lon="8.97035924949631"><ele>302.0</ele><time>2026-05-01T13:15:49.998Z</time></trkpt><trkpt lat="44.87412137654688" lon="8.970437155047897"><ele>303.0</ele><time>2026-05-01T13:15:50.998Z</time></trkpt><trkpt lat="44.87402262184685" lon="8.970522874724354"><ele>304.0</ele><time>2026-05-01T13:15:51.998Z</time></trkpt><trkpt lat="44.873926968650004" lon="8.970615467018638"><ele>304.0</ele><time>2026-05-01T13:15:52.998Z</time></trkpt><trkpt lat="44.87381341003806" lon="8.970678860594633"><ele>304.0</ele><time>2026-05-01T13:15:53.998Z</time></trkpt><trkpt lat="44.873700916069" lon="8.970747386921845"><ele>304.0</ele><time>2026-05-01T13:15:54.998Z</time></trkpt><trkpt lat="44.873585762724225" lon="8.97079465548985"><ele>304.0</ele><time>2026-05-01T13:15:55.998Z</time></trkpt><trkpt lat="44.87345547300454" lon="8.970827210664718"><ele>304.25</ele><time>2026-05-01T13:15:56.998Z</time></trkpt><trkpt lat="44.873326811224835" lon="8.970859062236073"><ele>304.5</ele><time>2026-05-01T13:15:57.998Z</time></trkpt><trkpt lat="44.873195234919294" lon="8.970913968179097"><ele>304.75</ele><time>2026-05-01T13:15:58.998Z</time></trkpt><trkpt lat="44.87306210393187" lon="8.970942514611902"><ele>305.0</ele><time>2026-05-01T13:15:59.998Z</time></trkpt><trkpt lat="44.87292577519828" lon="8.970975293776862"><ele>305.0</ele><time>2026-05-01T13:16:00.998Z</time></trkpt><trkpt lat="44.87279195549511" lon="8.971014384674364"><ele>305.0</ele><time>2026-05-01T13:16:01.998Z</time></trkpt><trkpt lat="44.87265378623251" lon="8.971045484815075"><ele>305.0</ele><time>2026-05-01T13:16:02.998Z</time></trkpt><trkpt lat="44.87251945988917" lon="8.971075353908011"><ele>305.0</ele><time>2026-05-01T13:16:03.998Z</time></trkpt><trkpt lat="44.87237803052766" lon="8.97111110966251"><ele>306.5</ele><time>2026-05-01T13:16:04.998Z</time></trkpt><trkpt lat="44.87223647040946" lon="8.971152445422758"><ele>308.0</ele><time>2026-05-01T13:16:05.998Z</time></trkpt><trkpt lat="44.87210707244905" lon="8.971184202985054"><ele>309.5</ele><time>2026-05-01T13:16:06.998Z</time></trkpt><trkpt lat="44.87196579847719" lon="8.971226230937704"><ele>311.0</ele><time>2026-05-01T13:16:07.998Z</time></trkpt><trkpt lat="44.87182547145589" lon="8.9712695386459"><ele>312.75</ele><time>2026-05-01T13:16:08.997Z</time></trkpt><trkpt lat="44.871691605373215" lon="8.971298402589575"><ele>314.5</ele><time>2026-05-01T13:16:09.997Z</time></trkpt><trkpt lat="44.87155585680569" lon="8.97128528865907"><ele>316.25</ele><time>2026-05-01T13:16:10.997Z</time></trkpt><trkpt lat="44.871423548618296" lon="8.971298060528358"><ele>318.0</ele><time>2026-05-01T13:16:11.997Z</time></trkpt><trkpt lat="44.871293047253246" lon="8.971242232982668"><ele>318.0</ele><time>2026-05-01T13:16:12.997Z</time></trkpt><trkpt lat="44.87116268168247" lon="8.971196017134634"><ele>318.0</ele><time>2026-05-01T13:16:13.997Z</time></trkpt><trkpt lat="44.87103388647149" lon="8.97112869547925"><ele>318.0</ele><time>2026-05-01T13:16:14.997Z</time></trkpt><trkpt lat="44.87090373573295" lon="8.971073986123772"><ele>318.0</ele><time>2026-05-01T13:16:15.997Z</time></trkpt><trkpt lat="44.87078335383942" lon="8.970987211990337"><ele>319.75</ele><time>2026-05-01T13:16:16.997Z</time></trkpt><trkpt lat="44.870668726196875" lon="8.970913585242146"><ele>321.5</ele><time>2026-05-01T13:16:17.997Z</time></trkpt><trkpt lat="44.87053709631401" lon="8.970877505937564"><ele>323.25</ele><time>2026-05-01T13:16:18.997Z</time></trkpt><trkpt lat="44.87040979879424" lon="8.970869341295222"><ele>325.0</ele><time>2026-05-01T13:16:19.997Z</time></trkpt><trkpt lat="44.87027845080671" lon="8.970917023292321"><ele>325.0</ele><time>2026-05-01T13:16:20.997Z</time></trkpt><trkpt lat="44.87015425856586" lon="8.97096007568234"><ele>325.0</ele><time>2026-05-01T13:16:21.997Z</time></trkpt><trkpt lat="44.87003414962358" lon="8.971031494164055"><ele>325.0</ele><time>2026-05-01T13:16:22.997Z</time></trkpt><trkpt lat="44.86990720317995" lon="8.97109686006968"><ele>325.0</ele><time>2026-05-01T13:16:23.997Z</time></trkpt><trkpt lat="44.86978879982479" lon="8.971150165901156"><ele>326.5</ele><time>2026-05-01T13:16:24.997Z</time></trkpt><trkpt lat="44.86966529820248" lon="8.971202302930545"><ele>328.0</ele><time>2026-05-01T13:16:26Z</time></trkpt><trkpt lat="44.86955040485162" lon="8.971250805930616"><ele>329.5</ele><time>2026-05-01T13:16:27Z</time></trkpt><trkpt lat="44.86943386120598" lon="8.971298137433854"><ele>331.0</ele><time>2026-05-01T13:16:28Z</time></trkpt><trkpt lat="44.86932041554591" lon="8.97134159694808"><ele>333.25</ele><time>2026-05-01T13:16:29Z</time></trkpt><trkpt lat="44.86919465172624" lon="8.971382733340512"><ele>335.5</ele><time>2026-05-01T13:16:30Z</time></trkpt><trkpt lat="44.869062951800814" lon="8.971418044099423"><ele>337.75</ele><time>2026-05-01T13:16:31Z</time></trkpt><trkpt lat="44.86893816089918" lon="8.971461456685219"><ele>340.0</ele><time>2026-05-01T13:16:32Z</time></trkpt><trkpt lat="44.86881278257426" lon="8.971541867926945"><ele>340.0</ele><time>2026-05-01T13:16:33Z</time></trkpt><trkpt lat="44.86869026781825" lon="8.971601362057253"><ele>340.0</ele><time>2026-05-01T13:16:34Z</time></trkpt><trkpt lat="44.868571551547404" lon="8.9716608601954"><ele>340.0</ele><time>2026-05-01T13:16:35Z</time></trkpt><trkpt lat="44.868446126569005" lon="8.971704908054624"><ele>340.0</ele><time>2026-05-01T13:16:36Z</time></trkpt><trkpt lat="44.868328072341846" lon="8.971786304470386"><ele>341.0</ele><time>2026-05-01T13:16:37Z</time></trkpt><trkpt lat="44.86821279104524" lon="8.971837134205236"><ele>342.0</ele><time>2026-05-01T13:16:38Z</time></trkpt><trkpt lat="44.868094870092065" lon="8.971905146424382"><ele>343.0</ele><time>2026-05-01T13:16:39Z</time></trkpt><trkpt lat="44.86798834964147" lon="8.972002044756316"><ele>344.0</ele><time>2026-05-01T13:16:40Z</time></trkpt><trkpt lat="44.86788822278789" lon="8.972121882502627"><ele>344.0</ele><time>2026-05-01T13:16:41Z</time></trkpt><trkpt lat="44.86779245181957" lon="8.972228752815088"><ele>344.0</ele><time>2026-05-01T13:16:42Z</time></trkpt><trkpt lat="44.86767199083168" lon="8.972285378015023"><ele>344.0</ele><time>2026-05-01T13:16:43Z</time></trkpt><trkpt lat="44.867560941385335" lon="8.972333881405591"><ele>344.0</ele><time>2026-05-01T13:16:44Z</time></trkpt><trkpt lat="44.867444122216284" lon="8.972364652909445"><ele>346.25</ele><time>2026-05-01T13:16:45Z</time></trkpt><trkpt lat="44.86732422046131" lon="8.972383561117324"><ele>348.5</ele><time>2026-05-01T13:16:46Z</time></trkpt><trkpt lat="44.867201915035665" lon="8.972385090725096"><ele>350.75</ele><time>2026-05-01T13:16:47Z</time></trkpt><trkpt lat="44.867075358652514" lon="8.972392167012892"><ele>353.0</ele><time>2026-05-01T13:16:48Z</time></trkpt><trkpt lat="44.86695922302174" lon="8.972407146705592"><ele>353.0</ele><time>2026-05-01T13:16:49Z</time></trkpt><trkpt lat="44.86683932341313" lon="8.972434682829952"><ele>353.0</ele><time>2026-05-01T13:16:50Z</time></trkpt><trkpt lat="44.866732466269724" lon="8.97245250538489"><ele>353.0</ele><time>2026-05-01T13:16:51Z</time></trkpt><trkpt lat="44.8666329154677" lon="8.972459103368646"><ele>353.0</ele><time>2026-05-01T13:16:52Z</time></trkpt><trkpt lat="44.86654849098341" lon="8.972436962845656"><ele>353.0</ele><time>2026-05-01T13:16:53Z</time></trkpt><trkpt lat="44.866477648080306" lon="8.972378012025871"><ele>354.4</ele><time>2026-05-01T13:16:54Z</time></trkpt><trkpt lat="44.86642655914172" lon="8.972273127101682"><ele>355.79999999999995</ele><time>2026-05-01T13:16:55Z</time></trkpt><trkpt lat="44.866412544829146" lon="8.972142715846333"><ele>357.2</ele><time>2026-05-01T13:16:56Z</time></trkpt><trkpt lat="44.86641691015217" lon="8.972005233614777"><ele>358.6</ele><time>2026-05-01T13:16:57Z</time></trkpt><trkpt lat="44.8664410346219" lon="8.971877437658378"><ele>360.0</ele><time>2026-05-01T13:16:58Z</time></trkpt><trkpt lat="44.8664701818725" lon="8.971737038919196"><ele>360.8</ele><time>2026-05-01T13:16:59Z</time></trkpt><trkpt lat="44.866494267296034" lon="8.971604294241205"><ele>361.6</ele><time>2026-05-01T13:17:00Z</time></trkpt><trkpt lat="44.866485304717926" lon="8.971469016996458"><ele>362.4</ele><time>2026-05-01T13:17:01Z</time></trkpt><trkpt lat="44.866460511204494" lon="8.971339786942751"><ele>363.2</ele><time>2026-05-01T13:17:02Z</time></trkpt><trkpt lat="44.86640591724062" lon="8.971230617956389"><ele>364.0</ele><time>2026-05-01T13:17:03Z</time></trkpt><trkpt lat="44.86633901165575" lon="8.971153999401457"><ele>364.0</ele><time>2026-05-01T13:17:04Z</time></trkpt><trkpt lat="44.86624399779976" lon="8.971111750032572"><ele>364.0</ele><time>2026-05-01T13:17:05Z</time></trkpt><trkpt lat="44.866138529790675" lon="8.971089390790201"><ele>364.0</ele><time>2026-05-01T13:17:06Z</time></trkpt><trkpt lat="44.86604298522754" lon="8.97115492203424"><ele>364.0</ele><time>2026-05-01T13:17:07Z</time></trkpt><trkpt lat="44.86595002746402" lon="8.971206344615004"><ele>364.0</ele><time>2026-05-01T13:17:07.999Z</time></trkpt><trkpt lat="44.86586160613577" lon="8.97126456296265"><ele>366.0</ele><time>2026-05-01T13:17:08.999Z</time></trkpt><trkpt lat="44.865763738483864" lon="8.971291095951814"><ele>368.0</ele><time>2026-05-01T13:17:09.999Z</time></trkpt><trkpt lat="44.86566792913903" lon="8.971339842434956"><ele>370.0</ele><time>2026-05-01T13:17:10.999Z</time></trkpt><trkpt lat="44.86556973988935" lon="8.971388937061"><ele>372.0</ele><time>2026-05-01T13:17:11.999Z</time></trkpt><trkpt lat="44.865473411482505" lon="8.971437101272974"><ele>374.0</ele><time>2026-05-01T13:17:12.999Z</time></trkpt><trkpt lat="44.86537734073419" lon="8.9714851366508"><ele>374.0</ele><time>2026-05-01T13:17:13.999Z</time></trkpt><trkpt lat="44.86529780005896" lon="8.971524906995379"><ele>374.0</ele><time>2026-05-01T13:17:14.999Z</time></trkpt><trkpt lat="44.8652249518713" lon="8.971566816096121"><ele>374.0</ele><time>2026-05-01T13:17:15.999Z</time></trkpt><trkpt lat="44.865164421889034" lon="8.971605424661288"><ele>374.0</ele><time>2026-05-01T13:17:16.999Z</time></trkpt><trkpt lat="44.86507595582581" lon="8.971672575089796"><ele>374.0</ele><time>2026-05-01T13:17:18.999Z</time></trkpt><trkpt lat="44.86513623269482" lon="8.971599188560123"><ele>374.0</ele><time>2026-05-01T13:18:35Z</time></trkpt><trkpt lat="44.86521702641043" lon="8.971545479449498"><ele>374.0</ele><time>2026-05-01T13:18:37Z</time></trkpt><trkpt lat="44.8652825267743" lon="8.97150329355756"><ele>374.0</ele><time>2026-05-01T13:18:38Z</time></trkpt><trkpt lat="44.86529426108948" lon="8.97125032626839"><ele>374.0</ele><time>2026-05-01T13:18:39Z</time></trkpt><trkpt lat="44.86535505062451" lon="8.971148105249751"><ele>374.0</ele><time>2026-05-01T13:18:40Z</time></trkpt><trkpt lat="44.865409533159216" lon="8.97105078395656"><ele>374.0</ele><time>2026-05-01T13:18:41Z</time></trkpt><trkpt lat="44.86547093645239" lon="8.970952341488653"><ele>376.5</ele><time>2026-05-01T13:18:42Z</time></trkpt><trkpt lat="44.86555654179523" lon="8.970832257656314"><ele>379.0</ele><time>2026-05-01T13:18:43Z</time></trkpt><trkpt lat="44.86565522505696" lon="8.970686635962126"><ele>381.5</ele><time>2026-05-01T13:18:44Z</time></trkpt><trkpt lat="44.86577308265979" lon="8.970521066621629"><ele>384.0</ele><time>2026-05-01T13:18:45Z</time></trkpt><trkpt lat="44.86589218575285" lon="8.970396866197046"><ele>383.1666666666667</ele><time>2026-05-01T13:18:48Z</time></trkpt><trkpt lat="44.86596408458281" lon="8.970331957220694"><ele>382.3333333333333</ele><time>2026-05-01T13:18:49Z</time></trkpt><trkpt lat="44.866039074334694" lon="8.970265472595042"><ele>381.5</ele><time>2026-05-01T13:18:50Z</time></trkpt><trkpt lat="44.86610929543117" lon="8.970195632062989"><ele>380.66666666666663</ele><time>2026-05-01T13:18:51Z</time></trkpt><trkpt lat="44.86616879439538" lon="8.970118800301504"><ele>379.8333333333333</ele><time>2026-05-01T13:18:52Z</time></trkpt><trkpt lat="44.866215809885794" lon="8.970022801291634"><ele>379.0</ele><time>2026-05-01T13:18:53Z</time></trkpt><trkpt lat="44.86625412205059" lon="8.969902567848903"><ele>379.0</ele><time>2026-05-01T13:18:53.999Z</time></trkpt><trkpt lat="44.86628641770768" lon="8.969778878476808"><ele>379.0</ele><time>2026-05-01T13:18:54.999Z</time></trkpt><trkpt lat="44.86629722950533" lon="8.969646825191639"><ele>379.0</ele><time>2026-05-01T13:18:55.999Z</time></trkpt><trkpt lat="44.86630513588395" lon="8.969516496408493"><ele>379.0</ele><time>2026-05-01T13:18:56.999Z</time></trkpt><trkpt lat="44.866302791041555" lon="8.969418261441376"><ele>379.0</ele><time>2026-05-01T13:18:57.999Z</time></trkpt><trkpt lat="44.86627961703009" lon="8.969273606029406"><ele>379.0</ele><time>2026-05-01T13:18:59.999Z</time></trkpt><trkpt lat="44.86625024752025" lon="8.96919343605335"><ele>379.0</ele><time>2026-05-01T13:19:00.999Z</time></trkpt><trkpt lat="44.86623428837669" lon="8.96908803617443"><ele>379.0</ele><time>2026-05-01T13:19:01.999Z</time></trkpt><trkpt lat="44.866228650692534" lon="8.968965885259195"><ele>379.0</ele><time>2026-05-01T13:19:02.999Z</time></trkpt><trkpt lat="44.86621977593537" lon="8.968837419719279"><ele>379.0</ele><time>2026-05-01T13:19:03.999Z</time></trkpt><trkpt lat="44.86621213247536" lon="8.968714669810835"><ele>379.0</ele><time>2026-05-01T13:19:04.999Z</time></trkpt><trkpt lat="44.86620989784938" lon="8.968605550382641"><ele>378.5</ele><time>2026-05-01T13:19:05.999Z</time></trkpt><trkpt lat="44.86620433057896" lon="8.96848439946849"><ele>378.0</ele><time>2026-05-01T13:19:06.999Z</time></trkpt><trkpt lat="44.86620453677664" lon="8.968358061882906"><ele>377.5</ele><time>2026-05-01T13:19:07.999Z</time></trkpt><trkpt lat="44.866197269323834" lon="8.96824017341952"><ele>377.0</ele><time>2026-05-01T13:19:08.999Z</time></trkpt><trkpt lat="44.86618867749944" lon="8.968120863173146"><ele>376.5</ele><time>2026-05-01T13:19:09.999Z</time></trkpt><trkpt lat="44.86619100358839" lon="8.96798134648605"><ele>376.0</ele><time>2026-05-01T13:19:10.999Z</time></trkpt><trkpt lat="44.866184339677" lon="8.967843148893689"><ele>375.16666666666663</ele><time>2026-05-01T13:19:11.999Z</time></trkpt><trkpt lat="44.8661828543512" lon="8.967711721445895"><ele>374.3333333333333</ele><time>2026-05-01T13:19:12.999Z</time></trkpt><trkpt lat="44.86617156147023" lon="8.967604661318203"><ele>373.5</ele><time>2026-05-01T13:19:13.999Z</time></trkpt><trkpt lat="44.866135866033225" lon="8.967462492760644"><ele>372.6666666666667</ele><time>2026-05-01T13:19:14.999Z</time></trkpt><trkpt lat="44.866105645626874" lon="8.967357865336599"><ele>371.83333333333337</ele><time>2026-05-01T13:19:15.999Z</time></trkpt><trkpt lat="44.866062357778596" lon="8.967252633267206"><ele>371.0</ele><time>2026-05-01T13:19:16.999Z</time></trkpt><trkpt lat="44.86600668593024" lon="8.96716016873439"><ele>373.5</ele><time>2026-05-01T13:19:17.999Z</time></trkpt><trkpt lat="44.86593647531326" lon="8.967088337908438"><ele>376.0</ele><time>2026-05-01T13:19:18.998Z</time></trkpt><trkpt lat="44.865852546818154" lon="8.967032178531563"><ele>378.5</ele><time>2026-05-01T13:19:19.998Z</time></trkpt><trkpt lat="44.86577440089421" lon="8.967008062943513"><ele>381.0</ele><time>2026-05-01T13:19:20.998Z</time></trkpt><trkpt lat="44.86568872198249" lon="8.966997639542983"><ele>383.49999999999994</ele><time>2026-05-01T13:19:21.998Z</time></trkpt><trkpt lat="44.865620131032635" lon="8.966978673610445"><ele>386.0</ele><time>2026-05-01T13:19:22.998Z</time></trkpt><trkpt lat="44.865553756422166" lon="8.966934873620849"><ele>385.99999999999994</ele><time>2026-05-01T13:19:23.998Z</time></trkpt><trkpt lat="44.865481239082555" lon="8.96688962842185"><ele>386.0</ele><time>2026-05-01T13:19:24.998Z</time></trkpt><trkpt lat="44.8654095535658" lon="8.966837915414503"><ele>386.0</ele><time>2026-05-01T13:19:25.998Z</time></trkpt><trkpt lat="44.86534169593698" lon="8.966786084964498"><ele>386.0</ele><time>2026-05-01T13:19:26.998Z</time></trkpt><trkpt lat="44.865278290018296" lon="8.966737000232731"><ele>385.99999999999994</ele><time>2026-05-01T13:19:27.998Z</time></trkpt><trkpt lat="44.865213986808406" lon="8.966690168742439"><ele>386.0</ele><time>2026-05-01T13:19:28.998Z</time></trkpt><trkpt lat="44.86514072445194" lon="8.96664683989356"><ele>384.16666666666663</ele><time>2026-05-01T13:19:29.998Z</time></trkpt><trkpt lat="44.86507381928234" lon="8.966611783684023"><ele>382.3333333333333</ele><time>2026-05-01T13:19:30.998Z</time></trkpt><trkpt lat="44.865011448692975" lon="8.96659198378878"><ele>380.5</ele><time>2026-05-01T13:19:31.998Z</time></trkpt><trkpt lat="44.86492760520302" lon="8.966592280849056"><ele>378.66666666666663</ele><time>2026-05-01T13:19:32.998Z</time></trkpt><trkpt lat="44.86483494119887" lon="8.966601368440465"><ele>376.8333333333333</ele><time>2026-05-01T13:19:33.998Z</time></trkpt><trkpt lat="44.86474711063187" lon="8.966610370193369"><ele>375.0</ele><time>2026-05-01T13:19:34.998Z</time></trkpt><trkpt lat="44.8646673314017" lon="8.966606764037238"><ele>375.0</ele><time>2026-05-01T13:19:35.998Z</time></trkpt><trkpt lat="44.864586998307516" lon="8.96659710725121"><ele>375.0</ele><time>2026-05-01T13:19:36.998Z</time></trkpt><trkpt lat="44.864500658848" lon="8.966620261754183"><ele>375.0</ele><time>2026-05-01T13:19:37.998Z</time></trkpt><trkpt lat="44.86441234085534" lon="8.966657775544391"><ele>375.0</ele><time>2026-05-01T13:19:38.998Z</time></trkpt><trkpt lat="44.86432522498335" lon="8.966689042411453"><ele>375.0</ele><time>2026-05-01T13:19:39.998Z</time></trkpt><trkpt lat="44.864247144096176" lon="8.966716199016115"><ele>375.0</ele><time>2026-05-01T13:19:40.998Z</time></trkpt><trkpt lat="44.864168915459274" lon="8.966736559924955"><ele>375.1666666666667</ele><time>2026-05-01T13:19:41.998Z</time></trkpt><trkpt lat="44.864092175376754" lon="8.966754681151082"><ele>375.3333333333333</ele><time>2026-05-01T13:19:42.998Z</time></trkpt><trkpt lat="44.86402311235448" lon="8.966722022287017"><ele>375.5</ele><time>2026-05-01T13:19:43.998Z</time></trkpt><trkpt lat="44.8639485893022" lon="8.966670580019455"><ele>375.66666666666663</ele><time>2026-05-01T13:19:44.998Z</time></trkpt><trkpt lat="44.86386465240326" lon="8.966648566804613"><ele>375.8333333333333</ele><time>2026-05-01T13:19:45.998Z</time></trkpt><trkpt lat="44.8637798618716" lon="8.966634549838352"><ele>376.0</ele><time>2026-05-01T13:19:46.998Z</time></trkpt><trkpt lat="44.863697203529235" lon="8.966622397142647"><ele>376.0</ele><time>2026-05-01T13:19:47.998Z</time></trkpt><trkpt lat="44.86360871957992" lon="8.966637700197618"><ele>376.0</ele><time>2026-05-01T13:19:48.998Z</time></trkpt><trkpt lat="44.86351924090601" lon="8.966627297568628"><ele>376.0</ele><time>2026-05-01T13:19:50.998Z</time></trkpt><trkpt lat="44.8635361060347" lon="8.966516551415458"><ele>376.0</ele><time>2026-05-01T13:19:52.997Z</time></trkpt><trkpt lat="44.86360079376364" lon="8.966432242607539"><ele>376.0</ele><time>2026-05-01T13:19:54.997Z</time></trkpt><trkpt lat="44.86363665230202" lon="8.966341899362494"><ele>376.0</ele><time>2026-05-01T13:19:56.997Z</time></trkpt><trkpt lat="44.863669050959636" lon="8.966254798653603"><ele>376.0</ele><time>2026-05-01T13:19:57.997Z</time></trkpt><trkpt lat="44.86367152468761" lon="8.966134544057752"><ele>376.0</ele><time>2026-05-01T13:19:58.997Z</time></trkpt><trkpt lat="44.86367347793212" lon="8.9660187407689"><ele>376.0</ele><time>2026-05-01T13:19:59.997Z</time></trkpt><trkpt lat="44.86367971543154" lon="8.965894301262386"><ele>376.0</ele><time>2026-05-01T13:20:00.997Z</time></trkpt><trkpt lat="44.863715643537496" lon="8.965798169312869"><ele>376.0</ele><time>2026-05-01T13:20:01.997Z</time></trkpt><trkpt lat="44.863760832928335" lon="8.965690152206067"><ele>376.0</ele><time>2026-05-01T13:20:02.997Z</time></trkpt><trkpt lat="44.86380526032408" lon="8.965614674948139"><ele>376.5</ele><time>2026-05-01T13:20:03.997Z</time></trkpt><trkpt lat="44.86389024703823" lon="8.965569264562381"><ele>377.0</ele><time>2026-05-01T13:20:04.997Z</time></trkpt><trkpt lat="44.86396309117907" lon="8.965515967744004"><ele>377.5</ele><time>2026-05-01T13:20:05.997Z</time></trkpt><trkpt lat="44.86401862965983" lon="8.965433305417733"><ele>378.0</ele><time>2026-05-01T13:20:06.997Z</time></trkpt><trkpt lat="44.86406624345265" lon="8.965342961420244"><ele>378.5</ele><time>2026-05-01T13:20:07.997Z</time></trkpt><trkpt lat="44.86412618047477" lon="8.965310502174887"><ele>379.0</ele><time>2026-05-01T13:20:08.997Z</time></trkpt><trkpt lat="44.86419946017235" lon="8.965293035000025"><ele>379.0</ele><time>2026-05-01T13:20:09.997Z</time></trkpt><trkpt lat="44.86427042129257" lon="8.965154155076771"><ele>379.0</ele><time>2026-05-01T13:20:11.997Z</time></trkpt><trkpt lat="44.864313881625286" lon="8.96504770053142"><ele>379.0</ele><time>2026-05-01T13:20:12.997Z</time></trkpt><trkpt lat="44.86436423177342" lon="8.964938478561288"><ele>379.0</ele><time>2026-05-01T13:20:13.997Z</time></trkpt><trkpt lat="44.86439345363059" lon="8.964855220212103"><ele>379.0</ele><time>2026-05-01T13:20:14.997Z</time></trkpt><trkpt lat="44.864394745324255" lon="8.964735612704596"><ele>379.66666666666663</ele><time>2026-05-01T13:20:15.997Z</time></trkpt><trkpt lat="44.86438441903095" lon="8.96461864107816"><ele>380.3333333333333</ele><time>2026-05-01T13:20:16.997Z</time></trkpt><trkpt lat="44.86438931884983" lon="8.964511146881353"><ele>381.0</ele><time>2026-05-01T13:20:17.997Z</time></trkpt><trkpt lat="44.86439560792364" lon="8.964415905332393"><ele>381.6666666666667</ele><time>2026-05-01T13:20:18.997Z</time></trkpt><trkpt lat="44.86438893286349" lon="8.96428586714625"><ele>382.33333333333337</ele><time>2026-05-01T13:20:20.997Z</time></trkpt><trkpt lat="44.86430747074357" lon="8.96425712249909"><ele>383.0</ele><time>2026-05-01T13:20:23.997Z</time></trkpt><trkpt lat="44.86421429611741" lon="8.96431209268505"><ele>385.2</ele><time>2026-05-01T13:20:25.997Z</time></trkpt><trkpt lat="44.86414166094621" lon="8.964359614718175"><ele>387.4</ele><time>2026-05-01T13:20:26.996Z</time></trkpt><trkpt lat="44.86405744613515" lon="8.964409443620438"><ele>389.59999999999997</ele><time>2026-05-01T13:20:27.996Z</time></trkpt><trkpt lat="44.86396914093674" lon="8.964464416939842"><ele>391.79999999999995</ele><time>2026-05-01T13:20:28.996Z</time></trkpt><trkpt lat="44.8638749181738" lon="8.964524012340295"><ele>394.0</ele><time>2026-05-01T13:20:29.996Z</time></trkpt><trkpt lat="44.86377999545323" lon="8.964582294825318"><ele>394.0</ele><time>2026-05-01T13:20:30.996Z</time></trkpt><trkpt lat="44.86368205505319" lon="8.964639909564172"><ele>394.0</ele><time>2026-05-01T13:20:31.996Z</time></trkpt><trkpt lat="44.86358619526674" lon="8.9647081040299"><ele>394.0</ele><time>2026-05-01T13:20:32.996Z</time></trkpt><trkpt lat="44.86350260850128" lon="8.964793478917336"><ele>394.0</ele><time>2026-05-01T13:20:33.996Z</time></trkpt><trkpt lat="44.86343227472693" lon="8.9648987788828"><ele>394.0</ele><time>2026-05-01T13:20:34.996Z</time></trkpt><trkpt lat="44.86336530912636" lon="8.96501745310355"><ele>394.2</ele><time>2026-05-01T13:20:35.996Z</time></trkpt><trkpt lat="44.86331153071306" lon="8.965143521713788"><ele>394.4</ele><time>2026-05-01T13:20:36.996Z</time></trkpt><trkpt lat="44.863249332622786" lon="8.965269292422901"><ele>394.6</ele><time>2026-05-01T13:20:38Z</time></trkpt><trkpt lat="44.863189759246595" lon="8.965393277108598"><ele>394.8</ele><time>2026-05-01T13:20:39Z</time></trkpt><trkpt lat="44.863126561514164" lon="8.965522015420419"><ele>395.0</ele><time>2026-05-01T13:20:40Z</time></trkpt><trkpt lat="44.863068209873866" lon="8.96565331604589"><ele>395.0</ele><time>2026-05-01T13:20:41Z</time></trkpt><trkpt lat="44.863007817515836" lon="8.96578355982901"><ele>395.0</ele><time>2026-05-01T13:20:42Z</time></trkpt><trkpt lat="44.86294187413606" lon="8.965903084386833"><ele>395.0</ele><time>2026-05-01T13:20:43Z</time></trkpt><trkpt lat="44.862868509555895" lon="8.96601940122667"><ele>395.0</ele><time>2026-05-01T13:20:44Z</time></trkpt><trkpt lat="44.86280306674483" lon="8.966146824302442"><ele>395.0</ele><time>2026-05-01T13:20:45Z</time></trkpt><trkpt lat="44.862755541237796" lon="8.96626928912201"><ele>395.66666666666663</ele><time>2026-05-01T13:20:46Z</time></trkpt><trkpt lat="44.862706186116405" lon="8.966345767437101"><ele>396.3333333333333</ele><time>2026-05-01T13:20:47Z</time></trkpt><trkpt lat="44.86265997057011" lon="8.966426696929746"><ele>397.0</ele><time>2026-05-01T13:20:48Z</time></trkpt><trkpt lat="44.86258696333462" lon="8.966476193443231"><ele>397.66666666666663</ele><time>2026-05-01T13:20:49Z</time></trkpt><trkpt lat="44.86251909168275" lon="8.966549386920512"><ele>398.3333333333333</ele><time>2026-05-01T13:20:50Z</time></trkpt><trkpt lat="44.862438070536896" lon="8.966673897172756"><ele>399.0</ele><time>2026-05-01T13:20:52Z</time></trkpt><trkpt lat="44.862326346630994" lon="8.966907204873097"><ele>399.0</ele><time>2026-05-01T13:20:53.999Z</time></trkpt><trkpt lat="44.86229168635726" lon="8.967000097241879"><ele>399.0</ele><time>2026-05-01T13:20:54.999Z</time></trkpt><trkpt lat="44.86225974751738" lon="8.967088454369721"><ele>399.0</ele><time>2026-05-01T13:20:55.999Z</time></trkpt><trkpt lat="44.86222972227836" lon="8.967171708651577"><ele>399.0</ele><time>2026-05-01T13:20:56.999Z</time></trkpt><trkpt lat="44.86181122114402" lon="8.967012978501982"><ele>401.25</ele><time>2026-05-01T13:20:58.999Z</time></trkpt><trkpt lat="44.86170940825939" lon="8.967026168022636"><ele>403.5</ele><time>2026-05-01T13:20:59.999Z</time></trkpt><trkpt lat="44.861596977275525" lon="8.967048956126385"><ele>405.75</ele><time>2026-05-01T13:21:00.999Z</time></trkpt><trkpt lat="44.86147402139266" lon="8.967080312095382"><ele>408.0</ele><time>2026-05-01T13:21:01.999Z</time></trkpt><trkpt lat="44.86136579751244" lon="8.967114899404"><ele>408.0</ele><time>2026-05-01T13:21:02.999Z</time></trkpt><trkpt lat="44.861261166222796" lon="8.967165358482124"><ele>408.0</ele><time>2026-05-01T13:21:03.999Z</time></trkpt><trkpt lat="44.86115577045253" lon="8.967239398941581"><ele>408.0</ele><time>2026-05-01T13:21:04.999Z</time></trkpt><trkpt lat="44.861053886207124" lon="8.96732071301017"><ele>408.0</ele><time>2026-05-01T13:21:05.999Z</time></trkpt><trkpt lat="44.8609579369468" lon="8.96741039571883"><ele>408.2</ele><time>2026-05-01T13:21:06.999Z</time></trkpt><trkpt lat="44.86087186100565" lon="8.967498036020013"><ele>408.4</ele><time>2026-05-01T13:21:07.999Z</time></trkpt><trkpt lat="44.86078974340245" lon="8.967613145746887"><ele>408.59999999999997</ele><time>2026-05-01T13:21:08.999Z</time></trkpt><trkpt lat="44.86071918287643" lon="8.967725839654644"><ele>408.79999999999995</ele><time>2026-05-01T13:21:09.999Z</time></trkpt><trkpt lat="44.86065351824447" lon="8.967827673774588"><ele>409.0</ele><time>2026-05-01T13:21:10.999Z</time></trkpt><trkpt lat="44.86058591597632" lon="8.967917220184741"><ele>409.0</ele><time>2026-05-01T13:21:11.999Z</time></trkpt><trkpt lat="44.860535225590795" lon="8.96797642844067"><ele>409.0</ele><time>2026-05-01T13:21:12.999Z</time></trkpt><trkpt lat="44.86046671192832" lon="8.967995646652962"><ele>409.0</ele><time>2026-05-01T13:21:14.999Z</time></trkpt><trkpt lat="44.86038483482634" lon="8.967917213654056"><ele>409.0</ele><time>2026-05-01T13:21:16.999Z</time></trkpt><trkpt lat="44.860306992480446" lon="8.967806777706343"><ele>409.0</ele><time>2026-05-01T13:21:18.999Z</time></trkpt><trkpt lat="44.86022696375814" lon="8.967701203648781"><ele>409.0</ele><time>2026-05-01T13:21:20.999Z</time></trkpt><trkpt lat="44.86015380027129" lon="8.967570296920035"><ele>409.0</ele><time>2026-05-01T13:21:22.999Z</time></trkpt><trkpt lat="44.86008871681798" lon="8.967436847068987"><ele>409.0</ele><time>2026-05-01T13:21:24.999Z</time></trkpt><trkpt lat="44.86002806301507" lon="8.967318328546442"><ele>409.0</ele><time>2026-05-01T13:21:26.998Z</time></trkpt><trkpt lat="44.85998537737603" lon="8.967234431435072"><ele>409.0</ele><time>2026-05-01T13:21:28.998Z</time></trkpt><trkpt lat="44.859941143088925" lon="8.967133511182821"><ele>409.50000000000006</ele><time>2026-05-01T13:21:30.998Z</time></trkpt><trkpt lat="44.85987434604322" lon="8.966990799808192"><ele>410.0</ele><time>2026-05-01T13:21:32.998Z</time></trkpt><trkpt lat="44.85983954269087" lon="8.966912209684299"><ele>410.5</ele><time>2026-05-01T13:21:33.998Z</time></trkpt><trkpt lat="44.85979068933268" lon="8.96674530709583"><ele>411.0</ele><time>2026-05-01T13:21:35.998Z</time></trkpt><trkpt lat="44.85977270345778" lon="8.966659108052228"><ele>411.50000000000006</ele><time>2026-05-01T13:21:36.998Z</time></trkpt><trkpt lat="44.85975631020804" lon="8.966566893430553"><ele>412.0</ele><time>2026-05-01T13:21:37.998Z</time></trkpt><trkpt lat="44.859751876542425" lon="8.96646900300887"><ele>412.0</ele><time>2026-05-01T13:21:38.998Z</time></trkpt><trkpt lat="44.85975731116683" lon="8.966363860081753"><ele>412.0</ele><time>2026-05-01T13:21:39.998Z</time></trkpt><trkpt lat="44.85975297324622" lon="8.966223443661153"><ele>412.0</ele><time>2026-05-01T13:21:40.998Z</time></trkpt><trkpt lat="44.85973070133313" lon="8.966061987110326"><ele>412.0</ele><time>2026-05-01T13:21:41.998Z</time></trkpt><trkpt lat="44.859714597806835" lon="8.965923341019645"><ele>412.0</ele><time>2026-05-01T13:21:42.998Z</time></trkpt><trkpt lat="44.85970460327981" lon="8.965795064113514"><ele>411.50000000000006</ele><time>2026-05-01T13:21:43.998Z</time></trkpt><trkpt lat="44.859703959861704" lon="8.965665055798137"><ele>411.0</ele><time>2026-05-01T13:21:44.998Z</time></trkpt><trkpt lat="44.85969204006429" lon="8.965564087854935"><ele>410.5</ele><time>2026-05-01T13:21:45.998Z</time></trkpt><trkpt lat="44.85967801967037" lon="8.965443148084402"><ele>410.0</ele><time>2026-05-01T13:21:46.998Z</time></trkpt><trkpt lat="44.859650243051476" lon="8.965337232121861"><ele>409.50000000000006</ele><time>2026-05-01T13:21:47.998Z</time></trkpt><trkpt lat="44.85962024728925" lon="8.96523550042796"><ele>409.0</ele><time>2026-05-01T13:21:48.998Z</time></trkpt><trkpt lat="44.85958529860709" lon="8.96513028362985"><ele>408.33333333333337</ele><time>2026-05-01T13:21:49.998Z</time></trkpt><trkpt lat="44.859554950704755" lon="8.965028456271208"><ele>407.6666666666667</ele><time>2026-05-01T13:21:50.998Z</time></trkpt><trkpt lat="44.8595231322645" lon="8.96490490743982"><ele>407.0</ele><time>2026-05-01T13:21:51.998Z</time></trkpt><trkpt lat="44.85950925424607" lon="8.964790848594044"><ele>406.33333333333337</ele><time>2026-05-01T13:21:52.998Z</time></trkpt><trkpt lat="44.85948647259264" lon="8.964701478498487"><ele>405.6666666666667</ele><time>2026-05-01T13:21:53.998Z</time></trkpt><trkpt lat="44.85945215788954" lon="8.964599321686007"><ele>405.0</ele><time>2026-05-01T13:21:54.998Z</time></trkpt><trkpt lat="44.859408418451075" lon="8.964508039345562"><ele>405.0</ele><time>2026-05-01T13:21:55.998Z</time></trkpt><trkpt lat="44.859373582016005" lon="8.964410313047876"><ele>405.0</ele><time>2026-05-01T13:21:56.998Z</time></trkpt><trkpt lat="44.85938819445867" lon="8.964294915687525"><ele>405.0</ele><time>2026-05-01T13:21:58.998Z</time></trkpt><trkpt lat="44.859445743681775" lon="8.964250708447338"><ele>405.0</ele><time>2026-05-01T13:22:00.997Z</time></trkpt><trkpt lat="44.859467952415024" lon="8.964134426211139"><ele>405.0</ele><time>2026-05-01T13:22:02.997Z</time></trkpt><trkpt lat="44.8594670792677" lon="8.964002834820098"><ele>405.0</ele><time>2026-05-01T13:22:04.997Z</time></trkpt><trkpt lat="44.85941728082954" lon="8.9638349051336"><ele>403.6666666666667</ele><time>2026-05-01T13:22:06.997Z</time></trkpt><trkpt lat="44.859385051126566" lon="8.96374435286478"><ele>402.33333333333337</ele><time>2026-05-01T13:22:07.997Z</time></trkpt><trkpt lat="44.85935111591706" lon="8.963645614680184"><ele>401.0</ele><time>2026-05-01T13:22:08.997Z</time></trkpt><trkpt lat="44.85932258130009" lon="8.963531122541932"><ele>399.6666666666667</ele><time>2026-05-01T13:22:09.997Z</time></trkpt><trkpt lat="44.85930375126639" lon="8.963437312874412"><ele>398.33333333333337</ele><time>2026-05-01T13:22:10.997Z</time></trkpt><trkpt lat="44.85928411286599" lon="8.963321626557926"><ele>397.0</ele><time>2026-05-01T13:22:11.997Z</time></trkpt><trkpt lat="44.8592778955942" lon="8.96317651710382"><ele>396.00000000000006</ele><time>2026-05-01T13:22:12.997Z</time></trkpt><trkpt lat="44.859279595953936" lon="8.963066596370393"><ele>395.0</ele><time>2026-05-01T13:22:13.997Z</time></trkpt><trkpt lat="44.85928494654618" lon="8.962963241928598"><ele>394.0</ele><time>2026-05-01T13:22:14.997Z</time></trkpt><trkpt lat="44.859291484306446" lon="8.962869646355262"><ele>393.0</ele><time>2026-05-01T13:22:15.997Z</time></trkpt><trkpt lat="44.85930135367293" lon="8.962777441362029"><ele>392.00000000000006</ele><time>2026-05-01T13:22:16.997Z</time></trkpt><trkpt lat="44.859280907325754" lon="8.96266561357053"><ele>391.0</ele><time>2026-05-01T13:22:18.997Z</time></trkpt><trkpt lat="44.8592348890977" lon="8.962557210654152"><ele>391.00000000000006</ele><time>2026-05-01T13:22:20.997Z</time></trkpt><trkpt lat="44.859152386325064" lon="8.962573856526191"><ele>391.0</ele><time>2026-05-01T13:22:22.997Z</time></trkpt><trkpt lat="44.85909032526373" lon="8.962627284685263"><ele>391.0</ele><time>2026-05-01T13:22:23.997Z</time></trkpt><trkpt lat="44.859015374493914" lon="8.96268804561955"><ele>391.0</ele><time>2026-05-01T13:22:24.997Z</time></trkpt><trkpt lat="44.85893993102293" lon="8.962737669921287"><ele>391.00000000000006</ele><time>2026-05-01T13:22:25.997Z</time></trkpt><trkpt lat="44.858866619376975" lon="8.9627856676207"><ele>391.0</ele><time>2026-05-01T13:22:26.997Z</time></trkpt><trkpt lat="44.85879273804753" lon="8.962830754584223"><ele>390.99999999999994</ele><time>2026-05-01T13:22:27.997Z</time></trkpt><trkpt lat="44.858718292118326" lon="8.962874611403638"><ele>391.0</ele><time>2026-05-01T13:22:28.997Z</time></trkpt><trkpt lat="44.85864871038577" lon="8.962914725591883"><ele>391.0</ele><time>2026-05-01T13:22:29.997Z</time></trkpt><trkpt lat="44.858586301882795" lon="8.962956448915715"><ele>391.0</ele><time>2026-05-01T13:22:30.997Z</time></trkpt><trkpt lat="44.858524532795805" lon="8.96299785755866"><ele>391.0</ele><time>2026-05-01T13:22:31.997Z</time></trkpt><trkpt lat="44.858442526021776" lon="8.96303509003706"><ele>390.99999999999994</ele><time>2026-05-01T13:22:32.996Z</time></trkpt><trkpt lat="44.85837969518686" lon="8.963074444824747"><ele>391.0</ele><time>2026-05-01T13:22:33.996Z</time></trkpt><trkpt lat="44.85824361085563" lon="8.963160291537585"><ele>389.83333333333337</ele><time>2026-05-01T13:22:35.996Z</time></trkpt><trkpt lat="44.85816021928287" lon="8.963192424886845"><ele>388.6666666666667</ele><time>2026-05-01T13:22:36.996Z</time></trkpt><trkpt lat="44.858096090748326" lon="8.963230326808857"><ele>387.5</ele><time>2026-05-01T13:22:37.996Z</time></trkpt><trkpt lat="44.85799794390036" lon="8.963292303019339"><ele>386.33333333333337</ele><time>2026-05-01T13:22:39.996Z</time></trkpt><trkpt lat="44.85793785039573" lon="8.963343419322793"><ele>385.1666666666667</ele><time>2026-05-01T13:22:41.996Z</time></trkpt><trkpt lat="44.85794499738387" lon="8.96345492473915"><ele>384.0</ele><time>2026-05-01T13:22:46Z</time></trkpt><trkpt lat="44.85799603673159" lon="8.963511076883298"><ele>382.4</ele><time>2026-05-01T13:22:47Z</time></trkpt><trkpt lat="44.858078822016985" lon="8.96356762548737"><ele>380.79999999999995</ele><time>2026-05-01T13:22:48Z</time></trkpt><trkpt lat="44.85815115602283" lon="8.963632622764608"><ele>379.20000000000005</ele><time>2026-05-01T13:22:49Z</time></trkpt><trkpt lat="44.85821930259772" lon="8.963705583007956"><ele>377.6</ele><time>2026-05-01T13:22:50Z</time></trkpt><trkpt lat="44.858297864824934" lon="8.963787774687821"><ele>376.0</ele><time>2026-05-01T13:22:51Z</time></trkpt><trkpt lat="44.85836891286146" lon="8.963868852032487"><ele>376.0</ele><time>2026-05-01T13:22:52Z</time></trkpt><trkpt lat="44.858423621750454" lon="8.963965253601243"><ele>376.0</ele><time>2026-05-01T13:22:53Z</time></trkpt><trkpt lat="44.85846968663645" lon="8.964088148175831"><ele>376.0</ele><time>2026-05-01T13:22:54Z</time></trkpt><trkpt lat="44.85849096894391" lon="8.964216060883881"><ele>376.0</ele><time>2026-05-01T13:22:55Z</time></trkpt><trkpt lat="44.85850958238324" lon="8.964346090127435"><ele>376.0</ele><time>2026-05-01T13:22:56Z</time></trkpt><trkpt lat="44.85852639850642" lon="8.964463806865355"><ele>379.3333333333333</ele><time>2026-05-01T13:22:57Z</time></trkpt><trkpt lat="44.85855092854114" lon="8.96457378860247"><ele>382.66666666666663</ele><time>2026-05-01T13:22:58Z</time></trkpt><trkpt lat="44.85856999647943" lon="8.964672754078157"><ele>386.0</ele><time>2026-05-01T13:22:59Z</time></trkpt><trkpt lat="44.85858286230654" lon="8.964761477651475"><ele>389.3333333333333</ele><time>2026-05-01T13:23:00Z</time></trkpt><trkpt lat="44.85859721656587" lon="8.964877884709438"><ele>392.6666666666667</ele><time>2026-05-01T13:23:01Z</time></trkpt><trkpt lat="44.85858622030693" lon="8.964994492611812"><ele>396.0</ele><time>2026-05-01T13:23:01.999Z</time></trkpt><trkpt lat="44.85859266393376" lon="8.96514301866123"><ele>396.0</ele><time>2026-05-01T13:23:02.999Z</time></trkpt><trkpt lat="44.85858160763069" lon="8.965286015595154"><ele>396.0</ele><time>2026-05-01T13:23:03.999Z</time></trkpt><trkpt lat="44.85858108094825" lon="8.965412181550002"><ele>396.0</ele><time>2026-05-01T13:23:04.999Z</time></trkpt><trkpt lat="44.858591793195984" lon="8.96554042189298"><ele>396.0</ele><time>2026-05-01T13:23:05.999Z</time></trkpt><trkpt lat="44.85862905701962" lon="8.965675592219135"><ele>396.0</ele><time>2026-05-01T13:23:06.999Z</time></trkpt><trkpt lat="44.85868269089466" lon="8.96580191557476"><ele>395.4</ele><time>2026-05-01T13:23:07.999Z</time></trkpt><trkpt lat="44.858754316518585" lon="8.965917855171101"><ele>394.8</ele><time>2026-05-01T13:23:08.999Z</time></trkpt><trkpt lat="44.858818946400525" lon="8.966038504918973"><ele>394.2</ele><time>2026-05-01T13:23:09.999Z</time></trkpt><trkpt lat="44.858865268844745" lon="8.966172188736474"><ele>393.59999999999997</ele><time>2026-05-01T13:23:10.999Z</time></trkpt><trkpt lat="44.85890148057683" lon="8.966310033339902"><ele>393.0</ele><time>2026-05-01T13:23:11.999Z</time></trkpt><trkpt lat="44.85893178205456" lon="8.966450435527072"><ele>393.0</ele><time>2026-05-01T13:23:12.999Z</time></trkpt><trkpt lat="44.858953226004814" lon="8.966579702193615"><ele>393.0</ele><time>2026-05-01T13:23:13.999Z</time></trkpt><trkpt lat="44.85895268545226" lon="8.966684946595807"><ele>393.0</ele><time>2026-05-01T13:23:14.999Z</time></trkpt><trkpt lat="44.85893849891485" lon="8.966825395477118"><ele>393.0</ele><time>2026-05-01T13:23:16.999Z</time></trkpt><trkpt lat="44.85894689864596" lon="8.966920992686243"><ele>393.0</ele><time>2026-05-01T13:23:18.999Z</time></trkpt><trkpt lat="44.85879817822221" lon="8.966984298375014"><ele>393.0</ele><time>2026-05-01T13:23:21.999Z</time></trkpt><trkpt lat="44.85874094112802" lon="8.96692684501487"><ele>393.0</ele><time>2026-05-01T13:23:22.999Z</time></trkpt><trkpt lat="44.85869521893243" lon="8.966846284697285"><ele>393.0</ele><time>2026-05-01T13:23:23.999Z</time></trkpt><trkpt lat="44.85867263862639" lon="8.966687911214215"><ele>393.0</ele><time>2026-05-01T13:23:25.999Z</time></trkpt><trkpt lat="44.858697148800005" lon="8.966605225924324"><ele>393.0</ele><time>2026-05-01T13:23:26.999Z</time></trkpt><trkpt lat="44.85866619596158" lon="8.966478932571839"><ele>393.0</ele><time>2026-05-01T13:23:28.999Z</time></trkpt><trkpt lat="44.85859859666557" lon="8.966458494745263"><ele>393.0</ele><time>2026-05-01T13:23:29.999Z</time></trkpt><trkpt lat="44.858521141676114" lon="8.966446707927094"><ele>393.0</ele><time>2026-05-01T13:23:30.999Z</time></trkpt><trkpt lat="44.85846048523078" lon="8.966406657943677"><ele>393.0</ele><time>2026-05-01T13:23:31.999Z</time></trkpt><trkpt lat="44.8583698394882" lon="8.966451607611976"><ele>393.0</ele><time>2026-05-01T13:23:33.998Z</time></trkpt><trkpt lat="44.85835871766224" lon="8.966548628811225"><ele>393.0</ele><time>2026-05-01T13:23:34.998Z</time></trkpt><trkpt lat="44.858374660509504" lon="8.966681154985517"><ele>393.0</ele><time>2026-05-01T13:23:35.998Z</time></trkpt><trkpt lat="44.858388841510326" lon="8.9667795322648"><ele>392.42857142857144</ele><time>2026-05-01T13:23:36.998Z</time></trkpt><trkpt lat="44.858402609311504" lon="8.966889140054125"><ele>391.8571428571429</ele><time>2026-05-01T13:23:37.998Z</time></trkpt><trkpt lat="44.85841480235147" lon="8.966980377323594"><ele>391.28571428571433</ele><time>2026-05-01T13:23:38.998Z</time></trkpt><trkpt lat="44.85844045388594" lon="8.967101753382673"><ele>390.7142857142857</ele><time>2026-05-01T13:23:39.998Z</time></trkpt><trkpt lat="44.85844888996786" lon="8.967196335193862"><ele>390.1428571428571</ele><time>2026-05-01T13:23:40.998Z</time></trkpt><trkpt lat="44.858475926575444" lon="8.967299528185498"><ele>389.5714285714286</ele><time>2026-05-01T13:23:41.998Z</time></trkpt><trkpt lat="44.858491606408435" lon="8.96739442678755"><ele>389.0</ele><time>2026-05-01T13:23:42.998Z</time></trkpt><trkpt lat="44.85850793873485" lon="8.967506504060475"><ele>386.99999999999994</ele><time>2026-05-01T13:23:43.998Z</time></trkpt><trkpt lat="44.85853279306977" lon="8.967621711926482"><ele>385.0</ele><time>2026-05-01T13:23:44.998Z</time></trkpt><trkpt lat="44.85853641773702" lon="8.967726904682053"><ele>383.0</ele><time>2026-05-01T13:23:45.998Z</time></trkpt><trkpt lat="44.85854828400677" lon="8.967850824635924"><ele>381.0</ele><time>2026-05-01T13:23:46.998Z</time></trkpt><trkpt lat="44.85854363162734" lon="8.967941161383388"><ele>379.0</ele><time>2026-05-01T13:23:47.998Z</time></trkpt><trkpt lat="44.85856609357406" lon="8.968049804951857"><ele>377.0</ele><time>2026-05-01T13:23:48.998Z</time></trkpt><trkpt lat="44.85858060205789" lon="8.968148352533419"><ele>377.0</ele><time>2026-05-01T13:23:49.998Z</time></trkpt><trkpt lat="44.858610441387626" lon="8.968303029629281"><ele>377.0</ele><time>2026-05-01T13:23:51.998Z</time></trkpt><trkpt lat="44.85866448306952" lon="8.968484346830438"><ele>377.0</ele><time>2026-05-01T13:23:53.998Z</time></trkpt><trkpt lat="44.85869384033029" lon="8.968585531605122"><ele>377.0</ele><time>2026-05-01T13:23:54.998Z</time></trkpt><trkpt lat="44.85871796992919" lon="8.968685765174753"><ele>377.0</ele><time>2026-05-01T13:23:55.998Z</time></trkpt><trkpt lat="44.85873679390406" lon="8.968776748958835"><ele>375.2857142857143</ele><time>2026-05-01T13:23:56.998Z</time></trkpt><trkpt lat="44.85876181995109" lon="8.968860084313263"><ele>373.57142857142856</ele><time>2026-05-01T13:23:57.998Z</time></trkpt><trkpt lat="44.8587845356155" lon="8.968959905397304"><ele>371.8571428571429</ele><time>2026-05-01T13:23:59.998Z</time></trkpt><trkpt lat="44.85881557857122" lon="8.969039382583581"><ele>370.1428571428571</ele><time>2026-05-01T13:24:02.998Z</time></trkpt><trkpt lat="44.85884839584031" lon="8.969124681135636"><ele>368.42857142857144</ele><time>2026-05-01T13:24:04.998Z</time></trkpt><trkpt lat="44.858855106673154" lon="8.969259622042852"><ele>366.7142857142857</ele><time>2026-05-01T13:24:06.997Z</time></trkpt><trkpt lat="44.85887392023283" lon="8.969368684136095"><ele>365.0</ele><time>2026-05-01T13:24:07.997Z</time></trkpt><trkpt lat="44.858883963272206" lon="8.969470687038887"><ele>363.4</ele><time>2026-05-01T13:24:08.997Z</time></trkpt><trkpt lat="44.85888276745322" lon="8.96961863177251"><ele>361.8</ele><time>2026-05-01T13:24:10.997Z</time></trkpt><trkpt lat="44.85886899856696" lon="8.969770161060167"><ele>360.20000000000005</ele><time>2026-05-01T13:24:12.997Z</time></trkpt><trkpt lat="44.85885511603142" lon="8.969863692335585"><ele>358.6</ele><time>2026-05-01T13:24:13.997Z</time></trkpt><trkpt lat="44.85883390307244" lon="8.970029745930454"><ele>357.0</ele><time>2026-05-01T13:24:15.997Z</time></trkpt><trkpt lat="44.85885155023932" lon="8.970194121089364"><ele>356.8</ele><time>2026-05-01T13:24:17.997Z</time></trkpt><trkpt lat="44.85886522623689" lon="8.970306053735758"><ele>356.6</ele><time>2026-05-01T13:24:19.997Z</time></trkpt><trkpt lat="44.858875279515345" lon="8.970430987634597"><ele>356.40000000000003</ele><time>2026-05-01T13:24:21.997Z</time></trkpt><trkpt lat="44.85886559743669" lon="8.97058504994272"><ele>356.20000000000005</ele><time>2026-05-01T13:24:23.997Z</time></trkpt><trkpt lat="44.85886214580735" lon="8.970709246211587"><ele>356.0</ele><time>2026-05-01T13:24:25.997Z</time></trkpt><trkpt lat="44.858765655519356" lon="8.970771173253315"><ele>356.0</ele><time>2026-05-01T13:24:28.997Z</time></trkpt><trkpt lat="44.85868237092216" lon="8.970738286431986"><ele>356.0</ele><time>2026-05-01T13:24:30.997Z</time></trkpt><trkpt lat="44.85857433115887" lon="8.970711763932085"><ele>356.0</ele><time>2026-05-01T13:24:32.997Z</time></trkpt><trkpt lat="44.85850255573618" lon="8.97060315237735"><ele>356.0</ele><time>2026-05-01T13:24:34.997Z</time></trkpt><trkpt lat="44.858410862446135" lon="8.970534501205089"><ele>356.0</ele><time>2026-05-01T13:24:36.997Z</time></trkpt><trkpt lat="44.85831093162227" lon="8.97044771321009"><ele>353.4</ele><time>2026-05-01T13:24:38.997Z</time></trkpt><trkpt lat="44.85822488234541" lon="8.97042252392045"><ele>350.8</ele><time>2026-05-01T13:24:40.996Z</time></trkpt><trkpt lat="44.85810050044965" lon="8.970329122957567"><ele>348.2</ele><time>2026-05-01T13:24:42.996Z</time></trkpt><trkpt lat="44.858005177564266" lon="8.970252449607614"><ele>345.59999999999997</ele><time>2026-05-01T13:24:44.996Z</time></trkpt><trkpt lat="44.85794549566409" lon="8.970190165052685"><ele>343.0</ele><time>2026-05-01T13:24:46.996Z</time></trkpt><trkpt lat="44.85786951026331" lon="8.970185764724377"><ele>343.0</ele><time>2026-05-01T13:24:48.996Z</time></trkpt><trkpt lat="44.85778380437295" lon="8.970253124310917"><ele>343.0</ele><time>2026-05-01T13:24:51Z</time></trkpt><trkpt lat="44.85774856951278" lon="8.970328928003173"><ele>343.0</ele><time>2026-05-01T13:24:52Z</time></trkpt><trkpt lat="44.85767742472001" lon="8.970471851617942"><ele>343.0</ele><time>2026-05-01T13:24:54Z</time></trkpt><trkpt lat="44.85757826863372" lon="8.970591348237473"><ele>343.0</ele><time>2026-05-01T13:24:56Z</time></trkpt><trkpt lat="44.85751495040241" lon="8.97066101520419"><ele>345.0</ele><time>2026-05-01T13:24:57Z</time></trkpt><trkpt lat="44.85745430576682" lon="8.970731645967193"><ele>347.0</ele><time>2026-05-01T13:24:58Z</time></trkpt><trkpt lat="44.85740617966055" lon="8.970800485911886"><ele>349.0</ele><time>2026-05-01T13:24:59Z</time></trkpt><trkpt lat="44.85736791184485" lon="8.970881206517586"><ele>351.0</ele><time>2026-05-01T13:25:00Z</time></trkpt><trkpt lat="44.857331340626146" lon="8.970977779404103"><ele>353.0</ele><time>2026-05-01T13:25:01Z</time></trkpt><trkpt lat="44.85728405694133" lon="8.971083315609947"><ele>355.0</ele><time>2026-05-01T13:25:02Z</time></trkpt><trkpt lat="44.85722828864198" lon="8.97119605214331"><ele>358.3333333333333</ele><time>2026-05-01T13:25:03Z</time></trkpt><trkpt lat="44.857174910737115" lon="8.971294019253365"><ele>361.66666666666663</ele><time>2026-05-01T13:25:04Z</time></trkpt><trkpt lat="44.857098881677025" lon="8.971373117460375"><ele>365.0</ele><time>2026-05-01T13:25:06Z</time></trkpt><trkpt lat="44.85705907453392" lon="8.971456510794106"><ele>368.3333333333333</ele><time>2026-05-01T13:25:08Z</time></trkpt><trkpt lat="44.857031265670884" lon="8.971561375230793"><ele>371.6666666666667</ele><time>2026-05-01T13:25:09.999Z</time></trkpt><trkpt lat="44.85701853199385" lon="8.971659034516888"><ele>375.0</ele><time>2026-05-01T13:25:11.999Z</time></trkpt><trkpt lat="44.85699052619899" lon="8.971801112031144"><ele>377.0</ele><time>2026-05-01T13:25:19.999Z</time></trkpt><trkpt lat="44.85698860447048" lon="8.971911754767483"><ele>379.0</ele><time>2026-05-01T13:25:21.999Z</time></trkpt><trkpt lat="44.857050615200635" lon="8.972044368430257"><ele>381.0</ele><time>2026-05-01T13:25:23.999Z</time></trkpt><trkpt lat="44.85709235294814" lon="8.972134402694095"><ele>383.0</ele><time>2026-05-01T13:25:24.999Z</time></trkpt><trkpt lat="44.857136950854525" lon="8.972225487810933"><ele>385.0</ele><time>2026-05-01T13:25:25.999Z</time></trkpt><trkpt lat="44.85718078335966" lon="8.97231468122096"><ele>387.0</ele><time>2026-05-01T13:25:26.999Z</time></trkpt><trkpt lat="44.85722218810741" lon="8.972402375215449"><ele>388.0</ele><time>2026-05-01T13:25:27.999Z</time></trkpt><trkpt lat="44.85728740335858" lon="8.97252827637462"><ele>389.0</ele><time>2026-05-01T13:25:29.999Z</time></trkpt><trkpt lat="44.85737877063655" lon="8.972596999466838"><ele>390.0</ele><time>2026-05-01T13:25:31.999Z</time></trkpt><trkpt lat="44.85745106486253" lon="8.972632643540111"><ele>391.0</ele><time>2026-05-01T13:25:33.999Z</time></trkpt><trkpt lat="44.85751391377212" lon="8.972689181784418"><ele>392.0</ele><time>2026-05-01T13:25:34.999Z</time></trkpt><trkpt lat="44.85757554364858" lon="8.972779608307748"><ele>391.99999999999994</ele><time>2026-05-01T13:25:35.999Z</time></trkpt><trkpt lat="44.857615888735694" lon="8.972875412189357"><ele>392.0</ele><time>2026-05-01T13:25:36.999Z</time></trkpt><trkpt lat="44.857643012667744" lon="8.97297646960474"><ele>392.0</ele><time>2026-05-01T13:25:37.999Z</time></trkpt><trkpt lat="44.85765874618884" lon="8.973091297141789"><ele>392.0</ele><time>2026-05-01T13:25:38.999Z</time></trkpt><trkpt lat="44.857672017400205" lon="8.973218292878222"><ele>391.99999999999994</ele><time>2026-05-01T13:25:39.999Z</time></trkpt><trkpt lat="44.85768408281548" lon="8.973338166883112"><ele>392.0</ele><time>2026-05-01T13:25:40.999Z</time></trkpt><trkpt lat="44.85770908898153" lon="8.973449937971964"><ele>391.8333333333333</ele><time>2026-05-01T13:25:41.998Z</time></trkpt><trkpt lat="44.85775201689187" lon="8.973540923070386"><ele>391.66666666666663</ele><time>2026-05-01T13:25:42.998Z</time></trkpt><trkpt lat="44.85782301060636" lon="8.973629886528217"><ele>391.5</ele><time>2026-05-01T13:25:43.998Z</time></trkpt><trkpt lat="44.857898072424994" lon="8.973713980471965"><ele>391.33333333333337</ele><time>2026-05-01T13:25:44.998Z</time></trkpt><trkpt lat="44.85797680993006" lon="8.973775013832583"><ele>391.1666666666667</ele><time>2026-05-01T13:25:45.998Z</time></trkpt><trkpt lat="44.858039663633356" lon="8.97381904117404"><ele>391.0</ele><time>2026-05-01T13:25:46.998Z</time></trkpt><trkpt lat="44.85813645145046" lon="8.973870420117185"><ele>391.00000000000006</ele><time>2026-05-01T13:25:48.998Z</time></trkpt><trkpt lat="44.85819032050412" lon="8.973947652903886"><ele>391.0</ele><time>2026-05-01T13:26:15.997Z</time></trkpt><trkpt lat="44.85813428262711" lon="8.973844374179391"><ele>391.0</ele><time>2026-05-01T13:26:21.997Z</time></trkpt><trkpt lat="44.85806979955581" lon="8.97382768976646"><ele>391.0</ele><time>2026-05-01T13:26:22.997Z</time></trkpt><trkpt lat="44.858005854509166" lon="8.97378752129421"><ele>391.00000000000006</ele><time>2026-05-01T13:26:23.997Z</time></trkpt><trkpt lat="44.857941842025376" lon="8.9737418651665"><ele>391.0</ele><time>2026-05-01T13:26:24.997Z</time></trkpt><trkpt lat="44.85787753371303" lon="8.973683945754166"><ele>391.00000000000006</ele><time>2026-05-01T13:26:25.997Z</time></trkpt><trkpt lat="44.85781771067656" lon="8.973610562672674"><ele>391.0</ele><time>2026-05-01T13:26:26.997Z</time></trkpt><trkpt lat="44.85778049664296" lon="8.973536756820724"><ele>391.0</ele><time>2026-05-01T13:26:27.997Z</time></trkpt><trkpt lat="44.85772805361126" lon="8.973445801339329"><ele>391.0</ele><time>2026-05-01T13:26:28.997Z</time></trkpt><trkpt lat="44.85768780267274" lon="8.973369485876102"><ele>391.00000000000006</ele><time>2026-05-01T13:26:29.997Z</time></trkpt><trkpt lat="44.857656875787974" lon="8.97326066406333"><ele>391.0</ele><time>2026-05-01T13:26:30.997Z</time></trkpt><trkpt lat="44.85764349193899" lon="8.973131068628986"><ele>391.20000000000005</ele><time>2026-05-01T13:26:31.997Z</time></trkpt><trkpt lat="44.85763660845716" lon="8.973021319467152"><ele>391.40000000000003</ele><time>2026-05-01T13:26:32.997Z</time></trkpt><trkpt lat="44.85762256705669" lon="8.972917579306458"><ele>391.6</ele><time>2026-05-01T13:26:33.997Z</time></trkpt><trkpt lat="44.85758320675195" lon="8.97280231983763"><ele>391.8</ele><time>2026-05-01T13:26:34.997Z</time></trkpt><trkpt lat="44.857498546553146" lon="8.972667859849341"><ele>392.0</ele><time>2026-05-01T13:26:36.997Z</time></trkpt><trkpt lat="44.85739510277065" lon="8.972570453048556"><ele>392.0</ele><time>2026-05-01T13:26:38.997Z</time></trkpt><trkpt lat="44.85729834576286" lon="8.97259266304685"><ele>392.0</ele><time>2026-05-01T13:26:46.996Z</time></trkpt><trkpt lat="44.85720667657017" lon="8.972597014262483"><ele>392.0</ele><time>2026-05-01T13:26:48.996Z</time></trkpt><trkpt lat="44.857123736994" lon="8.972643508687126"><ele>392.0</ele><time>2026-05-01T13:26:50.996Z</time></trkpt><trkpt lat="44.857030599874506" lon="8.972718419459238"><ele>392.0</ele><time>2026-05-01T13:26:52.996Z</time></trkpt><trkpt lat="44.85692586380424" lon="8.972790978223363"><ele>391.99999999999994</ele><time>2026-05-01T13:26:54.996Z</time></trkpt><trkpt lat="44.85686222453196" lon="8.972823081575674"><ele>392.0</ele><time>2026-05-01T13:26:56Z</time></trkpt><trkpt lat="44.85672889705098" lon="8.972859323494387"><ele>392.0</ele><time>2026-05-01T13:26:58Z</time></trkpt><trkpt lat="44.85665998131904" lon="8.972864472468336"><ele>392.0</ele><time>2026-05-01T13:26:59Z</time></trkpt><trkpt lat="44.85659322392744" lon="8.972872201474821"><ele>391.99999999999994</ele><time>2026-05-01T13:27:00Z</time></trkpt><trkpt lat="44.85650485129563" lon="8.972871816361764"><ele>392.0</ele><time>2026-05-01T13:27:01Z</time></trkpt><trkpt lat="44.85642493039423" lon="8.972851767607757"><ele>394.0</ele><time>2026-05-01T13:27:02Z</time></trkpt><trkpt lat="44.856358758104186" lon="8.972821847099372"><ele>396.0</ele><time>2026-05-01T13:27:03Z</time></trkpt><trkpt lat="44.85628825094034" lon="8.972816538976772"><ele>398.0</ele><time>2026-05-01T13:27:05Z</time></trkpt><trkpt lat="44.85614913583871" lon="8.972815291211813"><ele>400.0</ele><time>2026-05-01T13:27:07Z</time></trkpt><trkpt lat="44.8560751923564" lon="8.972838975957806"><ele>402.0</ele><time>2026-05-01T13:27:08Z</time></trkpt><trkpt lat="44.85597826952848" lon="8.97279338236156"><ele>402.0</ele><time>2026-05-01T13:27:10Z</time></trkpt><trkpt lat="44.85588555498635" lon="8.972782692466314"><ele>402.0</ele><time>2026-05-01T13:27:12Z</time></trkpt><trkpt lat="44.85599249899049" lon="8.972774538459309"><ele>402.0</ele><time>2026-05-01T13:27:21.999Z</time></trkpt><trkpt lat="44.85606995960381" lon="8.972772299235901"><ele>402.0</ele><time>2026-05-01T13:27:22.999Z</time></trkpt><trkpt lat="44.8561636319315" lon="8.97278149618861"><ele>402.0</ele><time>2026-05-01T13:27:23.999Z</time></trkpt><trkpt lat="44.85624908672861" lon="8.972794274409171"><ele>402.0</ele><time>2026-05-01T13:27:24.999Z</time></trkpt><trkpt lat="44.85632930590708" lon="8.972815166127303"><ele>402.0</ele><time>2026-05-01T13:27:25.999Z</time></trkpt><trkpt lat="44.85640723468158" lon="8.97283926338963"><ele>402.0</ele><time>2026-05-01T13:27:26.999Z</time></trkpt><trkpt lat="44.85648876346997" lon="8.972860493486081"><ele>402.0</ele><time>2026-05-01T13:27:27.999Z</time></trkpt><trkpt lat="44.856572790207885" lon="8.972874145919183"><ele>402.0</ele><time>2026-05-01T13:27:28.999Z</time></trkpt><trkpt lat="44.85665227719584" lon="8.972875813163396"><ele>402.0</ele><time>2026-05-01T13:27:29.999Z</time></trkpt><trkpt lat="44.85673618867244" lon="8.972849445085433"><ele>400.3333333333333</ele><time>2026-05-01T13:27:30.999Z</time></trkpt><trkpt lat="44.856821690805" lon="8.972825212356337"><ele>398.66666666666663</ele><time>2026-05-01T13:27:31.999Z</time></trkpt><trkpt lat="44.8568978622703" lon="8.972796958356213"><ele>397.0</ele><time>2026-05-01T13:27:32.999Z</time></trkpt><trkpt lat="44.8569687291173" lon="8.972753970851418"><ele>395.3333333333333</ele><time>2026-05-01T13:27:33.999Z</time></trkpt><trkpt lat="44.85703773072339" lon="8.972706039637902"><ele>393.66666666666663</ele><time>2026-05-01T13:27:34.999Z</time></trkpt><trkpt lat="44.857102092412525" lon="8.972656300660292"><ele>392.0</ele><time>2026-05-01T13:27:35.999Z</time></trkpt><trkpt lat="44.85716349317137" lon="8.972617889183802"><ele>392.0</ele><time>2026-05-01T13:27:36.999Z</time></trkpt><trkpt lat="44.85728096901263" lon="8.9725724514685"><ele>392.0</ele><time>2026-05-01T13:27:38.999Z</time></trkpt><trkpt lat="44.85736288490365" lon="8.972584427206566"><ele>392.0</ele><time>2026-05-01T13:27:40.999Z</time></trkpt><trkpt lat="44.85744567822761" lon="8.972612770917785"><ele>392.0</ele><time>2026-05-01T13:27:42.999Z</time></trkpt><trkpt lat="44.85753944599482" lon="8.972734636948854"><ele>392.0</ele><time>2026-05-01T13:27:44.999Z</time></trkpt><trkpt lat="44.85758903031875" lon="8.97282656805099"><ele>391.8333333333333</ele><time>2026-05-01T13:27:45.999Z</time></trkpt><trkpt lat="44.857620203491535" lon="8.972916129709567"><ele>391.66666666666663</ele><time>2026-05-01T13:27:46.999Z</time></trkpt><trkpt lat="44.85764100569299" lon="8.973027675834954"><ele>391.5</ele><time>2026-05-01T13:27:47.999Z</time></trkpt><trkpt lat="44.85765769896193" lon="8.973147881590469"><ele>391.33333333333337</ele><time>2026-05-01T13:27:48.999Z</time></trkpt><trkpt lat="44.85767244431815" lon="8.973276251836689"><ele>391.1666666666667</ele><time>2026-05-01T13:27:49.999Z</time></trkpt><trkpt lat="44.85770255541099" lon="8.973420087593784"><ele>391.0</ele><time>2026-05-01T13:27:50.998Z</time></trkpt><trkpt lat="44.85774331023114" lon="8.973514451968217"><ele>391.00000000000006</ele><time>2026-05-01T13:27:51.998Z</time></trkpt><trkpt lat="44.85778937111559" lon="8.973584413477628"><ele>391.0</ele><time>2026-05-01T13:27:52.998Z</time></trkpt><trkpt lat="44.857865191307894" lon="8.973670650069863"><ele>391.0</ele><time>2026-05-01T13:27:53.998Z</time></trkpt><trkpt lat="44.85792124736638" lon="8.97375204994255"><ele>391.0</ele><time>2026-05-01T13:27:54.998Z</time></trkpt><trkpt lat="44.85799607493699" lon="8.973796592921916"><ele>391.00000000000006</ele><time>2026-05-01T13:27:55.998Z</time></trkpt><trkpt lat="44.858099382110304" lon="8.97385443511647"><ele>391.0</ele><time>2026-05-01T13:27:57.998Z</time></trkpt><trkpt lat="44.85815401570608" lon="8.973900414246158"><ele>391.0</ele><time>2026-05-01T13:28:01.998Z</time></trkpt><trkpt lat="44.858081146290324" lon="8.973815556418398"><ele>391.0</ele><time>2026-05-01T13:28:11.998Z</time></trkpt><trkpt lat="44.857995648922206" lon="8.973781130961072"><ele>391.0</ele><time>2026-05-01T13:28:12.998Z</time></trkpt><trkpt lat="44.85791293851754" lon="8.973714778716982"><ele>391.0</ele><time>2026-05-01T13:28:13.998Z</time></trkpt><trkpt lat="44.857831222728606" lon="8.973638019355498"><ele>391.0</ele><time>2026-05-01T13:28:14.998Z</time></trkpt><trkpt lat="44.8577828555179" lon="8.973549687797435"><ele>391.00000000000006</ele><time>2026-05-01T13:28:15.998Z</time></trkpt><trkpt lat="44.85773689474151" lon="8.973459278512527"><ele>391.0</ele><time>2026-05-01T13:28:16.998Z</time></trkpt><trkpt lat="44.85768539413335" lon="8.97336906360125"><ele>391.0</ele><time>2026-05-01T13:28:17.998Z</time></trkpt><trkpt lat="44.85765418357048" lon="8.973258784081658"><ele>391.0</ele><time>2026-05-01T13:28:18.998Z</time></trkpt><trkpt lat="44.857651980506745" lon="8.973156491658587"><ele>391.00000000000006</ele><time>2026-05-01T13:28:19.998Z</time></trkpt><trkpt lat="44.85763858151391" lon="8.973027957627322"><ele>391.0</ele><time>2026-05-01T13:28:20.998Z</time></trkpt><trkpt lat="44.85761442421603" lon="8.972911306402633"><ele>391.1666666666667</ele><time>2026-05-01T13:28:21.998Z</time></trkpt><trkpt lat="44.857584542978" lon="8.972796372003824"><ele>391.33333333333337</ele><time>2026-05-01T13:28:22.998Z</time></trkpt><trkpt lat="44.85753403372673" lon="8.97270535480791"><ele>391.5</ele><time>2026-05-01T13:28:23.997Z</time></trkpt><trkpt lat="44.857483219934366" lon="8.972637291457264"><ele>391.66666666666663</ele><time>2026-05-01T13:28:24.997Z</time></trkpt><trkpt lat="44.857432482802984" lon="8.97258383000633"><ele>391.8333333333333</ele><time>2026-05-01T13:28:25.997Z</time></trkpt><trkpt lat="44.85735760441" lon="8.972552415007428"><ele>392.0</ele><time>2026-05-01T13:28:29.997Z</time></trkpt><trkpt lat="44.85728794136302" lon="8.972500786981168"><ele>391.0</ele><time>2026-05-01T13:28:32.997Z</time></trkpt><trkpt lat="44.857191547747796" lon="8.972422725870455"><ele>390.0</ele><time>2026-05-01T13:28:54.997Z</time></trkpt><trkpt lat="44.85714252654562" lon="8.972311024735976"><ele>389.0</ele><time>2026-05-01T13:28:56.996Z</time></trkpt><trkpt lat="44.85709050494227" lon="8.972182781124047"><ele>388.0</ele><time>2026-05-01T13:28:58.996Z</time></trkpt><trkpt lat="44.857029546730054" lon="8.972054271161777"><ele>387.0</ele><time>2026-05-01T13:29:01Z</time></trkpt><trkpt lat="44.856988347677756" lon="8.971969096746927"><ele>387.0</ele><time>2026-05-01T13:29:03Z</time></trkpt><trkpt lat="44.85698053805907" lon="8.971875078714156"><ele>387.0</ele><time>2026-05-01T13:29:10Z</time></trkpt><trkpt lat="44.856941181400764" lon="8.971801343294347"><ele>387.0</ele><time>2026-05-01T13:29:20Z</time></trkpt><trkpt lat="44.85687511376191" lon="8.971761713283712"><ele>387.0</ele><time>2026-05-01T13:29:23.999Z</time></trkpt><trkpt lat="44.856935402931136" lon="8.97183371894535"><ele>387.0</ele><time>2026-05-01T13:29:43.999Z</time></trkpt><trkpt lat="44.85697639366351" lon="8.971924934018197"><ele>387.0</ele><time>2026-05-01T13:29:45.999Z</time></trkpt><trkpt lat="44.857034635133836" lon="8.97208331659053"><ele>387.0</ele><time>2026-05-01T13:29:47.999Z</time></trkpt><trkpt lat="44.85707300322367" lon="8.972160704243652"><ele>387.0</ele><time>2026-05-01T13:29:48.999Z</time></trkpt><trkpt lat="44.857112915779915" lon="8.97224777583401"><ele>387.0</ele><time>2026-05-01T13:29:49.999Z</time></trkpt><trkpt lat="44.857170727201535" lon="8.972373752190283"><ele>387.0</ele><time>2026-05-01T13:29:51.999Z</time></trkpt><trkpt lat="44.85723025349023" lon="8.97246502237206"><ele>387.0</ele><time>2026-05-01T13:29:53.999Z</time></trkpt><trkpt lat="44.85730421058947" lon="8.97252540201864"><ele>387.0</ele><time>2026-05-01T13:29:55.998Z</time></trkpt><trkpt lat="44.85738693911767" lon="8.972564374928966"><ele>388.0</ele><time>2026-05-01T13:29:57.998Z</time></trkpt><trkpt lat="44.85747702781725" lon="8.972651680507564"><ele>389.0</ele><time>2026-05-01T13:30:26.998Z</time></trkpt><trkpt lat="44.85756000407541" lon="8.972779319026984"><ele>390.0</ele><time>2026-05-01T13:30:28.997Z</time></trkpt><trkpt lat="44.85760668912068" lon="8.972872492421523"><ele>391.0</ele><time>2026-05-01T13:30:29.997Z</time></trkpt><trkpt lat="44.85762651528305" lon="8.972962209432868"><ele>392.0</ele><time>2026-05-01T13:30:30.997Z</time></trkpt><trkpt lat="44.85764315611387" lon="8.97306072432314"><ele>391.8333333333333</ele><time>2026-05-01T13:30:31.997Z</time></trkpt><trkpt lat="44.8576565928644" lon="8.973162793350646"><ele>391.66666666666663</ele><time>2026-05-01T13:30:32.997Z</time></trkpt><trkpt lat="44.85767541084041" lon="8.973282305647084"><ele>391.5</ele><time>2026-05-01T13:30:33.997Z</time></trkpt><trkpt lat="44.85772609799885" lon="8.97346340255842"><ele>391.33333333333337</ele><time>2026-05-01T13:30:35.997Z</time></trkpt><trkpt lat="44.85777849732826" lon="8.973540881423396"><ele>391.1666666666667</ele><time>2026-05-01T13:30:36.997Z</time></trkpt><trkpt lat="44.85783195832641" lon="8.973611450766223"><ele>391.0</ele><time>2026-05-01T13:30:37.997Z</time></trkpt><trkpt lat="44.85791101330145" lon="8.973682535067152"><ele>391.00000000000006</ele><time>2026-05-01T13:30:38.997Z</time></trkpt><trkpt lat="44.857999955822244" lon="8.97374274952866"><ele>391.0</ele><time>2026-05-01T13:30:39.997Z</time></trkpt><trkpt lat="44.85808285504088" lon="8.973803388898656"><ele>391.0</ele><time>2026-05-01T13:30:40.997Z</time></trkpt><trkpt lat="44.85816315459728" lon="8.973809846067436"><ele>391.0</ele><time>2026-05-01T13:30:42.997Z</time></trkpt><trkpt lat="44.858171917709875" lon="8.97390837426821"><ele>391.00000000000006</ele><time>2026-05-01T13:30:50.997Z</time></trkpt><trkpt lat="44.85812963775712" lon="8.974010554164966"><ele>391.0</ele><time>2026-05-01T13:30:54.997Z</time></trkpt><trkpt lat="44.85806903323625" lon="8.97405350805998"><ele>391.0</ele><time>2026-05-01T13:30:55.997Z</time></trkpt><trkpt lat="44.85798292907967" lon="8.974097359734316"><ele>391.0</ele><time>2026-05-01T13:30:56.997Z</time></trkpt><trkpt lat="44.85788293347393" lon="8.974145534304908"><ele>391.0</ele><time>2026-05-01T13:30:57.997Z</time></trkpt><trkpt lat="44.85777989496674" lon="8.974199013572953"><ele>391.0</ele><time>2026-05-01T13:30:58.997Z</time></trkpt><trkpt lat="44.85766369850268" lon="8.974212234257655"><ele>391.0</ele><time>2026-05-01T13:30:59.996Z</time></trkpt><trkpt lat="44.857546336154414" lon="8.974254454211819"><ele>387.25</ele><time>2026-05-01T13:31:00.996Z</time></trkpt><trkpt lat="44.85742745553727" lon="8.974321448172985"><ele>383.5</ele><time>2026-05-01T13:31:01.996Z</time></trkpt><trkpt lat="44.857303924811504" lon="8.974371946878012"><ele>379.75</ele><time>2026-05-01T13:31:02.996Z</time></trkpt><trkpt lat="44.85718602778284" lon="8.974437503066731"><ele>376.0</ele><time>2026-05-01T13:31:03.996Z</time></trkpt><trkpt lat="44.85707280072072" lon="8.974525187649128"><ele>376.0</ele><time>2026-05-01T13:31:04.996Z</time></trkpt><trkpt lat="44.856962558548666" lon="8.974606188027614"><ele>376.0</ele><time>2026-05-01T13:31:06Z</time></trkpt><trkpt lat="44.85686747085091" lon="8.974687970731653"><ele>376.0</ele><time>2026-05-01T13:31:07Z</time></trkpt><trkpt lat="44.85678280101865" lon="8.974760099355604"><ele>376.0</ele><time>2026-05-01T13:31:08Z</time></trkpt><trkpt lat="44.85670266317071" lon="8.974825589525349"><ele>376.0</ele><time>2026-05-01T13:31:09Z</time></trkpt><trkpt lat="44.85662883523178" lon="8.974887070208602"><ele>376.6</ele><time>2026-05-01T13:31:10Z</time></trkpt><trkpt lat="44.85656833694938" lon="8.9749611682354"><ele>377.20000000000005</ele><time>2026-05-01T13:31:11Z</time></trkpt><trkpt lat="44.856520928825816" lon="8.975066434130524"><ele>377.79999999999995</ele><time>2026-05-01T13:31:12Z</time></trkpt><trkpt lat="44.85647228298717" lon="8.975187245248966"><ele>378.4</ele><time>2026-05-01T13:31:13Z</time></trkpt><trkpt lat="44.856403434445916" lon="8.975286793060832"><ele>379.0</ele><time>2026-05-01T13:31:14Z</time></trkpt><trkpt lat="44.856338738296955" lon="8.975369326021848"><ele>378.0</ele><time>2026-05-01T13:31:15Z</time></trkpt><trkpt lat="44.85627206344403" lon="8.975440119644052"><ele>377.0</ele><time>2026-05-01T13:31:16Z</time></trkpt><trkpt lat="44.85619717677012" lon="8.975495260504722"><ele>376.0</ele><time>2026-05-01T13:31:17Z</time></trkpt><trkpt lat="44.856104224584314" lon="8.97553873600732"><ele>375.0</ele><time>2026-05-01T13:31:18Z</time></trkpt><trkpt lat="44.85601484319634" lon="8.975564027719058"><ele>374.0</ele><time>2026-05-01T13:31:19Z</time></trkpt><trkpt lat="44.855920473192064" lon="8.9755829866673"><ele>374.0</ele><time>2026-05-01T13:31:20Z</time></trkpt><trkpt lat="44.8558181502599" lon="8.97559723823089"><ele>374.0</ele><time>2026-05-01T13:31:21Z</time></trkpt><trkpt lat="44.85571662093084" lon="8.975614773319155"><ele>374.0</ele><time>2026-05-01T13:31:22Z</time></trkpt><trkpt lat="44.85563192386696" lon="8.97566185667887"><ele>374.0</ele><time>2026-05-01T13:31:23Z</time></trkpt><trkpt lat="44.85554354231869" lon="8.975723191746608"><ele>374.0</ele><time>2026-05-01T13:31:24Z</time></trkpt><trkpt lat="44.85547044237877" lon="8.975817009705931"><ele>370.25</ele><time>2026-05-01T13:31:25Z</time></trkpt><trkpt lat="44.855405229755384" lon="8.975962187794993"><ele>366.5</ele><time>2026-05-01T13:31:26Z</time></trkpt><trkpt lat="44.85533588578836" lon="8.976087332671801"><ele>362.75</ele><time>2026-05-01T13:31:26.999Z</time></trkpt><trkpt lat="44.8552729490705" lon="8.976225513759863"><ele>359.0</ele><time>2026-05-01T13:31:27.999Z</time></trkpt><trkpt lat="44.8552185807679" lon="8.976386211864943"><ele>359.0</ele><time>2026-05-01T13:31:28.999Z</time></trkpt><trkpt lat="44.85515809377094" lon="8.976538772717504"><ele>359.0</ele><time>2026-05-01T13:31:29.999Z</time></trkpt><trkpt lat="44.855104401788644" lon="8.976697285182693"><ele>359.0</ele><time>2026-05-01T13:31:30.999Z</time></trkpt><trkpt lat="44.85507144127471" lon="8.976860939523698"><ele>359.0</ele><time>2026-05-01T13:31:31.999Z</time></trkpt><trkpt lat="44.85501754923559" lon="8.977010757085276"><ele>360.4</ele><time>2026-05-01T13:31:32.999Z</time></trkpt><trkpt lat="44.85499376333463" lon="8.977163534513794"><ele>361.79999999999995</ele><time>2026-05-01T13:31:33.999Z</time></trkpt><trkpt lat="44.854936066830355" lon="8.977301332651354"><ele>363.20000000000005</ele><time>2026-05-01T13:31:34.999Z</time></trkpt><trkpt lat="44.85488818983157" lon="8.977442703525687"><ele>364.6</ele><time>2026-05-01T13:31:35.999Z</time></trkpt><trkpt lat="44.85483599203259" lon="8.977572459555775"><ele>366.0</ele><time>2026-05-01T13:31:36.999Z</time></trkpt><trkpt lat="44.85477486336694" lon="8.97769342748388"><ele>366.0</ele><time>2026-05-01T13:31:37.999Z</time></trkpt><trkpt lat="44.85472208099945" lon="8.977787885665004"><ele>366.0</ele><time>2026-05-01T13:31:38.999Z</time></trkpt><trkpt lat="44.85466687646738" lon="8.977880531717034"><ele>366.0</ele><time>2026-05-01T13:31:39.999Z</time></trkpt><trkpt lat="44.8546371877897" lon="8.977966080690338"><ele>366.0</ele><time>2026-05-01T13:31:40.999Z</time></trkpt><trkpt lat="44.85457392856058" lon="8.978102565565266"><ele>366.0</ele><time>2026-05-01T13:31:42.999Z</time></trkpt><trkpt lat="44.85460359057559" lon="8.977997771879291"><ele>366.0</ele><time>2026-05-01T13:31:49.999Z</time></trkpt><trkpt lat="44.85470606033274" lon="8.977852141152665"><ele>366.0</ele><time>2026-05-01T13:31:52.999Z</time></trkpt><trkpt lat="44.85475746662416" lon="8.977763134847615"><ele>366.0</ele><time>2026-05-01T13:31:53.999Z</time></trkpt><trkpt lat="44.85481118344584" lon="8.977663072793622"><ele>366.0</ele><time>2026-05-01T13:31:54.999Z</time></trkpt><trkpt lat="44.85486566529153" lon="8.977553511331468"><ele>366.0</ele><time>2026-05-01T13:31:55.999Z</time></trkpt><trkpt lat="44.85491561080712" lon="8.977434263927924"><ele>366.0</ele><time>2026-05-01T13:31:56.999Z</time></trkpt><trkpt lat="44.854959774297726" lon="8.977298328592646"><ele>366.5</ele><time>2026-05-01T13:31:57.999Z</time></trkpt><trkpt lat="44.854997948427375" lon="8.977156436811743"><ele>367.0</ele><time>2026-05-01T13:31:58.998Z</time></trkpt><trkpt lat="44.85503795297792" lon="8.976995713896573"><ele>367.5</ele><time>2026-05-01T13:31:59.998Z</time></trkpt><trkpt lat="44.855080832222875" lon="8.976833344061795"><ele>368.0</ele><time>2026-05-01T13:32:00.998Z</time></trkpt><trkpt lat="44.85512712541236" lon="8.97666583065056"><ele>365.75</ele><time>2026-05-01T13:32:01.998Z</time></trkpt><trkpt lat="44.85517565998971" lon="8.97649888455995"><ele>363.5</ele><time>2026-05-01T13:32:02.998Z</time></trkpt><trkpt lat="44.85523709417793" lon="8.976333011835559"><ele>361.25</ele><time>2026-05-01T13:32:03.998Z</time></trkpt><trkpt lat="44.8553101248178" lon="8.976174204875125"><ele>359.0</ele><time>2026-05-01T13:32:04.998Z</time></trkpt><trkpt lat="44.855382396927354" lon="8.976028560152999"><ele>359.0</ele><time>2026-05-01T13:32:05.998Z</time></trkpt><trkpt lat="44.855446377605986" lon="8.975899189650432"><ele>359.0</ele><time>2026-05-01T13:32:06.998Z</time></trkpt><trkpt lat="44.85550408835685" lon="8.975796754245271"><ele>359.0</ele><time>2026-05-01T13:32:07.998Z</time></trkpt><trkpt lat="44.85557510270965" lon="8.975715022722449"><ele>359.0</ele><time>2026-05-01T13:32:08.998Z</time></trkpt><trkpt lat="44.85566188564626" lon="8.975659858226898"><ele>359.0</ele><time>2026-05-01T13:32:09.998Z</time></trkpt><trkpt lat="44.85576457383383" lon="8.975631364344787"><ele>360.2</ele><time>2026-05-01T13:32:10.998Z</time></trkpt><trkpt lat="44.855873360205486" lon="8.975619088195037"><ele>361.4</ele><time>2026-05-01T13:32:11.998Z</time></trkpt><trkpt lat="44.85598249377704" lon="8.975607603488648"><ele>362.6</ele><time>2026-05-01T13:32:12.998Z</time></trkpt><trkpt lat="44.8560882233655" lon="8.97558306022879"><ele>363.8</ele><time>2026-05-01T13:32:13.998Z</time></trkpt><trkpt lat="44.856188569224955" lon="8.975545518047381"><ele>365.0</ele><time>2026-05-01T13:32:14.998Z</time></trkpt><trkpt lat="44.85628823561437" lon="8.975487572482923"><ele>365.0</ele><time>2026-05-01T13:32:15.998Z</time></trkpt><trkpt lat="44.85637072580932" lon="8.975403281764565"><ele>365.0</ele><time>2026-05-01T13:32:16.998Z</time></trkpt><trkpt lat="44.85643972431993" lon="8.975298155281823"><ele>365.0</ele><time>2026-05-01T13:32:17.998Z</time></trkpt><trkpt lat="44.85649928698121" lon="8.975180779387932"><ele>365.0</ele><time>2026-05-01T13:32:18.998Z</time></trkpt><trkpt lat="44.85655067232992" lon="8.975051783697904"><ele>365.0</ele><time>2026-05-01T13:32:19.998Z</time></trkpt><trkpt lat="44.85661178907809" lon="8.974930081160032"><ele>367.2</ele><time>2026-05-01T13:32:20.998Z</time></trkpt><trkpt lat="44.85668969323663" lon="8.97483803068262"><ele>369.4</ele><time>2026-05-01T13:32:21.998Z</time></trkpt><trkpt lat="44.856785994328675" lon="8.974762262367795"><ele>371.6</ele><time>2026-05-01T13:32:22.998Z</time></trkpt><trkpt lat="44.856884013965725" lon="8.974694962869656"><ele>373.8</ele><time>2026-05-01T13:32:23.998Z</time></trkpt><trkpt lat="44.856982849352605" lon="8.974623593874526"><ele>376.0</ele><time>2026-05-01T13:32:24.998Z</time></trkpt><trkpt lat="44.857075629819136" lon="8.974550574419297"><ele>376.0</ele><time>2026-05-01T13:32:25.998Z</time></trkpt><trkpt lat="44.85717132873309" lon="8.974475975182784"><ele>376.0</ele><time>2026-05-01T13:32:26.998Z</time></trkpt><trkpt lat="44.857271456464524" lon="8.974413749953971"><ele>376.0</ele><time>2026-05-01T13:32:27.998Z</time></trkpt><trkpt lat="44.8573779876627" lon="8.974358661434792"><ele>376.0</ele><time>2026-05-01T13:32:28.998Z</time></trkpt><trkpt lat="44.85749136536722" lon="8.974309681540227"><ele>376.0</ele><time>2026-05-01T13:32:29.998Z</time></trkpt><trkpt lat="44.85760280990423" lon="8.974267809184472"><ele>376.0</ele><time>2026-05-01T13:32:30.998Z</time></trkpt><trkpt lat="44.8577082176426" lon="8.974229667790304"><ele>376.0</ele><time>2026-05-01T13:32:31.997Z</time></trkpt><trkpt lat="44.85781336153524" lon="8.974190225983756"><ele>376.0</ele><time>2026-05-01T13:32:32.997Z</time></trkpt><trkpt lat="44.857905078611005" lon="8.974147383621425"><ele>376.0</ele><time>2026-05-01T13:32:33.997Z</time></trkpt><trkpt lat="44.857990373213056" lon="8.97409831721683"><ele>379.0</ele><time>2026-05-01T13:32:34.997Z</time></trkpt><trkpt lat="44.85806723312101" lon="8.97405010441025"><ele>382.0</ele><time>2026-05-01T13:32:35.997Z</time></trkpt><trkpt lat="44.85813546106959" lon="8.974003623017895"><ele>385.0</ele><time>2026-05-01T13:32:36.997Z</time></trkpt><trkpt lat="44.858208615161566" lon="8.973976663044851"><ele>388.0</ele><time>2026-05-01T13:32:38.997Z</time></trkpt><trkpt lat="44.85809021283377" lon="8.973838713523799"><ele>391.0</ele><time>2026-05-01T13:33:21Z</time></trkpt><trkpt lat="44.85796985351879" lon="8.97375432631216"><ele>391.00000000000006</ele><time>2026-05-01T13:33:23Z</time></trkpt><trkpt lat="44.85791004884948" lon="8.973705992681195"><ele>391.0</ele><time>2026-05-01T13:33:24Z</time></trkpt><trkpt lat="44.857842348125395" lon="8.973627143196326"><ele>391.0</ele><time>2026-05-01T13:33:25Z</time></trkpt><trkpt lat="44.857789678709025" lon="8.973543608401284"><ele>391.0</ele><time>2026-05-01T13:33:26Z</time></trkpt><trkpt lat="44.857734401740885" lon="8.973456819546595"><ele>391.00000000000006</ele><time>2026-05-01T13:33:27Z</time></trkpt><trkpt lat="44.857684648670514" lon="8.973359067738663"><ele>391.0</ele><time>2026-05-01T13:33:28Z</time></trkpt><trkpt lat="44.85766246848422" lon="8.973262519404848"><ele>391.1666666666667</ele><time>2026-05-01T13:33:29Z</time></trkpt><trkpt lat="44.85764774115945" lon="8.973126068237834"><ele>391.33333333333337</ele><time>2026-05-01T13:33:30Z</time></trkpt><trkpt lat="44.85763899896074" lon="8.973028000320562"><ele>391.5</ele><time>2026-05-01T13:33:31Z</time></trkpt><trkpt lat="44.85761725467169" lon="8.972913532116293"><ele>391.66666666666663</ele><time>2026-05-01T13:33:31.999Z</time></trkpt><trkpt lat="44.85758034964124" lon="8.972793927895744"><ele>391.8333333333333</ele><time>2026-05-01T13:33:32.999Z</time></trkpt><trkpt lat="44.857529977079245" lon="8.972701362111097"><ele>392.0</ele><time>2026-05-01T13:33:33.999Z</time></trkpt><trkpt lat="44.85747530500085" lon="8.972636367984897"><ele>391.99999999999994</ele><time>2026-05-01T13:33:34.999Z</time></trkpt><trkpt lat="44.85742093149158" lon="8.972583890895576"><ele>392.0</ele><time>2026-05-01T13:33:35.999Z</time></trkpt><trkpt lat="44.85732922521976" lon="8.972581851686837"><ele>392.0</ele><time>2026-05-01T13:33:37.999Z</time></trkpt><trkpt lat="44.85724169084676" lon="8.972601339444191"><ele>392.0</ele><time>2026-05-01T13:33:39.999Z</time></trkpt><trkpt lat="44.85717736864474" lon="8.972620918244454"><ele>391.99999999999994</ele><time>2026-05-01T13:33:40.999Z</time></trkpt><trkpt lat="44.85710454100151" lon="8.97265797704023"><ele>392.0</ele><time>2026-05-01T13:33:41.999Z</time></trkpt><trkpt lat="44.85703371907634" lon="8.972712754006798"><ele>392.0</ele><time>2026-05-01T13:33:42.999Z</time></trkpt><trkpt lat="44.85691355500728" lon="8.97279669792349"><ele>392.0</ele><time>2026-05-01T13:33:44.999Z</time></trkpt><trkpt lat="44.856836324715324" lon="8.972834284834116"><ele>392.0</ele><time>2026-05-01T13:33:45.999Z</time></trkpt><trkpt lat="44.856761502960374" lon="8.972854467002236"><ele>392.0</ele><time>2026-05-01T13:33:46.999Z</time></trkpt><trkpt lat="44.8566814904595" lon="8.97286728659568"><ele>392.0</ele><time>2026-05-01T13:33:47.999Z</time></trkpt><trkpt lat="44.8566030494129" lon="8.972879893570951"><ele>393.66666666666663</ele><time>2026-05-01T13:33:48.999Z</time></trkpt><trkpt lat="44.85653121705979" lon="8.972882047046001"><ele>395.3333333333333</ele><time>2026-05-01T13:33:49.999Z</time></trkpt><trkpt lat="44.85643864959135" lon="8.972884330613656"><ele>397.0</ele><time>2026-05-01T13:33:50.999Z</time></trkpt><trkpt lat="44.856373112067985" lon="8.972847797154063"><ele>398.66666666666663</ele><time>2026-05-01T13:33:51.999Z</time></trkpt><trkpt lat="44.85630377829102" lon="8.97282373501304"><ele>400.3333333333333</ele><time>2026-05-01T13:33:52.999Z</time></trkpt><trkpt lat="44.85618265781363" lon="8.97279903031113"><ele>402.0</ele><time>2026-05-01T13:33:54.999Z</time></trkpt><trkpt lat="44.85610841675633" lon="8.972784762427597"><ele>402.0</ele><time>2026-05-01T13:33:56.999Z</time></trkpt><trkpt lat="44.85599197518767" lon="8.972796031969992"><ele>402.0</ele><time>2026-05-01T13:34:04.998Z</time></trkpt><trkpt lat="44.85590100848914" lon="8.972791819941559"><ele>402.0</ele><time>2026-05-01T13:34:06.998Z</time></trkpt><trkpt lat="44.85581501887514" lon="8.972772661549364"><ele>402.0</ele><time>2026-05-01T13:34:09.998Z</time></trkpt><trkpt lat="44.85571157934984" lon="8.972712756082732"><ele>402.0</ele><time>2026-05-01T13:34:11.998Z</time></trkpt><trkpt lat="44.85564237977169" lon="8.972673234659855"><ele>402.40000000000003</ele><time>2026-05-01T13:34:12.998Z</time></trkpt><trkpt lat="44.855567530656565" lon="8.97262172336605"><ele>402.8</ele><time>2026-05-01T13:34:13.998Z</time></trkpt><trkpt lat="44.85545757411658" lon="8.9725576297449"><ele>403.2</ele><time>2026-05-01T13:34:15.998Z</time></trkpt><trkpt lat="44.855368766694944" lon="8.97248461653366"><ele>403.6</ele><time>2026-05-01T13:34:16.998Z</time></trkpt><trkpt lat="44.85529401073129" lon="8.972427106733265"><ele>404.0</ele><time>2026-05-01T13:34:17.998Z</time></trkpt><trkpt lat="44.85514053294015" lon="8.972370766941301"><ele>401.75</ele><time>2026-05-01T13:34:19.998Z</time></trkpt><trkpt lat="44.855019207249434" lon="8.972374217560942"><ele>399.5</ele><time>2026-05-01T13:34:21.998Z</time></trkpt><trkpt lat="44.854897193412164" lon="8.97242150291799"><ele>397.25</ele><time>2026-05-01T13:34:23.998Z</time></trkpt><trkpt lat="44.85477284150491" lon="8.972505784865705"><ele>395.0</ele><time>2026-05-01T13:34:25.998Z</time></trkpt><trkpt lat="44.85471503758406" lon="8.972560715456794"><ele>394.8</ele><time>2026-05-01T13:34:26.998Z</time></trkpt><trkpt lat="44.854657551602386" lon="8.972621116178493"><ele>394.6</ele><time>2026-05-01T13:34:27.998Z</time></trkpt><trkpt lat="44.854550216652164" lon="8.9726886992838"><ele>394.4</ele><time>2026-05-01T13:34:29.998Z</time></trkpt><trkpt lat="44.85443581511142" lon="8.972628878808328"><ele>394.2</ele><time>2026-05-01T13:34:31.998Z</time></trkpt><trkpt lat="44.85433876905818" lon="8.97257043959671"><ele>394.0</ele><time>2026-05-01T13:34:33.998Z</time></trkpt><trkpt lat="44.854273797606254" lon="8.972563607010994"><ele>394.0</ele><time>2026-05-01T13:34:35.998Z</time></trkpt><trkpt lat="44.85430179273592" lon="8.972709417900532"><ele>394.0</ele><time>2026-05-01T13:34:38.997Z</time></trkpt><trkpt lat="44.854392510791754" lon="8.97285560636037"><ele>394.0</ele><time>2026-05-01T13:34:40.997Z</time></trkpt><trkpt lat="44.85448790374106" lon="8.972970831223154"><ele>394.0</ele><time>2026-05-01T13:34:42.997Z</time></trkpt><trkpt lat="44.85459909316539" lon="8.973048765221243"><ele>394.00000000000006</ele><time>2026-05-01T13:34:44.997Z</time></trkpt><trkpt lat="44.85470513221891" lon="8.973103750675131"><ele>394.0</ele><time>2026-05-01T13:34:46.997Z</time></trkpt><trkpt lat="44.854756640124215" lon="8.97316443940076"><ele>394.0</ele><time>2026-05-01T13:34:47.997Z</time></trkpt><trkpt lat="44.85479988655389" lon="8.97324288908773"><ele>394.0</ele><time>2026-05-01T13:34:48.997Z</time></trkpt><trkpt lat="44.85483827445804" lon="8.97332690773359"><ele>394.00000000000006</ele><time>2026-05-01T13:34:49.997Z</time></trkpt><trkpt lat="44.854872729067424" lon="8.973409795889351"><ele>394.0</ele><time>2026-05-01T13:34:50.997Z</time></trkpt><trkpt lat="44.85491451159599" lon="8.973499072090556"><ele>393.6</ele><time>2026-05-01T13:34:51.997Z</time></trkpt><trkpt lat="44.85497628858341" lon="8.973630172335199"><ele>393.2</ele><time>2026-05-01T13:34:53.997Z</time></trkpt><trkpt lat="44.855040443178474" lon="8.973728101505353"><ele>392.8</ele><time>2026-05-01T13:34:55.997Z</time></trkpt><trkpt lat="44.85514056647058" lon="8.97384135431982"><ele>392.40000000000003</ele><time>2026-05-01T13:34:57.997Z</time></trkpt><trkpt lat="44.855197482988515" lon="8.973936742915171"><ele>392.0</ele><time>2026-05-01T13:34:59.997Z</time></trkpt><trkpt lat="44.85517523049275" lon="8.974083445837197"><ele>391.8</ele><time>2026-05-01T13:35:01.997Z</time></trkpt><trkpt lat="44.85513708959707" lon="8.974190621582716"><ele>391.6</ele><time>2026-05-01T13:35:02.997Z</time></trkpt><trkpt lat="44.855118314684546" lon="8.97430452084877"><ele>391.40000000000003</ele><time>2026-05-01T13:35:03.997Z</time></trkpt><trkpt lat="44.855119668026084" lon="8.974425066484185"><ele>391.20000000000005</ele><time>2026-05-01T13:35:04.997Z</time></trkpt><trkpt lat="44.855102382187944" lon="8.974547714436243"><ele>391.0</ele><time>2026-05-01T13:35:05.997Z</time></trkpt><trkpt lat="44.85510161485625" lon="8.974713328284478"><ele>391.0</ele><time>2026-05-01T13:35:07.997Z</time></trkpt><trkpt lat="44.855126327612574" lon="8.974882636657444"><ele>391.0</ele><time>2026-05-01T13:35:09.997Z</time></trkpt><trkpt lat="44.85513299948906" lon="8.974977116629578"><ele>391.0</ele><time>2026-05-01T13:35:10.996Z</time></trkpt><trkpt lat="44.855138721936555" lon="8.975090538520302"><ele>391.0</ele><time>2026-05-01T13:35:11.996Z</time></trkpt><trkpt lat="44.85511223106759" lon="8.975288741253397"><ele>391.0</ele><time>2026-05-01T13:35:13.996Z</time></trkpt><trkpt lat="44.85508415362784" lon="8.975389227871295"><ele>390.00000000000006</ele><time>2026-05-01T13:35:14.996Z</time></trkpt><trkpt lat="44.855041363424895" lon="8.975488341270085"><ele>389.0</ele><time>2026-05-01T13:35:15.996Z</time></trkpt><trkpt lat="44.854994928441876" lon="8.975594092650326"><ele>388.0</ele><time>2026-05-01T13:35:17Z</time></trkpt><trkpt lat="44.85494858135726" lon="8.97567991057514"><ele>387.0</ele><time>2026-05-01T13:35:18Z</time></trkpt><trkpt lat="44.85490465215577" lon="8.97577122631898"><ele>386.00000000000006</ele><time>2026-05-01T13:35:19Z</time></trkpt><trkpt lat="44.85486362433048" lon="8.975865693262712"><ele>385.0</ele><time>2026-05-01T13:35:20Z</time></trkpt><trkpt lat="44.85482925799752" lon="8.975959788174013"><ele>382.2</ele><time>2026-05-01T13:35:21Z</time></trkpt><trkpt lat="44.85481697948605" lon="8.976052817850734"><ele>379.4</ele><time>2026-05-01T13:35:22Z</time></trkpt><trkpt lat="44.85469054701832" lon="8.9761519192057"><ele>376.6</ele><time>2026-05-01T13:35:23Z</time></trkpt><trkpt lat="44.85455823887081" lon="8.976224658265373"><ele>373.8</ele><time>2026-05-01T13:35:24Z</time></trkpt><trkpt lat="44.85456106173391" lon="8.976354538220708"><ele>371.0</ele><time>2026-05-01T13:35:25Z</time></trkpt><trkpt lat="44.85451265285097" lon="8.97642968784332"><ele>371.0</ele><time>2026-05-01T13:35:26Z</time></trkpt><trkpt lat="44.85445187570287" lon="8.976489597513057"><ele>371.0</ele><time>2026-05-01T13:35:27Z</time></trkpt><trkpt lat="44.85438437783911" lon="8.976532094071404"><ele>371.0</ele><time>2026-05-01T13:35:28Z</time></trkpt><trkpt lat="44.8543122548886" lon="8.976555629581968"><ele>371.0</ele><time>2026-05-01T13:35:29Z</time></trkpt><trkpt lat="44.85423748161942" lon="8.976566093043001"><ele>371.0</ele><time>2026-05-01T13:35:30Z</time></trkpt><trkpt lat="44.85416321476842" lon="8.976566762054437"><ele>371.0</ele><time>2026-05-01T13:35:31Z</time></trkpt><trkpt lat="44.85409764217983" lon="8.97656244156079"><ele>371.0</ele><time>2026-05-01T13:35:32Z</time></trkpt><trkpt lat="44.85397071771577" lon="8.976551262331032"><ele>370.83333333333337</ele><time>2026-05-01T13:35:33.999Z</time></trkpt><trkpt lat="44.85389452360846" lon="8.976536361439413"><ele>370.6666666666667</ele><time>2026-05-01T13:35:34.999Z</time></trkpt><trkpt lat="44.85382144514438" lon="8.976522352553484"><ele>370.5</ele><time>2026-05-01T13:35:35.999Z</time></trkpt><trkpt lat="44.85375596456156" lon="8.97652098740661"><ele>370.3333333333333</ele><time>2026-05-01T13:35:36.999Z</time></trkpt><trkpt lat="44.85367660260122" lon="8.976549848142648"><ele>370.16666666666663</ele><time>2026-05-01T13:35:38.999Z</time></trkpt><trkpt lat="44.853729159184006" lon="8.976638389002519"><ele>370.0</ele><time>2026-05-01T13:35:41.999Z</time></trkpt><trkpt lat="44.8538251593469" lon="8.976711122030391"><ele>370.0</ele><time>2026-05-01T13:35:43.999Z</time></trkpt><trkpt lat="44.853891902707495" lon="8.97678230788317"><ele>370.0</ele><time>2026-05-01T13:35:44.999Z</time></trkpt><trkpt lat="44.85395650720686" lon="8.976857502121549"><ele>370.0</ele><time>2026-05-01T13:35:45.999Z</time></trkpt><trkpt lat="44.854027197019434" lon="8.976949270404914"><ele>370.0</ele><time>2026-05-01T13:35:46.999Z</time></trkpt><trkpt lat="44.8540979631918" lon="8.977063879253981"><ele>370.0</ele><time>2026-05-01T13:35:47.999Z</time></trkpt><trkpt lat="44.85416461679306" lon="8.97716825768094"><ele>370.0</ele><time>2026-05-01T13:35:48.999Z</time></trkpt><trkpt lat="44.85422856043792" lon="8.977271484521056"><ele>370.0</ele><time>2026-05-01T13:35:49.999Z</time></trkpt><trkpt lat="44.854291159996755" lon="8.977379402354252"><ele>370.0</ele><time>2026-05-01T13:35:50.999Z</time></trkpt><trkpt lat="44.854344365012786" lon="8.977469951770258"><ele>370.0</ele><time>2026-05-01T13:35:51.999Z</time></trkpt><trkpt lat="44.854389342298184" lon="8.977569486158503"><ele>370.0</ele><time>2026-05-01T13:35:52.999Z</time></trkpt><trkpt lat="44.85442382266203" lon="8.977663298870898"><ele>370.0</ele><time>2026-05-01T13:35:53.999Z</time></trkpt><trkpt lat="44.85446132209879" lon="8.977761673794452"><ele>369.2</ele><time>2026-05-01T13:35:54.999Z</time></trkpt><trkpt lat="44.85449780637076" lon="8.977856951051667"><ele>368.4</ele><time>2026-05-01T13:35:55.999Z</time></trkpt><trkpt lat="44.85453100552602" lon="8.977936474505698"><ele>367.6</ele><time>2026-05-01T13:35:56.999Z</time></trkpt><trkpt lat="44.85458053460793" lon="8.978053477303312"><ele>366.8</ele><time>2026-05-01T13:35:58.998Z</time></trkpt><trkpt lat="44.85463210300391" lon="8.978130545853714"><ele>366.0</ele><time>2026-05-01T13:36:00.998Z</time></trkpt><trkpt lat="44.85453665255641" lon="8.978320397062076"><ele>366.8</ele><time>2026-05-01T13:36:01.998Z</time></trkpt><trkpt lat="44.85451602284652" lon="8.978459343936446"><ele>367.6</ele><time>2026-05-01T13:36:02.998Z</time></trkpt><trkpt lat="44.85449576733841" lon="8.978606062531037"><ele>368.4</ele><time>2026-05-01T13:36:03.998Z</time></trkpt><trkpt lat="44.854491438783704" lon="8.97876240047285"><ele>369.2</ele><time>2026-05-01T13:36:04.998Z</time></trkpt><trkpt lat="44.854476619949054" lon="8.978899271851667"><ele>370.0</ele><time>2026-05-01T13:36:05.998Z</time></trkpt><trkpt lat="44.85446340998773" lon="8.979021632724482"><ele>370.0</ele><time>2026-05-01T13:36:06.998Z</time></trkpt><trkpt lat="44.85446895181765" lon="8.979136993900656"><ele>370.0</ele><time>2026-05-01T13:36:07.998Z</time></trkpt><trkpt lat="44.85447241960488" lon="8.979253112505484"><ele>370.0</ele><time>2026-05-01T13:36:08.998Z</time></trkpt><trkpt lat="44.85447760386493" lon="8.979365191531832"><ele>370.0</ele><time>2026-05-01T13:36:09.998Z</time></trkpt><trkpt lat="44.85446363717157" lon="8.979464011506096"><ele>370.0</ele><time>2026-05-01T13:36:10.998Z</time></trkpt><trkpt lat="44.8544651049842" lon="8.979581088845897"><ele>370.0</ele><time>2026-05-01T13:36:11.998Z</time></trkpt><trkpt lat="44.85448092815421" lon="8.979687502452856"><ele>371.6</ele><time>2026-05-01T13:36:12.998Z</time></trkpt><trkpt lat="44.854460432477296" lon="8.97981927606161"><ele>373.2</ele><time>2026-05-01T13:36:13.998Z</time></trkpt><trkpt lat="44.85444803164352" lon="8.97994047799636"><ele>374.79999999999995</ele><time>2026-05-01T13:36:14.998Z</time></trkpt><trkpt lat="44.85444481810474" lon="8.98007189201683"><ele>376.4</ele><time>2026-05-01T13:36:15.998Z</time></trkpt><trkpt lat="44.85440080184329" lon="8.980189927497964"><ele>378.0</ele><time>2026-05-01T13:36:16.998Z</time></trkpt><trkpt lat="44.854361195031174" lon="8.980313999483501"><ele>379.2</ele><time>2026-05-01T13:36:17.998Z</time></trkpt><trkpt lat="44.85431381023499" lon="8.98043679173174"><ele>380.4</ele><time>2026-05-01T13:36:18.998Z</time></trkpt><trkpt lat="44.85426444255105" lon="8.980561472394806"><ele>381.59999999999997</ele><time>2026-05-01T13:36:19.998Z</time></trkpt><trkpt lat="44.85421256522982" lon="8.980680909900842"><ele>382.79999999999995</ele><time>2026-05-01T13:36:20.998Z</time></trkpt><trkpt lat="44.85416016242302" lon="8.980806596670277"><ele>384.0</ele><time>2026-05-01T13:36:21.998Z</time></trkpt><trkpt lat="44.854111444671936" lon="8.9809310251151"><ele>384.3333333333333</ele><time>2026-05-01T13:36:22.998Z</time></trkpt><trkpt lat="44.85408399010422" lon="8.98105108630369"><ele>384.66666666666663</ele><time>2026-05-01T13:36:23.998Z</time></trkpt><trkpt lat="44.854060145161924" lon="8.981133748644321"><ele>385.0</ele><time>2026-05-01T13:36:24.998Z</time></trkpt><trkpt lat="44.85404250512767" lon="8.981236362130609"><ele>385.3333333333333</ele><time>2026-05-01T13:36:25.998Z</time></trkpt><trkpt lat="44.854038505637334" lon="8.981332501771298"><ele>385.66666666666663</ele><time>2026-05-01T13:36:26.998Z</time></trkpt><trkpt lat="44.854040821796744" lon="8.981442308635101"><ele>386.0</ele><time>2026-05-01T13:36:27.998Z</time></trkpt><trkpt lat="44.85404607404248" lon="8.981570864856943"><ele>387.0</ele><time>2026-05-01T13:36:28.997Z</time></trkpt><trkpt lat="44.854035421179184" lon="8.981716810695557"><ele>388.0</ele><time>2026-05-01T13:36:29.997Z</time></trkpt><trkpt lat="44.854037836032845" lon="8.98187331422158"><ele>389.0</ele><time>2026-05-01T13:36:30.997Z</time></trkpt><trkpt lat="44.854036211283116" lon="8.982026695147622"><ele>390.0</ele><time>2026-05-01T13:36:31.997Z</time></trkpt><trkpt lat="44.854024370589414" lon="8.982166549118777"><ele>391.0</ele><time>2026-05-01T13:36:32.997Z</time></trkpt><trkpt lat="44.85399129381946" lon="8.982316882858106"><ele>391.0</ele><time>2026-05-01T13:36:33.997Z</time></trkpt><trkpt lat="44.853938497242225" lon="8.98244661397122"><ele>391.0</ele><time>2026-05-01T13:36:34.997Z</time></trkpt><trkpt lat="44.85386911558119" lon="8.98255285410783"><ele>391.0</ele><time>2026-05-01T13:36:35.997Z</time></trkpt><trkpt lat="44.85379343473748" lon="8.982636051681851"><ele>391.0</ele><time>2026-05-01T13:36:36.997Z</time></trkpt><trkpt lat="44.85371488342698" lon="8.982709346323611"><ele>391.0</ele><time>2026-05-01T13:36:37.997Z</time></trkpt><trkpt lat="44.85363127228342" lon="8.982782595003684"><ele>392.25</ele><time>2026-05-01T13:36:38.997Z</time></trkpt><trkpt lat="44.8535344325538" lon="8.982867432722758"><ele>393.5</ele><time>2026-05-01T13:36:39.997Z</time></trkpt><trkpt lat="44.85344413466588" lon="8.982951307718675"><ele>394.75</ele><time>2026-05-01T13:36:40.997Z</time></trkpt><trkpt lat="44.85335052344697" lon="8.983042908262018"><ele>396.0</ele><time>2026-05-01T13:36:41.997Z</time></trkpt><trkpt lat="44.85325762121282" lon="8.983149994506233"><ele>396.0</ele><time>2026-05-01T13:36:42.997Z</time></trkpt><trkpt lat="44.85316793103229" lon="8.983257505938443"><ele>396.0</ele><time>2026-05-01T13:36:43.997Z</time></trkpt><trkpt lat="44.85308165004517" lon="8.983359583278851"><ele>396.0</ele><time>2026-05-01T13:36:44.997Z</time></trkpt><trkpt lat="44.853002445890205" lon="8.98344762556261"><ele>396.0</ele><time>2026-05-01T13:36:45.997Z</time></trkpt><trkpt lat="44.852914549483856" lon="8.98352370966117"><ele>396.0</ele><time>2026-05-01T13:36:46.997Z</time></trkpt><trkpt lat="44.852826058314555" lon="8.98359774855987"><ele>396.25</ele><time>2026-05-01T13:36:47.997Z</time></trkpt><trkpt lat="44.85273699896509" lon="8.983700787807448"><ele>396.5</ele><time>2026-05-01T13:36:48.997Z</time></trkpt><trkpt lat="44.85263921678798" lon="8.983785980018137"><ele>396.75</ele><time>2026-05-01T13:36:49.997Z</time></trkpt><trkpt lat="44.85254565497501" lon="8.98388434501684"><ele>397.0</ele><time>2026-05-01T13:36:50.997Z</time></trkpt><trkpt lat="44.85246123769241" lon="8.984000631064742"><ele>398.5</ele><time>2026-05-01T13:36:51.997Z</time></trkpt><trkpt lat="44.85238965522006" lon="8.984139337094403"><ele>400.0</ele><time>2026-05-01T13:36:52.997Z</time></trkpt><trkpt lat="44.85233014352071" lon="8.984290306808752"><ele>401.5</ele><time>2026-05-01T13:36:53.997Z</time></trkpt><trkpt lat="44.85227718333828" lon="8.984438738721279"><ele>403.0</ele><time>2026-05-01T13:36:54.997Z</time></trkpt><trkpt lat="44.85223765558357" lon="8.9845941179288"><ele>404.4</ele><time>2026-05-01T13:36:55.997Z</time></trkpt><trkpt lat="44.85222313659748" lon="8.984751399577693"><ele>405.79999999999995</ele><time>2026-05-01T13:36:56.997Z</time></trkpt><trkpt lat="44.85222131376797" lon="8.98490658178386"><ele>407.2</ele><time>2026-05-01T13:36:57.997Z</time></trkpt><trkpt lat="44.85220138503001" lon="8.985057973503721"><ele>408.6</ele><time>2026-05-01T13:36:58.997Z</time></trkpt><trkpt lat="44.852185287216045" lon="8.985203712778782"><ele>410.0</ele><time>2026-05-01T13:36:59.997Z</time></trkpt><trkpt lat="44.85215146678802" lon="8.98533677079076"><ele>412.2</ele><time>2026-05-01T13:37:00.996Z</time></trkpt><trkpt lat="44.85209450567781" lon="8.985467573179575"><ele>414.4</ele><time>2026-05-01T13:37:01.996Z</time></trkpt><trkpt lat="44.85202588953106" lon="8.985583596957289"><ele>416.6</ele><time>2026-05-01T13:37:02.996Z</time></trkpt><trkpt lat="44.851948186398424" lon="8.985694060129758"><ele>418.8</ele><time>2026-05-01T13:37:03.996Z</time></trkpt><trkpt lat="44.8518795577656" lon="8.985788707619317"><ele>421.0</ele><time>2026-05-01T13:37:04.996Z</time></trkpt><trkpt lat="44.85182883509563" lon="8.98590029933046"><ele>420.20000000000005</ele><time>2026-05-01T13:37:05.996Z</time></trkpt><trkpt lat="44.85177438855917" lon="8.986003495165416"><ele>419.40000000000003</ele><time>2026-05-01T13:37:06.996Z</time></trkpt><trkpt lat="44.8517237473589" lon="8.986116243871725"><ele>418.6</ele><time>2026-05-01T13:37:07.996Z</time></trkpt><trkpt lat="44.851670152226426" lon="8.98623576776656"><ele>417.8</ele><time>2026-05-01T13:37:08.996Z</time></trkpt><trkpt lat="44.85161508877149" lon="8.98636346353188"><ele>417.0</ele><time>2026-05-01T13:37:09.996Z</time></trkpt><trkpt lat="44.85156269263189" lon="8.986500901472581"><ele>417.0</ele><time>2026-05-01T13:37:10.996Z</time></trkpt><trkpt lat="44.85151409762035" lon="8.986651284861376"><ele>417.0</ele><time>2026-05-01T13:37:11.996Z</time></trkpt><trkpt lat="44.85147194104882" lon="8.986804147143658"><ele>417.0</ele><time>2026-05-01T13:37:12.996Z</time></trkpt><trkpt lat="44.851414314145664" lon="8.986948564704727"><ele>417.0</ele><time>2026-05-01T13:37:13.996Z</time></trkpt><trkpt lat="44.85136935061307" lon="8.987081972084221"><ele>416.6</ele><time>2026-05-01T13:37:14.996Z</time></trkpt><trkpt lat="44.85134385312248" lon="8.987198256234453"><ele>416.20000000000005</ele><time>2026-05-01T13:37:15.996Z</time></trkpt><trkpt lat="44.851303600199216" lon="8.987290788087064"><ele>415.8</ele><time>2026-05-01T13:37:16.996Z</time></trkpt><trkpt lat="44.85125805798412" lon="8.987373014497159"><ele>415.4</ele><time>2026-05-01T13:37:17.996Z</time></trkpt><trkpt lat="44.85114742748219" lon="8.987476975845327"><ele>415.0</ele><time>2026-05-01T13:37:19.996Z</time></trkpt><trkpt lat="44.8510665167994" lon="8.987529347830442"><ele>413.83333333333337</ele><time>2026-05-01T13:37:20.996Z</time></trkpt><trkpt lat="44.85098257197148" lon="8.987579369247134"><ele>412.6666666666667</ele><time>2026-05-01T13:37:21.996Z</time></trkpt><trkpt lat="44.85089858957728" lon="8.987630442057068"><ele>411.5</ele><time>2026-05-01T13:37:22.999Z</time></trkpt><trkpt lat="44.850828068167814" lon="8.987687962262633"><ele>410.33333333333337</ele><time>2026-05-01T13:37:23.999Z</time></trkpt><trkpt lat="44.850761735044124" lon="8.987751108370617"><ele>409.1666666666667</ele><time>2026-05-01T13:37:24.999Z</time></trkpt><trkpt lat="44.85069530716259" lon="8.987817784917267"><ele>408.0</ele><time>2026-05-01T13:37:25.999Z</time></trkpt><trkpt lat="44.850627028303514" lon="8.987901994181637"><ele>408.0</ele><time>2026-05-01T13:37:26.999Z</time></trkpt><trkpt lat="44.85055878751633" lon="8.988003353684663"><ele>408.0</ele><time>2026-05-01T13:37:27.999Z</time></trkpt><trkpt lat="44.85048611815133" lon="8.988111982224506"><ele>408.0</ele><time>2026-05-01T13:37:28.999Z</time></trkpt><trkpt lat="44.85041485498272" lon="8.988224811640668"><ele>408.0</ele><time>2026-05-01T13:37:29.999Z</time></trkpt><trkpt lat="44.85035935064821" lon="8.98835111325073"><ele>408.0</ele><time>2026-05-01T13:37:30.999Z</time></trkpt><trkpt lat="44.85032402341923" lon="8.988501836007181"><ele>407.2</ele><time>2026-05-01T13:37:31.999Z</time></trkpt><trkpt lat="44.850321486993515" lon="8.988642806569565"><ele>406.4</ele><time>2026-05-01T13:37:32.999Z</time></trkpt><trkpt lat="44.85033681799441" lon="8.988801406131152"><ele>405.59999999999997</ele><time>2026-05-01T13:37:33.999Z</time></trkpt><trkpt lat="44.85035964172722" lon="8.988952571113876"><ele>404.79999999999995</ele><time>2026-05-01T13:37:35Z</time></trkpt><trkpt lat="44.85036373445461" lon="8.989095647560953"><ele>404.0</ele><time>2026-05-01T13:37:36Z</time></trkpt><trkpt lat="44.85034532486606" lon="8.989215258299984"><ele>405.4</ele><time>2026-05-01T13:37:37Z</time></trkpt><trkpt lat="44.850286613670036" lon="8.989308644371189"><ele>406.79999999999995</ele><time>2026-05-01T13:37:38Z</time></trkpt><trkpt lat="44.850189672600045" lon="8.989343808663488"><ele>408.20000000000005</ele><time>2026-05-01T13:37:39Z</time></trkpt><trkpt lat="44.850086528303336" lon="8.989376918542987"><ele>409.6</ele><time>2026-05-01T13:37:39.999Z</time></trkpt><trkpt lat="44.84997056802374" lon="8.989392421396307"><ele>411.0</ele><time>2026-05-01T13:37:40.999Z</time></trkpt><trkpt lat="44.849845721348714" lon="8.98940620329895"><ele>411.0</ele><time>2026-05-01T13:37:41.999Z</time></trkpt><trkpt lat="44.84972998350186" lon="8.98944417418485"><ele>411.0</ele><time>2026-05-01T13:37:42.999Z</time></trkpt><trkpt lat="44.849623855494265" lon="8.989481113978961"><ele>411.0</ele><time>2026-05-01T13:37:43.999Z</time></trkpt><trkpt lat="44.84954185721003" lon="8.989541086511652"><ele>411.0</ele><time>2026-05-01T13:37:44.999Z</time></trkpt><trkpt lat="44.84948336876787" lon="8.989628999025006"><ele>411.0</ele><time>2026-05-01T13:37:45.999Z</time></trkpt><trkpt lat="44.84942989598817" lon="8.989755990752057"><ele>411.0</ele><time>2026-05-01T13:37:46.999Z</time></trkpt><trkpt lat="44.84940305305704" lon="8.989889694632415"><ele>411.0</ele><time>2026-05-01T13:37:47.999Z</time></trkpt><trkpt lat="44.84937914146193" lon="8.99003661794382"><ele>411.0</ele><time>2026-05-01T13:37:48.999Z</time></trkpt><trkpt lat="44.8493696891583" lon="8.990193259346862"><ele>411.0</ele><time>2026-05-01T13:37:49.999Z</time></trkpt><trkpt lat="44.84935532389424" lon="8.990348121740073"><ele>411.0</ele><time>2026-05-01T13:37:50.999Z</time></trkpt><trkpt lat="44.84932487105304" lon="8.990510534330562"><ele>409.6</ele><time>2026-05-01T13:37:51.999Z</time></trkpt><trkpt lat="44.84932763456855" lon="8.990652688050531"><ele>408.20000000000005</ele><time>2026-05-01T13:37:52.999Z</time></trkpt><trkpt lat="44.84931105559989" lon="8.990777933060528"><ele>406.79999999999995</ele><time>2026-05-01T13:37:53.999Z</time></trkpt><trkpt lat="44.84927451684678" lon="8.990888764305453"><ele>405.4</ele><time>2026-05-01T13:37:54.999Z</time></trkpt><trkpt lat="44.849261880918775" lon="8.991007611043463"><ele>404.0</ele><time>2026-05-01T13:37:55.999Z</time></trkpt><trkpt lat="44.84920268104957" lon="8.99111813179364"><ele>409.2</ele><time>2026-05-01T13:37:56.999Z</time></trkpt><trkpt lat="44.84916999668194" lon="8.991248935883856"><ele>414.4</ele><time>2026-05-01T13:37:57.999Z</time></trkpt><trkpt lat="44.8491274961376" lon="8.991356016967593"><ele>419.6</ele><time>2026-05-01T13:37:58.999Z</time></trkpt><trkpt lat="44.849077614718965" lon="8.991479606827156"><ele>424.8</ele><time>2026-05-01T13:38:00.999Z</time></trkpt><trkpt lat="44.84903293664903" lon="8.991550363388436"><ele>430.0</ele><time>2026-05-01T13:38:03.999Z</time></trkpt><trkpt lat="44.8491822290307" lon="8.991502805389723"><ele>430.00000000000006</ele><time>2026-05-01T13:38:06.999Z</time></trkpt><trkpt lat="44.84922131724465" lon="8.991431361508543"><ele>430.0</ele><time>2026-05-01T13:38:07.999Z</time></trkpt><trkpt lat="44.84929226918777" lon="8.991342688182376"><ele>430.0</ele><time>2026-05-01T13:38:09.999Z</time></trkpt><trkpt lat="44.84936415140272" lon="8.991360211334205"><ele>430.0</ele><time>2026-05-01T13:38:11.999Z</time></trkpt><trkpt lat="44.849368121185236" lon="8.991500687458355"><ele>430.00000000000006</ele><time>2026-05-01T13:38:13.999Z</time></trkpt><trkpt lat="44.8493126049548" lon="8.991646933768243"><ele>430.0</ele><time>2026-05-01T13:38:15.999Z</time></trkpt><trkpt lat="44.84934070512524" lon="8.991769997067047"><ele>427.1428571428571</ele><time>2026-05-01T13:38:17.999Z</time></trkpt><trkpt lat="44.84939350457204" lon="8.991826661252052"><ele>424.28571428571433</ele><time>2026-05-01T13:38:18.999Z</time></trkpt><trkpt lat="44.84945857805857" lon="8.99187051957838"><ele>421.42857142857144</ele><time>2026-05-01T13:38:19.998Z</time></trkpt><trkpt lat="44.84953383399511" lon="8.99190095883516"><ele>418.57142857142856</ele><time>2026-05-01T13:38:20.998Z</time></trkpt><trkpt lat="44.84960668290497" lon="8.991924973657701"><ele>415.71428571428567</ele><time>2026-05-01T13:38:21.998Z</time></trkpt><trkpt lat="44.849678572891186" lon="8.991947865527553"><ele>412.8571428571429</ele><time>2026-05-01T13:38:22.998Z</time></trkpt><trkpt lat="44.84973921806169" lon="8.992009150140722"><ele>410.0</ele><time>2026-05-01T13:38:23.998Z</time></trkpt><trkpt lat="44.84978212384919" lon="8.99208985739357"><ele>410.0</ele><time>2026-05-01T13:38:25.998Z</time></trkpt><trkpt lat="44.84980121146666" lon="8.992200092315748"><ele>410.0</ele><time>2026-05-01T13:38:27.998Z</time></trkpt><trkpt lat="44.84986638999263" lon="8.992368095919234"><ele>410.0</ele><time>2026-05-01T13:38:29.998Z</time></trkpt><trkpt lat="44.84991636128919" lon="8.99253665604423"><ele>410.0</ele><time>2026-05-01T13:38:31.998Z</time></trkpt><trkpt lat="44.84992166643284" lon="8.992642752676579"><ele>410.0</ele><time>2026-05-01T13:38:32.998Z</time></trkpt><trkpt lat="44.84994456195261" lon="8.992790263963997"><ele>408.66666666666663</ele><time>2026-05-01T13:38:34.998Z</time></trkpt><trkpt lat="44.849989565048475" lon="8.992931543490771"><ele>407.3333333333333</ele><time>2026-05-01T13:38:35.998Z</time></trkpt><trkpt lat="44.8500005118242" lon="8.993034011978972"><ele>406.0</ele><time>2026-05-01T13:38:36.998Z</time></trkpt><trkpt lat="44.85002659943407" lon="8.993116013577852"><ele>404.66666666666663</ele><time>2026-05-01T13:38:37.998Z</time></trkpt><trkpt lat="44.85005316828692" lon="8.993204374173821"><ele>403.3333333333333</ele><time>2026-05-01T13:38:38.998Z</time></trkpt><trkpt lat="44.850077053181856" lon="8.993301335683963"><ele>402.0</ele><time>2026-05-01T13:38:39.998Z</time></trkpt><trkpt lat="44.850083591578944" lon="8.993403260123836"><ele>398.8333333333333</ele><time>2026-05-01T13:38:40.998Z</time></trkpt><trkpt lat="44.85007496173576" lon="8.993508380088311"><ele>395.6666666666667</ele><time>2026-05-01T13:38:41.998Z</time></trkpt><trkpt lat="44.85007378254857" lon="8.993613039449695"><ele>392.5</ele><time>2026-05-01T13:38:42.998Z</time></trkpt><trkpt lat="44.85006471294962" lon="8.993718315465705"><ele>389.33333333333337</ele><time>2026-05-01T13:38:43.998Z</time></trkpt><trkpt lat="44.850059576126874" lon="8.993830683612845"><ele>386.1666666666667</ele><time>2026-05-01T13:38:44.998Z</time></trkpt><trkpt lat="44.850049539314035" lon="8.993936020280728"><ele>383.0</ele><time>2026-05-01T13:38:45.998Z</time></trkpt><trkpt lat="44.85002871672042" lon="8.994032802922236"><ele>383.0</ele><time>2026-05-01T13:38:46.998Z</time></trkpt><trkpt lat="44.84999159473621" lon="8.994120601016668"><ele>383.0</ele><time>2026-05-01T13:38:47.998Z</time></trkpt><trkpt lat="44.84996645323812" lon="8.994221595272863"><ele>383.0</ele><time>2026-05-01T13:38:48.998Z</time></trkpt><trkpt lat="44.84994998034266" lon="8.9943214214076"><ele>383.0</ele><time>2026-05-01T13:38:49.998Z</time></trkpt><trkpt lat="44.84993944431511" lon="8.994418052554467"><ele>383.0</ele><time>2026-05-01T13:38:50.998Z</time></trkpt><trkpt lat="44.84993073033396" lon="8.994594434408942"><ele>383.0</ele><time>2026-05-01T13:38:52.997Z</time></trkpt><trkpt lat="44.84994520716516" lon="8.994787767245636"><ele>381.42857142857144</ele><time>2026-05-01T13:38:54.997Z</time></trkpt><trkpt lat="44.849946873647994" lon="8.994880707559046"><ele>379.85714285714283</ele><time>2026-05-01T13:38:55.997Z</time></trkpt><trkpt lat="44.84993592351038" lon="8.994991172229229"><ele>378.28571428571433</ele><time>2026-05-01T13:38:56.997Z</time></trkpt><trkpt lat="44.849934501293774" lon="8.995098203698658"><ele>376.7142857142857</ele><time>2026-05-01T13:38:57.997Z</time></trkpt><trkpt lat="44.84992482587074" lon="8.995196583673659"><ele>375.14285714285717</ele><time>2026-05-01T13:38:58.997Z</time></trkpt><trkpt lat="44.84991598426908" lon="8.995295641646809"><ele>373.5714285714286</ele><time>2026-05-01T13:38:59.997Z</time></trkpt><trkpt lat="44.84989753551093" lon="8.995393650198732"><ele>372.0</ele><time>2026-05-01T13:39:00.997Z</time></trkpt><trkpt lat="44.84987820120292" lon="8.99548944843268"><ele>370.0</ele><time>2026-05-01T13:39:01.997Z</time></trkpt><trkpt lat="44.84986470674272" lon="8.995580574238295"><ele>368.0</ele><time>2026-05-01T13:39:02.997Z</time></trkpt><trkpt lat="44.84983460956579" lon="8.995728553025398"><ele>366.0</ele><time>2026-05-01T13:39:04.997Z</time></trkpt><trkpt lat="44.84978052761107" lon="8.99586079403841"><ele>364.0</ele><time>2026-05-01T13:39:06.997Z</time></trkpt><trkpt lat="44.84966641055255" lon="8.995926889146176"><ele>362.0</ele><time>2026-05-01T13:39:08.997Z</time></trkpt><trkpt lat="44.849596031072714" lon="8.995945987846413"><ele>362.0</ele><time>2026-05-01T13:39:09.997Z</time></trkpt><trkpt lat="44.84952913495455" lon="8.996009720576083"><ele>362.0</ele><time>2026-05-01T13:39:10.997Z</time></trkpt><trkpt lat="44.84945537328314" lon="8.996056043265396"><ele>362.0</ele><time>2026-05-01T13:39:11.997Z</time></trkpt><trkpt lat="44.84939906307218" lon="8.996098126789393"><ele>362.0</ele><time>2026-05-01T13:39:12.997Z</time></trkpt><trkpt lat="44.849345981841395" lon="8.99616629364568"><ele>362.0</ele><time>2026-05-01T13:39:13.997Z</time></trkpt><trkpt lat="44.84930837948746" lon="8.996250370464605"><ele>362.0</ele><time>2026-05-01T13:39:14.997Z</time></trkpt><trkpt lat="44.84928253460598" lon="8.99633785050234"><ele>362.0</ele><time>2026-05-01T13:39:15.997Z</time></trkpt><trkpt lat="44.84920918982177" lon="8.99644822296281"><ele>362.0</ele><time>2026-05-01T13:39:17.997Z</time></trkpt><trkpt lat="44.849165733132324" lon="8.99652513559829"><ele>362.0</ele><time>2026-05-01T13:39:18.997Z</time></trkpt><trkpt lat="44.849120280349794" lon="8.996622825615367"><ele>362.0</ele><time>2026-05-01T13:39:19.997Z</time></trkpt><trkpt lat="44.84907651561336" lon="8.996693898309935"><ele>362.0</ele><time>2026-05-01T13:39:20.997Z</time></trkpt><trkpt lat="44.84903375107237" lon="8.996760088205072"><ele>362.0</ele><time>2026-05-01T13:39:21.997Z</time></trkpt><trkpt lat="44.84899606797739" lon="8.996847190193979"><ele>362.0</ele><time>2026-05-01T13:39:22.997Z</time></trkpt><trkpt lat="44.84896688320141" lon="8.996933328251245"><ele>362.0</ele><time>2026-05-01T13:39:23.997Z</time></trkpt><trkpt lat="44.848932033654954" lon="8.99705386478274"><ele>358.83333333333337</ele><time>2026-05-01T13:39:24.997Z</time></trkpt><trkpt lat="44.84891569799524" lon="8.997139633484446"><ele>355.6666666666667</ele><time>2026-05-01T13:39:25.997Z</time></trkpt><trkpt lat="44.84889547830165" lon="8.997229422045299"><ele>352.5</ele><time>2026-05-01T13:39:26.996Z</time></trkpt><trkpt lat="44.84888897396902" lon="8.997323589759363"><ele>349.3333333333333</ele><time>2026-05-01T13:39:27.996Z</time></trkpt><trkpt lat="44.848878036302956" lon="8.997425314117443"><ele>346.16666666666663</ele><time>2026-05-01T13:39:29Z</time></trkpt><trkpt lat="44.84886907888044" lon="8.997616911414898"><ele>343.0</ele><time>2026-05-01T13:39:31Z</time></trkpt><trkpt lat="44.84887416301341" lon="8.997799856938487"><ele>340.79999999999995</ele><time>2026-05-01T13:39:33Z</time></trkpt><trkpt lat="44.84882501128331" lon="8.997914856474834"><ele>338.6</ele><time>2026-05-01T13:39:35Z</time></trkpt><trkpt lat="44.84882755866502" lon="8.99805935288001"><ele>336.4</ele><time>2026-05-01T13:39:37Z</time></trkpt><trkpt lat="44.848911460630696" lon="8.998128614588756"><ele>334.20000000000005</ele><time>2026-05-01T13:39:39Z</time></trkpt><trkpt lat="44.84897684616137" lon="8.998269043269207"><ele>332.0</ele><time>2026-05-01T13:39:41Z</time></trkpt><trkpt lat="44.849064465535456" lon="8.998384579231747"><ele>331.0</ele><time>2026-05-01T13:39:43Z</time></trkpt><trkpt lat="44.84911554603613" lon="8.998532786367374"><ele>330.0</ele><time>2026-05-01T13:39:45Z</time></trkpt><trkpt lat="44.84912755844187" lon="8.998625040510886"><ele>329.0</ele><time>2026-05-01T13:39:46Z</time></trkpt><trkpt lat="44.84913963869078" lon="8.998719070760721"><ele>328.0</ele><time>2026-05-01T13:39:47Z</time></trkpt><trkpt lat="44.849139230382384" lon="8.998808465825267"><ele>327.0</ele><time>2026-05-01T13:39:48Z</time></trkpt><trkpt lat="44.8491687702657" lon="8.99889544030478"><ele>326.0</ele><time>2026-05-01T13:39:49Z</time></trkpt><trkpt lat="44.8492055765" lon="8.998985410926146"><ele>326.0</ele><time>2026-05-01T13:39:50Z</time></trkpt><trkpt lat="44.84924401581884" lon="8.999076779568366"><ele>326.0</ele><time>2026-05-01T13:39:51Z</time></trkpt><trkpt lat="44.8493006229752" lon="8.999243474234204"><ele>326.0</ele><time>2026-05-01T13:39:53Z</time></trkpt><trkpt lat="44.84935234320603" lon="8.999400047651264"><ele>326.0</ele><time>2026-05-01T13:39:54.999Z</time></trkpt><trkpt lat="44.849384180618465" lon="8.999479458367707"><ele>326.0</ele><time>2026-05-01T13:39:55.999Z</time></trkpt><trkpt lat="44.84940993793807" lon="8.999573835795164"><ele>325.1666666666667</ele><time>2026-05-01T13:39:56.999Z</time></trkpt><trkpt lat="44.84942362523451" lon="8.999666920922493"><ele>324.33333333333337</ele><time>2026-05-01T13:39:57.999Z</time></trkpt><trkpt lat="44.849439874329754" lon="8.99980162019767"><ele>323.5</ele><time>2026-05-01T13:39:59.999Z</time></trkpt><trkpt lat="44.84938576952722" lon="8.999901244810193"><ele>322.6666666666667</ele><time>2026-05-01T13:40:10.999Z</time></trkpt><trkpt lat="44.849331724427216" lon="8.999967199688461"><ele>321.8333333333333</ele><time>2026-05-01T13:40:11.999Z</time></trkpt><trkpt lat="44.84927993641196" lon="9.000088462357526"><ele>321.0</ele><time>2026-05-01T13:40:13.999Z</time></trkpt><trkpt lat="44.84928038486705" lon="9.00018895767706"><ele>321.0</ele><time>2026-05-01T13:40:15.999Z</time></trkpt><trkpt lat="44.84923649510681" lon="9.000259542352453"><ele>321.0</ele><time>2026-05-01T13:40:17.999Z</time></trkpt><trkpt lat="44.849166227322236" lon="9.000250884337436"><ele>321.0</ele><time>2026-05-01T13:40:19.999Z</time></trkpt><trkpt lat="44.849110170477296" lon="9.000153337762487"><ele>321.0</ele><time>2026-05-01T13:40:21.999Z</time></trkpt><trkpt lat="44.849096495631095" lon="9.000056155303229"><ele>321.0</ele><time>2026-05-01T13:40:22.999Z</time></trkpt><trkpt lat="44.8490326375735" lon="8.999941832162827"><ele>321.0</ele><time>2026-05-01T13:40:24.999Z</time></trkpt><trkpt lat="44.84896668182541" lon="8.99990859547605"><ele>321.0</ele><time>2026-05-01T13:40:25.999Z</time></trkpt><trkpt lat="44.84884131946717" lon="8.99985016908577"><ele>321.0</ele><time>2026-05-01T13:40:27.998Z</time></trkpt><trkpt lat="44.84875212385158" lon="8.999840159999811"><ele>321.0</ele><time>2026-05-01T13:40:29.998Z</time></trkpt><trkpt lat="44.848642932769124" lon="8.999927267748475"><ele>321.0</ele><time>2026-05-01T13:40:31.998Z</time></trkpt><trkpt lat="44.84858120299837" lon="8.999961702673074"><ele>321.0</ele><time>2026-05-01T13:40:32.998Z</time></trkpt><trkpt lat="44.848497790255905" lon="8.99998967240653"><ele>324.0</ele><time>2026-05-01T13:40:33.998Z</time></trkpt><trkpt lat="44.848403787592694" lon="9.000006225978014"><ele>327.0</ele><time>2026-05-01T13:40:34.998Z</time></trkpt><trkpt lat="44.848322248921285" lon="9.00001009789543"><ele>330.0</ele><time>2026-05-01T13:40:35.998Z</time></trkpt><trkpt lat="44.8482460253522" lon="9.00011470783305"><ele>333.0</ele><time>2026-05-01T13:40:37.998Z</time></trkpt><trkpt lat="44.84821511927598" lon="9.000252153887773"><ele>336.0</ele><time>2026-05-01T13:40:38.998Z</time></trkpt><trkpt lat="44.84818521766987" lon="9.00036845598711"><ele>336.0</ele><time>2026-05-01T13:40:39.998Z</time></trkpt><trkpt lat="44.848166934684805" lon="9.00047711352567"><ele>336.0</ele><time>2026-05-01T13:40:41.998Z</time></trkpt><trkpt lat="44.84808007830722" lon="9.000571038276094"><ele>336.0</ele><time>2026-05-01T13:40:42.998Z</time></trkpt><trkpt lat="44.84801809115125" lon="9.000601393208573"><ele>336.0</ele><time>2026-05-01T13:40:43.998Z</time></trkpt><trkpt lat="44.847956075059294" lon="9.000545243718248"><ele>336.0</ele><time>2026-05-01T13:40:44.998Z</time></trkpt><trkpt lat="44.847864381120424" lon="9.000561366073253"><ele>336.0</ele><time>2026-05-01T13:40:46.998Z</time></trkpt><trkpt lat="44.84782179931129" lon="9.000664518070096"><ele>336.0</ele><time>2026-05-01T13:40:47.998Z</time></trkpt><trkpt lat="44.84776067080628" lon="9.000739582867206"><ele>336.0</ele><time>2026-05-01T13:40:48.998Z</time></trkpt><trkpt lat="44.847692612423884" lon="9.000815631713772"><ele>336.0</ele><time>2026-05-01T13:40:49.998Z</time></trkpt><trkpt lat="44.84763450457674" lon="9.00091400467385"><ele>336.0</ele><time>2026-05-01T13:40:50.998Z</time></trkpt><trkpt lat="44.847594564397006" lon="9.000997094257322"><ele>336.0</ele><time>2026-05-01T13:40:51.998Z</time></trkpt><trkpt lat="44.84751592880421" lon="9.001063903517187"><ele>336.0</ele><time>2026-05-01T13:40:53.998Z</time></trkpt><trkpt lat="44.84739553663627" lon="9.001010040336016"><ele>338.0</ele><time>2026-05-01T13:40:55.998Z</time></trkpt><trkpt lat="44.84730157733983" lon="9.000927019827149"><ele>340.0</ele><time>2026-05-01T13:40:57.998Z</time></trkpt><trkpt lat="44.847254420616814" lon="9.001017663890215"><ele>342.0</ele><time>2026-05-01T13:41:38Z</time></trkpt><trkpt lat="44.847314098781226" lon="9.001138214085165"><ele>344.0</ele><time>2026-05-01T13:41:40Z</time></trkpt><trkpt lat="44.84735509226225" lon="9.001253699439099"><ele>346.0</ele><time>2026-05-01T13:41:42Z</time></trkpt><trkpt lat="44.84731738017754" lon="9.00143038824505"><ele>346.0</ele><time>2026-05-01T13:41:44Z</time></trkpt><trkpt lat="44.84729889336232" lon="9.00154007536044"><ele>346.0</ele><time>2026-05-01T13:41:45Z</time></trkpt><trkpt lat="44.84728332626598" lon="9.00164215789465"><ele>346.0</ele><time>2026-05-01T13:41:46Z</time></trkpt><trkpt lat="44.847267372092645" lon="9.001732466442473"><ele>346.0</ele><time>2026-05-01T13:41:47Z</time></trkpt><trkpt lat="44.84723753795171" lon="9.001893883878529"><ele>346.0</ele><time>2026-05-01T13:41:49Z</time></trkpt><trkpt lat="44.84722320216886" lon="9.001984483476154"><ele>346.0</ele><time>2026-05-01T13:41:50Z</time></trkpt><trkpt lat="44.84715717562835" lon="9.002130406216562"><ele>343.5</ele><time>2026-05-01T13:41:52Z</time></trkpt><trkpt lat="44.84710030837677" lon="9.002220267302791"><ele>341.0</ele><time>2026-05-01T13:41:53Z</time></trkpt><trkpt lat="44.84705328151735" lon="9.00229409278719"><ele>338.5</ele><time>2026-05-01T13:41:54Z</time></trkpt><trkpt lat="44.847023290119985" lon="9.002387718687867"><ele>336.0</ele><time>2026-05-01T13:41:55Z</time></trkpt><trkpt lat="44.84700940946173" lon="9.002481553769368"><ele>333.5</ele><time>2026-05-01T13:41:56Z</time></trkpt><trkpt lat="44.84701047075202" lon="9.002630872000626"><ele>331.0</ele><time>2026-05-01T13:41:58Z</time></trkpt><trkpt lat="44.84708539924072" lon="9.00271582221615"><ele>328.66666666666663</ele><time>2026-05-01T13:42:00Z</time></trkpt><trkpt lat="44.84713483201705" lon="9.002786868385678"><ele>326.3333333333333</ele><time>2026-05-01T13:42:01Z</time></trkpt><trkpt lat="44.847182578069216" lon="9.002942415823261"><ele>324.0</ele><time>2026-05-01T13:42:03Z</time></trkpt><trkpt lat="44.8471755523362" lon="9.003039430358323"><ele>321.6666666666667</ele><time>2026-05-01T13:42:04Z</time></trkpt><trkpt lat="44.84716496254895" lon="9.003129775609123"><ele>319.33333333333337</ele><time>2026-05-01T13:42:04.999Z</time></trkpt><trkpt lat="44.847154825659594" lon="9.003234055858435"><ele>317.0</ele><time>2026-05-01T13:42:05.999Z</time></trkpt><trkpt lat="44.84712925758779" lon="9.003366717678622"><ele>316.5</ele><time>2026-05-01T13:42:07.999Z</time></trkpt><trkpt lat="44.847103664248415" lon="9.003480085727697"><ele>316.0</ele><time>2026-05-01T13:42:09.999Z</time></trkpt><trkpt lat="44.84705098357572" lon="9.003536116487393"><ele>315.5</ele><time>2026-05-01T13:42:11.999Z</time></trkpt><trkpt lat="44.846960582044765" lon="9.003585792168447"><ele>315.0</ele><time>2026-05-01T13:42:14.999Z</time></trkpt><trkpt lat="44.84688285726589" lon="9.003596094173817"><ele>314.5</ele><time>2026-05-01T13:42:19.999Z</time></trkpt><trkpt lat="44.84680242543231" lon="9.00356348551704"><ele>314.0</ele><time>2026-05-01T13:42:22.999Z</time></trkpt><trkpt lat="44.84674732958116" lon="9.003495947963419"><ele>314.0</ele><time>2026-05-01T13:42:24.999Z</time></trkpt><trkpt lat="44.84668355855842" lon="9.003424991221976"><ele>314.0</ele><time>2026-05-01T13:42:26.999Z</time></trkpt><trkpt lat="44.846558882439474" lon="9.003284255014627"><ele>314.0</ele><time>2026-05-01T13:42:29.999Z</time></trkpt><trkpt lat="44.84648609083411" lon="9.003205032135416"><ele>314.0</ele><time>2026-05-01T13:42:31.999Z</time></trkpt><trkpt lat="44.84644133096794" lon="9.00308242902662"><ele>314.0</ele><time>2026-05-01T13:42:34.999Z</time></trkpt><trkpt lat="44.84637189595385" lon="9.00306388860841"><ele>314.0</ele><time>2026-05-01T13:42:36.999Z</time></trkpt><trkpt lat="44.8462941375893" lon="9.003115730366995"><ele>314.0</ele><time>2026-05-01T13:42:38.998Z</time></trkpt><trkpt lat="44.84625781278558" lon="9.003206233511593"><ele>314.0</ele><time>2026-05-01T13:42:57.998Z</time></trkpt><trkpt lat="44.846227757125085" lon="9.003285959129032"><ele>314.0</ele><time>2026-05-01T13:42:59.998Z</time></trkpt><trkpt lat="44.84627668030672" lon="9.00339200159545"><ele>314.0</ele><time>2026-05-01T13:43:01.998Z</time></trkpt><trkpt lat="44.84630661815782" lon="9.003474269235635"><ele>314.0</ele><time>2026-05-01T13:43:02.998Z</time></trkpt><trkpt lat="44.84634686793432" lon="9.003608451372614"><ele>314.0</ele><time>2026-05-01T13:43:04.998Z</time></trkpt><trkpt lat="44.84637683160913" lon="9.00372592433858"><ele>314.0</ele><time>2026-05-01T13:43:06.998Z</time></trkpt><trkpt lat="44.846312670347764" lon="9.00377992642201"><ele>314.0</ele><time>2026-05-01T13:43:08.998Z</time></trkpt><trkpt lat="44.846200739518444" lon="9.00379889277027"><ele>314.0</ele><time>2026-05-01T13:43:10.997Z</time></trkpt><trkpt lat="44.84609170074305" lon="9.003842782463183"><ele>314.0</ele><time>2026-05-01T13:43:12.997Z</time></trkpt><trkpt lat="44.84598951173085" lon="9.003893255282229"><ele>311.1666666666667</ele><time>2026-05-01T13:43:14.997Z</time></trkpt><trkpt lat="44.845928306186536" lon="9.003982858417956"><ele>308.33333333333337</ele><time>2026-05-01T13:43:16.997Z</time></trkpt><trkpt lat="44.84584421962974" lon="9.003998307973314"><ele>305.5</ele><time>2026-05-01T13:43:18.997Z</time></trkpt><trkpt lat="44.84575445675727" lon="9.004021927577234"><ele>302.6666666666667</ele><time>2026-05-01T13:43:21.997Z</time></trkpt><trkpt lat="44.84569587454494" lon="9.00406174947401"><ele>299.8333333333333</ele><time>2026-05-01T13:43:24.997Z</time></trkpt><trkpt lat="44.845639861980615" lon="9.00411301964318"><ele>297.0</ele><time>2026-05-01T13:43:39.997Z</time></trkpt><trkpt lat="44.84555002311814" lon="9.004188622309593"><ele>296.6666666666667</ele><time>2026-05-01T13:43:42Z</time></trkpt><trkpt lat="44.845512179370175" lon="9.004274966057995"><ele>296.3333333333333</ele><time>2026-05-01T13:43:44Z</time></trkpt><trkpt lat="44.845492868911435" lon="9.004377681076539"><ele>296.0</ele><time>2026-05-01T13:43:46Z</time></trkpt><trkpt lat="44.84550147465747" lon="9.00449511476957"><ele>295.66666666666663</ele><time>2026-05-01T13:43:49Z</time></trkpt><trkpt lat="44.845530581554534" lon="9.004588691052664"><ele>295.3333333333333</ele><time>2026-05-01T13:43:51Z</time></trkpt><trkpt lat="44.845580303399245" lon="9.004697183048648"><ele>295.0</ele><time>2026-05-01T13:43:53Z</time></trkpt><trkpt lat="44.84563371850735" lon="9.004795827638217"><ele>295.0</ele><time>2026-05-01T13:43:55Z</time></trkpt><trkpt lat="44.84568266790263" lon="9.004922800912984"><ele>295.0</ele><time>2026-05-01T13:43:57Z</time></trkpt><trkpt lat="44.8457099417036" lon="9.005066534786454"><ele>295.0</ele><time>2026-05-01T13:43:59Z</time></trkpt><trkpt lat="44.84575489487642" lon="9.005179560878574"><ele>295.0</ele><time>2026-05-01T13:44:01Z</time></trkpt><trkpt lat="44.845798480212935" lon="9.005289042007858"><ele>295.0</ele><time>2026-05-01T13:44:03Z</time></trkpt><trkpt lat="44.845884967261654" lon="9.005365414541112"><ele>294.8</ele><time>2026-05-01T13:44:05Z</time></trkpt><trkpt lat="44.84592043944337" lon="9.005487254930607"><ele>294.6</ele><time>2026-05-01T13:44:07Z</time></trkpt><trkpt lat="44.84594722422514" lon="9.00556991059478"><ele>294.4</ele><time>2026-05-01T13:44:08Z</time></trkpt><trkpt lat="44.845995369612716" lon="9.00572646659753"><ele>294.2</ele><time>2026-05-01T13:44:10Z</time></trkpt><trkpt lat="44.84604104109529" lon="9.005887647433374"><ele>294.0</ele><time>2026-05-01T13:44:11.999Z</time></trkpt><trkpt lat="44.846099165315984" lon="9.006036361818419"><ele>294.8</ele><time>2026-05-01T13:44:13.999Z</time></trkpt><trkpt lat="44.84613967142248" lon="9.006157424655921"><ele>295.59999999999997</ele><time>2026-05-01T13:44:15.999Z</time></trkpt><trkpt lat="44.846190917394516" lon="9.006326505585474"><ele>296.4</ele><time>2026-05-01T13:44:17.999Z</time></trkpt><trkpt lat="44.84620415447009" lon="9.006413538591637"><ele>297.2</ele><time>2026-05-01T13:44:18.999Z</time></trkpt><trkpt lat="44.84621857907449" lon="9.006501041185967"><ele>298.0</ele><time>2026-05-01T13:44:19.999Z</time></trkpt><trkpt lat="44.84625128328596" lon="9.006634654059196"><ele>297.5</ele><time>2026-05-01T13:44:21.999Z</time></trkpt><trkpt lat="44.84626101164693" lon="9.006812882588475"><ele>297.0</ele><time>2026-05-01T13:44:23.999Z</time></trkpt><trkpt lat="44.84628711238551" lon="9.006902526208842"><ele>296.5</ele><time>2026-05-01T13:44:24.999Z</time></trkpt><trkpt lat="44.846311096435976" lon="9.006994346056036"><ele>296.0</ele><time>2026-05-01T13:44:25.999Z</time></trkpt><trkpt lat="44.84633048457951" lon="9.007083863492113"><ele>295.5</ele><time>2026-05-01T13:44:26.999Z</time></trkpt><trkpt lat="44.84635149528329" lon="9.00721458884514"><ele>295.0</ele><time>2026-05-01T13:44:28.999Z</time></trkpt><trkpt lat="44.846362409565195" lon="9.007363344840254"><ele>295.0</ele><time>2026-05-01T13:44:30.999Z</time></trkpt><trkpt lat="44.8463879705699" lon="9.007491048761404"><ele>295.0</ele><time>2026-05-01T13:44:32.999Z</time></trkpt><trkpt lat="44.84642915162126" lon="9.007581828712944"><ele>295.0</ele><time>2026-05-01T13:44:34.999Z</time></trkpt><trkpt lat="44.846464761591086" lon="9.007670935361077"><ele>295.0</ele><time>2026-05-01T13:44:36.999Z</time></trkpt><trkpt lat="44.84648722234846" lon="9.007788345905727"><ele>295.0</ele><time>2026-05-01T13:44:38.999Z</time></trkpt><trkpt lat="44.84654919297111" lon="9.007924333953241"><ele>295.0</ele><time>2026-05-01T13:44:41.999Z</time></trkpt><trkpt lat="44.846593268850505" lon="9.008037216267969"><ele>293.2</ele><time>2026-05-01T13:44:43.998Z</time></trkpt><trkpt lat="44.84665202229213" lon="9.008124710032622"><ele>291.4</ele><time>2026-05-01T13:44:45.998Z</time></trkpt><trkpt lat="44.84664070916653" lon="9.008228221495164"><ele>289.6</ele><time>2026-05-01T13:44:48.998Z</time></trkpt><trkpt lat="44.84677879913849" lon="9.008309914140124"><ele>287.8</ele><time>2026-05-01T13:44:49.998Z</time></trkpt><trkpt lat="44.8468323673353" lon="9.00841856658708"><ele>286.0</ele><time>2026-05-01T13:44:51.998Z</time></trkpt><trkpt lat="44.846901663127504" lon="9.008525947810767"><ele>281.6</ele><time>2026-05-01T13:44:53.998Z</time></trkpt><trkpt lat="44.84693083007341" lon="9.008631523102494"><ele>277.20000000000005</ele><time>2026-05-01T13:44:55.998Z</time></trkpt><trkpt lat="44.84698798057417" lon="9.008737153221318"><ele>272.79999999999995</ele><time>2026-05-01T13:44:57.998Z</time></trkpt><trkpt lat="44.84703946653519" lon="9.008792891758553"><ele>268.4</ele><time>2026-05-01T13:44:59.998Z</time></trkpt><trkpt lat="44.84712163336284" lon="9.008858440283294"><ele>264.0</ele><time>2026-05-01T13:45:01.998Z</time></trkpt><trkpt lat="44.847193038368225" lon="9.009004470173883"><ele>264.0</ele><time>2026-05-01T13:45:03.998Z</time></trkpt><trkpt lat="44.84723000847765" lon="9.009081253037515"><ele>264.0</ele><time>2026-05-01T13:45:04.998Z</time></trkpt><trkpt lat="44.847270698388655" lon="9.009149756876447"><ele>264.0</ele><time>2026-05-01T13:45:05.998Z</time></trkpt><trkpt lat="44.84733048292191" lon="9.009275582854706"><ele>264.0</ele><time>2026-05-01T13:45:07.998Z</time></trkpt><trkpt lat="44.847346788570526" lon="9.009363863607083"><ele>264.0</ele><time>2026-05-01T13:45:08.998Z</time></trkpt><trkpt lat="44.847346655467675" lon="9.009469771121834"><ele>264.0</ele><time>2026-05-01T13:45:09.998Z</time></trkpt><trkpt lat="44.84734172523286" lon="9.009577160662046"><ele>261.2</ele><time>2026-05-01T13:45:10.998Z</time></trkpt><trkpt lat="44.84735524251885" lon="9.009744003489143"><ele>258.4</ele><time>2026-05-01T13:45:12.998Z</time></trkpt><trkpt lat="44.84738748776078" lon="9.009821918479496"><ele>255.6</ele><time>2026-05-01T13:45:13.998Z</time></trkpt><trkpt lat="44.84746633906753" lon="9.009944204534525"><ele>252.8</ele><time>2026-05-01T13:45:15.997Z</time></trkpt><trkpt lat="44.84756197443742" lon="9.009994001086918"><ele>250.0</ele><time>2026-05-01T13:45:17.997Z</time></trkpt><trkpt lat="44.84762841177801" lon="9.010006590108441"><ele>247.0</ele><time>2026-05-01T13:45:18.997Z</time></trkpt><trkpt lat="44.847762333323566" lon="9.009979483032447"><ele>244.0</ele><time>2026-05-01T13:45:20.997Z</time></trkpt><trkpt lat="44.84784193466973" lon="9.009962011208074"><ele>241.0</ele><time>2026-05-01T13:45:21.997Z</time></trkpt><trkpt lat="44.84793627564579" lon="9.009971853834784"><ele>238.0</ele><time>2026-05-01T13:45:22.997Z</time></trkpt><trkpt lat="44.848031271534566" lon="9.009985885603195"><ele>235.0</ele><time>2026-05-01T13:45:23.997Z</time></trkpt><trkpt lat="44.848109928404284" lon="9.009995517016375"><ele>234.99999999999997</ele><time>2026-05-01T13:45:24.997Z</time></trkpt><trkpt lat="44.848198970587816" lon="9.009999728000755"><ele>235.0</ele><time>2026-05-01T13:45:25.997Z</time></trkpt><trkpt lat="44.84827546575314" lon="9.010012144652418"><ele>235.0</ele><time>2026-05-01T13:45:26.997Z</time></trkpt><trkpt lat="44.848356178235974" lon="9.010021970063613"><ele>235.0</ele><time>2026-05-01T13:45:27.997Z</time></trkpt><trkpt lat="44.84843053795447" lon="9.010032367819646"><ele>234.99999999999997</ele><time>2026-05-01T13:45:28.997Z</time></trkpt><trkpt lat="44.84854549841361" lon="9.010042704418094"><ele>235.0</ele><time>2026-05-01T13:45:30.997Z</time></trkpt><trkpt lat="44.84860756149958" lon="9.010078002649328"><ele>234.0</ele><time>2026-05-01T13:45:32.997Z</time></trkpt><trkpt lat="44.84867156792663" lon="9.010117429879141"><ele>233.0</ele><time>2026-05-01T13:45:58Z</time></trkpt><trkpt lat="44.84876531402614" lon="9.010018274045581"><ele>232.0</ele><time>2026-05-01T13:46:00Z</time></trkpt><trkpt lat="44.84882190798986" lon="9.00994535951195"><ele>231.0</ele><time>2026-05-01T13:46:01Z</time></trkpt><trkpt lat="44.84888966323438" lon="9.009861453047423"><ele>230.0</ele><time>2026-05-01T13:46:02Z</time></trkpt><trkpt lat="44.848969684929145" lon="9.009769365899722"><ele>230.0</ele><time>2026-05-01T13:46:03Z</time></trkpt><trkpt lat="44.849047522013976" lon="9.009677349608737"><ele>230.0</ele><time>2026-05-01T13:46:04Z</time></trkpt><trkpt lat="44.84913160981496" lon="9.009576234573238"><ele>230.0</ele><time>2026-05-01T13:46:05Z</time></trkpt><trkpt lat="44.849221707645356" lon="9.009475495606939"><ele>230.0</ele><time>2026-05-01T13:46:06Z</time></trkpt><trkpt lat="44.84931290217387" lon="9.009378321937492"><ele>230.0</ele><time>2026-05-01T13:46:07Z</time></trkpt><trkpt lat="44.849407765378274" lon="9.009266311273453"><ele>230.0</ele><time>2026-05-01T13:46:08Z</time></trkpt><trkpt lat="44.84950630908814" lon="9.009152095812366"><ele>230.0</ele><time>2026-05-01T13:46:09Z</time></trkpt><trkpt lat="44.84960623837717" lon="9.009035803424485"><ele>230.0</ele><time>2026-05-01T13:46:10Z</time></trkpt><trkpt lat="44.84970655528044" lon="9.008913656529453"><ele>230.0</ele><time>2026-05-01T13:46:11Z</time></trkpt><trkpt lat="44.849814612050984" lon="9.008795661563285"><ele>230.0</ele><time>2026-05-01T13:46:12Z</time></trkpt><trkpt lat="44.84992319372161" lon="9.00867652663991"><ele>230.0</ele><time>2026-05-01T13:46:13Z</time></trkpt><trkpt lat="44.85002908676456" lon="9.008555200564338"><ele>230.0</ele><time>2026-05-01T13:46:14Z</time></trkpt><trkpt lat="44.85013984721928" lon="9.008427442252195"><ele>230.0</ele><time>2026-05-01T13:46:15Z</time></trkpt><trkpt lat="44.85025123712188" lon="9.008304055602359"><ele>230.0</ele><time>2026-05-01T13:46:16Z</time></trkpt><trkpt lat="44.85036407574545" lon="9.008177491369125"><ele>230.0</ele><time>2026-05-01T13:46:17Z</time></trkpt><trkpt lat="44.85046966130699" lon="9.008064976657192"><ele>230.0</ele><time>2026-05-01T13:46:17.999Z</time></trkpt><trkpt lat="44.85058319283093" lon="9.007955883744394"><ele>230.0</ele><time>2026-05-01T13:46:18.999Z</time></trkpt><trkpt lat="44.85069863153395" lon="9.007864180552172"><ele>230.0</ele><time>2026-05-01T13:46:19.999Z</time></trkpt><trkpt lat="44.85081594716551" lon="9.007788697808557"><ele>230.0</ele><time>2026-05-01T13:46:20.999Z</time></trkpt><trkpt lat="44.85093456219997" lon="9.007716704620531"><ele>230.0</ele><time>2026-05-01T13:46:21.999Z</time></trkpt><trkpt lat="44.851060557017625" lon="9.007640857106944"><ele>230.0</ele><time>2026-05-01T13:46:22.999Z</time></trkpt><trkpt lat="44.85118873868155" lon="9.00758048840489"><ele>231.0</ele><time>2026-05-01T13:46:23.999Z</time></trkpt><trkpt lat="44.85131169696799" lon="9.007530438185768"><ele>232.0</ele><time>2026-05-01T13:46:24.999Z</time></trkpt><trkpt lat="44.851434662979614" lon="9.007473663003182"><ele>233.0</ele><time>2026-05-01T13:46:25.999Z</time></trkpt><trkpt lat="44.851559482383756" lon="9.007415999629599"><ele>234.0</ele><time>2026-05-01T13:46:26.999Z</time></trkpt><trkpt lat="44.85168480917019" lon="9.00735607091601"><ele>233.0</ele><time>2026-05-01T13:46:27.999Z</time></trkpt><trkpt lat="44.851809988178246" lon="9.00729759086982"><ele>232.0</ele><time>2026-05-01T13:46:28.999Z</time></trkpt><trkpt lat="44.85193519677988" lon="9.007243156930631"><ele>231.0</ele><time>2026-05-01T13:46:29.999Z</time></trkpt><trkpt lat="44.85205730670686" lon="9.00718565997963"><ele>230.0</ele><time>2026-05-01T13:46:30.999Z</time></trkpt><trkpt lat="44.85218144945777" lon="9.007125728056703"><ele>230.0</ele><time>2026-05-01T13:46:31.999Z</time></trkpt><trkpt lat="44.8523037395788" lon="9.00706690366721"><ele>230.0</ele><time>2026-05-01T13:46:32.999Z</time></trkpt><trkpt lat="44.85242301797558" lon="9.007010358280386"><ele>230.0</ele><time>2026-05-01T13:46:33.999Z</time></trkpt><trkpt lat="44.85253857887369" lon="9.00695578526979"><ele>230.0</ele><time>2026-05-01T13:46:34.999Z</time></trkpt><trkpt lat="44.8526482136599" lon="9.006911760482314"><ele>228.75</ele><time>2026-05-01T13:46:35.999Z</time></trkpt><trkpt lat="44.85276291670135" lon="9.006860747873354"><ele>227.5</ele><time>2026-05-01T13:46:36.999Z</time></trkpt><trkpt lat="44.852870297645964" lon="9.006810396938944"><ele>226.25</ele><time>2026-05-01T13:46:37.999Z</time></trkpt><trkpt lat="44.85298084468512" lon="9.006758419557968"><ele>225.0</ele><time>2026-05-01T13:46:38.999Z</time></trkpt><trkpt lat="44.85308994578715" lon="9.006707583213572"><ele>225.5</ele><time>2026-05-01T13:46:39.999Z</time></trkpt><trkpt lat="44.853196939295316" lon="9.006657164291594"><ele>226.0</ele><time>2026-05-01T13:46:40.999Z</time></trkpt><trkpt lat="44.85330479267045" lon="9.006606936300297"><ele>226.5</ele><time>2026-05-01T13:46:41.999Z</time></trkpt><trkpt lat="44.85341097640286" lon="9.006556044661137"><ele>227.0</ele><time>2026-05-01T13:46:42.999Z</time></trkpt><trkpt lat="44.853517039313616" lon="9.006503702394689"><ele>227.0</ele><time>2026-05-01T13:46:43.999Z</time></trkpt><trkpt lat="44.85362703827131" lon="9.006451957167107"><ele>227.0</ele><time>2026-05-01T13:46:44.999Z</time></trkpt><trkpt lat="44.85373465724821" lon="9.00640125556397"><ele>227.0</ele><time>2026-05-01T13:46:45.999Z</time></trkpt><trkpt lat="44.85384357962811" lon="9.006353000656299"><ele>227.0</ele><time>2026-05-01T13:46:46.999Z</time></trkpt><trkpt lat="44.85392592364797" lon="9.006319386836468"><ele>227.0</ele><time>2026-05-01T13:46:47.999Z</time></trkpt><trkpt lat="44.85390200309245" lon="9.00644806154653"><ele>227.0</ele><time>2026-05-01T13:46:54.998Z</time></trkpt><trkpt lat="44.85396011564697" lon="9.006621828846955"><ele>227.0</ele><time>2026-05-01T13:46:56.998Z</time></trkpt><trkpt lat="44.85400742103257" lon="9.006740001443942"><ele>227.0</ele><time>2026-05-01T13:46:57.998Z</time></trkpt><trkpt lat="44.85406622257212" lon="9.006848537168915"><ele>227.0</ele><time>2026-05-01T13:46:58.998Z</time></trkpt><trkpt lat="44.85412586521022" lon="9.006985003174293"><ele>227.0</ele><time>2026-05-01T13:46:59.998Z</time></trkpt><trkpt lat="44.85417984012809" lon="9.007104332628584"><ele>226.00000000000003</ele><time>2026-05-01T13:47:00.998Z</time></trkpt><trkpt lat="44.85421388623863" lon="9.007218470405443"><ele>225.0</ele><time>2026-05-01T13:47:01.998Z</time></trkpt><trkpt lat="44.85426013898574" lon="9.007329322294714"><ele>224.0</ele><time>2026-05-01T13:47:02.998Z</time></trkpt><trkpt lat="44.85429706725991" lon="9.00741897318694"><ele>223.0</ele><time>2026-05-01T13:47:03.998Z</time></trkpt><trkpt lat="44.85435119810784" lon="9.007521603606012"><ele>222.00000000000003</ele><time>2026-05-01T13:47:04.998Z</time></trkpt><trkpt lat="44.85438681953531" lon="9.00760417595541"><ele>221.0</ele><time>2026-05-01T13:47:05.998Z</time></trkpt><trkpt lat="44.85441827679843" lon="9.007687596506154"><ele>220.16666666666669</ele><time>2026-05-01T13:47:06.998Z</time></trkpt><trkpt lat="44.854473346295705" lon="9.007829232111938"><ele>219.33333333333334</ele><time>2026-05-01T13:47:08.998Z</time></trkpt><trkpt lat="44.854534040236956" lon="9.007867076276256"><ele>218.5</ele><time>2026-05-01T13:47:09.998Z</time></trkpt><trkpt lat="44.854607530619994" lon="9.00787932075251"><ele>217.66666666666669</ele><time>2026-05-01T13:47:10.998Z</time></trkpt><trkpt lat="44.85468396168993" lon="9.00779933990622"><ele>216.83333333333334</ele><time>2026-05-01T13:47:11.998Z</time></trkpt><trkpt lat="44.854739313704016" lon="9.007695278111289"><ele>216.0</ele><time>2026-05-01T13:47:12.998Z</time></trkpt><trkpt lat="44.854836071839514" lon="9.007610143793018"><ele>216.0</ele><time>2026-05-01T13:47:13.998Z</time></trkpt><trkpt lat="44.85493847806462" lon="9.007520647958291"><ele>216.00000000000003</ele><time>2026-05-01T13:47:14.998Z</time></trkpt><trkpt lat="44.85504295410141" lon="9.007477352768538"><ele>216.00000000000003</ele><time>2026-05-01T13:47:15.998Z</time></trkpt><trkpt lat="44.85514716687164" lon="9.00743800242393"><ele>216.0</ele><time>2026-05-01T13:47:16.998Z</time></trkpt><trkpt lat="44.855240432829916" lon="9.007397892651797"><ele>216.0</ele><time>2026-05-01T13:47:17.998Z</time></trkpt><trkpt lat="44.855346757258154" lon="9.007349865934605"><ele>216.60000000000002</ele><time>2026-05-01T13:47:18.998Z</time></trkpt><trkpt lat="44.85544794079828" lon="9.007305148087863"><ele>217.20000000000002</ele><time>2026-05-01T13:47:19.998Z</time></trkpt><trkpt lat="44.85555663512814" lon="9.007257407498788"><ele>217.79999999999998</ele><time>2026-05-01T13:47:20.998Z</time></trkpt><trkpt lat="44.855653314776156" lon="9.00721113452672"><ele>218.39999999999998</ele><time>2026-05-01T13:47:21.998Z</time></trkpt><trkpt lat="44.85573873694127" lon="9.007164116549088"><ele>219.0</ele><time>2026-05-01T13:47:22.997Z</time></trkpt><trkpt lat="44.85580920441476" lon="9.007122686531035"><ele>219.0</ele><time>2026-05-01T13:47:23.997Z</time></trkpt><trkpt lat="44.8558746095659" lon="9.007099931761676"><ele>219.0</ele><time>2026-05-01T13:47:24.997Z</time></trkpt><trkpt lat="44.85598052320527" lon="9.007178706681232"><ele>219.0</ele><time>2026-05-01T13:47:26.997Z</time></trkpt><trkpt lat="44.85600607110014" lon="9.00726720066813"><ele>219.0</ele><time>2026-05-01T13:47:27.997Z</time></trkpt><trkpt lat="44.85599194181433" lon="9.007390783588338"><ele>219.0</ele><time>2026-05-01T13:47:28.997Z</time></trkpt><trkpt lat="44.856021900719846" lon="9.007509715995843"><ele>219.0</ele><time>2026-05-01T13:47:29.997Z</time></trkpt><trkpt lat="44.85602220812271" lon="9.007656428153853"><ele>220.79999999999998</ele><time>2026-05-01T13:47:30.997Z</time></trkpt><trkpt lat="44.85603691313199" lon="9.007802015356734"><ele>222.59999999999997</ele><time>2026-05-01T13:47:31.997Z</time></trkpt><trkpt lat="44.85604916120489" lon="9.007956068496199"><ele>224.4</ele><time>2026-05-01T13:47:32.997Z</time></trkpt><trkpt lat="44.856054184379495" lon="9.008109039108618"><ele>226.2</ele><time>2026-05-01T13:47:33.997Z</time></trkpt><trkpt lat="44.85605533795427" lon="9.008246819598039"><ele>228.0</ele><time>2026-05-01T13:47:34.997Z</time></trkpt><trkpt lat="44.856052752901626" lon="9.008368332317488"><ele>228.66666666666666</ele><time>2026-05-01T13:47:35.997Z</time></trkpt><trkpt lat="44.85604967488703" lon="9.008476012177267"><ele>229.33333333333331</ele><time>2026-05-01T13:47:36.997Z</time></trkpt><trkpt lat="44.85604832176596" lon="9.008565745626457"><ele>230.0</ele><time>2026-05-01T13:47:37.997Z</time></trkpt><trkpt lat="44.856071394513926" lon="9.008684225056642"><ele>230.66666666666666</ele><time>2026-05-01T13:47:39.997Z</time></trkpt><trkpt lat="44.85607685338265" lon="9.008854745071803"><ele>231.33333333333331</ele><time>2026-05-01T13:47:42.997Z</time></trkpt><trkpt lat="44.85609534576944" lon="9.008964979856733"><ele>232.0</ele><time>2026-05-01T13:47:43.997Z</time></trkpt><trkpt lat="44.85612070916322" lon="9.009105183930897"><ele>231.6</ele><time>2026-05-01T13:47:44.997Z</time></trkpt><trkpt lat="44.85614647540841" lon="9.009238358451366"><ele>231.2</ele><time>2026-05-01T13:47:45.997Z</time></trkpt><trkpt lat="44.856174239369196" lon="9.009381858438156"><ele>230.8</ele><time>2026-05-01T13:47:46.997Z</time></trkpt><trkpt lat="44.85620170375095" lon="9.009514715082025"><ele>230.4</ele><time>2026-05-01T13:47:47.997Z</time></trkpt><trkpt lat="44.85624294220046" lon="9.009647002260431"><ele>230.0</ele><time>2026-05-01T13:47:48.997Z</time></trkpt><trkpt lat="44.856224853264294" lon="9.00977867466997"><ele>230.0</ele><time>2026-05-01T13:47:49.997Z</time></trkpt><trkpt lat="44.85624179213335" lon="9.009929820253664"><ele>230.0</ele><time>2026-05-01T13:47:50.997Z</time></trkpt><trkpt lat="44.85623301938486" lon="9.01009545412905"><ele>230.0</ele><time>2026-05-01T13:47:51.997Z</time></trkpt><trkpt lat="44.8562495452528" lon="9.010260020401189"><ele>230.0</ele><time>2026-05-01T13:47:53Z</time></trkpt><trkpt lat="44.85626402943636" lon="9.010447951588288"><ele>229.8</ele><time>2026-05-01T13:47:54Z</time></trkpt><trkpt lat="44.856284782539426" lon="9.01059817237048"><ele>229.6</ele><time>2026-05-01T13:47:55Z</time></trkpt><trkpt lat="44.85628158658406" lon="9.010737123704555"><ele>229.39999999999998</ele><time>2026-05-01T13:47:56Z</time></trkpt><trkpt lat="44.85629187398474" lon="9.010880358682801"><ele>229.2</ele><time>2026-05-01T13:47:57Z</time></trkpt><trkpt lat="44.856296787791" lon="9.011015008404314"><ele>229.0</ele><time>2026-05-01T13:47:58Z</time></trkpt><trkpt lat="44.85629590438725" lon="9.011137039119825"><ele>229.39999999999998</ele><time>2026-05-01T13:47:59Z</time></trkpt><trkpt lat="44.85628035463874" lon="9.01126324749194"><ele>229.79999999999998</ele><time>2026-05-01T13:48:00Z</time></trkpt><trkpt lat="44.85628115433384" lon="9.011419996394196"><ele>230.20000000000002</ele><time>2026-05-01T13:48:01Z</time></trkpt><trkpt lat="44.856305177173525" lon="9.011572215991638"><ele>230.60000000000002</ele><time>2026-05-01T13:48:02Z</time></trkpt><trkpt lat="44.85630217695087" lon="9.011724738937497"><ele>231.0</ele><time>2026-05-01T13:48:03Z</time></trkpt><trkpt lat="44.85630013677972" lon="9.011875456256297"><ele>232.5</ele><time>2026-05-01T13:48:04Z</time></trkpt><trkpt lat="44.85628309812156" lon="9.01202511098836"><ele>234.0</ele><time>2026-05-01T13:48:05Z</time></trkpt><trkpt lat="44.85625413055561" lon="9.012185774002084"><ele>235.5</ele><time>2026-05-01T13:48:06Z</time></trkpt><trkpt lat="44.8562347629437" lon="9.012357651742951"><ele>237.0</ele><time>2026-05-01T13:48:07Z</time></trkpt><trkpt lat="44.85619508035486" lon="9.012533484322654"><ele>239.0</ele><time>2026-05-01T13:48:08Z</time></trkpt><trkpt lat="44.85618118488168" lon="9.01271852275464"><ele>241.0</ele><time>2026-05-01T13:48:09Z</time></trkpt><trkpt lat="44.856152872127005" lon="9.012888798700038"><ele>243.0</ele><time>2026-05-01T13:48:10Z</time></trkpt><trkpt lat="44.85612145367929" lon="9.01304750532463"><ele>245.0</ele><time>2026-05-01T13:48:11Z</time></trkpt><trkpt lat="44.85609467133529" lon="9.013229359010177"><ele>247.5</ele><time>2026-05-01T13:48:12Z</time></trkpt><trkpt lat="44.856073528176054" lon="9.013395901515029"><ele>250.0</ele><time>2026-05-01T13:48:13Z</time></trkpt><trkpt lat="44.85603122428324" lon="9.0135717297765"><ele>252.5</ele><time>2026-05-01T13:48:14Z</time></trkpt><trkpt lat="44.85597457414611" lon="9.013729512777289"><ele>255.0</ele><time>2026-05-01T13:48:15Z</time></trkpt><trkpt lat="44.85593345135433" lon="9.013894621744532"><ele>257.4</ele><time>2026-05-01T13:48:16Z</time></trkpt><trkpt lat="44.85589007467922" lon="9.014053557675574"><ele>259.8</ele><time>2026-05-01T13:48:17Z</time></trkpt><trkpt lat="44.855840412219585" lon="9.014199726152018"><ele>262.2</ele><time>2026-05-01T13:48:18Z</time></trkpt><trkpt lat="44.8557905327617" lon="9.014329461524833"><ele>264.6</ele><time>2026-05-01T13:48:19Z</time></trkpt><trkpt lat="44.85574473877526" lon="9.014441843459828"><ele>267.0</ele><time>2026-05-01T13:48:20Z</time></trkpt><trkpt lat="44.85570366180427" lon="9.014542649393134"><ele>268.6666666666667</ele><time>2026-05-01T13:48:21Z</time></trkpt><trkpt lat="44.855669427076954" lon="9.014626663967018"><ele>270.3333333333333</ele><time>2026-05-01T13:48:22Z</time></trkpt><trkpt lat="44.85561865131834" lon="9.014714792242966"><ele>272.0</ele><time>2026-05-01T13:48:23Z</time></trkpt><trkpt lat="44.8555827010923" lon="9.014791857476878"><ele>273.66666666666663</ele><time>2026-05-01T13:48:24Z</time></trkpt><trkpt lat="44.85558192814901" lon="9.014906490013384"><ele>275.3333333333333</ele><time>2026-05-01T13:48:25Z</time></trkpt><trkpt lat="44.85556591203765" lon="9.015008057191366"><ele>277.0</ele><time>2026-05-01T13:48:25.999Z</time></trkpt><trkpt lat="44.85551192130739" lon="9.015131939227565"><ele>278.6</ele><time>2026-05-01T13:48:27.999Z</time></trkpt><trkpt lat="44.855540221798236" lon="9.01525167532266"><ele>280.2</ele><time>2026-05-01T13:48:29.999Z</time></trkpt><trkpt lat="44.855673204717995" lon="9.015182791607753"><ele>281.8</ele><time>2026-05-01T13:48:34.999Z</time></trkpt><trkpt lat="44.855791898742055" lon="9.015106337292618"><ele>283.4</ele><time>2026-05-01T13:48:36.999Z</time></trkpt><trkpt lat="44.855868270584146" lon="9.01512154048851"><ele>285.0</ele><time>2026-05-01T13:48:38.999Z</time></trkpt><trkpt lat="44.85590867806623" lon="9.015195728939794"><ele>285.0</ele><time>2026-05-01T13:48:39.999Z</time></trkpt><trkpt lat="44.8559454305865" lon="9.015290083210072"><ele>285.0</ele><time>2026-05-01T13:48:40.999Z</time></trkpt><trkpt lat="44.85598689991608" lon="9.01540579575177"><ele>285.0</ele><time>2026-05-01T13:48:41.999Z</time></trkpt><trkpt lat="44.856026455945276" lon="9.015499758763795"><ele>285.0</ele><time>2026-05-01T13:48:42.999Z</time></trkpt><trkpt lat="44.85607236365571" lon="9.015610802460364"><ele>285.0</ele><time>2026-05-01T13:48:43.999Z</time></trkpt><trkpt lat="44.85611465807018" lon="9.015713623898977"><ele>285.0</ele><time>2026-05-01T13:48:44.999Z</time></trkpt><trkpt lat="44.856146804825016" lon="9.015820216523924"><ele>284.8333333333333</ele><time>2026-05-01T13:48:45.999Z</time></trkpt><trkpt lat="44.85617079926413" lon="9.01593528149605"><ele>284.6666666666667</ele><time>2026-05-01T13:48:46.999Z</time></trkpt><trkpt lat="44.85618638646142" lon="9.01604035467558"><ele>284.5</ele><time>2026-05-01T13:48:47.999Z</time></trkpt><trkpt lat="44.85619956967551" lon="9.016144698394498"><ele>284.33333333333337</ele><time>2026-05-01T13:48:48.999Z</time></trkpt><trkpt lat="44.85619922116854" lon="9.016272613069269"><ele>284.1666666666667</ele><time>2026-05-01T13:48:49.999Z</time></trkpt><trkpt lat="44.85621765673369" lon="9.016364318345822"><ele>284.0</ele><time>2026-05-01T13:48:50.999Z</time></trkpt><trkpt lat="44.85620395347292" lon="9.016473216847304"><ele>284.0</ele><time>2026-05-01T13:48:51.999Z</time></trkpt><trkpt lat="44.85620395347472" lon="9.016602814020374"><ele>284.0</ele><time>2026-05-01T13:48:52.999Z</time></trkpt><trkpt lat="44.85619079579717" lon="9.016724022169807"><ele>284.0</ele><time>2026-05-01T13:48:53.999Z</time></trkpt><trkpt lat="44.85618131293259" lon="9.016836598840662"><ele>284.0</ele><time>2026-05-01T13:48:54.999Z</time></trkpt><trkpt lat="44.856197034081404" lon="9.016946031107693"><ele>284.0</ele><time>2026-05-01T13:48:55.999Z</time></trkpt><trkpt lat="44.85619920615224" lon="9.017075207478445"><ele>284.0</ele><time>2026-05-01T13:48:56.999Z</time></trkpt><trkpt lat="44.85620996565715" lon="9.017195311169079"><ele>285.8</ele><time>2026-05-01T13:48:57.999Z</time></trkpt><trkpt lat="44.856209719718215" lon="9.017290508460174"><ele>287.59999999999997</ele><time>2026-05-01T13:48:58.998Z</time></trkpt><trkpt lat="44.856217336849" lon="9.017446154703702"><ele>289.4</ele><time>2026-05-01T13:49:00.998Z</time></trkpt><trkpt lat="44.85619389348356" lon="9.017558970407999"><ele>291.2</ele><time>2026-05-01T13:49:01.998Z</time></trkpt><trkpt lat="44.85616749989645" lon="9.017693050010026"><ele>293.0</ele><time>2026-05-01T13:49:02.998Z</time></trkpt><trkpt lat="44.856140171175475" lon="9.01781490710421"><ele>295.0</ele><time>2026-05-01T13:49:03.998Z</time></trkpt><trkpt lat="44.85610524804478" lon="9.017961577598914"><ele>297.0</ele><time>2026-05-01T13:49:04.998Z</time></trkpt><trkpt lat="44.85607031788856" lon="9.01811265090471"><ele>299.0</ele><time>2026-05-01T13:49:05.998Z</time></trkpt><trkpt lat="44.856055792695415" lon="9.018226495083725"><ele>301.0</ele><time>2026-05-01T13:49:06.998Z</time></trkpt><trkpt lat="44.856044817981704" lon="9.018341556644241"><ele>303.0</ele><time>2026-05-01T13:49:07.998Z</time></trkpt><trkpt lat="44.85604820072239" lon="9.018438368525723"><ele>305.6666666666667</ele><time>2026-05-01T13:49:08.998Z</time></trkpt><trkpt lat="44.85604293152102" lon="9.018527173649584"><ele>308.3333333333333</ele><time>2026-05-01T13:49:09.998Z</time></trkpt><trkpt lat="44.85601526566281" lon="9.018611766083781"><ele>311.0</ele><time>2026-05-01T13:49:10.998Z</time></trkpt><trkpt lat="44.855959935298266" lon="9.018779730054288"><ele>313.66666666666663</ele><time>2026-05-01T13:49:12.998Z</time></trkpt><trkpt lat="44.85592374494814" lon="9.018891530411484"><ele>316.3333333333333</ele><time>2026-05-01T13:49:13.998Z</time></trkpt><trkpt lat="44.85589019033808" lon="9.018992389397036"><ele>319.0</ele><time>2026-05-01T13:49:14.998Z</time></trkpt><trkpt lat="44.855866785872024" lon="9.019108668544762"><ele>322.6</ele><time>2026-05-01T13:49:15.998Z</time></trkpt><trkpt lat="44.85580593584951" lon="9.019259126992926"><ele>326.2</ele><time>2026-05-01T13:49:17.998Z</time></trkpt><trkpt lat="44.85575535762849" lon="9.019401908301605"><ele>329.8</ele><time>2026-05-01T13:49:19.998Z</time></trkpt><trkpt lat="44.85570472013067" lon="9.019499950873017"><ele>333.40000000000003</ele><time>2026-05-01T13:49:20.998Z</time></trkpt><trkpt lat="44.85567073478238" lon="9.019588754119122"><ele>337.0</ele><time>2026-05-01T13:49:21.998Z</time></trkpt><trkpt lat="44.855639228514725" lon="9.019699250014163"><ele>337.0</ele><time>2026-05-01T13:49:22.998Z</time></trkpt><trkpt lat="44.85559868110561" lon="9.019807436304504"><ele>337.0</ele><time>2026-05-01T13:49:24.998Z</time></trkpt><trkpt lat="44.85557040429965" lon="9.019912809691467"><ele>337.0</ele><time>2026-05-01T13:49:26.998Z</time></trkpt><trkpt lat="44.85553992563588" lon="9.020037066309749"><ele>337.0</ele><time>2026-05-01T13:49:27.998Z</time></trkpt><trkpt lat="44.85552795360605" lon="9.02017448427453"><ele>337.0</ele><time>2026-05-01T13:49:28.998Z</time></trkpt><trkpt lat="44.85553609582904" lon="9.020383998461435"><ele>339.6</ele><time>2026-05-01T13:49:29.998Z</time></trkpt><trkpt lat="44.8555783052537" lon="9.020584280368594"><ele>342.20000000000005</ele><time>2026-05-01T13:49:30.997Z</time></trkpt><trkpt lat="44.855610677113894" lon="9.020689713793098"><ele>344.8</ele><time>2026-05-01T13:49:31.997Z</time></trkpt><trkpt lat="44.85564539003838" lon="9.020776312053176"><ele>347.4</ele><time>2026-05-01T13:49:32.997Z</time></trkpt><trkpt lat="44.85571902542886" lon="9.020910296128097"><ele>350.0</ele><time>2026-05-01T13:49:34.997Z</time></trkpt><trkpt lat="44.85576963904865" lon="9.021018443825923"><ele>352.42857142857144</ele><time>2026-05-01T13:49:36.997Z</time></trkpt><trkpt lat="44.855799706898715" lon="9.02109704280843"><ele>354.8571428571429</ele><time>2026-05-01T13:49:37.997Z</time></trkpt><trkpt lat="44.8558322159826" lon="9.021185413526224"><ele>357.2857142857143</ele><time>2026-05-01T13:49:38.997Z</time></trkpt><trkpt lat="44.85586065636345" lon="9.021276924125338"><ele>359.7142857142857</ele><time>2026-05-01T13:49:39.997Z</time></trkpt><trkpt lat="44.85587649020599" lon="9.021371301553389"><ele>362.14285714285717</ele><time>2026-05-01T13:49:41.997Z</time></trkpt><trkpt lat="44.8558707956792" lon="9.021478852726535"><ele>364.57142857142856</ele><time>2026-05-01T13:51:24.998Z</time></trkpt><trkpt lat="44.855826460360404" lon="9.021564828486127"><ele>367.0</ele><time>2026-05-01T13:51:26.998Z</time></trkpt><trkpt lat="44.855788182821684" lon="9.02166923644741"><ele>368.8</ele><time>2026-05-01T13:51:28.998Z</time></trkpt><trkpt lat="44.85571161409" lon="9.021805951230395"><ele>370.6</ele><time>2026-05-01T13:51:30.998Z</time></trkpt><trkpt lat="44.8556296246825" lon="9.021894600496076"><ele>372.40000000000003</ele><time>2026-05-01T13:51:32.998Z</time></trkpt><trkpt lat="44.855551012346616" lon="9.021973764731513"><ele>374.20000000000005</ele><time>2026-05-01T13:51:34.998Z</time></trkpt><trkpt lat="44.85544486382744" lon="9.022045040992438"><ele>376.0</ele><time>2026-05-01T13:51:36.997Z</time></trkpt><trkpt lat="44.85534870618944" lon="9.022074835825347"><ele>376.0</ele><time>2026-05-01T13:51:38.997Z</time></trkpt><trkpt lat="44.855270490267806" lon="9.022168803372026"><ele>376.0</ele><time>2026-05-01T13:51:40.997Z</time></trkpt><trkpt lat="44.8551801451408" lon="9.02212205282898"><ele>376.0</ele><time>2026-05-01T13:51:42.997Z</time></trkpt><trkpt lat="44.85509872106982" lon="9.022134199097666"><ele>376.0</ele><time>2026-05-01T13:52:00.997Z</time></trkpt><trkpt lat="44.855073998594456" lon="9.022547084156479"><ele>378.20000000000005</ele><time>2026-05-01T13:52:02.997Z</time></trkpt><trkpt lat="44.85504550576215" lon="9.022707452185758"><ele>380.40000000000003</ele><time>2026-05-01T13:52:04Z</time></trkpt><trkpt lat="44.85501684454573" lon="9.022843293660163"><ele>382.6</ele><time>2026-05-01T13:52:05Z</time></trkpt><trkpt lat="44.854989064466054" lon="9.022980215330897"><ele>384.8</ele><time>2026-05-01T13:52:06Z</time></trkpt><trkpt lat="44.85496117212145" lon="9.023099994418926"><ele>387.0</ele><time>2026-05-01T13:52:07Z</time></trkpt><trkpt lat="44.85492313149795" lon="9.023176354784908"><ele>387.0</ele><time>2026-05-01T13:52:08Z</time></trkpt><trkpt lat="44.854865875600375" lon="9.02324009201582"><ele>387.0</ele><time>2026-05-01T13:52:09Z</time></trkpt><trkpt lat="44.85481049813612" lon="9.02330572623179"><ele>387.0</ele><time>2026-05-01T13:52:10Z</time></trkpt><trkpt lat="44.85480594607034" lon="9.023416437653394"><ele>387.0</ele><time>2026-05-01T13:52:12Z</time></trkpt><trkpt lat="44.85490580416436" lon="9.023521981044407"><ele>387.0</ele><time>2026-05-01T13:52:14Z</time></trkpt><trkpt lat="44.854978121208845" lon="9.023564166746777"><ele>387.0</ele><time>2026-05-01T13:52:15Z</time></trkpt><trkpt lat="44.85505316537301" lon="9.023629830797274"><ele>389.5</ele><time>2026-05-01T13:52:16Z</time></trkpt><trkpt lat="44.85509754876737" lon="9.023710100008085"><ele>392.0</ele><time>2026-05-01T13:52:17Z</time></trkpt><trkpt lat="44.855113489809206" lon="9.023865527260208"><ele>394.5</ele><time>2026-05-01T13:52:19Z</time></trkpt><trkpt lat="44.85507233924883" lon="9.023939314980318"><ele>397.0</ele><time>2026-05-01T13:52:20Z</time></trkpt><trkpt lat="44.855036897978806" lon="9.024031821930453"><ele>399.5</ele><time>2026-05-01T13:52:21Z</time></trkpt><trkpt lat="44.855007475871886" lon="9.024139424611331"><ele>402.0</ele><time>2026-05-01T13:52:23Z</time></trkpt><trkpt lat="44.855054819376605" lon="9.024295384457945"><ele>400.6</ele><time>2026-05-01T13:52:25Z</time></trkpt><trkpt lat="44.85511176993907" lon="9.024427262005949"><ele>399.20000000000005</ele><time>2026-05-01T13:52:26Z</time></trkpt><trkpt lat="44.85515672770416" lon="9.024544391936914"><ele>397.8</ele><time>2026-05-01T13:52:27Z</time></trkpt><trkpt lat="44.85518888216824" lon="9.024652086465958"><ele>396.4</ele><time>2026-05-01T13:52:28Z</time></trkpt><trkpt lat="44.85521845930221" lon="9.024765592244153"><ele>395.0</ele><time>2026-05-01T13:52:29Z</time></trkpt><trkpt lat="44.85526140511263" lon="9.024866637801424"><ele>395.0</ele><time>2026-05-01T13:52:30Z</time></trkpt><trkpt lat="44.85529321623818" lon="9.024949396859192"><ele>395.0</ele><time>2026-05-01T13:52:31Z</time></trkpt><trkpt lat="44.85536773488903" lon="9.025031537976659"><ele>395.0</ele><time>2026-05-01T13:52:33Z</time></trkpt><trkpt lat="44.85543888860484" lon="9.025040742948619"><ele>395.0</ele><time>2026-05-01T13:52:34Z</time></trkpt><trkpt lat="44.85551331084067" lon="9.025055997636896"><ele>395.0</ele><time>2026-05-01T13:52:35Z</time></trkpt><trkpt lat="44.855585553327664" lon="9.025072238244833"><ele>395.0</ele><time>2026-05-01T13:52:35.999Z</time></trkpt><trkpt lat="44.85565135682178" lon="9.025088397647545"><ele>395.0</ele><time>2026-05-01T13:52:36.999Z</time></trkpt><trkpt lat="44.855723596400765" lon="9.025103455543041"><ele>394.3333333333333</ele><time>2026-05-01T13:52:37.999Z</time></trkpt><trkpt lat="44.85580503248787" lon="9.025114497052181"><ele>393.66666666666663</ele><time>2026-05-01T13:52:38.999Z</time></trkpt><trkpt lat="44.85588483679553" lon="9.025165983750238"><ele>393.0</ele><time>2026-05-01T13:52:39.999Z</time></trkpt><trkpt lat="44.85595719104297" lon="9.025221259820746"><ele>392.33333333333337</ele><time>2026-05-01T13:52:40.999Z</time></trkpt><trkpt lat="44.85603580400171" lon="9.025269479131293"><ele>391.6666666666667</ele><time>2026-05-01T13:52:41.999Z</time></trkpt><trkpt lat="44.85611388681861" lon="9.025318279050099"><ele>391.0</ele><time>2026-05-01T13:52:42.999Z</time></trkpt><trkpt lat="44.85619428092833" lon="9.025378607468182"><ele>391.00000000000006</ele><time>2026-05-01T13:52:43.999Z</time></trkpt><trkpt lat="44.85627082590085" lon="9.025446846372828"><ele>391.0</ele><time>2026-05-01T13:52:44.999Z</time></trkpt><trkpt lat="44.85635783701787" lon="9.025515971642118"><ele>391.0</ele><time>2026-05-01T13:52:45.999Z</time></trkpt><trkpt lat="44.85643484642653" lon="9.025575545323886"><ele>391.0</ele><time>2026-05-01T13:52:46.999Z</time></trkpt><trkpt lat="44.85649727153411" lon="9.02563389776885"><ele>391.00000000000006</ele><time>2026-05-01T13:52:47.999Z</time></trkpt><trkpt lat="44.85657548466603" lon="9.025698347738059"><ele>391.0</ele><time>2026-05-01T13:52:48.999Z</time></trkpt><trkpt lat="44.85664325574354" lon="9.025791842851964"><ele>388.6666666666667</ele><time>2026-05-01T13:52:49.999Z</time></trkpt><trkpt lat="44.85670098934062" lon="9.025894193119758"><ele>386.33333333333337</ele><time>2026-05-01T13:52:50.999Z</time></trkpt><trkpt lat="44.85674813175544" lon="9.025976480394759"><ele>384.0</ele><time>2026-05-01T13:52:51.999Z</time></trkpt><trkpt lat="44.85683399009771" lon="9.026055708455607"><ele>381.6666666666667</ele><time>2026-05-01T13:52:53.999Z</time></trkpt><trkpt lat="44.85688584421661" lon="9.026116945635971"><ele>379.33333333333337</ele><time>2026-05-01T13:52:54.999Z</time></trkpt><trkpt lat="44.85692390966081" lon="9.026188731933592"><ele>377.0</ele><time>2026-05-01T13:52:55.999Z</time></trkpt><trkpt lat="44.85702335519639" lon="9.026312844870105"><ele>377.0</ele><time>2026-05-01T13:52:57.999Z</time></trkpt><trkpt lat="44.85707725263867" lon="9.026389051646673"><ele>377.0</ele><time>2026-05-01T13:52:58.999Z</time></trkpt><trkpt lat="44.85712678459042" lon="9.026493627287579"><ele>377.0</ele><time>2026-05-01T13:52:59.999Z</time></trkpt><trkpt lat="44.8571690157564" lon="9.026609770334039"><ele>377.0</ele><time>2026-05-01T13:53:00.999Z</time></trkpt><trkpt lat="44.85722246619819" lon="9.02671595342762"><ele>377.0</ele><time>2026-05-01T13:53:01.999Z</time></trkpt><trkpt lat="44.85724162246228" lon="9.02688935335863"><ele>378.83333333333337</ele><time>2026-05-01T13:53:03.999Z</time></trkpt><trkpt lat="44.857293271256516" lon="9.027005206305006"><ele>380.6666666666667</ele><time>2026-05-01T13:53:04.999Z</time></trkpt><trkpt lat="44.8573235259343" lon="9.02711217567768"><ele>382.5</ele><time>2026-05-01T13:53:05.999Z</time></trkpt><trkpt lat="44.857344180277266" lon="9.027219126624383"><ele>384.33333333333337</ele><time>2026-05-01T13:53:06.999Z</time></trkpt><trkpt lat="44.85737384242071" lon="9.027335754721118"><ele>386.1666666666667</ele><time>2026-05-01T13:53:07.999Z</time></trkpt><trkpt lat="44.857402004658844" lon="9.02745729222366"><ele>388.0</ele><time>2026-05-01T13:53:08.998Z</time></trkpt><trkpt lat="44.85741007440291" lon="9.027591265487732"><ele>390.00000000000006</ele><time>2026-05-01T13:53:09.998Z</time></trkpt><trkpt lat="44.85741867967133" lon="9.027718471765363"><ele>392.0</ele><time>2026-05-01T13:53:10.998Z</time></trkpt><trkpt lat="44.85744857173399" lon="9.027848285815182"><ele>394.0</ele><time>2026-05-01T13:53:11.998Z</time></trkpt><trkpt lat="44.8574561537788" lon="9.027937416654684"><ele>396.0</ele><time>2026-05-01T13:53:12.998Z</time></trkpt><trkpt lat="44.857466845513656" lon="9.028030643138779"><ele>398.00000000000006</ele><time>2026-05-01T13:53:13.998Z</time></trkpt><trkpt lat="44.857512088368004" lon="9.028141766611364"><ele>400.0</ele><time>2026-05-01T13:53:14.998Z</time></trkpt><trkpt lat="44.85754998382022" lon="9.028233195533536"><ele>402.00000000000006</ele><time>2026-05-01T13:53:15.998Z</time></trkpt><trkpt lat="44.857577813413705" lon="9.02833090018097"><ele>404.0</ele><time>2026-05-01T13:53:16.998Z</time></trkpt><trkpt lat="44.85757573384165" lon="9.028429804204114"><ele>406.0</ele><time>2026-05-01T13:53:17.998Z</time></trkpt><trkpt lat="44.857573392496434" lon="9.028538602070842"><ele>408.0</ele><time>2026-05-01T13:53:18.998Z</time></trkpt><trkpt lat="44.85756300361306" lon="9.028636374378664"><ele>410.00000000000006</ele><time>2026-05-01T13:53:19.998Z</time></trkpt><trkpt lat="44.85758771672666" lon="9.028834205751743"><ele>412.0</ele><time>2026-05-01T13:53:21.998Z</time></trkpt><trkpt lat="44.85764904306716" lon="9.028969722783192"><ele>409.00000000000006</ele><time>2026-05-01T13:53:23.998Z</time></trkpt><trkpt lat="44.85768688752027" lon="9.029050154159565"><ele>406.0</ele><time>2026-05-01T13:53:24.998Z</time></trkpt><trkpt lat="44.8577501752982" lon="9.029151886407803"><ele>403.0</ele><time>2026-05-01T13:53:25.998Z</time></trkpt><trkpt lat="44.857804384850205" lon="9.02924484259152"><ele>400.0</ele><time>2026-05-01T13:53:26.998Z</time></trkpt><trkpt lat="44.85784452367019" lon="9.029324877240454"><ele>397.00000000000006</ele><time>2026-05-01T13:53:27.998Z</time></trkpt><trkpt lat="44.85787663921648" lon="9.029405393050506"><ele>394.0</ele><time>2026-05-01T13:53:28.998Z</time></trkpt><trkpt lat="44.85787164437338" lon="9.029573865338422"><ele>394.00000000000006</ele><time>2026-05-01T13:53:30.998Z</time></trkpt><trkpt lat="44.8578584281605" lon="9.029702096592352"><ele>394.0</ele><time>2026-05-01T13:53:31.998Z</time></trkpt><trkpt lat="44.85783882403917" lon="9.029813567220673"><ele>394.0</ele><time>2026-05-01T13:53:32.998Z</time></trkpt><trkpt lat="44.85780450136301" lon="9.02992914367452"><ele>394.0</ele><time>2026-05-01T13:53:33.998Z</time></trkpt><trkpt lat="44.85782211720321" lon="9.03003444465307"><ele>394.00000000000006</ele><time>2026-05-01T13:53:34.998Z</time></trkpt><trkpt lat="44.857834097777406" lon="9.030146946062315"><ele>394.0</ele><time>2026-05-01T13:53:35.998Z</time></trkpt><trkpt lat="44.85786516581044" lon="9.030227953065044"><ele>395.6</ele><time>2026-05-01T13:53:36.998Z</time></trkpt><trkpt lat="44.85789043967981" lon="9.030354280987385"><ele>397.2</ele><time>2026-05-01T13:53:37.998Z</time></trkpt><trkpt lat="44.85790493209056" lon="9.030454885102005"><ele>398.8</ele><time>2026-05-01T13:53:38.998Z</time></trkpt><trkpt lat="44.85792979951865" lon="9.030605789391052"><ele>400.40000000000003</ele><time>2026-05-01T13:53:39.998Z</time></trkpt><trkpt lat="44.85795234969321" lon="9.030742383878227"><ele>402.0</ele><time>2026-05-01T13:53:40.997Z</time></trkpt><trkpt lat="44.857993839790275" lon="9.030873616457177"><ele>403.3333333333333</ele><time>2026-05-01T13:53:41.997Z</time></trkpt><trkpt lat="44.8580234290914" lon="9.030987037474672"><ele>404.66666666666663</ele><time>2026-05-01T13:53:42.997Z</time></trkpt><trkpt lat="44.8580737358232" lon="9.03109352785424"><ele>406.0</ele><time>2026-05-01T13:53:43.997Z</time></trkpt><trkpt lat="44.85814399681386" lon="9.03116416027139"><ele>407.3333333333333</ele><time>2026-05-01T13:53:44.997Z</time></trkpt><trkpt lat="44.85821466906113" lon="9.031221284672267"><ele>408.66666666666663</ele><time>2026-05-01T13:53:45.997Z</time></trkpt><trkpt lat="44.85830326972865" lon="9.031263978902338"><ele>410.0</ele><time>2026-05-01T13:53:46.997Z</time></trkpt><trkpt lat="44.858402245692496" lon="9.031315960549328"><ele>409.66666666666663</ele><time>2026-05-01T13:53:47.997Z</time></trkpt><trkpt lat="44.858488020191885" lon="9.031362006955101"><ele>409.3333333333333</ele><time>2026-05-01T13:53:48.997Z</time></trkpt><trkpt lat="44.85858646004838" lon="9.031411736256224"><ele>409.0</ele><time>2026-05-01T13:53:49.997Z</time></trkpt><trkpt lat="44.85865402550958" lon="9.031455790802648"><ele>408.66666666666663</ele><time>2026-05-01T13:53:50.997Z</time></trkpt><trkpt lat="44.85871281262972" lon="9.031517269651143"><ele>408.3333333333333</ele><time>2026-05-01T13:53:51.997Z</time></trkpt><trkpt lat="44.858765014552596" lon="9.031600958259821"><ele>408.0</ele><time>2026-05-01T13:53:52.997Z</time></trkpt><trkpt lat="44.8588183658568" lon="9.031698361498172"><ele>408.0</ele><time>2026-05-01T13:53:53.997Z</time></trkpt><trkpt lat="44.858836969712165" lon="9.031802333805592"><ele>408.0</ele><time>2026-05-01T13:53:54.997Z</time></trkpt><trkpt lat="44.85883272811376" lon="9.031895093409446"><ele>408.0</ele><time>2026-05-01T13:53:55.997Z</time></trkpt><trkpt lat="44.85882843607908" lon="9.032003239585183"><ele>408.0</ele><time>2026-05-01T13:53:56.997Z</time></trkpt><trkpt lat="44.858831077888595" lon="9.03211833664868"><ele>408.0</ele><time>2026-05-01T13:53:57.997Z</time></trkpt><trkpt lat="44.85879749293832" lon="9.03222067967048"><ele>408.0</ele><time>2026-05-01T13:53:58.997Z</time></trkpt><trkpt lat="44.85874993334557" lon="9.03231540196476"><ele>408.0</ele><time>2026-05-01T13:53:59.997Z</time></trkpt><trkpt lat="44.85871942026648" lon="9.032394175173627"><ele>408.0</ele><time>2026-05-01T13:54:00.997Z</time></trkpt><trkpt lat="44.85869163530791" lon="9.032500481780815"><ele>408.0</ele><time>2026-05-01T13:54:02.997Z</time></trkpt><trkpt lat="44.85868744669028" lon="9.032605504277951"><ele>408.0</ele><time>2026-05-01T13:54:03.997Z</time></trkpt><trkpt lat="44.858692583175774" lon="9.032722277288567"><ele>408.0</ele><time>2026-05-01T13:54:04.997Z</time></trkpt><trkpt lat="44.85869686359522" lon="9.03282056718292"><ele>408.0</ele><time>2026-05-01T13:54:05.997Z</time></trkpt><trkpt lat="44.85875762391447" lon="9.032983856930878"><ele>410.4</ele><time>2026-05-01T13:54:07.997Z</time></trkpt><trkpt lat="44.85881179619761" lon="9.03305268027488"><ele>412.79999999999995</ele><time>2026-05-01T13:54:08.997Z</time></trkpt><trkpt lat="44.85887973694964" lon="9.033145666925556"><ele>415.2</ele><time>2026-05-01T13:54:10Z</time></trkpt><trkpt lat="44.85895404921186" lon="9.033251428453394"><ele>417.6</ele><time>2026-05-01T13:54:11Z</time></trkpt><trkpt lat="44.85904194798899" lon="9.033356677423534"><ele>420.0</ele><time>2026-05-01T13:54:12Z</time></trkpt><trkpt lat="44.85913054481796" lon="9.033467136707321"><ele>420.6666666666667</ele><time>2026-05-01T13:54:13Z</time></trkpt><trkpt lat="44.85920953595505" lon="9.033586419749282"><ele>421.33333333333337</ele><time>2026-05-01T13:54:14Z</time></trkpt><trkpt lat="44.85927005807958" lon="9.033695044054495"><ele>422.0</ele><time>2026-05-01T13:54:15Z</time></trkpt><trkpt lat="44.85933091225944" lon="9.033788529996531"><ele>422.6666666666667</ele><time>2026-05-01T13:54:16Z</time></trkpt><trkpt lat="44.859374794054816" lon="9.03388071371227"><ele>423.33333333333337</ele><time>2026-05-01T13:54:17Z</time></trkpt><trkpt lat="44.859387823119434" lon="9.033971967944687"><ele>424.0</ele><time>2026-05-01T13:54:18Z</time></trkpt><trkpt lat="44.859324972219724" lon="9.03415051109487"><ele>433.75</ele><time>2026-05-01T13:54:20Z</time></trkpt><trkpt lat="44.85927143713259" lon="9.034265860035555"><ele>443.5</ele><time>2026-05-01T13:54:21Z</time></trkpt><trkpt lat="44.85923952049917" lon="9.034411720930207"><ele>453.25</ele><time>2026-05-01T13:54:22Z</time></trkpt><trkpt lat="44.85922512370706" lon="9.034592018438063"><ele>463.0</ele><time>2026-05-01T13:54:23Z</time></trkpt><trkpt lat="44.859230530911475" lon="9.034766928832395"><ele>463.0</ele><time>2026-05-01T13:54:24Z</time></trkpt><trkpt lat="44.85923636470715" lon="9.034924838426045"><ele>462.99999999999994</ele><time>2026-05-01T13:54:25Z</time></trkpt><trkpt lat="44.85923805388062" lon="9.035067064311322"><ele>462.99999999999994</ele><time>2026-05-01T13:54:26Z</time></trkpt><trkpt lat="44.85922562488926" lon="9.035211632462072"><ele>463.0</ele><time>2026-05-01T13:54:27Z</time></trkpt><trkpt lat="44.85921392962245" lon="9.035388421672915"><ele>463.0</ele><time>2026-05-01T13:54:28Z</time></trkpt><trkpt lat="44.85920860811175" lon="9.035565080429945"><ele>464.4</ele><time>2026-05-01T13:54:29Z</time></trkpt><trkpt lat="44.85920505343474" lon="9.035700659120906"><ele>465.79999999999995</ele><time>2026-05-01T13:54:30Z</time></trkpt><trkpt lat="44.85919762175821" lon="9.03584680416194"><ele>467.2</ele><time>2026-05-01T13:54:31Z</time></trkpt><trkpt lat="44.859185240387454" lon="9.035993048730637"><ele>468.6</ele><time>2026-05-01T13:54:32Z</time></trkpt><trkpt lat="44.859181535707414" lon="9.036102836139902"><ele>470.0</ele><time>2026-05-01T13:54:33Z</time></trkpt><trkpt lat="44.85918450257141" lon="9.036249934954032"><ele>470.16666666666663</ele><time>2026-05-01T13:54:35Z</time></trkpt><trkpt lat="44.85921441763235" lon="9.036351852202161"><ele>470.3333333333333</ele><time>2026-05-01T13:54:36Z</time></trkpt><trkpt lat="44.85923244967329" lon="9.036459371320799"><ele>470.5</ele><time>2026-05-01T13:54:37Z</time></trkpt><trkpt lat="44.85925130978868" lon="9.036588171669012"><ele>470.66666666666663</ele><time>2026-05-01T13:54:38Z</time></trkpt><trkpt lat="44.85927122039985" lon="9.036706774288502"><ele>470.8333333333333</ele><time>2026-05-01T13:54:39Z</time></trkpt><trkpt lat="44.85929288569614" lon="9.036798769773172"><ele>471.0</ele><time>2026-05-01T13:54:40Z</time></trkpt><trkpt lat="44.85932365600416" lon="9.03694201105556"><ele>470.6</ele><time>2026-05-01T13:54:42Z</time></trkpt><trkpt lat="44.85932340150186" lon="9.037131326814668"><ele>470.20000000000005</ele><time>2026-05-01T13:54:44Z</time></trkpt><trkpt lat="44.859324763184986" lon="9.037265944313155"><ele>469.79999999999995</ele><time>2026-05-01T13:54:44.999Z</time></trkpt><trkpt lat="44.85932183159245" lon="9.03740460432579"><ele>469.4</ele><time>2026-05-01T13:54:45.999Z</time></trkpt><trkpt lat="44.859306446248915" lon="9.037547501149566"><ele>469.0</ele><time>2026-05-01T13:54:46.999Z</time></trkpt><trkpt lat="44.85927079373876" lon="9.037703803734066"><ele>469.0</ele><time>2026-05-01T13:54:47.999Z</time></trkpt><trkpt lat="44.85923545849585" lon="9.03786336133644"><ele>469.0</ele><time>2026-05-01T13:54:48.999Z</time></trkpt><trkpt lat="44.85921715013661" lon="9.03803917204465"><ele>469.0</ele><time>2026-05-01T13:54:49.999Z</time></trkpt><trkpt lat="44.85920919114016" lon="9.038186900043774"><ele>469.0</ele><time>2026-05-01T13:54:50.999Z</time></trkpt><trkpt lat="44.85920100942065" lon="9.03831108100494"><ele>469.0</ele><time>2026-05-01T13:54:51.999Z</time></trkpt><trkpt lat="44.859195902203574" lon="9.038424120428973"><ele>469.6666666666667</ele><time>2026-05-01T13:54:53.999Z</time></trkpt><trkpt lat="44.85926661918507" lon="9.038495509592174"><ele>470.33333333333337</ele><time>2026-05-01T13:54:55.999Z</time></trkpt><trkpt lat="44.85933189318776" lon="9.038558680075065"><ele>471.0</ele><time>2026-05-01T13:54:56.999Z</time></trkpt><trkpt lat="44.859404482045086" lon="9.038578140954836"><ele>471.66666666666663</ele><time>2026-05-01T13:54:57.999Z</time></trkpt><trkpt lat="44.85947044692741" lon="9.038625529061951"><ele>472.3333333333333</ele><time>2026-05-01T13:54:58.999Z</time></trkpt><trkpt lat="44.85953937707494" lon="9.038672784568819"><ele>473.0</ele><time>2026-05-01T13:54:59.999Z</time></trkpt><trkpt lat="44.85960731475969" lon="9.038702831054694"><ele>471.49999999999994</ele><time>2026-05-01T13:55:00.999Z</time></trkpt><trkpt lat="44.8596708047333" lon="9.038728031351605"><ele>470.0</ele><time>2026-05-01T13:55:01.999Z</time></trkpt><trkpt lat="44.85973405183149" lon="9.03874169205403"><ele>468.5</ele><time>2026-05-01T13:55:02.999Z</time></trkpt><trkpt lat="44.859828781862966" lon="9.038808483078734"><ele>467.0</ele><time>2026-05-01T13:55:04.999Z</time></trkpt><trkpt lat="44.859939831167786" lon="9.038888814887605"><ele>465.49999999999994</ele><time>2026-05-01T13:55:06.999Z</time></trkpt><trkpt lat="44.860004275495044" lon="9.03895810263737"><ele>464.0</ele><time>2026-05-01T13:55:07.999Z</time></trkpt><trkpt lat="44.86006660623307" lon="9.039035642472637"><ele>463.66666666666663</ele><time>2026-05-01T13:55:08.999Z</time></trkpt><trkpt lat="44.860134441263526" lon="9.039127480254832"><ele>463.3333333333333</ele><time>2026-05-01T13:55:09.999Z</time></trkpt><trkpt lat="44.86019003519939" lon="9.039213062375266"><ele>463.0</ele><time>2026-05-01T13:55:10.999Z</time></trkpt><trkpt lat="44.86024568419263" lon="9.039304612739341"><ele>462.66666666666663</ele><time>2026-05-01T13:55:11.999Z</time></trkpt><trkpt lat="44.860302343016436" lon="9.039397824228624"><ele>462.3333333333333</ele><time>2026-05-01T13:55:12.999Z</time></trkpt><trkpt lat="44.86037453367374" lon="9.039480902279813"><ele>462.0</ele><time>2026-05-01T13:55:13.999Z</time></trkpt><trkpt lat="44.86042679140872" lon="9.03958217044534"><ele>462.0</ele><time>2026-05-01T13:55:14.999Z</time></trkpt><trkpt lat="44.86048930237155" lon="9.039673063202109"><ele>462.0</ele><time>2026-05-01T13:55:15.999Z</time></trkpt><trkpt lat="44.86053691962423" lon="9.039769752524643"><ele>462.0</ele><time>2026-05-01T13:55:16.999Z</time></trkpt><trkpt lat="44.86059171434986" lon="9.039851219575953"><ele>462.0</ele><time>2026-05-01T13:55:17.998Z</time></trkpt><trkpt lat="44.86064233375452" lon="9.039929126485685"><ele>462.0</ele><time>2026-05-01T13:55:18.998Z</time></trkpt><trkpt lat="44.86069678662919" lon="9.040016103402925"><ele>462.0</ele><time>2026-05-01T13:55:19.998Z</time></trkpt><trkpt lat="44.86071336678602" lon="9.040132171824744"><ele>465.20000000000005</ele><time>2026-05-01T13:55:20.998Z</time></trkpt><trkpt lat="44.860732094090324" lon="9.04024334261283"><ele>468.40000000000003</ele><time>2026-05-01T13:55:21.998Z</time></trkpt><trkpt lat="44.86076177995667" lon="9.0403751461032"><ele>471.59999999999997</ele><time>2026-05-01T13:55:22.998Z</time></trkpt><trkpt lat="44.86080885187197" lon="9.040521905286043"><ele>474.79999999999995</ele><time>2026-05-01T13:55:23.998Z</time></trkpt><trkpt lat="44.860854489746" lon="9.040641676885928"><ele>478.0</ele><time>2026-05-01T13:55:24.998Z</time></trkpt><trkpt lat="44.86090813787524" lon="9.040761269695945"><ele>477.0</ele><time>2026-05-01T13:55:25.998Z</time></trkpt><trkpt lat="44.86098961265239" lon="9.040890164645397"><ele>476.0</ele><time>2026-05-01T13:55:26.998Z</time></trkpt><trkpt lat="44.86113250279933" lon="9.04099778324251"><ele>475.0</ele><time>2026-05-01T13:55:27.998Z</time></trkpt><trkpt lat="44.86127224484362" lon="9.04107861656673"><ele>474.0</ele><time>2026-05-01T13:55:28.998Z</time></trkpt><trkpt lat="44.86136217162593" lon="9.041123459353342"><ele>474.0</ele><time>2026-05-01T13:55:29.998Z</time></trkpt><trkpt lat="44.86148505621823" lon="9.041165999505608"><ele>474.0</ele><time>2026-05-01T13:55:30.998Z</time></trkpt><trkpt lat="44.86157758002854" lon="9.04118997344651"><ele>474.0</ele><time>2026-05-01T13:55:31.998Z</time></trkpt><trkpt lat="44.86166008504132" lon="9.041193045844022"><ele>474.0</ele><time>2026-05-01T13:55:32.998Z</time></trkpt><trkpt lat="44.86172850005422" lon="9.04122367216254"><ele>474.0</ele><time>2026-05-01T13:55:33.998Z</time></trkpt><trkpt lat="44.86178949719435" lon="9.041255439725012"><ele>474.0</ele><time>2026-05-01T13:55:34.998Z</time></trkpt><trkpt lat="44.86184804518313" lon="9.041295250304934"><ele>474.1666666666667</ele><time>2026-05-01T13:55:35.998Z</time></trkpt><trkpt lat="44.86191447573185" lon="9.041427989169382"><ele>474.33333333333337</ele><time>2026-05-01T13:55:37.998Z</time></trkpt><trkpt lat="44.861965333770875" lon="9.041534020358156"><ele>474.5</ele><time>2026-05-01T13:55:39.998Z</time></trkpt><trkpt lat="44.86198749283963" lon="9.04162557242378"><ele>474.6666666666667</ele><time>2026-05-01T13:55:40.998Z</time></trkpt><trkpt lat="44.862024154937394" lon="9.041715592873137"><ele>474.83333333333337</ele><time>2026-05-01T13:55:41.998Z</time></trkpt><trkpt lat="44.86207189016034" lon="9.041791622302245"><ele>475.0</ele><time>2026-05-01T13:55:42.998Z</time></trkpt><trkpt lat="44.86212798139671" lon="9.041863430278374"><ele>475.00000000000006</ele><time>2026-05-01T13:55:43.998Z</time></trkpt><trkpt lat="44.86218772965973" lon="9.041912059730079"><ele>475.0</ele><time>2026-05-01T13:55:44.998Z</time></trkpt><trkpt lat="44.86227234055217" lon="9.041959955086982"><ele>475.0</ele><time>2026-05-01T13:55:45.998Z</time></trkpt><trkpt lat="44.86234269898145" lon="9.041975602581383"><ele>475.0</ele><time>2026-05-01T13:55:46.998Z</time></trkpt><trkpt lat="44.862429559393625" lon="9.041981421349647"><ele>475.00000000000006</ele><time>2026-05-01T13:55:47.998Z</time></trkpt><trkpt lat="44.862527890460726" lon="9.041960874464651"><ele>475.0</ele><time>2026-05-01T13:55:48.998Z</time></trkpt><trkpt lat="44.86262222795664" lon="9.041902121007919"><ele>473.75</ele><time>2026-05-01T13:55:49.998Z</time></trkpt><trkpt lat="44.862718890640934" lon="9.041815025995696"><ele>472.5</ele><time>2026-05-01T13:55:50.997Z</time></trkpt><trkpt lat="44.86281706143681" lon="9.041719403431019"><ele>471.25</ele><time>2026-05-01T13:55:51.997Z</time></trkpt><trkpt lat="44.86291372348689" lon="9.041632170684249"><ele>470.0</ele><time>2026-05-01T13:55:52.997Z</time></trkpt><trkpt lat="44.863003798394814" lon="9.041558649935375"><ele>467.99999999999994</ele><time>2026-05-01T13:55:53.997Z</time></trkpt><trkpt lat="44.863088857052624" lon="9.041504029258785"><ele>466.0</ele><time>2026-05-01T13:55:54.997Z</time></trkpt><trkpt lat="44.86316547319356" lon="9.041453107684076"><ele>464.0</ele><time>2026-05-01T13:55:55.997Z</time></trkpt><trkpt lat="44.86324117180741" lon="9.041408559091629"><ele>462.0</ele><time>2026-05-01T13:55:56.997Z</time></trkpt><trkpt lat="44.86333124928233" lon="9.041367038302823"><ele>459.99999999999994</ele><time>2026-05-01T13:55:57.997Z</time></trkpt><trkpt lat="44.863399946657395" lon="9.041328331615768"><ele>458.0</ele><time>2026-05-01T13:55:58.997Z</time></trkpt><trkpt lat="44.8634624206163" lon="9.04128219924279"><ele>456.99999999999994</ele><time>2026-05-01T13:55:59.997Z</time></trkpt><trkpt lat="44.863525905860605" lon="9.041243913636736"><ele>456.0</ele><time>2026-05-01T13:56:00.997Z</time></trkpt><trkpt lat="44.863621015462705" lon="9.041189665683088"><ele>455.0</ele><time>2026-05-01T13:56:01.997Z</time></trkpt><trkpt lat="44.863703752212906" lon="9.041138110878682"><ele>454.0</ele><time>2026-05-01T13:56:02.997Z</time></trkpt><trkpt lat="44.86378057488338" lon="9.041079857562705"><ele>452.99999999999994</ele><time>2026-05-01T13:56:03.997Z</time></trkpt><trkpt lat="44.86386340154942" lon="9.041011338462907"><ele>452.0</ele><time>2026-05-01T13:56:04.997Z</time></trkpt><trkpt lat="44.863951983342595" lon="9.04094308880848"><ele>451.99999999999994</ele><time>2026-05-01T13:56:05.997Z</time></trkpt><trkpt lat="44.86403159235494" lon="9.040885289698691"><ele>452.0</ele><time>2026-05-01T13:56:06.997Z</time></trkpt><trkpt lat="44.86410156957316" lon="9.040833666529466"><ele>452.0</ele><time>2026-05-01T13:56:07.997Z</time></trkpt><trkpt lat="44.86416675637285" lon="9.040777109154233"><ele>452.0</ele><time>2026-05-01T13:56:08.997Z</time></trkpt><trkpt lat="44.86424759688301" lon="9.04072646576322"><ele>451.99999999999994</ele><time>2026-05-01T13:56:09.997Z</time></trkpt><trkpt lat="44.864332028664585" lon="9.04067363321427"><ele>452.0</ele><time>2026-05-01T13:56:10.997Z</time></trkpt><trkpt lat="44.86443003952862" lon="9.040604854671145"><ele>450.20000000000005</ele><time>2026-05-01T13:56:11.997Z</time></trkpt><trkpt lat="44.86453376020805" lon="9.040532038168067"><ele>448.40000000000003</ele><time>2026-05-01T13:56:12.997Z</time></trkpt><trkpt lat="44.86462635004256" lon="9.04047210480665"><ele>446.59999999999997</ele><time>2026-05-01T13:56:13.997Z</time></trkpt><trkpt lat="44.86471035741593" lon="9.040416362336934"><ele>444.79999999999995</ele><time>2026-05-01T13:56:14.997Z</time></trkpt><trkpt lat="44.86479255487319" lon="9.04035700067684"><ele>443.0</ele><time>2026-05-01T13:56:16Z</time></trkpt><trkpt lat="44.864859979661524" lon="9.040309079088154"><ele>443.0</ele><time>2026-05-01T13:56:17Z</time></trkpt><trkpt lat="44.864916960005175" lon="9.040257615182067"><ele>442.99999999999994</ele><time>2026-05-01T13:56:18Z</time></trkpt><trkpt lat="44.865025546071095" lon="9.040190724131747"><ele>442.99999999999994</ele><time>2026-05-01T13:56:20Z</time></trkpt><trkpt lat="44.86513727115306" lon="9.04027468854076"><ele>443.0</ele><time>2026-05-01T13:56:22Z</time></trkpt><trkpt lat="44.86519586166696" lon="9.04035616625255"><ele>443.0</ele><time>2026-05-01T13:56:23Z</time></trkpt><trkpt lat="44.86527092138147" lon="9.040447224246957"><ele>441.2</ele><time>2026-05-01T13:56:24Z</time></trkpt><trkpt lat="44.86534485872185" lon="9.040550450967883"><ele>439.4</ele><time>2026-05-01T13:56:25Z</time></trkpt><trkpt lat="44.86541118507487" lon="9.040672453163461"><ele>437.59999999999997</ele><time>2026-05-01T13:56:26Z</time></trkpt><trkpt lat="44.86546871433569" lon="9.040814889291024"><ele>435.79999999999995</ele><time>2026-05-01T13:56:27Z</time></trkpt><trkpt lat="44.86552183607422" lon="9.040954124034506"><ele>434.0</ele><time>2026-05-01T13:56:28Z</time></trkpt><trkpt lat="44.865576411569165" lon="9.0410965567488"><ele>433.5</ele><time>2026-05-01T13:56:29Z</time></trkpt><trkpt lat="44.86563752232573" lon="9.041231695571325"><ele>433.0</ele><time>2026-05-01T13:56:30Z</time></trkpt><trkpt lat="44.86570306825572" lon="9.041360754085888"><ele>432.5</ele><time>2026-05-01T13:56:31Z</time></trkpt><trkpt lat="44.865773346708515" lon="9.041488208798729"><ele>432.0</ele><time>2026-05-01T13:56:32Z</time></trkpt><trkpt lat="44.86584869074613" lon="9.041617799071718"><ele>432.25</ele><time>2026-05-01T13:56:33Z</time></trkpt><trkpt lat="44.865923033909716" lon="9.041760370762436"><ele>432.5</ele><time>2026-05-01T13:56:34Z</time></trkpt><trkpt lat="44.86600417641737" lon="9.041909007677475"><ele>432.75</ele><time>2026-05-01T13:56:35Z</time></trkpt><trkpt lat="44.86609477305645" lon="9.042062386514754"><ele>433.0</ele><time>2026-05-01T13:56:36Z</time></trkpt><trkpt lat="44.8661875320234" lon="9.04220474138757"><ele>431.75</ele><time>2026-05-01T13:56:37Z</time></trkpt><trkpt lat="44.866274157098374" lon="9.04232577154533"><ele>430.5</ele><time>2026-05-01T13:56:38Z</time></trkpt><trkpt lat="44.86636893448137" lon="9.042469944662706"><ele>429.25</ele><time>2026-05-01T13:56:39Z</time></trkpt><trkpt lat="44.8664315520774" lon="9.042604940852017"><ele>428.0</ele><time>2026-05-01T13:56:40Z</time></trkpt><trkpt lat="44.86651471626327" lon="9.042734549943065"><ele>428.0</ele><time>2026-05-01T13:56:41Z</time></trkpt><trkpt lat="44.86661249402373" lon="9.042848729250977"><ele>427.99999999999994</ele><time>2026-05-01T13:56:42Z</time></trkpt><trkpt lat="44.86668469868495" lon="9.042948709785023"><ele>427.99999999999994</ele><time>2026-05-01T13:56:43Z</time></trkpt><trkpt lat="44.86674948952353" lon="9.043017113081804"><ele>428.0</ele><time>2026-05-01T13:56:44Z</time></trkpt><trkpt lat="44.86679996624558" lon="9.043089231542767"><ele>428.0</ele><time>2026-05-01T13:56:45Z</time></trkpt><trkpt lat="44.86687511697414" lon="9.043125969069742"><ele>427.2</ele><time>2026-05-01T13:56:46Z</time></trkpt><trkpt lat="44.8669531749511" lon="9.04318626165359"><ele>426.4</ele><time>2026-05-01T13:56:47Z</time></trkpt><trkpt lat="44.86706044898033" lon="9.043213741145083"><ele>425.59999999999997</ele><time>2026-05-01T13:56:48Z</time></trkpt><trkpt lat="44.867155696962776" lon="9.043202498998719"><ele>424.79999999999995</ele><time>2026-05-01T13:56:49Z</time></trkpt><trkpt lat="44.867251935388886" lon="9.04320936422411"><ele>424.0</ele><time>2026-05-01T13:56:50Z</time></trkpt><trkpt lat="44.86732895916124" lon="9.043182006243542"><ele>424.00000000000006</ele><time>2026-05-01T13:56:51Z</time></trkpt><trkpt lat="44.86740032861812" lon="9.043157269000565"><ele>424.0</ele><time>2026-05-01T13:56:52Z</time></trkpt><trkpt lat="44.867470225146384" lon="9.043139286358098"><ele>424.0</ele><time>2026-05-01T13:56:52.999Z</time></trkpt><trkpt lat="44.86759604544829" lon="9.043160135911327"><ele>424.0</ele><time>2026-05-01T13:56:54.999Z</time></trkpt><trkpt lat="44.867626350329566" lon="9.043247038266427"><ele>424.00000000000006</ele><time>2026-05-01T13:56:55.999Z</time></trkpt><trkpt lat="44.86769238411749" lon="9.043320018575873"><ele>424.0</ele><time>2026-05-01T13:56:56.999Z</time></trkpt><trkpt lat="44.86777446190291" lon="9.043379981993148"><ele>423.50000000000006</ele><time>2026-05-01T13:56:57.999Z</time></trkpt><trkpt lat="44.86786542778493" lon="9.043446996331895"><ele>423.0</ele><time>2026-05-01T13:56:58.999Z</time></trkpt><trkpt lat="44.867950675438465" lon="9.043513106141205"><ele>422.5</ele><time>2026-05-01T13:56:59.999Z</time></trkpt><trkpt lat="44.86801951988764" lon="9.04357125326516"><ele>422.0</ele><time>2026-05-01T13:57:00.999Z</time></trkpt><trkpt lat="44.86807948783574" lon="9.043608994663307"><ele>421.50000000000006</ele><time>2026-05-01T13:57:01.999Z</time></trkpt><trkpt lat="44.86817479389942" lon="9.043650206166093"><ele>421.0</ele><time>2026-05-01T13:57:03.999Z</time></trkpt><trkpt lat="44.86824640411515" lon="9.043682856101286"><ele>421.0</ele><time>2026-05-01T13:57:05.999Z</time></trkpt><trkpt lat="44.868267689945725" lon="9.043888251025217"><ele>421.0</ele><time>2026-05-01T13:57:06.999Z</time></trkpt><trkpt lat="44.86830283815327" lon="9.043986165563073"><ele>421.0</ele><time>2026-05-01T13:57:07.999Z</time></trkpt><trkpt lat="44.86834553161952" lon="9.044090414971812"><ele>421.0</ele><time>2026-05-01T13:57:08.999Z</time></trkpt><trkpt lat="44.86837273938493" lon="9.04421350575981"><ele>421.0</ele><time>2026-05-01T13:57:09.999Z</time></trkpt><trkpt lat="44.86841044572011" lon="9.044336606894396"><ele>418.8</ele><time>2026-05-01T13:57:10.999Z</time></trkpt><trkpt lat="44.86846332377721" lon="9.044457372348464"><ele>416.6</ele><time>2026-05-01T13:57:11.999Z</time></trkpt><trkpt lat="44.86849980910811" lon="9.044574581165902"><ele>414.4</ele><time>2026-05-01T13:57:12.999Z</time></trkpt><trkpt lat="44.868531037136286" lon="9.044704487190588"><ele>412.2</ele><time>2026-05-01T13:57:13.999Z</time></trkpt><trkpt lat="44.86858500695694" lon="9.044859569472207"><ele>410.0</ele><time>2026-05-01T13:57:14.999Z</time></trkpt><trkpt lat="44.86863366899084" lon="9.045000334330497"><ele>408.2</ele><time>2026-05-01T13:57:15.999Z</time></trkpt><trkpt lat="44.868672495539585" lon="9.045119438570568"><ele>406.4</ele><time>2026-05-01T13:57:16.999Z</time></trkpt><trkpt lat="44.868704350806645" lon="9.045246690737331"><ele>404.6</ele><time>2026-05-01T13:57:17.999Z</time></trkpt><trkpt lat="44.86871271116746" lon="9.045352482937705"><ele>402.8</ele><time>2026-05-01T13:57:18.999Z</time></trkpt><trkpt lat="44.86870970483951" lon="9.045448628190005"><ele>401.0</ele><time>2026-05-01T13:57:19.999Z</time></trkpt><trkpt lat="44.86873943750917" lon="9.045622984439845"><ele>401.0</ele><time>2026-05-01T13:57:21.999Z</time></trkpt><trkpt lat="44.86877362260556" lon="9.045711006036411"><ele>401.0</ele><time>2026-05-01T13:57:22.999Z</time></trkpt><trkpt lat="44.86883894582783" lon="9.045812010937686"><ele>401.0</ele><time>2026-05-01T13:57:23.999Z</time></trkpt><trkpt lat="44.868896902993555" lon="9.04595027270501"><ele>401.0</ele><time>2026-05-01T13:57:24.999Z</time></trkpt><trkpt lat="44.86898548574463" lon="9.046071836061026"><ele>401.0</ele><time>2026-05-01T13:57:25.998Z</time></trkpt><trkpt lat="44.86903992551153" lon="9.046184958147908"><ele>400.20000000000005</ele><time>2026-05-01T13:57:26.998Z</time></trkpt><trkpt lat="44.869066489752775" lon="9.046315484388183"><ele>399.40000000000003</ele><time>2026-05-01T13:57:27.998Z</time></trkpt><trkpt lat="44.869088722460205" lon="9.046428320051389"><ele>398.6</ele><time>2026-05-01T13:57:28.998Z</time></trkpt><trkpt lat="44.86910799514206" lon="9.04652338870831"><ele>397.8</ele><time>2026-05-01T13:57:29.998Z</time></trkpt><trkpt lat="44.869156944204434" lon="9.046686061221374"><ele>397.0</ele><time>2026-05-01T13:57:30.998Z</time></trkpt><trkpt lat="44.86920396707344" lon="9.046832344357226"><ele>395.75</ele><time>2026-05-01T13:57:31.998Z</time></trkpt><trkpt lat="44.86926497790644" lon="9.046977325435995"><ele>394.5</ele><time>2026-05-01T13:57:32.998Z</time></trkpt><trkpt lat="44.869287702093935" lon="9.047144697187976"><ele>393.25</ele><time>2026-05-01T13:57:33.998Z</time></trkpt><trkpt lat="44.86933365088833" lon="9.04729297461699"><ele>392.0</ele><time>2026-05-01T13:57:34.998Z</time></trkpt><trkpt lat="44.86937115197633" lon="9.047418910690702"><ele>389.0</ele><time>2026-05-01T13:57:35.998Z</time></trkpt><trkpt lat="44.86941640234614" lon="9.047522866020474"><ele>386.0</ele><time>2026-05-01T13:57:36.998Z</time></trkpt><trkpt lat="44.86948755656373" lon="9.047644265034146"><ele>383.0</ele><time>2026-05-01T13:57:37.998Z</time></trkpt><trkpt lat="44.86955918399107" lon="9.04776811760171"><ele>380.0</ele><time>2026-05-01T13:57:38.998Z</time></trkpt><trkpt lat="44.86962781115602" lon="9.047902151179464"><ele>377.0</ele><time>2026-05-01T13:57:39.998Z</time></trkpt><trkpt lat="44.86968504716236" lon="9.04802150936517"><ele>377.0</ele><time>2026-05-01T13:57:40.998Z</time></trkpt><trkpt lat="44.869743793462774" lon="9.048155138289452"><ele>377.0</ele><time>2026-05-01T13:57:41.998Z</time></trkpt><trkpt lat="44.869815557397416" lon="9.048265184384762"><ele>377.0</ele><time>2026-05-01T13:57:42.998Z</time></trkpt><trkpt lat="44.86988957747049" lon="9.048385992786526"><ele>377.0</ele><time>2026-05-01T13:57:43.998Z</time></trkpt><trkpt lat="44.86997070436387" lon="9.048514929724952"><ele>377.0</ele><time>2026-05-01T13:57:44.998Z</time></trkpt><trkpt lat="44.87003598806912" lon="9.048637800669919"><ele>377.0</ele><time>2026-05-01T13:57:45.998Z</time></trkpt><trkpt lat="44.87008320732959" lon="9.04875152576843"><ele>377.0</ele><time>2026-05-01T13:57:46.998Z</time></trkpt><trkpt lat="44.87011905502059" lon="9.048889128859821"><ele>377.0</ele><time>2026-05-01T13:57:47.998Z</time></trkpt><trkpt lat="44.87015705335129" lon="9.048995216407084"><ele>377.0</ele><time>2026-05-01T13:57:48.998Z</time></trkpt><trkpt lat="44.87019738375871" lon="9.049090352712877"><ele>374.40000000000003</ele><time>2026-05-01T13:57:49.998Z</time></trkpt><trkpt lat="44.870267457026706" lon="9.049191175958885"><ele>371.8</ele><time>2026-05-01T13:57:51.998Z</time></trkpt><trkpt lat="44.870336986332134" lon="9.049215048967888"><ele>369.2</ele><time>2026-05-01T13:57:52.998Z</time></trkpt><trkpt lat="44.87046129522766" lon="9.049192839334046"><ele>366.6</ele><time>2026-05-01T13:57:54.998Z</time></trkpt><trkpt lat="44.87053387316688" lon="9.049304548442711"><ele>364.0</ele><time>2026-05-01T13:57:56.998Z</time></trkpt><trkpt lat="44.87058736808768" lon="9.049411721196602"><ele>364.0</ele><time>2026-05-01T13:57:58.997Z</time></trkpt><trkpt lat="44.87055290925704" lon="9.04960538080924"><ele>364.0</ele><time>2026-05-01T13:58:00.997Z</time></trkpt><trkpt lat="44.87051395623923" lon="9.049727201458508"><ele>364.0</ele><time>2026-05-01T13:58:01.997Z</time></trkpt><trkpt lat="44.87048255798541" lon="9.049863760142312"><ele>364.0</ele><time>2026-05-01T13:58:02.997Z</time></trkpt><trkpt lat="44.870457888377786" lon="9.049980810824072"><ele>364.0</ele><time>2026-05-01T13:58:03.997Z</time></trkpt><trkpt lat="44.870429551561266" lon="9.050123669913663"><ele>363.0</ele><time>2026-05-01T13:58:04.997Z</time></trkpt><trkpt lat="44.87040413979358" lon="9.050241802761398"><ele>362.0</ele><time>2026-05-01T13:58:05.997Z</time></trkpt><trkpt lat="44.870387426161074" lon="9.050336710032507"><ele>361.0</ele><time>2026-05-01T13:58:06.997Z</time></trkpt><trkpt lat="44.87037867139249" lon="9.05046631639618"><ele>360.0</ele><time>2026-05-01T13:58:07.997Z</time></trkpt><trkpt lat="44.870404789545624" lon="9.05058084124868"><ele>359.0</ele><time>2026-05-01T13:58:08.997Z</time></trkpt><trkpt lat="44.87043598516095" lon="9.050710260867621"><ele>358.0</ele><time>2026-05-01T13:58:09.997Z</time></trkpt><trkpt lat="44.87046380391609" lon="9.050820745255615"><ele>356.2</ele><time>2026-05-01T13:58:10.997Z</time></trkpt><trkpt lat="44.87049422653602" lon="9.05091130199373"><ele>354.4</ele><time>2026-05-01T13:58:11.997Z</time></trkpt><trkpt lat="44.870538842708186" lon="9.051036881392855"><ele>352.59999999999997</ele><time>2026-05-01T13:58:12.997Z</time></trkpt><trkpt lat="44.87059678183313" lon="9.051185755100086"><ele>350.79999999999995</ele><time>2026-05-01T13:58:13.997Z</time></trkpt><trkpt lat="44.8706487189577" lon="9.051313956540984"><ele>349.0</ele><time>2026-05-01T13:58:14.997Z</time></trkpt><trkpt lat="44.870687516641794" lon="9.05145597402491"><ele>349.0</ele><time>2026-05-01T13:58:15.997Z</time></trkpt><trkpt lat="44.8707190533982" lon="9.051574320569296"><ele>349.0</ele><time>2026-05-01T13:58:16.997Z</time></trkpt><trkpt lat="44.87074478295889" lon="9.051721550652259"><ele>349.0</ele><time>2026-05-01T13:58:17.997Z</time></trkpt><trkpt lat="44.87076054352375" lon="9.051856357530706"><ele>349.0</ele><time>2026-05-01T13:58:18.997Z</time></trkpt><trkpt lat="44.87076900069325" lon="9.05197925870166"><ele>349.0</ele><time>2026-05-01T13:58:19.997Z</time></trkpt><trkpt lat="44.870763589078614" lon="9.052095905301542"><ele>348.0</ele><time>2026-05-01T13:58:21Z</time></trkpt><trkpt lat="44.87074274851575" lon="9.052208867349709"><ele>347.0</ele><time>2026-05-01T13:58:22Z</time></trkpt><trkpt lat="44.87072364159016" lon="9.052329533249505"><ele>346.0</ele><time>2026-05-01T13:58:23Z</time></trkpt><trkpt lat="44.87072047530022" lon="9.05245634645347"><ele>345.0</ele><time>2026-05-01T13:58:24Z</time></trkpt><trkpt lat="44.870722892268006" lon="9.052589973968363"><ele>344.0</ele><time>2026-05-01T13:58:25Z</time></trkpt><trkpt lat="44.87072758537139" lon="9.0527156798323"><ele>343.0</ele><time>2026-05-01T13:58:26Z</time></trkpt><trkpt lat="44.870729466094815" lon="9.052835764847721"><ele>341.66666666666663</ele><time>2026-05-01T13:58:27Z</time></trkpt><trkpt lat="44.87072712732664" lon="9.052947903400959"><ele>340.3333333333333</ele><time>2026-05-01T13:58:29Z</time></trkpt><trkpt lat="44.87071195233015" lon="9.05306569058173"><ele>339.0</ele><time>2026-05-01T13:58:32Z</time></trkpt><trkpt lat="44.87070112097271" lon="9.05324188414584"><ele>337.6666666666667</ele><time>2026-05-01T13:58:34Z</time></trkpt><trkpt lat="44.87069353450587" lon="9.053352337789436"><ele>336.33333333333337</ele><time>2026-05-01T13:58:35Z</time></trkpt><trkpt lat="44.870687898835925" lon="9.053460387107922"><ele>335.0</ele><time>2026-05-01T13:58:36Z</time></trkpt><trkpt lat="44.87067455941087" lon="9.053566777641937"><ele>333.5</ele><time>2026-05-01T13:58:38Z</time></trkpt><trkpt lat="44.87060535002744" lon="9.053651017210068"><ele>332.0</ele><time>2026-05-01T13:59:23.999Z</time></trkpt><trkpt lat="44.87056129141593" lon="9.053737637735345"><ele>330.5</ele><time>2026-05-01T13:59:25.999Z</time></trkpt><trkpt lat="44.87054401945917" lon="9.053837683745805"><ele>329.0</ele><time>2026-05-01T13:59:27.999Z</time></trkpt><trkpt lat="44.870532997411665" lon="9.05392847114863"><ele>327.5</ele><time>2026-05-01T13:59:28.999Z</time></trkpt><trkpt lat="44.870516268285435" lon="9.054019088261812"><ele>326.0</ele><time>2026-05-01T13:59:29.998Z</time></trkpt><trkpt lat="44.87048927185142" lon="9.054171300162494"><ele>324.0</ele><time>2026-05-01T13:59:31.998Z</time></trkpt><trkpt lat="44.87049795351174" lon="9.05429625725159"><ele>322.0</ele><time>2026-05-01T13:59:34.998Z</time></trkpt><trkpt lat="44.87051622451949" lon="9.054400433781232"><ele>320.0</ele><time>2026-05-01T13:59:36.998Z</time></trkpt><trkpt lat="44.87052941448432" lon="9.05450134774317"><ele>318.0</ele><time>2026-05-01T13:59:38.998Z</time></trkpt><trkpt lat="44.87053922446935" lon="9.054613581079556"><ele>316.0</ele><time>2026-05-01T13:59:40.998Z</time></trkpt><trkpt lat="44.870553633362405" lon="9.054710834038737"><ele>314.0</ele><time>2026-05-01T13:59:42.998Z</time></trkpt><trkpt lat="44.87054366857107" lon="9.05482786062981"><ele>314.0</ele><time>2026-05-01T13:59:48.998Z</time></trkpt><trkpt lat="44.87053718101398" lon="9.05494439277195"><ele>314.0</ele><time>2026-05-01T13:59:50.998Z</time></trkpt><trkpt lat="44.87054287004053" lon="9.055092489741082"><ele>314.0</ele><time>2026-05-01T13:59:52.998Z</time></trkpt><trkpt lat="44.87055429286021" lon="9.05519428085363"><ele>314.0</ele><time>2026-05-01T13:59:54.998Z</time></trkpt><trkpt lat="44.87056210427718" lon="9.055295563112908"><ele>314.0</ele><time>2026-05-01T13:59:56.998Z</time></trkpt><trkpt lat="44.870551436756145" lon="9.05540149290767"><ele>314.0</ele><time>2026-05-01T13:59:58.998Z</time></trkpt><trkpt lat="44.8705294618216" lon="9.055487527806314"><ele>311.83333333333337</ele><time>2026-05-01T14:00:00.998Z</time></trkpt><trkpt lat="44.870531436861434" lon="9.05560334187349"><ele>309.6666666666667</ele><time>2026-05-01T14:00:03.997Z</time></trkpt><trkpt lat="44.870530606733105" lon="9.055693229901513"><ele>307.5</ele><time>2026-05-01T14:00:32Z</time></trkpt><trkpt lat="44.87052957529551" lon="9.05579403834402"><ele>305.3333333333333</ele><time>2026-05-01T14:00:35Z</time></trkpt><trkpt lat="44.87053195979475" lon="9.055907899128712"><ele>303.16666666666663</ele><time>2026-05-01T14:00:39Z</time></trkpt><trkpt lat="44.870516961378954" lon="9.055790060850034"><ele>301.0</ele><time>2026-05-01T14:04:46Z</time></trkpt><trkpt lat="44.87051719974278" lon="9.055678684794545"><ele>301.0</ele><time>2026-05-01T14:04:48Z</time></trkpt><trkpt lat="44.87051992466715" lon="9.05554401635361"><ele>301.0</ele><time>2026-05-01T14:04:50Z</time></trkpt><trkpt lat="44.87052115564599" lon="9.055411480650953"><ele>301.0</ele><time>2026-05-01T14:04:52Z</time></trkpt><trkpt lat="44.8705767547564" lon="9.055319535518306"><ele>301.0</ele><time>2026-05-01T14:04:54Z</time></trkpt><trkpt lat="44.87055395512576" lon="9.05522392723945"><ele>301.0</ele><time>2026-05-01T14:08:54Z</time></trkpt><trkpt lat="44.87052769011148" lon="9.055113707785187"><ele>301.0</ele><time>2026-05-01T14:08:56Z</time></trkpt><trkpt lat="44.870534630294024" lon="9.054981163575015"><ele>303.6</ele><time>2026-05-01T14:08:58Z</time></trkpt><trkpt lat="44.870533096009915" lon="9.05482470561303"><ele>306.20000000000005</ele><time>2026-05-01T14:09:00Z</time></trkpt><trkpt lat="44.87053488688113" lon="9.054658188739694"><ele>308.79999999999995</ele><time>2026-05-01T14:09:02Z</time></trkpt><trkpt lat="44.870518489620714" lon="9.054524187855456"><ele>311.4</ele><time>2026-05-01T14:09:04Z</time></trkpt><trkpt lat="44.87049474685935" lon="9.054357802608294"><ele>314.0</ele><time>2026-05-01T14:09:06Z</time></trkpt><trkpt lat="44.870479592780065" lon="9.054170604920207"><ele>317.0</ele><time>2026-05-01T14:09:08Z</time></trkpt><trkpt lat="44.870499575456584" lon="9.05399678769769"><ele>320.0</ele><time>2026-05-01T14:09:10Z</time></trkpt><trkpt lat="44.87053418195088" lon="9.053810264878571"><ele>323.0</ele><time>2026-05-01T14:09:12Z</time></trkpt><trkpt lat="44.87057258419442" lon="9.053652394930303"><ele>326.0</ele><time>2026-05-01T14:09:14Z</time></trkpt><trkpt lat="44.870634307083634" lon="9.0535593304399"><ele>326.0</ele><time>2026-05-01T14:09:16Z</time></trkpt><trkpt lat="44.87067707105593" lon="9.053449295533119"><ele>326.0</ele><time>2026-05-01T14:09:18Z</time></trkpt><trkpt lat="44.87068185303006" lon="9.053292799514603"><ele>326.0</ele><time>2026-05-01T14:09:20Z</time></trkpt><trkpt lat="44.87069042064833" lon="9.053120698960234"><ele>326.0</ele><time>2026-05-01T14:09:22Z</time></trkpt><trkpt lat="44.870704346520924" lon="9.052955328496305"><ele>326.0</ele><time>2026-05-01T14:09:24Z</time></trkpt><trkpt lat="44.87070713866785" lon="9.052816385779284"><ele>327.8</ele><time>2026-05-01T14:09:27Z</time></trkpt><trkpt lat="44.87071106209741" lon="9.052661919487745"><ele>329.6</ele><time>2026-05-01T14:09:29Z</time></trkpt><trkpt lat="44.8707141612958" lon="9.052568499695719"><ele>331.4</ele><time>2026-05-01T14:09:30Z</time></trkpt><trkpt lat="44.870708119433196" lon="9.052408015606098"><ele>333.2</ele><time>2026-05-01T14:09:32Z</time></trkpt><trkpt lat="44.87070411139275" lon="9.052319320502503"><ele>335.0</ele><time>2026-05-01T14:09:32.999Z</time></trkpt><trkpt lat="44.87072216501123" lon="9.052121707389624"><ele>336.6</ele><time>2026-05-01T14:09:34.999Z</time></trkpt><trkpt lat="44.870735604479854" lon="9.05192183365513"><ele>338.2</ele><time>2026-05-01T14:09:36.999Z</time></trkpt><trkpt lat="44.870732899120426" lon="9.051825088455173"><ele>339.79999999999995</ele><time>2026-05-01T14:09:37.999Z</time></trkpt><trkpt lat="44.87072421936906" lon="9.051736398782815"><ele>341.4</ele><time>2026-05-01T14:09:38.999Z</time></trkpt><trkpt lat="44.87069609847731" lon="9.051547807879887"><ele>343.0</ele><time>2026-05-01T14:09:40.999Z</time></trkpt><trkpt lat="44.87066858598714" lon="9.05142542651956"><ele>344.2</ele><time>2026-05-01T14:09:41.999Z</time></trkpt><trkpt lat="44.87064296866569" lon="9.051332384448349"><ele>345.4</ele><time>2026-05-01T14:09:42.999Z</time></trkpt><trkpt lat="44.8706153695903" lon="9.051235608766655"><ele>346.59999999999997</ele><time>2026-05-01T14:09:43.999Z</time></trkpt><trkpt lat="44.87056180064849" lon="9.051109843137446"><ele>347.79999999999995</ele><time>2026-05-01T14:09:44.999Z</time></trkpt><trkpt lat="44.870524149977534" lon="9.050991549904953"><ele>349.0</ele><time>2026-05-01T14:09:45.999Z</time></trkpt><trkpt lat="44.87047775934691" lon="9.050835924611977"><ele>350.79999999999995</ele><time>2026-05-01T14:09:47.999Z</time></trkpt><trkpt lat="44.87044175215415" lon="9.050722084218755"><ele>352.59999999999997</ele><time>2026-05-01T14:09:48.999Z</time></trkpt><trkpt lat="44.87039114622717" lon="9.05059030479126"><ele>354.4</ele><time>2026-05-01T14:09:49.999Z</time></trkpt><trkpt lat="44.87035453894481" lon="9.050431895201061"><ele>356.2</ele><time>2026-05-01T14:09:50.999Z</time></trkpt><trkpt lat="44.87037265731663" lon="9.050263799301693"><ele>358.0</ele><time>2026-05-01T14:09:52.999Z</time></trkpt><trkpt lat="44.870406785222556" lon="9.050185876295163"><ele>358.0</ele><time>2026-05-01T14:09:53.999Z</time></trkpt><trkpt lat="44.87042279091521" lon="9.050075979916885"><ele>358.0</ele><time>2026-05-01T14:09:54.999Z</time></trkpt><trkpt lat="44.87045658024032" lon="9.049991505813667"><ele>358.0</ele><time>2026-05-01T14:09:55.999Z</time></trkpt><trkpt lat="44.87049305761981" lon="9.049889019196963"><ele>358.0</ele><time>2026-05-01T14:09:56.999Z</time></trkpt><trkpt lat="44.87051068994319" lon="9.049774196907405"><ele>358.0</ele><time>2026-05-01T14:09:57.999Z</time></trkpt><trkpt lat="44.870525620366855" lon="9.049652456419569"><ele>358.0</ele><time>2026-05-01T14:09:58.999Z</time></trkpt><trkpt lat="44.87056283016381" lon="9.049503024383146"><ele>359.0</ele><time>2026-05-01T14:10:00.999Z</time></trkpt><trkpt lat="44.87057460916614" lon="9.049356358524177"><ele>360.0</ele><time>2026-05-01T14:10:02.999Z</time></trkpt><trkpt lat="44.87053643214638" lon="9.049283326965014"><ele>361.0</ele><time>2026-05-01T14:10:07.998Z</time></trkpt><trkpt lat="44.87055639609353" lon="9.04938740695044"><ele>362.0</ele><time>2026-05-01T14:10:14.998Z</time></trkpt><trkpt lat="44.87056647138935" lon="9.0494953622361"><ele>363.0</ele><time>2026-05-01T14:10:16.998Z</time></trkpt><trkpt lat="44.87053645648884" lon="9.04960188001457"><ele>364.0</ele><time>2026-05-01T14:10:18.998Z</time></trkpt><trkpt lat="44.87050030861475" lon="9.049735930618052"><ele>364.0</ele><time>2026-05-01T14:10:20.998Z</time></trkpt><trkpt lat="44.870486927587514" lon="9.049850837683758"><ele>364.0</ele><time>2026-05-01T14:10:22.998Z</time></trkpt><trkpt lat="44.87044730481124" lon="9.050056339629815"><ele>364.0</ele><time>2026-05-01T14:10:25.998Z</time></trkpt><trkpt lat="44.87041969175147" lon="9.050144277501367"><ele>364.0</ele><time>2026-05-01T14:10:26.998Z</time></trkpt><trkpt lat="44.870392096070496" lon="9.050301526995009"><ele>364.0</ele><time>2026-05-01T14:10:28.998Z</time></trkpt><trkpt lat="44.870385193567635" lon="9.050443334652137"><ele>362.79999999999995</ele><time>2026-05-01T14:10:30.998Z</time></trkpt><trkpt lat="44.87041970622389" lon="9.050576225924512"><ele>361.59999999999997</ele><time>2026-05-01T14:10:32.998Z</time></trkpt><trkpt lat="44.870449302801624" lon="9.050723128830462"><ele>360.4</ele><time>2026-05-01T14:10:34.998Z</time></trkpt><trkpt lat="44.870487442193514" lon="9.050871935727345"><ele>359.2</ele><time>2026-05-01T14:10:36.998Z</time></trkpt><trkpt lat="44.870521240590854" lon="9.050975574785566"><ele>358.0</ele><time>2026-05-01T14:10:38.998Z</time></trkpt><trkpt lat="44.87056433332996" lon="9.051077911526013"><ele>356.2</ele><time>2026-05-01T14:10:40.997Z</time></trkpt><trkpt lat="44.870595127877735" lon="9.051181985394225"><ele>354.4</ele><time>2026-05-01T14:10:42.997Z</time></trkpt><trkpt lat="44.87063142839157" lon="9.051307875422008"><ele>352.59999999999997</ele><time>2026-05-01T14:10:44.997Z</time></trkpt><trkpt lat="44.87068270454359" lon="9.051449956359468"><ele>350.79999999999995</ele><time>2026-05-01T14:10:46.997Z</time></trkpt><trkpt lat="44.870711429352" lon="9.051602872555252"><ele>349.0</ele><time>2026-05-01T14:10:48.997Z</time></trkpt><trkpt lat="44.87073790926976" lon="9.051788786763103"><ele>347.79999999999995</ele><time>2026-05-01T14:10:50.997Z</time></trkpt><trkpt lat="44.87074065820133" lon="9.051935149413485"><ele>346.59999999999997</ele><time>2026-05-01T14:10:52.997Z</time></trkpt><trkpt lat="44.870737307684855" lon="9.052079217309046"><ele>345.4</ele><time>2026-05-01T14:10:55Z</time></trkpt><trkpt lat="44.87071756886342" lon="9.052214827360949"><ele>344.2</ele><time>2026-05-01T14:10:57Z</time></trkpt><trkpt lat="44.87070446776818" lon="9.052357144885919"><ele>343.0</ele><time>2026-05-01T14:10:59Z</time></trkpt><trkpt lat="44.87070537910171" lon="9.052458678295627"><ele>341.85714285714283</ele><time>2026-05-01T14:11:01Z</time></trkpt><trkpt lat="44.870722060470236" lon="9.05254642980933"><ele>340.7142857142857</ele><time>2026-05-01T14:11:26.999Z</time></trkpt><trkpt lat="44.870719923736864" lon="9.052650104838639"><ele>339.57142857142856</ele><time>2026-05-01T14:11:28.999Z</time></trkpt><trkpt lat="44.870716744427654" lon="9.052776683930928"><ele>338.42857142857144</ele><time>2026-05-01T14:11:30.999Z</time></trkpt><trkpt lat="44.87071178243672" lon="9.052890549649016"><ele>337.2857142857143</ele><time>2026-05-01T14:11:32.999Z</time></trkpt><trkpt lat="44.87074342982693" lon="9.052970255426754"><ele>336.1428571428571</ele><time>2026-05-01T14:11:35.998Z</time></trkpt><trkpt lat="44.87080489754248" lon="9.052909533641992"><ele>335.0</ele><time>2026-05-01T14:11:37.998Z</time></trkpt><trkpt lat="44.87085079558319" lon="9.052846397056364"><ele>334.1666666666667</ele><time>2026-05-01T14:11:38.998Z</time></trkpt><trkpt lat="44.870942687634944" lon="9.052752102881088"><ele>333.33333333333337</ele><time>2026-05-01T14:11:40.998Z</time></trkpt><trkpt lat="44.871004368263755" lon="9.052674776429496"><ele>332.5</ele><time>2026-05-01T14:11:41.998Z</time></trkpt><trkpt lat="44.87107104520758" lon="9.052590158043111"><ele>331.6666666666667</ele><time>2026-05-01T14:11:42.998Z</time></trkpt><trkpt lat="44.87112437890912" lon="9.052527517452567"><ele>330.8333333333333</ele><time>2026-05-01T14:11:43.998Z</time></trkpt><trkpt lat="44.87118465297733" lon="9.052461244292218"><ele>330.0</ele><time>2026-05-01T14:11:44.998Z</time></trkpt><trkpt lat="44.87125160122805" lon="9.052393823871876"><ele>330.0</ele><time>2026-05-01T14:11:45.998Z</time></trkpt><trkpt lat="44.87131173233374" lon="9.052328277973244"><ele>330.0</ele><time>2026-05-01T14:11:46.998Z</time></trkpt><trkpt lat="44.87140154493385" lon="9.052224928345078"><ele>330.0</ele><time>2026-05-01T14:11:48.998Z</time></trkpt><trkpt lat="44.87148651985371" lon="9.052102553079655"><ele>330.0</ele><time>2026-05-01T14:11:50.998Z</time></trkpt><trkpt lat="44.871569114536754" lon="9.051966836833211"><ele>330.0</ele><time>2026-05-01T14:11:52.998Z</time></trkpt><trkpt lat="44.871634212189825" lon="9.051883348264745"><ele>330.0</ele><time>2026-05-01T14:11:54.998Z</time></trkpt><trkpt lat="44.8717417190641" lon="9.051883356625206"><ele>330.0</ele><time>2026-05-01T14:11:56.998Z</time></trkpt><trkpt lat="44.87180160728948" lon="9.051915391812818"><ele>330.0</ele><time>2026-05-01T14:11:57.998Z</time></trkpt><trkpt lat="44.871882371126055" lon="9.051946232451593"><ele>330.0</ele><time>2026-05-01T14:11:58.998Z</time></trkpt><trkpt lat="44.87194498232125" lon="9.051965392930946"><ele>330.0</ele><time>2026-05-01T14:11:59.998Z</time></trkpt><trkpt lat="44.87205073023142" lon="9.052029275687188"><ele>330.0</ele><time>2026-05-01T14:12:01.998Z</time></trkpt><trkpt lat="44.87213369753097" lon="9.05213520010835"><ele>327.0</ele><time>2026-05-01T14:12:03.998Z</time></trkpt><trkpt lat="44.872164111302155" lon="9.05229836653626"><ele>324.0</ele><time>2026-05-01T14:12:05.998Z</time></trkpt><trkpt lat="44.87215310497687" lon="9.052402350732768"><ele>321.0</ele><time>2026-05-01T14:12:06.998Z</time></trkpt><trkpt lat="44.87213693606262" lon="9.052495546159651"><ele>318.0</ele><time>2026-05-01T14:12:07.998Z</time></trkpt><trkpt lat="44.87213652253642" lon="9.052586416301217"><ele>315.0</ele><time>2026-05-01T14:12:08.998Z</time></trkpt><trkpt lat="44.87215596702181" lon="9.052681763508383"><ele>312.0</ele><time>2026-05-01T14:12:09.998Z</time></trkpt><trkpt lat="44.87218575594063" lon="9.05284201458557"><ele>309.0</ele><time>2026-05-01T14:12:11.997Z</time></trkpt><trkpt lat="44.87220299602458" lon="9.052965990649305"><ele>306.0</ele><time>2026-05-01T14:12:14.997Z</time></trkpt><trkpt lat="44.87222955687307" lon="9.05307687808274"><ele>303.0</ele><time>2026-05-01T14:12:16.997Z</time></trkpt><trkpt lat="44.87224324325153" lon="9.053188484002558"><ele>300.0</ele><time>2026-05-01T14:12:18.997Z</time></trkpt><trkpt lat="44.87227066310717" lon="9.053294478663233"><ele>297.0</ele><time>2026-05-01T14:12:19.997Z</time></trkpt><trkpt lat="44.87231983493209" lon="9.053448621559271"><ele>296.0</ele><time>2026-05-01T14:12:21.997Z</time></trkpt><trkpt lat="44.8723213943068" lon="9.05360193159785"><ele>295.0</ele><time>2026-05-01T14:12:23.997Z</time></trkpt><trkpt lat="44.87232389411305" lon="9.053691054242265"><ele>294.0</ele><time>2026-05-01T14:12:24.997Z</time></trkpt><trkpt lat="44.87238903242984" lon="9.05382970248342"><ele>293.0</ele><time>2026-05-01T14:12:26.997Z</time></trkpt><trkpt lat="44.87245497003713" lon="9.053843827147162"><ele>292.0</ele><time>2026-05-01T14:12:27.997Z</time></trkpt><trkpt lat="44.8725803517493" lon="9.053863604931262"><ele>289.0</ele><time>2026-05-01T14:12:29.997Z</time></trkpt><trkpt lat="44.87268349339944" lon="9.053923604875138"><ele>286.0</ele><time>2026-05-01T14:12:31.997Z</time></trkpt><trkpt lat="44.87274171482769" lon="9.054047381120409"><ele>283.0</ele><time>2026-05-01T14:12:33.997Z</time></trkpt><trkpt lat="44.872777255680184" lon="9.054127453446368"><ele>280.0</ele><time>2026-05-01T14:12:34.997Z</time></trkpt><trkpt lat="44.87280223582958" lon="9.05425877451848"><ele>277.0</ele><time>2026-05-01T14:12:36.997Z</time></trkpt><trkpt lat="44.87281678742566" lon="9.054348332909914"><ele>274.0</ele><time>2026-05-01T14:12:37.997Z</time></trkpt><trkpt lat="44.87284613128502" lon="9.054442441842061"><ele>273.3333333333333</ele><time>2026-05-01T14:12:39.997Z</time></trkpt><trkpt lat="44.87280576835507" lon="9.05452029834899"><ele>272.66666666666663</ele><time>2026-05-01T14:12:41.997Z</time></trkpt><trkpt lat="44.872742191919734" lon="9.054573008945509"><ele>272.0</ele><time>2026-05-01T14:12:43.997Z</time></trkpt><trkpt lat="44.87269967416979" lon="9.054652266606404"><ele>271.3333333333333</ele><time>2026-05-01T14:12:45.996Z</time></trkpt><trkpt lat="44.87262616729097" lon="9.054742003926183"><ele>270.6666666666667</ele><time>2026-05-01T14:12:47.996Z</time></trkpt><trkpt lat="44.8725590769463" lon="9.054821319307544"><ele>270.0</ele><time>2026-05-01T14:12:49.996Z</time></trkpt><trkpt lat="44.87250547385077" lon="9.054879240599433"><ele>270.4</ele><time>2026-05-01T14:12:50.996Z</time></trkpt><trkpt lat="44.87241781132992" lon="9.054958714197102"><ele>270.8</ele><time>2026-05-01T14:12:52.996Z</time></trkpt><trkpt lat="44.87236790349587" lon="9.05503713861167"><ele>271.2</ele><time>2026-05-01T14:12:55.996Z</time></trkpt><trkpt lat="44.872395962152375" lon="9.055173850393455"><ele>271.6</ele><time>2026-05-01T14:12:58.996Z</time></trkpt><trkpt lat="44.87244975263627" lon="9.055324186302988"><ele>272.0</ele><time>2026-05-01T14:13:00.999Z</time></trkpt><trkpt lat="44.87249520589337" lon="9.055478510751486"><ele>272.0</ele><time>2026-05-01T14:13:02.999Z</time></trkpt><trkpt lat="44.872568756703664" lon="9.05560780334091"><ele>272.0</ele><time>2026-05-01T14:13:04.999Z</time></trkpt><trkpt lat="44.87261165380998" lon="9.05569982697079"><ele>272.0</ele><time>2026-05-01T14:13:05.999Z</time></trkpt><trkpt lat="44.87264960996004" lon="9.05578312522514"><ele>272.0</ele><time>2026-05-01T14:13:06.999Z</time></trkpt><trkpt lat="44.87269466122086" lon="9.055880302282645"><ele>272.0</ele><time>2026-05-01T14:13:07.999Z</time></trkpt><trkpt lat="44.87274366059391" lon="9.055976596697567"><ele>272.0</ele><time>2026-05-01T14:13:08.999Z</time></trkpt><trkpt lat="44.87279654440246" lon="9.056056844552845"><ele>268.83333333333337</ele><time>2026-05-01T14:13:09.999Z</time></trkpt><trkpt lat="44.8728526536793" lon="9.056137638036269"><ele>265.6666666666667</ele><time>2026-05-01T14:13:10.999Z</time></trkpt><trkpt lat="44.872907737171886" lon="9.056223833297706"><ele>262.5</ele><time>2026-05-01T14:13:11.999Z</time></trkpt><trkpt lat="44.87294137507734" lon="9.056310199800372"><ele>259.3333333333333</ele><time>2026-05-01T14:13:12.999Z</time></trkpt><trkpt lat="44.87293835338036" lon="9.056502901138149"><ele>256.16666666666663</ele><time>2026-05-01T14:13:14.999Z</time></trkpt><trkpt lat="44.872946439355324" lon="9.056607682959195"><ele>253.0</ele><time>2026-05-01T14:13:15.999Z</time></trkpt><trkpt lat="44.8729303833787" lon="9.056709861480678"><ele>251.99999999999997</ele><time>2026-05-01T14:13:16.999Z</time></trkpt><trkpt lat="44.87291940089933" lon="9.056807233366452"><ele>251.0</ele><time>2026-05-01T14:13:17.999Z</time></trkpt><trkpt lat="44.87290644704581" lon="9.056913951616359"><ele>250.0</ele><time>2026-05-01T14:13:18.999Z</time></trkpt><trkpt lat="44.87289259973289" lon="9.057022613600564"><ele>249.0</ele><time>2026-05-01T14:13:19.999Z</time></trkpt><trkpt lat="44.87285845318212" lon="9.057130073769772"><ele>247.99999999999997</ele><time>2026-05-01T14:13:20.999Z</time></trkpt><trkpt lat="44.8728272735234" lon="9.05724163547975"><ele>247.0</ele><time>2026-05-01T14:13:21.999Z</time></trkpt><trkpt lat="44.87277171969983" lon="9.057358708598848"><ele>246.99999999999997</ele><time>2026-05-01T14:13:23.999Z</time></trkpt><trkpt lat="44.872741682945104" lon="9.05743843515263"><ele>247.0</ele><time>2026-05-01T14:13:24.999Z</time></trkpt><trkpt lat="44.87274167526293" lon="9.057599405504702"><ele>247.0</ele><time>2026-05-01T14:13:26.999Z</time></trkpt><trkpt lat="44.87278628772438" lon="9.057673281402515"><ele>247.0</ele><time>2026-05-01T14:13:27.999Z</time></trkpt><trkpt lat="44.87285388606711" lon="9.057733240316976"><ele>246.99999999999997</ele><time>2026-05-01T14:13:28.999Z</time></trkpt><trkpt lat="44.87291771043657" lon="9.057783358111404"><ele>247.0</ele><time>2026-05-01T14:13:29.999Z</time></trkpt><trkpt lat="44.87297456347899" lon="9.057830050091837"><ele>245.6</ele><time>2026-05-01T14:13:30.999Z</time></trkpt><trkpt lat="44.87305969377686" lon="9.057903488723866"><ele>244.2</ele><time>2026-05-01T14:13:32.999Z</time></trkpt><trkpt lat="44.873123198575755" lon="9.057974157377648"><ele>242.8</ele><time>2026-05-01T14:13:37.999Z</time></trkpt><trkpt lat="44.87321901420102" lon="9.057865678569145"><ele>241.4</ele><time>2026-05-01T14:13:38.999Z</time></trkpt><trkpt lat="44.873298010272" lon="9.05779191152443"><ele>240.0</ele><time>2026-05-01T14:13:39.999Z</time></trkpt><trkpt lat="44.873392292893065" lon="9.0577390654001"><ele>239.8</ele><time>2026-05-01T14:13:40.999Z</time></trkpt><trkpt lat="44.87347967246833" lon="9.057668108778206"><ele>239.6</ele><time>2026-05-01T14:13:41.999Z</time></trkpt><trkpt lat="44.87357140152259" lon="9.057566906246132"><ele>239.39999999999998</ele><time>2026-05-01T14:13:42.998Z</time></trkpt><trkpt lat="44.873671290090165" lon="9.057494121738426"><ele>239.2</ele><time>2026-05-01T14:13:43.998Z</time></trkpt><trkpt lat="44.8737704483524" lon="9.057416597824355"><ele>239.0</ele><time>2026-05-01T14:13:44.998Z</time></trkpt><trkpt lat="44.873872435747884" lon="9.057334414617658"><ele>239.0</ele><time>2026-05-01T14:13:45.998Z</time></trkpt><trkpt lat="44.87397603943712" lon="9.057246670145377"><ele>239.0</ele><time>2026-05-01T14:13:46.998Z</time></trkpt><trkpt lat="44.874080748491295" lon="9.057158559587423"><ele>239.0</ele><time>2026-05-01T14:13:47.998Z</time></trkpt><trkpt lat="44.87418319786021" lon="9.05706814009157"><ele>239.0</ele><time>2026-05-01T14:13:48.998Z</time></trkpt><trkpt lat="44.87428895064162" lon="9.056971924677233"><ele>237.25</ele><time>2026-05-01T14:13:49.998Z</time></trkpt><trkpt lat="44.8743873577528" lon="9.05689336192202"><ele>235.5</ele><time>2026-05-01T14:13:50.998Z</time></trkpt><trkpt lat="44.87447918769676" lon="9.056808224177528"><ele>233.75</ele><time>2026-05-01T14:13:51.998Z</time></trkpt><trkpt lat="44.8745881288344" lon="9.056720032016978"><ele>232.0</ele><time>2026-05-01T14:13:52.998Z</time></trkpt><trkpt lat="44.87467459092006" lon="9.056641999082352"><ele>233.5</ele><time>2026-05-01T14:13:53.998Z</time></trkpt><trkpt lat="44.87476456839941" lon="9.056573673292576"><ele>235.0</ele><time>2026-05-01T14:13:54.998Z</time></trkpt><trkpt lat="44.874865319915294" lon="9.056506593086286"><ele>236.5</ele><time>2026-05-01T14:13:55.998Z</time></trkpt><trkpt lat="44.87497107422839" lon="9.056416023745724"><ele>238.0</ele><time>2026-05-01T14:13:56.998Z</time></trkpt><trkpt lat="44.87506751083415" lon="9.05633232199704"><ele>237.25</ele><time>2026-05-01T14:13:57.998Z</time></trkpt><trkpt lat="44.87516977663813" lon="9.056243558761242"><ele>236.5</ele><time>2026-05-01T14:13:58.998Z</time></trkpt><trkpt lat="44.875262240658756" lon="9.056140459039916"><ele>235.75</ele><time>2026-05-01T14:13:59.998Z</time></trkpt><trkpt lat="44.87536413624487" lon="9.056063908854052"><ele>235.0</ele><time>2026-05-01T14:14:00.998Z</time></trkpt><trkpt lat="44.875466777508535" lon="9.055974120144963"><ele>235.0</ele><time>2026-05-01T14:14:01.998Z</time></trkpt><trkpt lat="44.87556010948262" lon="9.055897917888066"><ele>235.0</ele><time>2026-05-01T14:14:02.998Z</time></trkpt><trkpt lat="44.87566130012406" lon="9.055845432728994"><ele>235.0</ele><time>2026-05-01T14:14:03.998Z</time></trkpt><trkpt lat="44.875737474705424" lon="9.0557627808607"><ele>235.0</ele><time>2026-05-01T14:14:04.998Z</time></trkpt><trkpt lat="44.875839051512" lon="9.055686141497377"><ele>235.0</ele><time>2026-05-01T14:14:05.998Z</time></trkpt><trkpt lat="44.875935197969575" lon="9.05563639740382"><ele>234.49999999999997</ele><time>2026-05-01T14:14:06.998Z</time></trkpt><trkpt lat="44.87602452374101" lon="9.055569111893226"><ele>234.0</ele><time>2026-05-01T14:14:07.998Z</time></trkpt><trkpt lat="44.87609700496483" lon="9.055483978253694"><ele>233.5</ele><time>2026-05-01T14:14:08.998Z</time></trkpt><trkpt lat="44.87616992487756" lon="9.055421437344755"><ele>233.0</ele><time>2026-05-01T14:14:09.998Z</time></trkpt><trkpt lat="44.87624703553525" lon="9.055378369739675"><ele>232.49999999999997</ele><time>2026-05-01T14:14:10.998Z</time></trkpt><trkpt lat="44.87631230456782" lon="9.055336438149432"><ele>232.0</ele><time>2026-05-01T14:14:11.998Z</time></trkpt><trkpt lat="44.876454549655094" lon="9.055354793265476"><ele>232.0</ele><time>2026-05-01T14:14:13.998Z</time></trkpt><trkpt lat="44.8765502913284" lon="9.055415876911937"><ele>232.0</ele><time>2026-05-01T14:14:14.998Z</time></trkpt><trkpt lat="44.87665387163767" lon="9.055466083281258"><ele>232.0</ele><time>2026-05-01T14:14:15.998Z</time></trkpt><trkpt lat="44.876738766241694" lon="9.055534431780183"><ele>232.0</ele><time>2026-05-01T14:14:16.998Z</time></trkpt><trkpt lat="44.87683621911544" lon="9.055590483879143"><ele>232.0</ele><time>2026-05-01T14:14:17.998Z</time></trkpt><trkpt lat="44.876939759123715" lon="9.055643428338724"><ele>231.6</ele><time>2026-05-01T14:14:18.998Z</time></trkpt><trkpt lat="44.8770427821281" lon="9.055692633555363"><ele>231.2</ele><time>2026-05-01T14:14:19.997Z</time></trkpt><trkpt lat="44.87714056212677" lon="9.055746522927182"><ele>230.8</ele><time>2026-05-01T14:14:20.997Z</time></trkpt><trkpt lat="44.877246038478766" lon="9.055802256815781"><ele>230.4</ele><time>2026-05-01T14:14:21.997Z</time></trkpt><trkpt lat="44.877340492787894" lon="9.055843261648276"><ele>230.0</ele><time>2026-05-01T14:14:22.997Z</time></trkpt><trkpt lat="44.87743130706619" lon="9.05587604781973"><ele>229.2</ele><time>2026-05-01T14:14:23.997Z</time></trkpt><trkpt lat="44.87752718258628" lon="9.055919846922645"><ele>228.4</ele><time>2026-05-01T14:14:24.997Z</time></trkpt><trkpt lat="44.87763028135661" lon="9.055937742532251"><ele>227.60000000000002</ele><time>2026-05-01T14:14:25.997Z</time></trkpt><trkpt lat="44.87771933737944" lon="9.055928279498406"><ele>226.8</ele><time>2026-05-01T14:14:26.997Z</time></trkpt><trkpt lat="44.87782973512833" lon="9.055916698645488"><ele>226.0</ele><time>2026-05-01T14:14:27.997Z</time></trkpt><trkpt lat="44.87793743371881" lon="9.05588684660993"><ele>225.5</ele><time>2026-05-01T14:14:28.997Z</time></trkpt><trkpt lat="44.878023020097025" lon="9.055823218221358"><ele>225.0</ele><time>2026-05-01T14:14:29.997Z</time></trkpt><trkpt lat="44.87814382972448" lon="9.055735735277942"><ele>224.5</ele><time>2026-05-01T14:14:30.997Z</time></trkpt><trkpt lat="44.87827387251111" lon="9.055666217594602"><ele>224.0</ele><time>2026-05-01T14:14:31.997Z</time></trkpt><trkpt lat="44.87841701192715" lon="9.055588139050847"><ele>223.39999999999998</ele><time>2026-05-01T14:14:33.997Z</time></trkpt><trkpt lat="44.87851884064215" lon="9.055536785921623"><ele>222.79999999999998</ele><time>2026-05-01T14:14:34.997Z</time></trkpt><trkpt lat="44.8786113003136" lon="9.055493652692544"><ele>222.20000000000002</ele><time>2026-05-01T14:14:35.997Z</time></trkpt><trkpt lat="44.87870149018619" lon="9.055445307339458"><ele>221.60000000000002</ele><time>2026-05-01T14:14:36.997Z</time></trkpt><trkpt lat="44.878779859881675" lon="9.055382224150636"><ele>221.0</ele><time>2026-05-01T14:14:37.997Z</time></trkpt><trkpt lat="44.87885701099362" lon="9.055370266542274"><ele>221.0</ele><time>2026-05-01T14:14:38.997Z</time></trkpt><trkpt lat="44.87898426317348" lon="9.055432893415094"><ele>221.00000000000003</ele><time>2026-05-01T14:14:40.997Z</time></trkpt><trkpt lat="44.87901610336852" lon="9.05557060780349"><ele>221.00000000000003</ele><time>2026-05-01T14:14:41.997Z</time></trkpt><trkpt lat="44.87907119689247" lon="9.055690016934326"><ele>221.0</ele><time>2026-05-01T14:14:42.997Z</time></trkpt><trkpt lat="44.8791348033403" lon="9.055794721641858"><ele>221.0</ele><time>2026-05-01T14:14:43.997Z</time></trkpt><trkpt lat="44.8791881934235" lon="9.055912209461795"><ele>221.16666666666669</ele><time>2026-05-01T14:14:44.997Z</time></trkpt><trkpt lat="44.87923961185038" lon="9.056014374083144"><ele>221.33333333333334</ele><time>2026-05-01T14:14:45.997Z</time></trkpt><trkpt lat="44.879300799342175" lon="9.056077550236765"><ele>221.5</ele><time>2026-05-01T14:14:46.997Z</time></trkpt><trkpt lat="44.879380343549904" lon="9.056089836885203"><ele>221.66666666666669</ele><time>2026-05-01T14:14:47.997Z</time></trkpt><trkpt lat="44.87947618539322" lon="9.056055107891325"><ele>221.83333333333334</ele><time>2026-05-01T14:14:48.997Z</time></trkpt><trkpt lat="44.87956520077999" lon="9.055978842831692"><ele>222.0</ele><time>2026-05-01T14:14:49.997Z</time></trkpt><trkpt lat="44.87965627830274" lon="9.055882736286868"><ele>222.0</ele><time>2026-05-01T14:14:50.997Z</time></trkpt><trkpt lat="44.87975587986459" lon="9.055787643672048"><ele>222.0</ele><time>2026-05-01T14:14:51.997Z</time></trkpt><trkpt lat="44.879852155475554" lon="9.055698141225122"><ele>222.0</ele><time>2026-05-01T14:14:52.997Z</time></trkpt><trkpt lat="44.879958364011216" lon="9.055600732115334"><ele>222.0</ele><time>2026-05-01T14:14:53.997Z</time></trkpt><trkpt lat="44.88005818014947" lon="9.05551011703782"><ele>222.2</ele><time>2026-05-01T14:14:54.996Z</time></trkpt><trkpt lat="44.88016363860734" lon="9.055419243092551"><ele>222.39999999999998</ele><time>2026-05-01T14:14:55.996Z</time></trkpt><trkpt lat="44.88026212035507" lon="9.055322399351546"><ele>222.60000000000002</ele><time>2026-05-01T14:14:56.996Z</time></trkpt><trkpt lat="44.880350160575766" lon="9.055237539209006"><ele>222.8</ele><time>2026-05-01T14:14:57.996Z</time></trkpt><trkpt lat="44.880433518612456" lon="9.055163318010097"><ele>223.0</ele><time>2026-05-01T14:14:58.996Z</time></trkpt><trkpt lat="44.88052286495593" lon="9.055075912023884"><ele>223.0</ele><time>2026-05-01T14:14:59.996Z</time></trkpt><trkpt lat="44.88060753436957" lon="9.0549864504744"><ele>223.0</ele><time>2026-05-01T14:15:00.996Z</time></trkpt><trkpt lat="44.880680041863904" lon="9.054919046832559"><ele>223.0</ele><time>2026-05-01T14:15:01.996Z</time></trkpt><trkpt lat="44.88075048478476" lon="9.054878698574612"><ele>223.0</ele><time>2026-05-01T14:15:02.996Z</time></trkpt><trkpt lat="44.880878452445764" lon="9.054997077589281"><ele>223.0</ele><time>2026-05-01T14:15:04.996Z</time></trkpt><trkpt lat="44.880960335843284" lon="9.055081197245647"><ele>222.60000000000002</ele><time>2026-05-01T14:15:05.996Z</time></trkpt><trkpt lat="44.88101689773895" lon="9.055177319532694"><ele>222.20000000000002</ele><time>2026-05-01T14:15:06.999Z</time></trkpt><trkpt lat="44.8811049350761" lon="9.055246401391226"><ele>221.8</ele><time>2026-05-01T14:15:07.999Z</time></trkpt><trkpt lat="44.88119915585177" lon="9.055268888915776"><ele>221.4</ele><time>2026-05-01T14:15:08.999Z</time></trkpt><trkpt lat="44.88129827512357" lon="9.055283195110404"><ele>221.0</ele><time>2026-05-01T14:15:09.999Z</time></trkpt><trkpt lat="44.881388578074464" lon="9.055298161937937"><ele>221.00000000000003</ele><time>2026-05-01T14:15:10.999Z</time></trkpt><trkpt lat="44.88147045504018" lon="9.055330092012094"><ele>221.0</ele><time>2026-05-01T14:15:11.999Z</time></trkpt><trkpt lat="44.881550696049466" lon="9.05536066403772"><ele>221.0</ele><time>2026-05-01T14:15:12.999Z</time></trkpt><trkpt lat="44.88163127381204" lon="9.055390466677522"><ele>221.0</ele><time>2026-05-01T14:15:13.999Z</time></trkpt><trkpt lat="44.88169742071906" lon="9.055401480173934"><ele>221.00000000000003</ele><time>2026-05-01T14:15:14.999Z</time></trkpt><trkpt lat="44.88176484211694" lon="9.05539463182833"><ele>221.0</ele><time>2026-05-01T14:15:15.999Z</time></trkpt><trkpt lat="44.88182867278648" lon="9.05535172126971"><ele>220.8</ele><time>2026-05-01T14:15:16.999Z</time></trkpt><trkpt lat="44.8819247151424" lon="9.055228193903057"><ele>220.60000000000002</ele><time>2026-05-01T14:15:18.999Z</time></trkpt><trkpt lat="44.8819588547092" lon="9.055129461911863"><ele>220.4</ele><time>2026-05-01T14:15:19.999Z</time></trkpt><trkpt lat="44.881995713318794" lon="9.055003998264008"><ele>220.2</ele><time>2026-05-01T14:15:20.999Z</time></trkpt><trkpt lat="44.882033888355586" lon="9.054889699535888"><ele>220.0</ele><time>2026-05-01T14:15:21.999Z</time></trkpt><trkpt lat="44.88207928430727" lon="9.054794226863919"><ele>219.99999999999997</ele><time>2026-05-01T14:15:22.999Z</time></trkpt><trkpt lat="44.88212334627983" lon="9.054691999151254"><ele>220.0</ele><time>2026-05-01T14:15:23.999Z</time></trkpt><trkpt lat="44.88220249674685" lon="9.05464250075159"><ele>220.0</ele><time>2026-05-01T14:15:24.999Z</time></trkpt><trkpt lat="44.882288126866435" lon="9.054606385786142"><ele>220.0</ele><time>2026-05-01T14:15:25.999Z</time></trkpt><trkpt lat="44.88237906899452" lon="9.054606912253671"><ele>219.99999999999997</ele><time>2026-05-01T14:15:26.999Z</time></trkpt><trkpt lat="44.88247201829269" lon="9.054582090331042"><ele>220.0</ele><time>2026-05-01T14:15:27.999Z</time></trkpt><trkpt lat="44.8825675346381" lon="9.054575762202054"><ele>218.8</ele><time>2026-05-01T14:15:28.999Z</time></trkpt><trkpt lat="44.88266261414463" lon="9.05456297016014"><ele>217.6</ele><time>2026-05-01T14:15:29.999Z</time></trkpt><trkpt lat="44.88276618805896" lon="9.054548975238166"><ele>216.39999999999998</ele><time>2026-05-01T14:15:30.999Z</time></trkpt><trkpt lat="44.88286548052716" lon="9.054541156551268"><ele>215.2</ele><time>2026-05-01T14:15:31.999Z</time></trkpt><trkpt lat="44.88295522685939" lon="9.054527287482578"><ele>214.0</ele><time>2026-05-01T14:15:32.999Z</time></trkpt><trkpt lat="44.88303809754027" lon="9.054490091764523"><ele>214.0</ele><time>2026-05-01T14:15:33.999Z</time></trkpt><trkpt lat="44.88312840956009" lon="9.054439304470003"><ele>213.99999999999997</ele><time>2026-05-01T14:15:34.999Z</time></trkpt><trkpt lat="44.883213023180645" lon="9.054383647737275"><ele>213.99999999999997</ele><time>2026-05-01T14:15:35.999Z</time></trkpt><trkpt lat="44.883289689515436" lon="9.054317073418767"><ele>214.0</ele><time>2026-05-01T14:15:36.999Z</time></trkpt><trkpt lat="44.88336172872036" lon="9.05424927659615"><ele>214.0</ele><time>2026-05-01T14:15:37.999Z</time></trkpt><trkpt lat="44.883442230271534" lon="9.054163401866223"><ele>216.0</ele><time>2026-05-01T14:15:38.999Z</time></trkpt><trkpt lat="44.88354308244065" lon="9.054073608202009"><ele>218.0</ele><time>2026-05-01T14:15:39.999Z</time></trkpt><trkpt lat="44.88363991367036" lon="9.053963942379442"><ele>220.0</ele><time>2026-05-01T14:15:40.999Z</time></trkpt><trkpt lat="44.88373882638267" lon="9.053851706691146"><ele>222.0</ele><time>2026-05-01T14:15:41.999Z</time></trkpt><trkpt lat="44.88383645515571" lon="9.053739156791362"><ele>222.0</ele><time>2026-05-01T14:15:42.999Z</time></trkpt><trkpt lat="44.88393846063326" lon="9.05360945947629"><ele>222.0</ele><time>2026-05-01T14:15:43.999Z</time></trkpt><trkpt lat="44.884041459989675" lon="9.053484156076777"><ele>222.0</ele><time>2026-05-01T14:15:44.999Z</time></trkpt><trkpt lat="44.88414903355871" lon="9.05338001936454"><ele>222.0</ele><time>2026-05-01T14:15:45.999Z</time></trkpt><trkpt lat="44.88426710174892" lon="9.053268405240992"><ele>221.5</ele><time>2026-05-01T14:15:46.999Z</time></trkpt><trkpt lat="44.884373785675855" lon="9.053138063839848"><ele>221.0</ele><time>2026-05-01T14:15:47.999Z</time></trkpt><trkpt lat="44.88447574655398" lon="9.053031553395835"><ele>220.5</ele><time>2026-05-01T14:15:48.999Z</time></trkpt><trkpt lat="44.884578665673104" lon="9.052923830665906"><ele>220.0</ele><time>2026-05-01T14:15:49.999Z</time></trkpt><trkpt lat="44.88468002224791" lon="9.05281316296063"><ele>220.0</ele><time>2026-05-01T14:15:50.999Z</time></trkpt><trkpt lat="44.88478833021023" lon="9.052699921065795"><ele>220.0</ele><time>2026-05-01T14:15:51.999Z</time></trkpt><trkpt lat="44.88489425816879" lon="9.052621684371163"><ele>220.0</ele><time>2026-05-01T14:15:52.998Z</time></trkpt><trkpt lat="44.88500187228843" lon="9.052564522826223"><ele>220.0</ele><time>2026-05-01T14:15:53.998Z</time></trkpt><trkpt lat="44.88510923592989" lon="9.052528688605205"><ele>221.25</ele><time>2026-05-01T14:15:54.998Z</time></trkpt><trkpt lat="44.885224649397" lon="9.052499495847126"><ele>222.5</ele><time>2026-05-01T14:15:55.998Z</time></trkpt><trkpt lat="44.88534403797262" lon="9.05247811131597"><ele>223.75</ele><time>2026-05-01T14:15:56.998Z</time></trkpt><trkpt lat="44.88546527737886" lon="9.052458494896388"><ele>225.0</ele><time>2026-05-01T14:15:57.998Z</time></trkpt><trkpt lat="44.88559130403123" lon="9.052426668971469"><ele>225.0</ele><time>2026-05-01T14:15:58.998Z</time></trkpt><trkpt lat="44.885716021159574" lon="9.052382804504246"><ele>225.0</ele><time>2026-05-01T14:15:59.998Z</time></trkpt><trkpt lat="44.885840229539305" lon="9.052338255550787"><ele>225.0</ele><time>2026-05-01T14:16:00.998Z</time></trkpt><trkpt lat="44.885963226143836" lon="9.052277075397168"><ele>225.0</ele><time>2026-05-01T14:16:01.998Z</time></trkpt><trkpt lat="44.88608838994478" lon="9.052232838379421"><ele>223.25</ele><time>2026-05-01T14:16:02.998Z</time></trkpt><trkpt lat="44.886215292861905" lon="9.052201676313986"><ele>221.5</ele><time>2026-05-01T14:16:03.998Z</time></trkpt><trkpt lat="44.88633590506801" lon="9.052174863449272"><ele>219.75</ele><time>2026-05-01T14:16:04.998Z</time></trkpt><trkpt lat="44.886456135783504" lon="9.052162794023094"><ele>218.0</ele><time>2026-05-01T14:16:05.998Z</time></trkpt><trkpt lat="44.88657117198182" lon="9.052163905118485"><ele>218.0</ele><time>2026-05-01T14:16:06.998Z</time></trkpt><trkpt lat="44.88668314145497" lon="9.052195406537997"><ele>218.0</ele><time>2026-05-01T14:16:07.998Z</time></trkpt><trkpt lat="44.88680928741017" lon="9.052223762953234"><ele>218.0</ele><time>2026-05-01T14:16:08.998Z</time></trkpt><trkpt lat="44.88691880158587" lon="9.052281766759132"><ele>218.0</ele><time>2026-05-01T14:16:09.998Z</time></trkpt><trkpt lat="44.88702718579944" lon="9.052344820182165"><ele>216.4</ele><time>2026-05-01T14:16:10.998Z</time></trkpt><trkpt lat="44.887132074698904" lon="9.05239951322445"><ele>214.8</ele><time>2026-05-01T14:16:11.998Z</time></trkpt><trkpt lat="44.88724114997267" lon="9.052457987394884"><ele>213.2</ele><time>2026-05-01T14:16:12.998Z</time></trkpt><trkpt lat="44.88734454240691" lon="9.052520251735338"><ele>211.6</ele><time>2026-05-01T14:16:13.998Z</time></trkpt><trkpt lat="44.88743397626686" lon="9.052583948667406"><ele>210.0</ele><time>2026-05-01T14:16:14.998Z</time></trkpt><trkpt lat="44.887518546947554" lon="9.052639602755821"><ele>209.4</ele><time>2026-05-01T14:16:15.998Z</time></trkpt><trkpt lat="44.88760119668213" lon="9.052679581297825"><ele>208.8</ele><time>2026-05-01T14:16:16.998Z</time></trkpt><trkpt lat="44.88770035613598" lon="9.052695965819922"><ele>208.2</ele><time>2026-05-01T14:16:17.998Z</time></trkpt><trkpt lat="44.887806807224166" lon="9.052664466590777"><ele>207.6</ele><time>2026-05-01T14:16:18.998Z</time></trkpt><trkpt lat="44.8879135370608" lon="9.052604633303165"><ele>207.0</ele><time>2026-05-01T14:16:19.998Z</time></trkpt><trkpt lat="44.88801842003028" lon="9.052554648064923"><ele>207.0</ele><time>2026-05-01T14:16:20.998Z</time></trkpt><trkpt lat="44.88812417823113" lon="9.052535060613977"><ele>207.0</ele><time>2026-05-01T14:16:21.998Z</time></trkpt><trkpt lat="44.8882326057111" lon="9.05254346184872"><ele>207.0</ele><time>2026-05-01T14:16:22.998Z</time></trkpt><trkpt lat="44.888338009254184" lon="9.052581355130803"><ele>207.0</ele><time>2026-05-01T14:16:23.998Z</time></trkpt><trkpt lat="44.88844076693768" lon="9.052631329357482"><ele>207.0</ele><time>2026-05-01T14:16:24.998Z</time></trkpt><trkpt lat="44.88853597410136" lon="9.052698611228031"><ele>207.2</ele><time>2026-05-01T14:16:25.998Z</time></trkpt><trkpt lat="44.88863372776023" lon="9.052782016538837"><ele>207.39999999999998</ele><time>2026-05-01T14:16:26.998Z</time></trkpt><trkpt lat="44.88872397383362" lon="9.052875295590848"><ele>207.60000000000002</ele><time>2026-05-01T14:16:27.998Z</time></trkpt><trkpt lat="44.88881015151486" lon="9.05296913522513"><ele>207.8</ele><time>2026-05-01T14:16:28.998Z</time></trkpt><trkpt lat="44.88890289381497" lon="9.05306192985361"><ele>208.0</ele><time>2026-05-01T14:16:29.997Z</time></trkpt><trkpt lat="44.88898897465454" lon="9.053138652782756"><ele>208.0</ele><time>2026-05-01T14:16:30.997Z</time></trkpt><trkpt lat="44.88908923299075" lon="9.053188033878962"><ele>208.0</ele><time>2026-05-01T14:16:31.997Z</time></trkpt><trkpt lat="44.88919657667605" lon="9.053205096004886"><ele>208.0</ele><time>2026-05-01T14:16:32.997Z</time></trkpt><trkpt lat="44.8893049837808" lon="9.053192984499574"><ele>208.0</ele><time>2026-05-01T14:16:33.997Z</time></trkpt><trkpt lat="44.88941597124749" lon="9.053150740967874"><ele>208.0</ele><time>2026-05-01T14:16:34.997Z</time></trkpt><trkpt lat="44.88952596102173" lon="9.053100775833075"><ele>207.5</ele><time>2026-05-01T14:16:35.997Z</time></trkpt><trkpt lat="44.88964246531677" lon="9.053045320777429"><ele>207.0</ele><time>2026-05-01T14:16:36.997Z</time></trkpt><trkpt lat="44.889764303235765" lon="9.052988483465512"><ele>206.5</ele><time>2026-05-01T14:16:37.997Z</time></trkpt><trkpt lat="44.88989260783347" lon="9.052934043543512"><ele>206.0</ele><time>2026-05-01T14:16:38.997Z</time></trkpt><trkpt lat="44.89001546722581" lon="9.052884890420836"><ele>205.75</ele><time>2026-05-01T14:16:39.997Z</time></trkpt><trkpt lat="44.890144356748436" lon="9.05283047261467"><ele>205.5</ele><time>2026-05-01T14:16:40.997Z</time></trkpt><trkpt lat="44.89027168411601" lon="9.052780377594454"><ele>205.25</ele><time>2026-05-01T14:16:41.997Z</time></trkpt><trkpt lat="44.8904046578321" lon="9.052727680005988"><ele>205.0</ele><time>2026-05-01T14:16:42.997Z</time></trkpt><trkpt lat="44.89054260183259" lon="9.052669027170555"><ele>205.0</ele><time>2026-05-01T14:16:43.997Z</time></trkpt><trkpt lat="44.89065863770336" lon="9.052617951725198"><ele>205.0</ele><time>2026-05-01T14:16:44.997Z</time></trkpt><trkpt lat="44.89079382581096" lon="9.052559946707634"><ele>205.0</ele><time>2026-05-01T14:16:45.997Z</time></trkpt><trkpt lat="44.89091747316586" lon="9.052514576611307"><ele>205.0</ele><time>2026-05-01T14:16:46.997Z</time></trkpt><trkpt lat="44.89104692356641" lon="9.052462617335651"><ele>205.75</ele><time>2026-05-01T14:16:47.997Z</time></trkpt><trkpt lat="44.89117087748982" lon="9.052416288147988"><ele>206.5</ele><time>2026-05-01T14:16:48.997Z</time></trkpt><trkpt lat="44.89129407319295" lon="9.052370567756988"><ele>207.25</ele><time>2026-05-01T14:16:49.997Z</time></trkpt><trkpt lat="44.89141741270453" lon="9.052321325639388"><ele>208.0</ele><time>2026-05-01T14:16:50.997Z</time></trkpt><trkpt lat="44.89154485027903" lon="9.052267266145144"><ele>208.0</ele><time>2026-05-01T14:16:51.997Z</time></trkpt><trkpt lat="44.89166996159236" lon="9.052217078292829"><ele>208.0</ele><time>2026-05-01T14:16:52.997Z</time></trkpt><trkpt lat="44.89179887714749" lon="9.052162323094215"><ele>208.0</ele><time>2026-05-01T14:16:53.997Z</time></trkpt><trkpt lat="44.891925226954726" lon="9.05210886478632"><ele>208.0</ele><time>2026-05-01T14:16:54.997Z</time></trkpt><trkpt lat="44.892058462850564" lon="9.05204400068961"><ele>207.25</ele><time>2026-05-01T14:16:55.997Z</time></trkpt><trkpt lat="44.89218499715997" lon="9.051976855392128"><ele>206.5</ele><time>2026-05-01T14:16:56.997Z</time></trkpt><trkpt lat="44.89231175931884" lon="9.051915810129096"><ele>205.75</ele><time>2026-05-01T14:16:57.997Z</time></trkpt><trkpt lat="44.89242783739389" lon="9.051839050623594"><ele>205.0</ele><time>2026-05-01T14:16:58.997Z</time></trkpt><trkpt lat="44.89253133052298" lon="9.051776349910238"><ele>204.8</ele><time>2026-05-01T14:16:59.997Z</time></trkpt><trkpt lat="44.892630955330596" lon="9.051705036893665"><ele>204.6</ele><time>2026-05-01T14:17:00.997Z</time></trkpt><trkpt lat="44.89271672578127" lon="9.05164271239402"><ele>204.39999999999998</ele><time>2026-05-01T14:17:01.997Z</time></trkpt><trkpt lat="44.892802422868776" lon="9.05156018309664"><ele>204.2</ele><time>2026-05-01T14:17:02.997Z</time></trkpt><trkpt lat="44.89287703326472" lon="9.051496419646513"><ele>204.0</ele><time>2026-05-01T14:17:03.997Z</time></trkpt><trkpt lat="44.89298534181177" lon="9.051409294471755"><ele>205.16666666666666</ele><time>2026-05-01T14:17:05.996Z</time></trkpt><trkpt lat="44.893049173500295" lon="9.051371410356737"><ele>206.33333333333331</ele><time>2026-05-01T14:17:07.996Z</time></trkpt><trkpt lat="44.89310872359707" lon="9.051342540583493"><ele>207.5</ele><time>2026-05-01T14:17:09.996Z</time></trkpt><trkpt lat="44.89309647476209" lon="9.051174036590213"><ele>208.66666666666666</ele><time>2026-05-01T14:17:10.996Z</time></trkpt><trkpt lat="44.89310629788781" lon="9.05105596301737"><ele>209.83333333333331</ele><time>2026-05-01T14:17:11.999Z</time></trkpt><trkpt lat="44.893122750946574" lon="9.050937175746297"><ele>211.0</ele><time>2026-05-01T14:17:12.999Z</time></trkpt><trkpt lat="44.89315226914101" lon="9.050820552074912"><ele>212.20000000000002</ele><time>2026-05-01T14:17:13.999Z</time></trkpt><trkpt lat="44.89321151420243" lon="9.050707396825771"><ele>213.4</ele><time>2026-05-01T14:17:14.999Z</time></trkpt><trkpt lat="44.893298646125125" lon="9.050633482466456"><ele>214.6</ele><time>2026-05-01T14:17:15.999Z</time></trkpt><trkpt lat="44.8934041013083" lon="9.050613507788828"><ele>215.8</ele><time>2026-05-01T14:17:16.999Z</time></trkpt><trkpt lat="44.893512173932415" lon="9.05056668031224"><ele>217.0</ele><time>2026-05-01T14:17:17.999Z</time></trkpt><trkpt lat="44.89362485464534" lon="9.050538662544163"><ele>217.0</ele><time>2026-05-01T14:17:18.999Z</time></trkpt><trkpt lat="44.8937404339928" lon="9.050499644686266"><ele>217.0</ele><time>2026-05-01T14:17:19.999Z</time></trkpt><trkpt lat="44.893858264475476" lon="9.050459035841657"><ele>217.0</ele><time>2026-05-01T14:17:20.999Z</time></trkpt><trkpt lat="44.89398132627874" lon="9.050423979629889"><ele>217.0</ele><time>2026-05-01T14:17:21.999Z</time></trkpt><trkpt lat="44.894108522026" lon="9.05039959426262"><ele>217.0</ele><time>2026-05-01T14:17:22.999Z</time></trkpt><trkpt lat="44.89423406132572" lon="9.050388273844831"><ele>217.0</ele><time>2026-05-01T14:17:23.999Z</time></trkpt><trkpt lat="44.89434982957049" lon="9.050350964129397"><ele>217.0</ele><time>2026-05-01T14:17:24.999Z</time></trkpt><trkpt lat="44.89447485015058" lon="9.050312249054228"><ele>217.0</ele><time>2026-05-01T14:17:25.999Z</time></trkpt><trkpt lat="44.89461562041306" lon="9.050335703518668"><ele>215.5</ele><time>2026-05-01T14:17:26.999Z</time></trkpt><trkpt lat="44.89474880824263" lon="9.050285382215167"><ele>214.0</ele><time>2026-05-01T14:17:27.999Z</time></trkpt><trkpt lat="44.894880510614705" lon="9.050229078540335"><ele>212.5</ele><time>2026-05-01T14:17:28.999Z</time></trkpt><trkpt lat="44.8950179021148" lon="9.050180005092994"><ele>211.0</ele><time>2026-05-01T14:17:29.999Z</time></trkpt><trkpt lat="44.89515762125515" lon="9.050143332068739"><ele>209.66666666666666</ele><time>2026-05-01T14:17:30.999Z</time></trkpt><trkpt lat="44.89531056398552" lon="9.050115448430201"><ele>208.33333333333331</ele><time>2026-05-01T14:17:31.999Z</time></trkpt><trkpt lat="44.89546029134321" lon="9.050089821778972"><ele>207.0</ele><time>2026-05-01T14:17:32.999Z</time></trkpt><trkpt lat="44.89561761183278" lon="9.050059290824167"><ele>207.0</ele><time>2026-05-01T14:17:33.999Z</time></trkpt><trkpt lat="44.895766012111736" lon="9.050030063688295"><ele>207.0</ele><time>2026-05-01T14:17:34.999Z</time></trkpt><trkpt lat="44.895922807092404" lon="9.050009095255861"><ele>207.0</ele><time>2026-05-01T14:17:35.999Z</time></trkpt><trkpt lat="44.89606981401703" lon="9.049981272948882"><ele>209.0</ele><time>2026-05-01T14:17:36.999Z</time></trkpt><trkpt lat="44.89622291899061" lon="9.049949495281233"><ele>211.0</ele><time>2026-05-01T14:17:37.999Z</time></trkpt><trkpt lat="44.896368548882144" lon="9.049920768102885"><ele>213.0</ele><time>2026-05-01T14:17:38.999Z</time></trkpt><trkpt lat="44.89651195423117" lon="9.049897141049742"><ele>215.0</ele><time>2026-05-01T14:17:39.999Z</time></trkpt><trkpt lat="44.89665545948889" lon="9.049876272681788"><ele>214.0</ele><time>2026-05-01T14:17:40.999Z</time></trkpt><trkpt lat="44.89680478927936" lon="9.049851896948356"><ele>213.0</ele><time>2026-05-01T14:17:41.999Z</time></trkpt><trkpt lat="44.896949384925776" lon="9.049826407291885"><ele>212.0</ele><time>2026-05-01T14:17:42.999Z</time></trkpt><trkpt lat="44.8971006625874" lon="9.049796470304159"><ele>211.0</ele><time>2026-05-01T14:17:43.999Z</time></trkpt><trkpt lat="44.89724898092032" lon="9.04976248283856"><ele>211.0</ele><time>2026-05-01T14:17:44.999Z</time></trkpt><trkpt lat="44.897386993928635" lon="9.049737188425537"><ele>211.0</ele><time>2026-05-01T14:17:45.999Z</time></trkpt><trkpt lat="44.89751963410075" lon="9.04970734642712"><ele>211.0</ele><time>2026-05-01T14:17:46.999Z</time></trkpt><trkpt lat="44.897655724612655" lon="9.049686038197054"><ele>211.0</ele><time>2026-05-01T14:17:47.999Z</time></trkpt><trkpt lat="44.89778514854531" lon="9.049668513358144"><ele>209.75</ele><time>2026-05-01T14:17:48.999Z</time></trkpt><trkpt lat="44.89792135519592" lon="9.049674733889665"><ele>208.5</ele><time>2026-05-01T14:17:49.999Z</time></trkpt><trkpt lat="44.898040443642294" lon="9.04971175546839"><ele>207.25</ele><time>2026-05-01T14:17:50.999Z</time></trkpt><trkpt lat="44.89814810165875" lon="9.049770499597166"><ele>206.0</ele><time>2026-05-01T14:17:51.999Z</time></trkpt><trkpt lat="44.898251656581934" lon="9.049846445765974"><ele>206.0</ele><time>2026-05-01T14:17:52.999Z</time></trkpt><trkpt lat="44.8983453978606" lon="9.049942395112218"><ele>206.0</ele><time>2026-05-01T14:17:53.999Z</time></trkpt><trkpt lat="44.898435260953924" lon="9.050052466686884"><ele>206.0</ele><time>2026-05-01T14:17:54.999Z</time></trkpt><trkpt lat="44.89851956956351" lon="9.050177255965265"><ele>206.0</ele><time>2026-05-01T14:17:55.999Z</time></trkpt><trkpt lat="44.89858823720524" lon="9.050312643398739"><ele>201.0</ele><time>2026-05-01T14:17:56.999Z</time></trkpt><trkpt lat="44.8986439532899" lon="9.050469761788099"><ele>196.0</ele><time>2026-05-01T14:17:57.999Z</time></trkpt><trkpt lat="44.89868853951226" lon="9.050625792720021"><ele>191.0</ele><time>2026-05-01T14:17:58.999Z</time></trkpt><trkpt lat="44.89873057659287" lon="9.050783892347411"><ele>186.0</ele><time>2026-05-01T14:17:59.999Z</time></trkpt><trkpt lat="44.89877218955017" lon="9.050950040630386"><ele>185.25</ele><time>2026-05-01T14:18:00.999Z</time></trkpt><trkpt lat="44.898818286396995" lon="9.051107674761859"><ele>184.5</ele><time>2026-05-01T14:18:01.999Z</time></trkpt><trkpt lat="44.89886500746588" lon="9.051263035899957"><ele>183.75</ele><time>2026-05-01T14:18:02.999Z</time></trkpt><trkpt lat="44.89891116598897" lon="9.05142754188311"><ele>183.0</ele><time>2026-05-01T14:18:03.998Z</time></trkpt><trkpt lat="44.89895130865168" lon="9.051575372166928"><ele>183.25</ele><time>2026-05-01T14:18:04.998Z</time></trkpt><trkpt lat="44.898992774546" lon="9.051725299820541"><ele>183.5</ele><time>2026-05-01T14:18:05.998Z</time></trkpt><trkpt lat="44.89903708339625" lon="9.051880383763084"><ele>183.75</ele><time>2026-05-01T14:18:06.998Z</time></trkpt><trkpt lat="44.89907974703396" lon="9.052031758593314"><ele>184.0</ele><time>2026-05-01T14:18:07.998Z</time></trkpt><trkpt lat="44.89912011537045" lon="9.052181021254745"><ele>184.0</ele><time>2026-05-01T14:18:08.998Z</time></trkpt><trkpt lat="44.89916206077824" lon="9.052337954925205"><ele>184.0</ele><time>2026-05-01T14:18:09.998Z</time></trkpt><trkpt lat="44.899196281869756" lon="9.052460626921361"><ele>184.0</ele><time>2026-05-01T14:18:10.998Z</time></trkpt><trkpt lat="44.89922917000653" lon="9.052577388070771"><ele>184.0</ele><time>2026-05-01T14:18:11.998Z</time></trkpt><trkpt lat="44.89926013016289" lon="9.05267433813576"><ele>184.0</ele><time>2026-05-01T14:18:12.998Z</time></trkpt><trkpt lat="44.899283853633605" lon="9.052764002182528"><ele>184.0</ele><time>2026-05-01T14:18:13.998Z</time></trkpt><trkpt lat="44.89930637777894" lon="9.052854347054817"><ele>184.6</ele><time>2026-05-01T14:18:14.998Z</time></trkpt><trkpt lat="44.89932922761956" lon="9.05297762835949"><ele>185.2</ele><time>2026-05-01T14:18:16.998Z</time></trkpt><trkpt lat="44.89935044394236" lon="9.053126122452786"><ele>185.79999999999998</ele><time>2026-05-01T14:18:18.998Z</time></trkpt><trkpt lat="44.89934412327742" lon="9.053216467080047"><ele>186.39999999999998</ele><time>2026-05-01T14:18:19.998Z</time></trkpt><trkpt lat="44.89944547767128" lon="9.053299926852738"><ele>187.0</ele><time>2026-05-01T14:18:20.998Z</time></trkpt><trkpt lat="44.89951761775643" lon="9.053302851075053"><ele>187.0</ele><time>2026-05-01T14:18:21.998Z</time></trkpt><trkpt lat="44.89960920161595" lon="9.053261074149312"><ele>187.0</ele><time>2026-05-01T14:18:22.998Z</time></trkpt><trkpt lat="44.899696483976136" lon="9.053198089808381"><ele>187.0</ele><time>2026-05-01T14:18:23.998Z</time></trkpt><trkpt lat="44.8997904930273" lon="9.053131085556636"><ele>187.0</ele><time>2026-05-01T14:18:24.998Z</time></trkpt><trkpt lat="44.89989527959281" lon="9.053075513184881"><ele>187.0</ele><time>2026-05-01T14:18:25.998Z</time></trkpt><trkpt lat="44.90000970280874" lon="9.053025741551222"><ele>187.0</ele><time>2026-05-01T14:18:26.998Z</time></trkpt><trkpt lat="44.900134476103936" lon="9.052971745659798"><ele>187.0</ele><time>2026-05-01T14:18:27.998Z</time></trkpt><trkpt lat="44.90024922284452" lon="9.052906390504994"><ele>187.0</ele><time>2026-05-01T14:18:28.998Z</time></trkpt><trkpt lat="44.900370709079596" lon="9.052829524989662"><ele>187.0</ele><time>2026-05-01T14:18:29.998Z</time></trkpt><trkpt lat="44.9004889026427" lon="9.05275693743968"><ele>187.0</ele><time>2026-05-01T14:18:30.998Z</time></trkpt><trkpt lat="44.900600936696975" lon="9.052689760075335"><ele>187.0</ele><time>2026-05-01T14:18:31.998Z</time></trkpt><trkpt lat="44.900720600095156" lon="9.052620140816304"><ele>187.0</ele><time>2026-05-01T14:18:32.998Z</time></trkpt><trkpt lat="44.90083550828953" lon="9.052549448065227"><ele>187.0</ele><time>2026-05-01T14:18:33.998Z</time></trkpt><trkpt lat="44.900950600959284" lon="9.052481042138849"><ele>187.25</ele><time>2026-05-01T14:18:34.998Z</time></trkpt><trkpt lat="44.901073521231545" lon="9.052410605656696"><ele>187.5</ele><time>2026-05-01T14:18:35.998Z</time></trkpt><trkpt lat="44.90118483554193" lon="9.052345892933353"><ele>187.75</ele><time>2026-05-01T14:18:36.998Z</time></trkpt><trkpt lat="44.90129599457206" lon="9.052283156221518"><ele>188.0</ele><time>2026-05-01T14:18:37.998Z</time></trkpt><trkpt lat="44.90140820123326" lon="9.052220653262111"><ele>188.0</ele><time>2026-05-01T14:18:38.998Z</time></trkpt><trkpt lat="44.90152582182924" lon="9.052146422859119"><ele>188.0</ele><time>2026-05-01T14:18:39.998Z</time></trkpt><trkpt lat="44.901638901585954" lon="9.052078738676414"><ele>188.0</ele><time>2026-05-01T14:18:40.997Z</time></trkpt><trkpt lat="44.90175819510709" lon="9.052003089348968"><ele>188.0</ele><time>2026-05-01T14:18:41.997Z</time></trkpt><trkpt lat="44.90186568167053" lon="9.051940622764644"><ele>188.75</ele><time>2026-05-01T14:18:42.997Z</time></trkpt><trkpt lat="44.901971144542095" lon="9.05187604480848"><ele>189.5</ele><time>2026-05-01T14:18:43.997Z</time></trkpt><trkpt lat="44.90207401477501" lon="9.051820110549285"><ele>190.25</ele><time>2026-05-01T14:18:44.997Z</time></trkpt><trkpt lat="44.90217765941839" lon="9.051755437237334"><ele>191.0</ele><time>2026-05-01T14:18:45.997Z</time></trkpt><trkpt lat="44.902288300145" lon="9.051685423657563"><ele>190.5</ele><time>2026-05-01T14:18:46.997Z</time></trkpt><trkpt lat="44.902398206111485" lon="9.051617236284118"><ele>190.0</ele><time>2026-05-01T14:18:47.997Z</time></trkpt><trkpt lat="44.90251579294924" lon="9.051539045850491"><ele>189.5</ele><time>2026-05-01T14:18:48.997Z</time></trkpt><trkpt lat="44.90262975713284" lon="9.0514731257008"><ele>189.0</ele><time>2026-05-01T14:18:49.997Z</time></trkpt><trkpt lat="44.90274299313035" lon="9.051405171780068"><ele>189.0</ele><time>2026-05-01T14:18:50.997Z</time></trkpt><trkpt lat="44.90285402259794" lon="9.051346932279646"><ele>189.0</ele><time>2026-05-01T14:18:51.997Z</time></trkpt><trkpt lat="44.902969444418" lon="9.05127553115449"><ele>189.0</ele><time>2026-05-01T14:18:52.997Z</time></trkpt><trkpt lat="44.903079924759254" lon="9.051205597945932"><ele>189.0</ele><time>2026-05-01T14:18:53.997Z</time></trkpt><trkpt lat="44.90319133814828" lon="9.051138558915094"><ele>189.0</ele><time>2026-05-01T14:18:54.997Z</time></trkpt><trkpt lat="44.9033041472532" lon="9.051064538961684"><ele>189.0</ele><time>2026-05-01T14:18:55.997Z</time></trkpt><trkpt lat="44.90341951861181" lon="9.05099501436944"><ele>189.0</ele><time>2026-05-01T14:18:56.997Z</time></trkpt><trkpt lat="44.90352751701822" lon="9.050926399775218"><ele>189.0</ele><time>2026-05-01T14:18:57.997Z</time></trkpt><trkpt lat="44.903609080383866" lon="9.050877764421093"><ele>188.6</ele><time>2026-05-01T14:18:58.997Z</time></trkpt><trkpt lat="44.90369360837197" lon="9.050830431909098"><ele>188.2</ele><time>2026-05-01T14:18:59.997Z</time></trkpt><trkpt lat="44.90379129661094" lon="9.050772146142059"><ele>187.79999999999998</ele><time>2026-05-01T14:19:00.997Z</time></trkpt><trkpt lat="44.903894294621786" lon="9.050707564626624"><ele>187.39999999999998</ele><time>2026-05-01T14:19:01.997Z</time></trkpt><trkpt lat="44.9040011613801" lon="9.050641411589103"><ele>187.0</ele><time>2026-05-01T14:19:02.997Z</time></trkpt><trkpt lat="44.90410885890435" lon="9.050575397768279"><ele>187.0</ele><time>2026-05-01T14:19:03.997Z</time></trkpt><trkpt lat="44.90422129530606" lon="9.050509196501961"><ele>187.0</ele><time>2026-05-01T14:19:04.997Z</time></trkpt><trkpt lat="44.904334132394446" lon="9.050440512876623"><ele>187.0</ele><time>2026-05-01T14:19:05.997Z</time></trkpt><trkpt lat="44.904442967832814" lon="9.050377133269325"><ele>187.0</ele><time>2026-05-01T14:19:06.997Z</time></trkpt><trkpt lat="44.9045501011134" lon="9.050311574648585"><ele>187.75</ele><time>2026-05-01T14:19:07.997Z</time></trkpt><trkpt lat="44.9046611316693" lon="9.050248505238278"><ele>188.5</ele><time>2026-05-01T14:19:08.997Z</time></trkpt><trkpt lat="44.90477141416569" lon="9.05018489211184"><ele>189.25</ele><time>2026-05-01T14:19:09.997Z</time></trkpt><trkpt lat="44.90487962660918" lon="9.050116998832053"><ele>190.0</ele><time>2026-05-01T14:19:10.997Z</time></trkpt><trkpt lat="44.904989442530415" lon="9.05005596187284"><ele>190.5</ele><time>2026-05-01T14:19:11.997Z</time></trkpt><trkpt lat="44.90509019775727" lon="9.049994689750983"><ele>191.0</ele><time>2026-05-01T14:19:12.997Z</time></trkpt><trkpt lat="44.90519781870458" lon="9.049928724373107"><ele>191.5</ele><time>2026-05-01T14:19:13.997Z</time></trkpt><trkpt lat="44.90530672001019" lon="9.049861448756175"><ele>192.0</ele><time>2026-05-01T14:19:14.997Z</time></trkpt><trkpt lat="44.90540391669819" lon="9.04980621044746"><ele>191.0</ele><time>2026-05-01T14:19:15.997Z</time></trkpt><trkpt lat="44.90550088285154" lon="9.049746125785214"><ele>190.0</ele><time>2026-05-01T14:19:16.997Z</time></trkpt><trkpt lat="44.90559118995519" lon="9.049692055194296"><ele>189.0</ele><time>2026-05-01T14:19:18Z</time></trkpt><trkpt lat="44.90567723967281" lon="9.049642072681841"><ele>188.0</ele><time>2026-05-01T14:19:19Z</time></trkpt><trkpt lat="44.90574841400074" lon="9.049595760123227"><ele>187.0</ele><time>2026-05-01T14:19:19.999Z</time></trkpt><trkpt lat="44.90580822854024" lon="9.04955662738719"><ele>186.0</ele><time>2026-05-01T14:19:21Z</time></trkpt><trkpt lat="44.90587391201524" lon="9.04954597061141"><ele>186.0</ele><time>2026-05-01T14:19:23Z</time></trkpt><trkpt lat="44.90590177714682" lon="9.049653758363121"><ele>186.0</ele><time>2026-05-01T14:19:25Z</time></trkpt><trkpt lat="44.90595119309381" lon="9.049795670661029"><ele>186.0</ele><time>2026-05-01T14:19:27Z</time></trkpt><trkpt lat="44.90597419543453" lon="9.049885191316037"><ele>186.0</ele><time>2026-05-01T14:19:28Z</time></trkpt><trkpt lat="44.90600283244923" lon="9.0499834568533"><ele>186.0</ele><time>2026-05-01T14:19:29Z</time></trkpt><trkpt lat="44.90602522526029" lon="9.050084782016706"><ele>186.0</ele><time>2026-05-01T14:19:30Z</time></trkpt><trkpt lat="44.90605255395141" lon="9.050196371763203"><ele>187.60000000000002</ele><time>2026-05-01T14:19:31Z</time></trkpt><trkpt lat="44.906068577085115" lon="9.050326745642103"><ele>189.2</ele><time>2026-05-01T14:19:32Z</time></trkpt><trkpt lat="44.906107422790946" lon="9.050495567576933"><ele>190.8</ele><time>2026-05-01T14:19:33.999Z</time></trkpt><trkpt lat="44.90613053488351" lon="9.050597412041142"><ele>192.39999999999998</ele><time>2026-05-01T14:19:34.999Z</time></trkpt><trkpt lat="44.90615379556394" lon="9.050700169153899"><ele>194.0</ele><time>2026-05-01T14:19:41.999Z</time></trkpt><trkpt lat="44.90618844389973" lon="9.050864200711066"><ele>194.66666666666669</ele><time>2026-05-01T14:20:06.999Z</time></trkpt><trkpt lat="44.90620174357253" lon="9.050955366248065"><ele>195.33333333333334</ele><time>2026-05-01T14:20:07.999Z</time></trkpt><trkpt lat="44.90615156023882" lon="9.051095972689623"><ele>196.0</ele><time>2026-05-01T14:20:09.999Z</time></trkpt><trkpt lat="44.90608436688968" lon="9.051149081941519"><ele>196.66666666666669</ele><time>2026-05-01T14:20:10.999Z</time></trkpt><trkpt lat="44.90602791099873" lon="9.051253202541181"><ele>197.33333333333334</ele><time>2026-05-01T14:20:11.999Z</time></trkpt><trkpt lat="44.90596670887133" lon="9.051350498795351"><ele>198.0</ele><time>2026-05-01T14:20:12.999Z</time></trkpt><trkpt lat="44.90590506157757" lon="9.051436481478566"><ele>198.0</ele><time>2026-05-01T14:20:13.998Z</time></trkpt><trkpt lat="44.905844505946845" lon="9.051514960687836"><ele>198.0</ele><time>2026-05-01T14:20:14.998Z</time></trkpt><trkpt lat="44.90577633923243" lon="9.051584364787773"><ele>198.0</ele><time>2026-05-01T14:20:15.998Z</time></trkpt><trkpt lat="44.90570188706459" lon="9.051658581373882"><ele>198.0</ele><time>2026-05-01T14:20:16.998Z</time></trkpt><trkpt lat="44.90562694623469" lon="9.051740708287998"><ele>198.0</ele><time>2026-05-01T14:20:17.998Z</time></trkpt><trkpt lat="44.9055580674149" lon="9.051829066571932"><ele>198.0</ele><time>2026-05-01T14:20:18.998Z</time></trkpt><trkpt lat="44.90548446971705" lon="9.051907840156442"><ele>199.0</ele><time>2026-05-01T14:20:19.998Z</time></trkpt><trkpt lat="44.90542114470149" lon="9.052002886478634"><ele>200.0</ele><time>2026-05-01T14:20:20.998Z</time></trkpt><trkpt lat="44.90534558009142" lon="9.052080185997994"><ele>201.0</ele><time>2026-05-01T14:20:21.998Z</time></trkpt><trkpt lat="44.905282380213954" lon="9.05218035048454"><ele>202.0</ele><time>2026-05-01T14:20:22.998Z</time></trkpt><trkpt lat="44.90522767767465" lon="9.052277204295882"><ele>203.0</ele><time>2026-05-01T14:20:23.998Z</time></trkpt><trkpt lat="44.90518900969614" lon="9.052377513881124"><ele>204.0</ele><time>2026-05-01T14:20:24.998Z</time></trkpt><trkpt lat="44.905195288805764" lon="9.052552328469563"><ele>205.0</ele><time>2026-05-01T14:20:26.998Z</time></trkpt><trkpt lat="44.905209360334545" lon="9.052665552231906"><ele>206.0</ele><time>2026-05-01T14:20:27.998Z</time></trkpt><trkpt lat="44.90521844684192" lon="9.052780891326357"><ele>207.0</ele><time>2026-05-01T14:20:28.998Z</time></trkpt><trkpt lat="44.90523956341796" lon="9.052891718637985"><ele>208.0</ele><time>2026-05-01T14:20:29.998Z</time></trkpt><trkpt lat="44.905253400377745" lon="9.053012678620338"><ele>209.0</ele><time>2026-05-01T14:20:30.998Z</time></trkpt><trkpt lat="44.9052622848883" lon="9.05312046864603"><ele>210.0</ele><time>2026-05-01T14:20:31.998Z</time></trkpt><trkpt lat="44.90525333649542" lon="9.053243760518308"><ele>211.66666666666666</ele><time>2026-05-01T14:20:32.998Z</time></trkpt><trkpt lat="44.905260013008906" lon="9.053358614723567"><ele>213.33333333333331</ele><time>2026-05-01T14:20:33.998Z</time></trkpt><trkpt lat="44.90526702027897" lon="9.053479158841833"><ele>215.0</ele><time>2026-05-01T14:20:34.998Z</time></trkpt><trkpt lat="44.905273865140025" lon="9.053596909097022"><ele>216.66666666666666</ele><time>2026-05-01T14:20:35.998Z</time></trkpt><trkpt lat="44.905281327427836" lon="9.053725280741823"><ele>218.33333333333331</ele><time>2026-05-01T14:20:36.998Z</time></trkpt><trkpt lat="44.90528795055588" lon="9.053839216573278"><ele>220.0</ele><time>2026-05-01T14:20:37.998Z</time></trkpt><trkpt lat="44.905294764858496" lon="9.053956441126225"><ele>219.99999999999997</ele><time>2026-05-01T14:20:38.998Z</time></trkpt><trkpt lat="44.90530113421929" lon="9.054059539611467"><ele>220.0</ele><time>2026-05-01T14:20:39.998Z</time></trkpt><trkpt lat="44.905323832230664" lon="9.05416252342915"><ele>220.0</ele><time>2026-05-01T14:20:40.998Z</time></trkpt><trkpt lat="44.90532306577146" lon="9.054324129966192"><ele>220.0</ele><time>2026-05-01T14:20:42.998Z</time></trkpt><trkpt lat="44.905333249270186" lon="9.05441770933473"><ele>219.99999999999997</ele><time>2026-05-01T14:20:43.998Z</time></trkpt><trkpt lat="44.90534407266918" lon="9.054507459596996"><ele>220.0</ele><time>2026-05-01T14:20:44.998Z</time></trkpt><trkpt lat="44.90537210130652" lon="9.054601973834114"><ele>221.1428571428571</ele><time>2026-05-01T14:20:45.998Z</time></trkpt><trkpt lat="44.90538180508505" lon="9.054716196466337"><ele>222.28571428571428</ele><time>2026-05-01T14:20:46.998Z</time></trkpt><trkpt lat="44.90539041576064" lon="9.054823004009705"><ele>223.42857142857142</ele><time>2026-05-01T14:20:47.998Z</time></trkpt><trkpt lat="44.905403689517705" lon="9.054922450298253"><ele>224.57142857142856</ele><time>2026-05-01T14:20:48.998Z</time></trkpt><trkpt lat="44.9054150270705" lon="9.055035354976733"><ele>225.7142857142857</ele><time>2026-05-01T14:20:49.998Z</time></trkpt><trkpt lat="44.905406221712234" lon="9.055131923253205"><ele>226.85714285714283</ele><time>2026-05-01T14:20:50.998Z</time></trkpt><trkpt lat="44.90542259648796" lon="9.055224059604717"><ele>228.0</ele><time>2026-05-01T14:20:51.997Z</time></trkpt><trkpt lat="44.90542805754859" lon="9.055348304308522"><ele>229.5</ele><time>2026-05-01T14:20:53.997Z</time></trkpt><trkpt lat="44.90543796658333" lon="9.055449306185125"><ele>231.0</ele><time>2026-05-01T14:20:55.997Z</time></trkpt><trkpt lat="44.90557975170285" lon="9.0554288339331"><ele>232.5</ele><time>2026-05-01T14:20:57.997Z</time></trkpt><trkpt lat="44.90564505320516" lon="9.055427426810057"><ele>234.0</ele><time>2026-05-01T14:20:58.997Z</time></trkpt><trkpt lat="44.90570898590149" lon="9.055413353869902"><ele>235.5</ele><time>2026-05-01T14:20:59.997Z</time></trkpt><trkpt lat="44.90578002402772" lon="9.055395841245721"><ele>237.0</ele><time>2026-05-01T14:21:00.997Z</time></trkpt><trkpt lat="44.90585108248443" lon="9.055360293759415"><ele>237.8</ele><time>2026-05-01T14:21:01.997Z</time></trkpt><trkpt lat="44.905921084374434" lon="9.055338717624007"><ele>238.6</ele><time>2026-05-01T14:21:02.997Z</time></trkpt><trkpt lat="44.90602263997923" lon="9.05533603050859"><ele>239.40000000000003</ele><time>2026-05-01T14:21:03.997Z</time></trkpt><trkpt lat="44.906118417527594" lon="9.05531241901424"><ele>240.20000000000002</ele><time>2026-05-01T14:21:04.997Z</time></trkpt><trkpt lat="44.90620877757741" lon="9.05528934677218"><ele>241.0</ele><time>2026-05-01T14:21:05.997Z</time></trkpt><trkpt lat="44.906307430839696" lon="9.055264104880989"><ele>241.0</ele><time>2026-05-01T14:21:06.997Z</time></trkpt><trkpt lat="44.906392207521314" lon="9.05524480205029"><ele>241.00000000000003</ele><time>2026-05-01T14:21:07.997Z</time></trkpt><trkpt lat="44.90648937973474" lon="9.055222654118984"><ele>241.00000000000003</ele><time>2026-05-01T14:21:08.997Z</time></trkpt><trkpt lat="44.90658073040161" lon="9.055185226245113"><ele>241.0</ele><time>2026-05-01T14:21:09.997Z</time></trkpt><trkpt lat="44.906674254184914" lon="9.055175784556626"><ele>241.0</ele><time>2026-05-01T14:21:10.997Z</time></trkpt><trkpt lat="44.906758052295025" lon="9.05513391402599"><ele>241.99999999999997</ele><time>2026-05-01T14:21:11.997Z</time></trkpt><trkpt lat="44.90685096016889" lon="9.055132638159114"><ele>243.0</ele><time>2026-05-01T14:21:12.997Z</time></trkpt><trkpt lat="44.90693747176172" lon="9.055090030573547"><ele>244.0</ele><time>2026-05-01T14:21:13.997Z</time></trkpt><trkpt lat="44.90702284646552" lon="9.055094383565446"><ele>245.0</ele><time>2026-05-01T14:21:14.997Z</time></trkpt><trkpt lat="44.90711062367611" lon="9.055051629246028"><ele>245.99999999999997</ele><time>2026-05-01T14:21:15.997Z</time></trkpt><trkpt lat="44.9071876316233" lon="9.05503447633784"><ele>247.0</ele><time>2026-05-01T14:21:16.997Z</time></trkpt><trkpt lat="44.907277340315716" lon="9.055016671239056"><ele>246.99999999999997</ele><time>2026-05-01T14:21:17.997Z</time></trkpt><trkpt lat="44.90735627497351" lon="9.054993928995172"><ele>247.0</ele><time>2026-05-01T14:21:18.997Z</time></trkpt><trkpt lat="44.90741966364485" lon="9.054950736712811"><ele>247.0</ele><time>2026-05-01T14:21:19.997Z</time></trkpt><trkpt lat="44.90749736098831" lon="9.054887389671984"><ele>247.0</ele><time>2026-05-01T14:21:20.997Z</time></trkpt><trkpt lat="44.90756376833841" lon="9.054840549666453"><ele>246.99999999999997</ele><time>2026-05-01T14:21:21.997Z</time></trkpt><trkpt lat="44.90763841219347" lon="9.054770401855079"><ele>247.0</ele><time>2026-05-01T14:21:23Z</time></trkpt><trkpt lat="44.907721610567975" lon="9.054722737266072"><ele>247.66666666666666</ele><time>2026-05-01T14:21:24Z</time></trkpt><trkpt lat="44.907802922720954" lon="9.054663206902026"><ele>248.33333333333331</ele><time>2026-05-01T14:21:25Z</time></trkpt><trkpt lat="44.907882093138106" lon="9.054591220697732"><ele>249.0</ele><time>2026-05-01T14:21:26Z</time></trkpt><trkpt lat="44.90795932837367" lon="9.05452664484444"><ele>249.66666666666669</ele><time>2026-05-01T14:21:27Z</time></trkpt><trkpt lat="44.90802932860059" lon="9.05447610186375"><ele>250.33333333333334</ele><time>2026-05-01T14:21:28Z</time></trkpt><trkpt lat="44.90808804443998" lon="9.054428676316855"><ele>251.0</ele><time>2026-05-01T14:21:29Z</time></trkpt><trkpt lat="44.90815933284812" lon="9.054374456246634"><ele>251.0</ele><time>2026-05-01T14:21:30Z</time></trkpt><trkpt lat="44.90828217012201" lon="9.054278416874963"><ele>251.00000000000003</ele><time>2026-05-01T14:21:32Z</time></trkpt><trkpt lat="44.908350366319944" lon="9.054211425250196"><ele>251.00000000000003</ele><time>2026-05-01T14:21:33Z</time></trkpt><trkpt lat="44.90841239398586" lon="9.054136270163982"><ele>251.0</ele><time>2026-05-01T14:21:34Z</time></trkpt><trkpt lat="44.90847739313168" lon="9.054055460869346"><ele>251.0</ele><time>2026-05-01T14:21:35Z</time></trkpt><trkpt lat="44.90855005290638" lon="9.053977210932082"><ele>251.50000000000003</ele><time>2026-05-01T14:21:36Z</time></trkpt><trkpt lat="44.90861395385623" lon="9.053896506603355"><ele>252.0</ele><time>2026-05-01T14:21:37Z</time></trkpt><trkpt lat="44.908669996224" lon="9.053824115564566"><ele>252.5</ele><time>2026-05-01T14:21:38Z</time></trkpt><trkpt lat="44.908727256174494" lon="9.053749966297815"><ele>253.0</ele><time>2026-05-01T14:21:39Z</time></trkpt><trkpt lat="44.90879430681622" lon="9.053674037901843"><ele>253.50000000000003</ele><time>2026-05-01T14:21:40Z</time></trkpt><trkpt lat="44.90886287788513" lon="9.053619031515884"><ele>254.0</ele><time>2026-05-01T14:21:41Z</time></trkpt><trkpt lat="44.90891214691065" lon="9.053545725579152"><ele>254.0</ele><time>2026-05-01T14:21:42Z</time></trkpt><trkpt lat="44.90898199626656" lon="9.05350161539174"><ele>253.99999999999997</ele><time>2026-05-01T14:21:42.999Z</time></trkpt><trkpt lat="44.909090169842486" lon="9.0534004600518"><ele>253.99999999999997</ele><time>2026-05-01T14:21:44.999Z</time></trkpt><trkpt lat="44.90920307370047" lon="9.053299848199293"><ele>254.0</ele><time>2026-05-01T14:21:46.999Z</time></trkpt><trkpt lat="44.909290013502954" lon="9.053223876729396"><ele>254.0</ele><time>2026-05-01T14:21:48.999Z</time></trkpt><trkpt lat="44.9093832741587" lon="9.053143625706221"><ele>253.57142857142858</ele><time>2026-05-01T14:21:50.999Z</time></trkpt><trkpt lat="44.909441972902435" lon="9.0530931152927"><ele>253.1428571428571</ele><time>2026-05-01T14:21:51.999Z</time></trkpt><trkpt lat="44.90949055158894" lon="9.053027532338"><ele>252.7142857142857</ele><time>2026-05-01T14:21:52.999Z</time></trkpt><trkpt lat="44.90954818647271" lon="9.052985674080608"><ele>252.28571428571428</ele><time>2026-05-01T14:21:53.999Z</time></trkpt><trkpt lat="44.90962855285319" lon="9.052947020633695"><ele>251.85714285714283</ele><time>2026-05-01T14:21:55.999Z</time></trkpt><trkpt lat="44.90968947674322" lon="9.052918620794367"><ele>251.4285714285714</ele><time>2026-05-01T14:21:57.999Z</time></trkpt><trkpt lat="44.90976764793697" lon="9.052913424171415"><ele>250.99999999999997</ele><time>2026-05-01T14:22:23.998Z</time></trkpt><trkpt lat="44.909878115011" lon="9.052881107241879"><ele>251.0</ele><time>2026-05-01T14:22:25.998Z</time></trkpt><trkpt lat="44.9099849725229" lon="9.052858984405805"><ele>251.0</ele><time>2026-05-01T14:22:27.998Z</time></trkpt><trkpt lat="44.9100253581867" lon="9.052678216727742"><ele>251.0</ele><time>2026-05-01T14:22:28.998Z</time></trkpt><trkpt lat="44.91011953150943" lon="9.052622891402882"><ele>251.0</ele><time>2026-05-01T14:22:30.998Z</time></trkpt><trkpt lat="44.910236604071365" lon="9.0525964720604"><ele>252.4</ele><time>2026-05-01T14:22:32.998Z</time></trkpt><trkpt lat="44.910347090574014" lon="9.052572846585429"><ele>253.8</ele><time>2026-05-01T14:22:34.998Z</time></trkpt><trkpt lat="44.910422699975925" lon="9.0525032345649"><ele>255.20000000000002</ele><time>2026-05-01T14:22:36.998Z</time></trkpt><trkpt lat="44.91052860794678" lon="9.052440356239781"><ele>256.6</ele><time>2026-05-01T14:22:38.998Z</time></trkpt><trkpt lat="44.91062840920328" lon="9.052358364620892"><ele>258.0</ele><time>2026-05-01T14:22:40.998Z</time></trkpt><trkpt lat="44.91069277069886" lon="9.052251778138924"><ele>257.5</ele><time>2026-05-01T14:22:42.998Z</time></trkpt><trkpt lat="44.91074027498365" lon="9.052154388646972"><ele>257.0</ele><time>2026-05-01T14:22:44.998Z</time></trkpt><trkpt lat="44.91078633657242" lon="9.052080452783708"><ele>256.5</ele><time>2026-05-01T14:22:46.998Z</time></trkpt><trkpt lat="44.910854967566664" lon="9.052015030481668"><ele>256.0</ele><time>2026-05-01T14:22:48.998Z</time></trkpt><trkpt lat="44.910937863828984" lon="9.05193423209501"><ele>255.5</ele><time>2026-05-01T14:22:50.998Z</time></trkpt><trkpt lat="44.91101230682115" lon="9.05185061027449"><ele>255.0</ele><time>2026-05-01T14:22:52.998Z</time></trkpt><trkpt lat="44.911107464539626" lon="9.051787373044979"><ele>255.0</ele><time>2026-05-01T14:22:54.998Z</time></trkpt><trkpt lat="44.91116742025814" lon="9.051748925356224"><ele>255.0</ele><time>2026-05-01T14:22:55.998Z</time></trkpt><trkpt lat="44.91122666820319" lon="9.051709477884451"><ele>255.0</ele><time>2026-05-01T14:22:56.998Z</time></trkpt><trkpt lat="44.91131810299674" lon="9.051634694195009"><ele>255.0</ele><time>2026-05-01T14:22:58.997Z</time></trkpt><trkpt lat="44.911397734471215" lon="9.051561601343565"><ele>255.0</ele><time>2026-05-01T14:23:00.997Z</time></trkpt><trkpt lat="44.91147351960805" lon="9.051505349298424"><ele>255.0</ele><time>2026-05-01T14:23:02.997Z</time></trkpt><trkpt lat="44.91154152811559" lon="9.051451623264212"><ele>254.6</ele><time>2026-05-01T14:23:04.997Z</time></trkpt><trkpt lat="44.91160755839693" lon="9.051409522678428"><ele>254.2</ele><time>2026-05-01T14:23:06.997Z</time></trkpt><trkpt lat="44.911698822878876" lon="9.051327737307657"><ele>253.8</ele><time>2026-05-01T14:23:08.997Z</time></trkpt><trkpt lat="44.91177346170132" lon="9.051267182797401"><ele>253.4</ele><time>2026-05-01T14:23:10.997Z</time></trkpt><trkpt lat="44.911872515188286" lon="9.051186794443792"><ele>253.0</ele><time>2026-05-01T14:23:12.997Z</time></trkpt><trkpt lat="44.91194745761056" lon="9.051127963816375"><ele>253.0</ele><time>2026-05-01T14:23:14.997Z</time></trkpt><trkpt lat="44.91186490710299" lon="9.051215688860252"><ele>253.0</ele><time>2026-05-01T14:23:16.997Z</time></trkpt><trkpt lat="44.911805913113064" lon="9.051280908207271"><ele>253.0</ele><time>2026-05-01T14:23:17.997Z</time></trkpt><trkpt lat="44.91191346496963" lon="9.05116423737709"><ele>253.0</ele><time>2026-05-01T14:23:18.997Z</time></trkpt><trkpt lat="44.91197897918117" lon="9.051081866706136"><ele>253.0</ele><time>2026-05-01T14:23:20.997Z</time></trkpt><trkpt lat="44.91205266396172" lon="9.051005646211363"><ele>252.99999999999997</ele><time>2026-05-01T14:23:22.997Z</time></trkpt><trkpt lat="44.912109530997625" lon="9.050952697891525"><ele>253.0</ele><time>2026-05-01T14:23:25.997Z</time></trkpt><trkpt lat="44.91218601784615" lon="9.050933214360395"><ele>253.0</ele><time>2026-05-01T14:23:31Z</time></trkpt><trkpt lat="44.912246707551944" lon="9.050897675333887"><ele>253.0</ele><time>2026-05-01T14:23:55Z</time></trkpt><trkpt lat="44.91230993509948" lon="9.050851775275898"><ele>252.99999999999997</ele><time>2026-05-01T14:23:56.999Z</time></trkpt><trkpt lat="44.91239210722122" lon="9.050782127045483"><ele>253.0</ele><time>2026-05-01T14:23:59.999Z</time></trkpt><trkpt lat="44.9124747003151" lon="9.050709607954431"><ele>251.60000000000002</ele><time>2026-05-01T14:24:01.999Z</time></trkpt><trkpt lat="44.91257118879826" lon="9.050636778923376"><ele>250.20000000000002</ele><time>2026-05-01T14:24:03.999Z</time></trkpt><trkpt lat="44.91266551998827" lon="9.050577538396684"><ele>248.8</ele><time>2026-05-01T14:24:05.999Z</time></trkpt><trkpt lat="44.91276358444358" lon="9.05050324850928"><ele>247.4</ele><time>2026-05-01T14:24:07.999Z</time></trkpt><trkpt lat="44.91283235351832" lon="9.050467371932477"><ele>246.0</ele><time>2026-05-01T14:24:09.999Z</time></trkpt><trkpt lat="44.91290161709297" lon="9.050439398749049"><ele>246.0</ele><time>2026-05-01T14:24:11.999Z</time></trkpt><trkpt lat="44.91293184611675" lon="9.050517504266443"><ele>246.0</ele><time>2026-05-01T14:24:19.999Z</time></trkpt><trkpt lat="44.91286392854854" lon="9.050539383110152"><ele>246.0</ele><time>2026-05-01T14:24:21.999Z</time></trkpt><trkpt lat="44.912775315488666" lon="9.050543430777072"><ele>246.0</ele><time>2026-05-01T14:24:24.999Z</time></trkpt><trkpt lat="44.91267257782679" lon="9.050599257811314"><ele>246.0</ele><time>2026-05-01T14:24:26.999Z</time></trkpt><trkpt lat="44.91257528508259" lon="9.050662200680522"><ele>246.0</ele><time>2026-05-01T14:24:28.999Z</time></trkpt><trkpt lat="44.9124981405577" lon="9.050726045924215"><ele>246.0</ele><time>2026-05-01T14:24:30.999Z</time></trkpt><trkpt lat="44.91243705305274" lon="9.050768199444459"><ele>246.00000000000003</ele><time>2026-05-01T14:24:31.999Z</time></trkpt><trkpt lat="44.91233659658166" lon="9.050855065451874"><ele>246.00000000000003</ele><time>2026-05-01T14:24:33.998Z</time></trkpt><trkpt lat="44.91228036285886" lon="9.05089847806949"><ele>246.0</ele><time>2026-05-01T14:24:34.998Z</time></trkpt><trkpt lat="44.91218671508142" lon="9.050965244134726"><ele>246.0</ele><time>2026-05-01T14:24:36.998Z</time></trkpt><trkpt lat="44.9121012665154" lon="9.051044525243881"><ele>245.66666666666666</ele><time>2026-05-01T14:24:38.998Z</time></trkpt><trkpt lat="44.912034851850535" lon="9.05107425748979"><ele>245.33333333333331</ele><time>2026-05-01T14:24:39.998Z</time></trkpt><trkpt lat="44.91195469084597" lon="9.051116796836936"><ele>245.0</ele><time>2026-05-01T14:24:40.998Z</time></trkpt><trkpt lat="44.91187691812392" lon="9.051201205654731"><ele>244.66666666666666</ele><time>2026-05-01T14:24:42.998Z</time></trkpt><trkpt lat="44.91181837623374" lon="9.051247476453021"><ele>244.33333333333331</ele><time>2026-05-01T14:24:43.998Z</time></trkpt><trkpt lat="44.91171540406179" lon="9.05134214560698"><ele>244.0</ele><time>2026-05-01T14:24:45.998Z</time></trkpt><trkpt lat="44.9116574221816" lon="9.051388749702205"><ele>243.99999999999997</ele><time>2026-05-01T14:24:46.998Z</time></trkpt><trkpt lat="44.91160015314067" lon="9.05143887395888"><ele>244.0</ele><time>2026-05-01T14:24:47.998Z</time></trkpt><trkpt lat="44.91153519855185" lon="9.051484037611324"><ele>244.0</ele><time>2026-05-01T14:24:48.998Z</time></trkpt><trkpt lat="44.91148446566746" lon="9.051537887475142"><ele>244.0</ele><time>2026-05-01T14:24:49.998Z</time></trkpt><trkpt lat="44.91137154403629" lon="9.051611875592736"><ele>243.99999999999997</ele><time>2026-05-01T14:24:51.998Z</time></trkpt><trkpt lat="44.9112659416141" lon="9.051684565395757"><ele>244.0</ele><time>2026-05-01T14:24:53.998Z</time></trkpt><trkpt lat="44.91118131962038" lon="9.051749900253354"><ele>243.6</ele><time>2026-05-01T14:24:55.998Z</time></trkpt><trkpt lat="44.91107207973108" lon="9.051831023427368"><ele>243.2</ele><time>2026-05-01T14:24:57.998Z</time></trkpt><trkpt lat="44.911007319958706" lon="9.05189347969"><ele>242.79999999999998</ele><time>2026-05-01T14:24:59.998Z</time></trkpt><trkpt lat="44.91091110484413" lon="9.051961709580846"><ele>242.39999999999998</ele><time>2026-05-01T14:25:01.998Z</time></trkpt><trkpt lat="44.910851544893056" lon="9.052022307353054"><ele>242.0</ele><time>2026-05-01T14:25:02.998Z</time></trkpt><trkpt lat="44.91077774656305" lon="9.052121042978927"><ele>242.0</ele><time>2026-05-01T14:25:04.998Z</time></trkpt><trkpt lat="44.910700319294094" lon="9.052195407610713"><ele>242.0</ele><time>2026-05-01T14:25:06.998Z</time></trkpt><trkpt lat="44.91062388160638" lon="9.052320005544916"><ele>242.0</ele><time>2026-05-01T14:25:08.998Z</time></trkpt><trkpt lat="44.91054157478316" lon="9.052452549396202"><ele>242.0</ele><time>2026-05-01T14:25:10.997Z</time></trkpt><trkpt lat="44.91048548675852" lon="9.052505967858673"><ele>242.0</ele><time>2026-05-01T14:25:11.997Z</time></trkpt><trkpt lat="44.910416026804754" lon="9.052547119207944"><ele>243.50000000000003</ele><time>2026-05-01T14:25:12.997Z</time></trkpt><trkpt lat="44.910344156512245" lon="9.052576256929727"><ele>245.0</ele><time>2026-05-01T14:25:13.997Z</time></trkpt><trkpt lat="44.910267694853204" lon="9.052601419580808"><ele>246.5</ele><time>2026-05-01T14:25:14.997Z</time></trkpt><trkpt lat="44.91020280915826" lon="9.05262916973926"><ele>248.0</ele><time>2026-05-01T14:25:15.997Z</time></trkpt><trkpt lat="44.910141259621454" lon="9.052654262816638"><ele>249.50000000000003</ele><time>2026-05-01T14:25:16.997Z</time></trkpt><trkpt lat="44.9100221164574" lon="9.052699876486994"><ele>251.0</ele><time>2026-05-01T14:25:18.997Z</time></trkpt><trkpt lat="44.90992587956123" lon="9.05275183216926"><ele>251.0</ele><time>2026-05-01T14:25:20.997Z</time></trkpt><trkpt lat="44.909830051539814" lon="9.052801526373855"><ele>251.00000000000003</ele><time>2026-05-01T14:25:22.997Z</time></trkpt><trkpt lat="44.909767223920866" lon="9.052838454857346"><ele>251.00000000000003</ele><time>2026-05-01T14:25:24.997Z</time></trkpt><trkpt lat="44.909818231953885" lon="9.053057872107347"><ele>251.0</ele><time>2026-05-01T14:25:43Z</time></trkpt><trkpt lat="44.909847417518854" lon="9.053145690650702"><ele>251.0</ele><time>2026-05-01T14:25:44Z</time></trkpt><trkpt lat="44.90987379962926" lon="9.053248074550202"><ele>253.00000000000003</ele><time>2026-05-01T14:25:45Z</time></trkpt><trkpt lat="44.90989607829625" lon="9.053345381572308"><ele>255.0</ele><time>2026-05-01T14:25:46Z</time></trkpt><trkpt lat="44.90992801507617" lon="9.053451982476622"><ele>257.0</ele><time>2026-05-01T14:25:47Z</time></trkpt><trkpt lat="44.90995895840404" lon="9.053551299921082"><ele>259.0</ele><time>2026-05-01T14:25:48Z</time></trkpt><trkpt lat="44.90998717570985" lon="9.053650019258088"><ele>261.0</ele><time>2026-05-01T14:25:49Z</time></trkpt><trkpt lat="44.910013301135095" lon="9.053754255536958"><ele>263.0</ele><time>2026-05-01T14:25:50Z</time></trkpt><trkpt lat="44.91003822186909" lon="9.053862097858547"><ele>263.0</ele><time>2026-05-01T14:25:51Z</time></trkpt><trkpt lat="44.91005428304677" lon="9.05397042105313"><ele>263.0</ele><time>2026-05-01T14:25:52Z</time></trkpt><trkpt lat="44.91007261192636" lon="9.054065501483043"><ele>263.0</ele><time>2026-05-01T14:25:53Z</time></trkpt><trkpt lat="44.91010822968389" lon="9.054156059324692"><ele>263.0</ele><time>2026-05-01T14:25:54Z</time></trkpt><trkpt lat="44.910183900650004" lon="9.054293222146375"><ele>263.0</ele><time>2026-05-01T14:25:56Z</time></trkpt><trkpt lat="44.91024739205064" lon="9.05434945012115"><ele>263.0</ele><time>2026-05-01T14:26:03Z</time></trkpt><trkpt lat="44.91030363015612" lon="9.054472805196445"><ele>267.83333333333337</ele><time>2026-05-01T14:26:05Z</time></trkpt><trkpt lat="44.91039721681654" lon="9.054554556535562"><ele>272.6666666666667</ele><time>2026-05-01T14:26:07Z</time></trkpt><trkpt lat="44.91045220656407" lon="9.054599021332447"><ele>277.5</ele><time>2026-05-01T14:26:07.999Z</time></trkpt><trkpt lat="44.91053219318785" lon="9.054545843641286"><ele>282.3333333333333</ele><time>2026-05-01T14:26:09.999Z</time></trkpt><trkpt lat="44.910589111495575" lon="9.054488568880377"><ele>287.16666666666663</ele><time>2026-05-01T14:26:10.999Z</time></trkpt><trkpt lat="44.91063774694809" lon="9.054401431770323"><ele>292.0</ele><time>2026-05-01T14:26:11.999Z</time></trkpt><trkpt lat="44.910692567570734" lon="9.054308198030887"><ele>292.0</ele><time>2026-05-01T14:26:12.999Z</time></trkpt><trkpt lat="44.91074923452045" lon="9.054226875994654"><ele>292.0</ele><time>2026-05-01T14:26:13.999Z</time></trkpt><trkpt lat="44.910848850172535" lon="9.054135991145"><ele>292.0</ele><time>2026-05-01T14:26:15.999Z</time></trkpt><trkpt lat="44.91089452204912" lon="9.054074640834463"><ele>292.0</ele><time>2026-05-01T14:26:16.999Z</time></trkpt><trkpt lat="44.910961142768905" lon="9.05404226396926"><ele>292.0</ele><time>2026-05-01T14:26:17.999Z</time></trkpt><trkpt lat="44.91105051474558" lon="9.053973195964241"><ele>292.0</ele><time>2026-05-01T14:26:19.999Z</time></trkpt><trkpt lat="44.91111217259645" lon="9.0539253448432"><ele>291.3333333333333</ele><time>2026-05-01T14:26:20.999Z</time></trkpt><trkpt lat="44.911185241902075" lon="9.053867231404038"><ele>290.66666666666663</ele><time>2026-05-01T14:26:22.999Z</time></trkpt><trkpt lat="44.911244383110265" lon="9.053797870718203"><ele>290.0</ele><time>2026-05-01T14:27:32.997Z</time></trkpt><trkpt lat="44.91130943218319" lon="9.053760338843235"><ele>289.3333333333333</ele><time>2026-05-01T14:27:34.997Z</time></trkpt><trkpt lat="44.91136437367296" lon="9.05371262654826"><ele>288.6666666666667</ele><time>2026-05-01T14:27:35.997Z</time></trkpt><trkpt lat="44.911439787322756" lon="9.053653493584884"><ele>288.0</ele><time>2026-05-01T14:27:36.997Z</time></trkpt><trkpt lat="44.9115637539498" lon="9.05378740164371"><ele>288.0</ele><time>2026-05-01T14:27:37.997Z</time></trkpt><trkpt lat="44.91166318225637" lon="9.053786389000466"><ele>288.0</ele><time>2026-05-01T14:27:39Z</time></trkpt><trkpt lat="44.91175165323842" lon="9.053765225433041"><ele>288.0</ele><time>2026-05-01T14:27:40Z</time></trkpt><trkpt lat="44.91182548477871" lon="9.053753451820718"><ele>288.0</ele><time>2026-05-01T14:27:41Z</time></trkpt><trkpt lat="44.91179132090989" lon="9.0534234391627"><ele>290.6666666666667</ele><time>2026-05-01T14:27:42Z</time></trkpt><trkpt lat="44.911849329294554" lon="9.05338414782719"><ele>293.33333333333337</ele><time>2026-05-01T14:27:43Z</time></trkpt><trkpt lat="44.91193353856024" lon="9.05332710988442"><ele>296.0</ele><time>2026-05-01T14:27:45Z</time></trkpt><trkpt lat="44.91219319514158" lon="9.05390886988616"><ele>296.0</ele><time>2026-05-01T14:27:48Z</time></trkpt><trkpt lat="44.91223656286717" lon="9.053974920420423"><ele>296.0</ele><time>2026-05-01T14:27:49Z</time></trkpt><trkpt lat="44.91233325995132" lon="9.054080978285715"><ele>296.0</ele><time>2026-05-01T14:27:51Z</time></trkpt><trkpt lat="44.91238893452601" lon="9.054130515420932"><ele>296.0</ele><time>2026-05-01T14:27:52Z</time></trkpt><trkpt lat="44.91243830762373" lon="9.054194343115865"><ele>296.0</ele><time>2026-05-01T14:27:53Z</time></trkpt><trkpt lat="44.912491172245105" lon="9.054254890945394"><ele>296.0</ele><time>2026-05-01T14:27:54Z</time></trkpt><trkpt lat="44.91257507140667" lon="9.054345921809833"><ele>299.1666666666667</ele><time>2026-05-01T14:27:56Z</time></trkpt><trkpt lat="44.91265570426596" lon="9.054407302399348"><ele>302.33333333333337</ele><time>2026-05-01T14:28:02Z</time></trkpt><trkpt lat="44.91272190736637" lon="9.054400660768446"><ele>305.5</ele><time>2026-05-01T14:28:03Z</time></trkpt><trkpt lat="44.912800103644365" lon="9.054398085895707"><ele>308.6666666666667</ele><time>2026-05-01T14:28:04Z</time></trkpt><trkpt lat="44.91286241688169" lon="9.05438108175122"><ele>311.8333333333333</ele><time>2026-05-01T14:28:05Z</time></trkpt><trkpt lat="44.91296335905799" lon="9.054298917237807"><ele>315.0</ele><time>2026-05-01T14:28:07Z</time></trkpt><trkpt lat="44.91306674267339" lon="9.05430531822759"><ele>315.0</ele><time>2026-05-01T14:28:09Z</time></trkpt><trkpt lat="44.913172486600835" lon="9.054350836614178"><ele>315.0</ele><time>2026-05-01T14:28:11Z</time></trkpt><trkpt lat="44.913298217267446" lon="9.054354668788902"><ele>315.0</ele><time>2026-05-01T14:28:13Z</time></trkpt><trkpt lat="44.91336773176211" lon="9.054369613481756"><ele>315.0</ele><time>2026-05-01T14:28:13.999Z</time></trkpt><trkpt lat="44.91348146288491" lon="9.054366968278448"><ele>315.0</ele><time>2026-05-01T14:28:15.999Z</time></trkpt><trkpt lat="44.913544152131294" lon="9.054382031266671"><ele>315.6</ele><time>2026-05-01T14:28:16.999Z</time></trkpt><trkpt lat="44.913607054290274" lon="9.054431132018275"><ele>316.2</ele><time>2026-05-01T14:28:17.999Z</time></trkpt><trkpt lat="44.9136718829177" lon="9.05452014988221"><ele>316.8</ele><time>2026-05-01T14:28:19.999Z</time></trkpt><trkpt lat="44.91381477938781" lon="9.05446491986718"><ele>317.4</ele><time>2026-05-01T14:28:21.999Z</time></trkpt><trkpt lat="44.913905302214935" lon="9.054457670484371"><ele>318.0</ele><time>2026-05-01T14:28:22.999Z</time></trkpt><trkpt lat="44.91396058165009" lon="9.05457975232135"><ele>318.0</ele><time>2026-05-01T14:28:25.999Z</time></trkpt><trkpt lat="44.913962681130535" lon="9.05475496802109"><ele>318.0</ele><time>2026-05-01T14:28:27.999Z</time></trkpt><trkpt lat="44.91403552446725" lon="9.054801417655215"><ele>318.0</ele><time>2026-05-01T14:28:29.999Z</time></trkpt><trkpt lat="44.914103538657024" lon="9.05480570441637"><ele>318.0</ele><time>2026-05-01T14:28:30.999Z</time></trkpt><trkpt lat="44.91417602866141" lon="9.054790900760556"><ele>318.0</ele><time>2026-05-01T14:28:31.999Z</time></trkpt><trkpt lat="44.9142784381913" lon="9.054778549638565"><ele>318.0</ele><time>2026-05-01T14:28:32.999Z</time></trkpt><trkpt lat="44.91436302120743" lon="9.054781779495576"><ele>319.2</ele><time>2026-05-01T14:28:33.999Z</time></trkpt><trkpt lat="44.91443633606556" lon="9.054774770131207"><ele>320.4</ele><time>2026-05-01T14:28:34.999Z</time></trkpt><trkpt lat="44.914523474131144" lon="9.054770304547413"><ele>321.59999999999997</ele><time>2026-05-01T14:28:35.999Z</time></trkpt><trkpt lat="44.9146623048232" lon="9.054790811546372"><ele>322.8</ele><time>2026-05-01T14:28:37.999Z</time></trkpt><trkpt lat="44.9147388030019" lon="9.054797413344662"><ele>324.0</ele><time>2026-05-01T14:28:38.999Z</time></trkpt><trkpt lat="44.91482310577199" lon="9.054815030975545"><ele>324.0</ele><time>2026-05-01T14:28:39.999Z</time></trkpt><trkpt lat="44.91489745870869" lon="9.054831423281948"><ele>324.0</ele><time>2026-05-01T14:28:40.999Z</time></trkpt><trkpt lat="44.91499250224007" lon="9.054853984373503"><ele>324.0</ele><time>2026-05-01T14:28:41.999Z</time></trkpt><trkpt lat="44.91505917725106" lon="9.054853630669237"><ele>324.0</ele><time>2026-05-01T14:28:42.999Z</time></trkpt><trkpt lat="44.91516396784258" lon="9.054851813141864"><ele>324.0</ele><time>2026-05-01T14:28:44.999Z</time></trkpt><trkpt lat="44.91523075800571" lon="9.054851398415348"><ele>324.0</ele><time>2026-05-01T14:28:45.999Z</time></trkpt><trkpt lat="44.915300620874625" lon="9.054832315488744"><ele>326.2</ele><time>2026-05-01T14:28:46.999Z</time></trkpt><trkpt lat="44.915366517547035" lon="9.054818721145514"><ele>328.4</ele><time>2026-05-01T14:28:47.999Z</time></trkpt><trkpt lat="44.915452747303576" lon="9.054815574855656"><ele>330.6</ele><time>2026-05-01T14:28:48.998Z</time></trkpt><trkpt lat="44.91556372954056" lon="9.054813896520754"><ele>332.8</ele><time>2026-05-01T14:28:49.998Z</time></trkpt><trkpt lat="44.915687336140024" lon="9.05479154498781"><ele>335.0</ele><time>2026-05-01T14:28:50.998Z</time></trkpt><trkpt lat="44.91576095145556" lon="9.05478824041306"><ele>335.0</ele><time>2026-05-01T14:28:51.998Z</time></trkpt><trkpt lat="44.91582566571672" lon="9.054779632693098"><ele>335.0</ele><time>2026-05-01T14:28:52.998Z</time></trkpt><trkpt lat="44.915913131534836" lon="9.054789708604233"><ele>335.0</ele><time>2026-05-01T14:28:54.998Z</time></trkpt><trkpt lat="44.91597498559239" lon="9.054894242497252"><ele>335.0</ele><time>2026-05-01T14:28:57.998Z</time></trkpt><trkpt lat="44.91595797555764" lon="9.054985865841832"><ele>335.0</ele><time>2026-05-01T14:28:59.998Z</time></trkpt><trkpt lat="44.91588584733979" lon="9.055136093412793"><ele>335.0</ele><time>2026-05-01T14:29:01.998Z</time></trkpt><trkpt lat="44.915845824430406" lon="9.055222697241796"><ele>337.0</ele><time>2026-05-01T14:29:02.998Z</time></trkpt><trkpt lat="44.91578042934787" lon="9.055370945929573"><ele>339.0</ele><time>2026-05-01T14:29:04.998Z</time></trkpt><trkpt lat="44.91574768428494" lon="9.055453862227838"><ele>341.0</ele><time>2026-05-01T14:29:05.998Z</time></trkpt><trkpt lat="44.915715960748045" lon="9.055538438028938"><ele>343.0</ele><time>2026-05-01T14:29:06.998Z</time></trkpt><trkpt lat="44.91569019525929" lon="9.05562425930828"><ele>345.0</ele><time>2026-05-01T14:29:07.998Z</time></trkpt><trkpt lat="44.9156765935495" lon="9.05578253697787"><ele>347.0</ele><time>2026-05-01T14:29:09.998Z</time></trkpt><trkpt lat="44.91571847885548" lon="9.055980842169982"><ele>348.5</ele><time>2026-05-01T14:29:11.998Z</time></trkpt><trkpt lat="44.91574839392391" lon="9.056072181792647"><ele>350.0</ele><time>2026-05-01T14:29:12.998Z</time></trkpt><trkpt lat="44.91577603860613" lon="9.056192435750717"><ele>351.5</ele><time>2026-05-01T14:29:13.998Z</time></trkpt><trkpt lat="44.91580516504781" lon="9.056293039031281"><ele>353.0</ele><time>2026-05-01T14:29:15.998Z</time></trkpt><trkpt lat="44.9158761429398" lon="9.056292865021659"><ele>354.5</ele><time>2026-05-01T14:29:20.998Z</time></trkpt><trkpt lat="44.91596808440512" lon="9.056173315316864"><ele>356.0</ele><time>2026-05-01T14:29:22.998Z</time></trkpt><trkpt lat="44.91595927342482" lon="9.05602478102607"><ele>356.0</ele><time>2026-05-01T14:29:23.998Z</time></trkpt><trkpt lat="44.916019011994905" lon="9.055952780955844"><ele>356.0</ele><time>2026-05-01T14:29:24.997Z</time></trkpt><trkpt lat="44.916103862865945" lon="9.055964145499026"><ele>356.0</ele><time>2026-05-01T14:29:26.997Z</time></trkpt><trkpt lat="44.91619446594252" lon="9.056051562809424"><ele>356.0</ele><time>2026-05-01T14:29:28.997Z</time></trkpt><trkpt lat="44.91627852736657" lon="9.055956159845506"><ele>356.0</ele><time>2026-05-01T14:29:30.997Z</time></trkpt><trkpt lat="44.91636384714671" lon="9.055866808366169"><ele>356.0</ele><time>2026-05-01T14:29:32.997Z</time></trkpt><trkpt lat="44.91643669879726" lon="9.055887913639454"><ele>356.0</ele><time>2026-05-01T14:29:35.997Z</time></trkpt><trkpt lat="44.91655892897728" lon="9.055904747379735"><ele>356.0</ele><time>2026-05-01T14:29:37.997Z</time></trkpt><trkpt lat="44.916636211428916" lon="9.055898295615656"><ele>356.0</ele><time>2026-05-01T14:29:38.997Z</time></trkpt><trkpt lat="44.916723125133025" lon="9.055886342853992"><ele>356.0</ele><time>2026-05-01T14:29:39.997Z</time></trkpt><trkpt lat="44.91678758382361" lon="9.055883886680206"><ele>356.0</ele><time>2026-05-01T14:29:40.997Z</time></trkpt><trkpt lat="44.9168949311187" lon="9.055900196604043"><ele>355.83333333333337</ele><time>2026-05-01T14:29:42.997Z</time></trkpt><trkpt lat="44.91701015039386" lon="9.055960101034357"><ele>355.6666666666667</ele><time>2026-05-01T14:29:45Z</time></trkpt><trkpt lat="44.91707554966545" lon="9.056003837044269"><ele>355.5</ele><time>2026-05-01T14:29:46Z</time></trkpt><trkpt lat="44.91714567152499" lon="9.05604430015327"><ele>355.3333333333333</ele><time>2026-05-01T14:29:47Z</time></trkpt><trkpt lat="44.9172101218956" lon="9.05608287216886"><ele>355.16666666666663</ele><time>2026-05-01T14:29:48Z</time></trkpt><trkpt lat="44.91727718175529" lon="9.056116717682459"><ele>355.0</ele><time>2026-05-01T14:29:49Z</time></trkpt><trkpt lat="44.91733955299764" lon="9.056148097961392"><ele>355.0</ele><time>2026-05-01T14:29:50Z</time></trkpt><trkpt lat="44.91746519188802" lon="9.056183702381176"><ele>355.0</ele><time>2026-05-01T14:29:52Z</time></trkpt><trkpt lat="44.91753388108125" lon="9.056209310446558"><ele>355.0</ele><time>2026-05-01T14:29:53Z</time></trkpt><trkpt lat="44.91760887454008" lon="9.056249759051454"><ele>355.0</ele><time>2026-05-01T14:29:54Z</time></trkpt><trkpt lat="44.91768089769065" lon="9.056271168736286"><ele>355.0</ele><time>2026-05-01T14:29:55Z</time></trkpt><trkpt lat="44.91775129138161" lon="9.056302179555141"><ele>355.0</ele><time>2026-05-01T14:29:56Z</time></trkpt><trkpt lat="44.91781538059494" lon="9.056315566082489"><ele>355.16666666666663</ele><time>2026-05-01T14:29:57Z</time></trkpt><trkpt lat="44.917917935200485" lon="9.056335652172606"><ele>355.3333333333333</ele><time>2026-05-01T14:29:59Z</time></trkpt><trkpt lat="44.917986798067176" lon="9.056353461605068"><ele>355.5</ele><time>2026-05-01T14:30:00Z</time></trkpt><trkpt lat="44.91806489062401" lon="9.056376743172354"><ele>355.6666666666667</ele><time>2026-05-01T14:30:01Z</time></trkpt><trkpt lat="44.918140756120984" lon="9.056402125214094"><ele>355.83333333333337</ele><time>2026-05-01T14:30:02Z</time></trkpt><trkpt lat="44.91821411981568" lon="9.056436442247167"><ele>356.0</ele><time>2026-05-01T14:30:03Z</time></trkpt><trkpt lat="44.91830042807932" lon="9.056461050964407"><ele>356.0</ele><time>2026-05-01T14:30:04Z</time></trkpt><trkpt lat="44.918366069941484" lon="9.056491464477084"><ele>356.0</ele><time>2026-05-01T14:30:05Z</time></trkpt><trkpt lat="44.91846156091569" lon="9.056526485877074"><ele>356.0</ele><time>2026-05-01T14:30:06Z</time></trkpt><trkpt lat="44.918543302837534" lon="9.05656349020549"><ele>356.0</ele><time>2026-05-01T14:30:07Z</time></trkpt><trkpt lat="44.91862762665102" lon="9.05660211320512"><ele>356.0</ele><time>2026-05-01T14:30:08Z</time></trkpt><trkpt lat="44.918704323544056" lon="9.05663730536627"><ele>356.0</ele><time>2026-05-01T14:30:09Z</time></trkpt><trkpt lat="44.918780480349675" lon="9.056665481594354"><ele>359.5</ele><time>2026-05-01T14:30:10Z</time></trkpt><trkpt lat="44.91887531594985" lon="9.056691557581956"><ele>363.0</ele><time>2026-05-01T14:30:11Z</time></trkpt><trkpt lat="44.9189655345476" lon="9.056737642530132"><ele>366.5</ele><time>2026-05-01T14:30:13Z</time></trkpt><trkpt lat="44.919030095455604" lon="9.056772697603172"><ele>370.0</ele><time>2026-05-01T14:30:13.999Z</time></trkpt><trkpt lat="44.91909857851856" lon="9.05679261098642"><ele>373.5</ele><time>2026-05-01T14:30:14.999Z</time></trkpt><trkpt lat="44.919176432769085" lon="9.056796574079144"><ele>377.0</ele><time>2026-05-01T14:30:15.999Z</time></trkpt><trkpt lat="44.91924615379329" lon="9.05678874714562"><ele>377.0</ele><time>2026-05-01T14:30:16.999Z</time></trkpt><trkpt lat="44.91937334059211" lon="9.056840392268828"><ele>377.0</ele><time>2026-05-01T14:30:18.999Z</time></trkpt><trkpt lat="44.91941034710543" lon="9.056920765054931"><ele>377.0</ele><time>2026-05-01T14:30:19.999Z</time></trkpt><trkpt lat="44.919442305672135" lon="9.057012753271684"><ele>377.0</ele><time>2026-05-01T14:30:20.999Z</time></trkpt><trkpt lat="44.91948208350343" lon="9.05712137644429"><ele>377.0</ele><time>2026-05-01T14:30:22.999Z</time></trkpt><trkpt lat="44.91952735711078" lon="9.057185799451293"><ele>377.0</ele><time>2026-05-01T14:30:27.999Z</time></trkpt><trkpt lat="44.91945738818619" lon="9.05712867189919"><ele>377.0</ele><time>2026-05-01T14:31:24.998Z</time></trkpt><trkpt lat="44.919394801278614" lon="9.057003866590781"><ele>377.0</ele><time>2026-05-01T14:31:27.997Z</time></trkpt><trkpt lat="44.919348529035226" lon="9.056899475662641"><ele>377.0</ele><time>2026-05-01T14:31:29.997Z</time></trkpt><trkpt lat="44.91925966703386" lon="9.056807849378515"><ele>377.0</ele><time>2026-05-01T14:31:31.997Z</time></trkpt><trkpt lat="44.919133160417594" lon="9.056793618030488"><ele>377.0</ele><time>2026-05-01T14:31:33.997Z</time></trkpt><trkpt lat="44.919016537379214" lon="9.056779539374983"><ele>377.8</ele><time>2026-05-01T14:31:35.997Z</time></trkpt><trkpt lat="44.91895339722169" lon="9.056762617437668"><ele>378.6</ele><time>2026-05-01T14:31:36.997Z</time></trkpt><trkpt lat="44.91883470698334" lon="9.0566895042488"><ele>379.40000000000003</ele><time>2026-05-01T14:31:38.997Z</time></trkpt><trkpt lat="44.91876646704871" lon="9.056671680834677"><ele>380.20000000000005</ele><time>2026-05-01T14:31:39.997Z</time></trkpt><trkpt lat="44.91862864796741" lon="9.05662285847093"><ele>381.0</ele><time>2026-05-01T14:31:41.997Z</time></trkpt><trkpt lat="44.91855571545578" lon="9.05658846586838"><ele>378.0</ele><time>2026-05-01T14:31:42.997Z</time></trkpt><trkpt lat="44.91848818496912" lon="9.056565628948803"><ele>375.0</ele><time>2026-05-01T14:31:43.997Z</time></trkpt><trkpt lat="44.91840969102682" lon="9.05653150815196"><ele>372.0</ele><time>2026-05-01T14:31:44.997Z</time></trkpt><trkpt lat="44.918333971392656" lon="9.056496431244408"><ele>369.0</ele><time>2026-05-01T14:31:45.997Z</time></trkpt><trkpt lat="44.91826487523862" lon="9.056474374283425"><ele>366.0</ele><time>2026-05-01T14:31:46.997Z</time></trkpt><trkpt lat="44.91815523890098" lon="9.056434520600348"><ele>363.0</ele><time>2026-05-01T14:31:48.997Z</time></trkpt><trkpt lat="44.91801384217151" lon="9.05637791363732"><ele>361.8333333333333</ele><time>2026-05-01T14:31:51Z</time></trkpt><trkpt lat="44.91794863851335" lon="9.05636224650321"><ele>360.6666666666667</ele><time>2026-05-01T14:31:52Z</time></trkpt><trkpt lat="44.9178598055404" lon="9.056338014736712"><ele>359.5</ele><time>2026-05-01T14:31:53Z</time></trkpt><trkpt lat="44.917749826428015" lon="9.05630657436865"><ele>358.33333333333337</ele><time>2026-05-01T14:31:55Z</time></trkpt><trkpt lat="44.917677931363215" lon="9.056290801810164"><ele>357.1666666666667</ele><time>2026-05-01T14:31:57Z</time></trkpt><trkpt lat="44.917573432744526" lon="9.056253659794862"><ele>356.0</ele><time>2026-05-01T14:31:59Z</time></trkpt><trkpt lat="44.917454538860305" lon="9.056196533806615"><ele>355.75</ele><time>2026-05-01T14:32:01Z</time></trkpt><trkpt lat="44.91737178579107" lon="9.056161504205866"><ele>355.5</ele><time>2026-05-01T14:32:02Z</time></trkpt><trkpt lat="44.91723972736976" lon="9.056113081706469"><ele>355.25</ele><time>2026-05-01T14:32:04Z</time></trkpt><trkpt lat="44.9171101942194" lon="9.056025531455798"><ele>355.0</ele><time>2026-05-01T14:32:06Z</time></trkpt><trkpt lat="44.91697699208532" lon="9.05596092469991"><ele>355.0</ele><time>2026-05-01T14:32:08Z</time></trkpt><trkpt lat="44.91691520012459" lon="9.055923632952815"><ele>355.0</ele><time>2026-05-01T14:32:09Z</time></trkpt><trkpt lat="44.916813446735134" lon="9.055886650830166"><ele>355.0</ele><time>2026-05-01T14:32:11Z</time></trkpt><trkpt lat="44.91674333154284" lon="9.055890355548668"><ele>355.0</ele><time>2026-05-01T14:32:13Z</time></trkpt><trkpt lat="44.916652333002375" lon="9.055899097241209"><ele>355.0</ele><time>2026-05-01T14:32:15Z</time></trkpt><trkpt lat="44.916532405327374" lon="9.055915304979504"><ele>355.16666666666663</ele><time>2026-05-01T14:32:17Z</time></trkpt><trkpt lat="44.9164217658343" lon="9.055894933736786"><ele>355.3333333333333</ele><time>2026-05-01T14:32:18.999Z</time></trkpt><trkpt lat="44.91634678217599" lon="9.055890743466984"><ele>355.5</ele><time>2026-05-01T14:32:20.999Z</time></trkpt><trkpt lat="44.91629118698617" lon="9.055943763214616"><ele>355.6666666666667</ele><time>2026-05-01T14:32:22.999Z</time></trkpt><trkpt lat="44.91625301363268" lon="9.056017065796127"><ele>355.83333333333337</ele><time>2026-05-01T14:32:23.999Z</time></trkpt><trkpt lat="44.91615849423855" lon="9.056052089849747"><ele>356.0</ele><time>2026-05-01T14:32:25.999Z</time></trkpt><trkpt lat="44.916078216193654" lon="9.056003995630286"><ele>356.0</ele><time>2026-05-01T14:32:27.999Z</time></trkpt><trkpt lat="44.91600249843272" lon="9.05606225150046"><ele>356.0</ele><time>2026-05-01T14:32:29.999Z</time></trkpt><trkpt lat="44.91593845998603" lon="9.056208680926915"><ele>356.0</ele><time>2026-05-01T14:32:31.999Z</time></trkpt><trkpt lat="44.91587143240358" lon="9.056299989866051"><ele>356.0</ele><time>2026-05-01T14:32:33.999Z</time></trkpt><trkpt lat="44.91580644006464" lon="9.056290047997994"><ele>356.0</ele><time>2026-05-01T14:32:37.999Z</time></trkpt><trkpt lat="44.9157740250004" lon="9.056183801121966"><ele>356.0</ele><time>2026-05-01T14:32:39.999Z</time></trkpt><trkpt lat="44.91574737601494" lon="9.056048211571172"><ele>356.4</ele><time>2026-05-01T14:32:41.999Z</time></trkpt><trkpt lat="44.91569744298375" lon="9.055895476106134"><ele>356.8</ele><time>2026-05-01T14:32:43.999Z</time></trkpt><trkpt lat="44.91566645969548" lon="9.055750998385932"><ele>357.2</ele><time>2026-05-01T14:32:45.999Z</time></trkpt><trkpt lat="44.91569490607486" lon="9.055610990359368"><ele>357.59999999999997</ele><time>2026-05-01T14:32:47.999Z</time></trkpt><trkpt lat="44.915721545211525" lon="9.05552406290507"><ele>358.0</ele><time>2026-05-01T14:32:48.999Z</time></trkpt><trkpt lat="44.91575321693222" lon="9.055444396906394"><ele>356.16666666666663</ele><time>2026-05-01T14:32:49.999Z</time></trkpt><trkpt lat="44.91578752808908" lon="9.05535487288858"><ele>354.3333333333333</ele><time>2026-05-01T14:32:50.999Z</time></trkpt><trkpt lat="44.91582128052138" lon="9.055271214731029"><ele>352.5</ele><time>2026-05-01T14:32:51.999Z</time></trkpt><trkpt lat="44.915856915397825" lon="9.055193866747791"><ele>350.6666666666667</ele><time>2026-05-01T14:32:52.999Z</time></trkpt><trkpt lat="44.9158985621583" lon="9.055107532069405"><ele>348.83333333333337</ele><time>2026-05-01T14:32:53.999Z</time></trkpt><trkpt lat="44.91593656000873" lon="9.05502693437009"><ele>347.0</ele><time>2026-05-01T14:32:54.998Z</time></trkpt><trkpt lat="44.915971891404084" lon="9.05489037137369"><ele>344.6</ele><time>2026-05-01T14:32:56.998Z</time></trkpt><trkpt lat="44.915915295764584" lon="9.05478616343808"><ele>342.20000000000005</ele><time>2026-05-01T14:32:58.998Z</time></trkpt><trkpt lat="44.915803380854065" lon="9.054779368083217"><ele>339.8</ele><time>2026-05-01T14:33:00.998Z</time></trkpt><trkpt lat="44.9157374217844" lon="9.05479909026801"><ele>337.4</ele><time>2026-05-01T14:33:01.998Z</time></trkpt><trkpt lat="44.915673168115966" lon="9.05481038536979"><ele>335.0</ele><time>2026-05-01T14:33:02.998Z</time></trkpt><trkpt lat="44.915541209503395" lon="9.054826515558402"><ele>335.0</ele><time>2026-05-01T14:33:04.998Z</time></trkpt><trkpt lat="44.91547594360624" lon="9.054836480258633"><ele>335.0</ele><time>2026-05-01T14:33:05.998Z</time></trkpt><trkpt lat="44.915409600007095" lon="9.054841245574965"><ele>335.0</ele><time>2026-05-01T14:33:06.998Z</time></trkpt><trkpt lat="44.915332280296205" lon="9.054842867781232"><ele>335.0</ele><time>2026-05-01T14:33:07.998Z</time></trkpt><trkpt lat="44.91521619539596" lon="9.054870105263829"><ele>335.0</ele><time>2026-05-01T14:33:09.998Z</time></trkpt><trkpt lat="44.91509917944621" lon="9.05486378872112"><ele>335.0</ele><time>2026-05-01T14:33:11.998Z</time></trkpt><trkpt lat="44.914989750535554" lon="9.054858269948063"><ele>333.1666666666667</ele><time>2026-05-01T14:33:13.998Z</time></trkpt><trkpt lat="44.91488000571034" lon="9.054851365131936"><ele>331.33333333333337</ele><time>2026-05-01T14:33:15.998Z</time></trkpt><trkpt lat="44.91481091107778" lon="9.05483356641158"><ele>329.5</ele><time>2026-05-01T14:33:16.998Z</time></trkpt><trkpt lat="44.914738146912086" lon="9.05481303861028"><ele>327.6666666666667</ele><time>2026-05-01T14:33:17.998Z</time></trkpt><trkpt lat="44.914672570272835" lon="9.05481451483662"><ele>325.8333333333333</ele><time>2026-05-01T14:33:18.998Z</time></trkpt><trkpt lat="44.91458267820197" lon="9.054800104434722"><ele>324.0</ele><time>2026-05-01T14:33:19.998Z</time></trkpt><trkpt lat="44.91445891419785" lon="9.054802485826398"><ele>324.0</ele><time>2026-05-01T14:33:21.998Z</time></trkpt><trkpt lat="44.91436199824288" lon="9.05481073500414"><ele>324.0</ele><time>2026-05-01T14:33:22.998Z</time></trkpt><trkpt lat="44.91427497359234" lon="9.054825596911119"><ele>324.0</ele><time>2026-05-01T14:33:23.998Z</time></trkpt><trkpt lat="44.91419337539262" lon="9.05482607158272"><ele>324.0</ele><time>2026-05-01T14:33:24.998Z</time></trkpt><trkpt lat="44.91411817886769" lon="9.054829553927242"><ele>324.0</ele><time>2026-05-01T14:33:25.998Z</time></trkpt><trkpt lat="44.914043768519385" lon="9.054835115770722"><ele>324.0</ele><time>2026-05-01T14:33:26.998Z</time></trkpt><trkpt lat="44.91396490161334" lon="9.054766832017616"><ele>322.8</ele><time>2026-05-01T14:33:28.998Z</time></trkpt><trkpt lat="44.91395904235731" lon="9.054610066313025"><ele>321.59999999999997</ele><time>2026-05-01T14:33:30.997Z</time></trkpt><trkpt lat="44.91396029964274" lon="9.054520866739214"><ele>320.4</ele><time>2026-05-01T14:33:31.997Z</time></trkpt><trkpt lat="44.91387573721723" lon="9.054486881666385"><ele>319.2</ele><time>2026-05-01T14:33:33.997Z</time></trkpt><trkpt lat="44.913747638129315" lon="9.054499625263892"><ele>318.0</ele><time>2026-05-01T14:33:35.997Z</time></trkpt><trkpt lat="44.913686046088735" lon="9.054523625372667"><ele>318.0</ele><time>2026-05-01T14:33:36.997Z</time></trkpt><trkpt lat="44.91360438773988" lon="9.05445419141703"><ele>318.0</ele><time>2026-05-01T14:33:38.997Z</time></trkpt><trkpt lat="44.913503291366084" lon="9.054374456682329"><ele>318.0</ele><time>2026-05-01T14:33:40.997Z</time></trkpt><trkpt lat="44.913420897556854" lon="9.05437413912555"><ele>318.0</ele><time>2026-05-01T14:33:41.997Z</time></trkpt><trkpt lat="44.91334372053927" lon="9.054387345888665"><ele>318.0</ele><time>2026-05-01T14:33:42.997Z</time></trkpt><trkpt lat="44.913273823924" lon="9.054388765099949"><ele>318.0</ele><time>2026-05-01T14:33:43.997Z</time></trkpt><trkpt lat="44.91319980528549" lon="9.054379794332954"><ele>317.5</ele><time>2026-05-01T14:33:44.997Z</time></trkpt><trkpt lat="44.913126186326494" lon="9.054355502200572"><ele>317.0</ele><time>2026-05-01T14:33:45.997Z</time></trkpt><trkpt lat="44.91305995261255" lon="9.054344795462308"><ele>316.5</ele><time>2026-05-01T14:33:46.997Z</time></trkpt><trkpt lat="44.91294490997349" lon="9.054323433389762"><ele>316.0</ele><time>2026-05-01T14:33:48.997Z</time></trkpt><trkpt lat="44.91289143627481" lon="9.054371341897253"><ele>315.5</ele><time>2026-05-01T14:33:49.997Z</time></trkpt><trkpt lat="44.91283143928593" lon="9.054420431407737"><ele>315.0</ele><time>2026-05-01T14:33:50.997Z</time></trkpt><trkpt lat="44.912725793598334" lon="9.054423231298989"><ele>315.0</ele><time>2026-05-01T14:33:53.997Z</time></trkpt><trkpt lat="44.91260643606206" lon="9.054398748360011"><ele>315.0</ele><time>2026-05-01T14:33:56Z</time></trkpt><trkpt lat="44.91254352817254" lon="9.054350478196296"><ele>315.0</ele><time>2026-05-01T14:33:57Z</time></trkpt><trkpt lat="44.91249578429879" lon="9.054277117852907"><ele>315.0</ele><time>2026-05-01T14:33:58Z</time></trkpt><trkpt lat="44.912421402192415" lon="9.054179726687186"><ele>315.0</ele><time>2026-05-01T14:34:00Z</time></trkpt><trkpt lat="44.912363990964394" lon="9.05411840173867"><ele>315.0</ele><time>2026-05-01T14:34:02Z</time></trkpt><trkpt lat="44.91230883645762" lon="9.054058144373846"><ele>311.8333333333333</ele><time>2026-05-01T14:34:04Z</time></trkpt><trkpt lat="44.91225270424438" lon="9.054011155127803"><ele>308.6666666666667</ele><time>2026-05-01T14:35:29.998Z</time></trkpt><trkpt lat="44.91218272983014" lon="9.053928077817629"><ele>305.5</ele><time>2026-05-01T14:35:32.998Z</time></trkpt><trkpt lat="44.91212656354953" lon="9.053815243454356"><ele>302.33333333333337</ele><time>2026-05-01T14:35:34.998Z</time></trkpt><trkpt lat="44.912045172667476" lon="9.053755311299236"><ele>299.1666666666667</ele><time>2026-05-01T14:35:36.998Z</time></trkpt><trkpt lat="44.91195934079253" lon="9.053754028644693"><ele>296.0</ele><time>2026-05-01T14:35:38.998Z</time></trkpt><trkpt lat="44.91186054122128" lon="9.053773109664823"><ele>296.0</ele><time>2026-05-01T14:35:40.997Z</time></trkpt><trkpt lat="44.91175738526572" lon="9.053766785023168"><ele>296.0</ele><time>2026-05-01T14:35:42.997Z</time></trkpt><trkpt lat="44.911659045004484" lon="9.053774490273547"><ele>296.0</ele><time>2026-05-01T14:35:44.997Z</time></trkpt><trkpt lat="44.911554279961344" lon="9.053802340023374"><ele>296.0</ele><time>2026-05-01T14:35:46.997Z</time></trkpt><trkpt lat="44.91148813695214" lon="9.053804101852293"><ele>296.0</ele><time>2026-05-01T14:35:47.997Z</time></trkpt><trkpt lat="44.91138778946334" lon="9.053820255511644"><ele>294.6666666666667</ele><time>2026-05-01T14:35:49.997Z</time></trkpt><trkpt lat="44.911322274950315" lon="9.053830733056529"><ele>293.33333333333337</ele><time>2026-05-01T14:35:50.997Z</time></trkpt><trkpt lat="44.911208608687055" lon="9.053818392315069"><ele>292.0</ele><time>2026-05-01T14:35:52.997Z</time></trkpt><trkpt lat="44.911120370613766" lon="9.053853960747706"><ele>290.6666666666667</ele><time>2026-05-01T14:36:50.999Z</time></trkpt><trkpt lat="44.91106225215206" lon="9.053890495639024"><ele>289.3333333333333</ele><time>2026-05-01T14:36:51.999Z</time></trkpt><trkpt lat="44.91101115246689" lon="9.053944452322709"><ele>288.0</ele><time>2026-05-01T14:36:52.999Z</time></trkpt><trkpt lat="44.91095458123027" lon="9.054009062580574"><ele>288.8</ele><time>2026-05-01T14:36:53.999Z</time></trkpt><trkpt lat="44.91086026805803" lon="9.054089404380381"><ele>289.6</ele><time>2026-05-01T14:36:55.999Z</time></trkpt><trkpt lat="44.91078046882442" lon="9.05415033065975"><ele>290.4</ele><time>2026-05-01T14:36:57.999Z</time></trkpt><trkpt lat="44.91069734731775" lon="9.054235914809395"><ele>291.2</ele><time>2026-05-01T14:36:59.999Z</time></trkpt><trkpt lat="44.9106298381067" lon="9.054362290686889"><ele>292.0</ele><time>2026-05-01T14:37:01.999Z</time></trkpt><trkpt lat="44.910548656541245" lon="9.054478306249193"><ele>292.0</ele><time>2026-05-01T14:37:03.999Z</time></trkpt><trkpt lat="44.91047489534406" lon="9.054537760377846"><ele>292.0</ele><time>2026-05-01T14:37:05.999Z</time></trkpt><trkpt lat="44.91037496297563" lon="9.054513373648634"><ele>292.0</ele><time>2026-05-01T14:37:07.999Z</time></trkpt><trkpt lat="44.9103316262461" lon="9.054432809672836"><ele>292.0</ele><time>2026-05-01T14:37:08.999Z</time></trkpt><trkpt lat="44.91022711719176" lon="9.05434563630132"><ele>292.0</ele><time>2026-05-01T14:37:10.999Z</time></trkpt><trkpt lat="44.91015918100506" lon="9.054234743010072"><ele>292.0</ele><time>2026-05-01T14:37:12.998Z</time></trkpt><trkpt lat="44.9101206237806" lon="9.054142836578148"><ele>292.0</ele><time>2026-05-01T14:37:47.998Z</time></trkpt><trkpt lat="44.91008732415032" lon="9.054052057188372"><ele>292.0</ele><time>2026-05-01T14:37:49.997Z</time></trkpt><trkpt lat="44.91006172542072" lon="9.05396229453015"><ele>292.0</ele><time>2026-05-01T14:37:50.997Z</time></trkpt><trkpt lat="44.91004042403894" lon="9.053876045223545"><ele>292.0</ele><time>2026-05-01T14:37:51.997Z</time></trkpt><trkpt lat="44.91001941018733" lon="9.053789145786029"><ele>292.0</ele><time>2026-05-01T14:37:52.997Z</time></trkpt><trkpt lat="44.90999819711592" lon="9.053703091357017"><ele>292.0</ele><time>2026-05-01T14:37:53.997Z</time></trkpt><trkpt lat="44.90978999915075" lon="9.053917761596924"><ele>289.66666666666663</ele><time>2026-05-01T14:37:59.997Z</time></trkpt><trkpt lat="44.90981083748855" lon="9.054012831095198"><ele>287.3333333333333</ele><time>2026-05-01T14:38:00.997Z</time></trkpt><trkpt lat="44.909843943631266" lon="9.054128379938946"><ele>285.0</ele><time>2026-05-01T14:38:01.997Z</time></trkpt><trkpt lat="44.9098635419824" lon="9.054226694378896"><ele>282.6666666666667</ele><time>2026-05-01T14:38:02.997Z</time></trkpt><trkpt lat="44.90986579804681" lon="9.054318711374197"><ele>280.33333333333337</ele><time>2026-05-01T14:38:03.997Z</time></trkpt><trkpt lat="44.90982262778917" lon="9.054501917227515"><ele>278.0</ele><time>2026-05-01T14:38:05.997Z</time></trkpt><trkpt lat="44.90978254061403" lon="9.054596459215741"><ele>278.0</ele><time>2026-05-01T14:38:07Z</time></trkpt><trkpt lat="44.90974425617202" lon="9.054682946803128"><ele>278.0</ele><time>2026-05-01T14:38:08Z</time></trkpt><trkpt lat="44.90970959159576" lon="9.054791732694392"><ele>278.0</ele><time>2026-05-01T14:38:09Z</time></trkpt><trkpt lat="44.90967045291289" lon="9.054881261924418"><ele>278.0</ele><time>2026-05-01T14:38:10Z</time></trkpt><trkpt lat="44.9096265905947" lon="9.054976391855645"><ele>278.0</ele><time>2026-05-01T14:38:11Z</time></trkpt><trkpt lat="44.909584064086566" lon="9.055088093682023"><ele>278.0</ele><time>2026-05-01T14:38:12Z</time></trkpt><trkpt lat="44.90955587124529" lon="9.055200248359741"><ele>281.6</ele><time>2026-05-01T14:38:13Z</time></trkpt><trkpt lat="44.90951888164652" lon="9.055288276260473"><ele>285.20000000000005</ele><time>2026-05-01T14:38:14Z</time></trkpt><trkpt lat="44.90950560197041" lon="9.055458332641031"><ele>288.8</ele><time>2026-05-01T14:38:16Z</time></trkpt><trkpt lat="44.90950543481227" lon="9.055592208984722"><ele>292.40000000000003</ele><time>2026-05-01T14:38:18Z</time></trkpt><trkpt lat="44.909382712279196" lon="9.055690240627685"><ele>296.0</ele><time>2026-05-01T14:38:20Z</time></trkpt><trkpt lat="44.90930224393398" lon="9.055738396012032"><ele>297.5</ele><time>2026-05-01T14:38:21Z</time></trkpt><trkpt lat="44.90922026074101" lon="9.055779275367538"><ele>299.0</ele><time>2026-05-01T14:38:22Z</time></trkpt><trkpt lat="44.909151485487754" lon="9.05581735741873"><ele>300.5</ele><time>2026-05-01T14:38:23Z</time></trkpt><trkpt lat="44.9090972964154" lon="9.055876364606375"><ele>302.0</ele><time>2026-05-01T14:38:24Z</time></trkpt><trkpt lat="44.90905694466282" lon="9.055953426064349"><ele>303.5</ele><time>2026-05-01T14:38:25Z</time></trkpt><trkpt lat="44.90894510699076" lon="9.055993966343486"><ele>305.0</ele><time>2026-05-01T14:38:27Z</time></trkpt><trkpt lat="44.90888494722058" lon="9.055963915007808"><ele>305.0</ele><time>2026-05-01T14:38:28Z</time></trkpt><trkpt lat="44.90878169498762" lon="9.055900128910581"><ele>305.0</ele><time>2026-05-01T14:38:30Z</time></trkpt><trkpt lat="44.90871345137056" lon="9.055953013903585"><ele>305.0</ele><time>2026-05-01T14:38:32Z</time></trkpt><trkpt lat="44.90866038747308" lon="9.056061467181447"><ele>305.0</ele><time>2026-05-01T14:38:34Z</time></trkpt><trkpt lat="44.90856275793086" lon="9.056127803128682"><ele>305.0</ele><time>2026-05-01T14:38:36Z</time></trkpt><trkpt lat="44.908497514162505" lon="9.056126841622838"><ele>305.0</ele><time>2026-05-01T14:38:37Z</time></trkpt><trkpt lat="44.90842780430285" lon="9.056160391598668"><ele>305.0</ele><time>2026-05-01T14:38:38Z</time></trkpt><trkpt lat="44.90836510723137" lon="9.056221302505465"><ele>305.0</ele><time>2026-05-01T14:38:39Z</time></trkpt><trkpt lat="44.90830024159663" lon="9.056299237393205"><ele>305.0</ele><time>2026-05-01T14:38:40Z</time></trkpt><trkpt lat="44.908221208252975" lon="9.056380888644387"><ele>305.0</ele><time>2026-05-01T14:38:41Z</time></trkpt><trkpt lat="44.90813617413281" lon="9.056459235158052"><ele>305.0</ele><time>2026-05-01T14:38:42Z</time></trkpt><trkpt lat="44.90805483784361" lon="9.056511797412666"><ele>305.5714285714286</ele><time>2026-05-01T14:38:43Z</time></trkpt><trkpt lat="44.90800354408785" lon="9.056574215604297"><ele>306.1428571428571</ele><time>2026-05-01T14:38:44Z</time></trkpt><trkpt lat="44.9079572784866" lon="9.056646842663088"><ele>306.7142857142857</ele><time>2026-05-01T14:38:45Z</time></trkpt><trkpt lat="44.90793154297875" lon="9.05673545488016"><ele>307.28571428571433</ele><time>2026-05-01T14:38:46Z</time></trkpt><trkpt lat="44.90790589725732" lon="9.056818080156608"><ele>307.8571428571429</ele><time>2026-05-01T14:38:47Z</time></trkpt><trkpt lat="44.90787466967654" lon="9.056924633005732"><ele>308.42857142857144</ele><time>2026-05-01T14:38:52.999Z</time></trkpt><trkpt lat="44.9078603368529" lon="9.057032022356545"><ele>309.0</ele><time>2026-05-01T14:38:54.999Z</time></trkpt><trkpt lat="44.907859011092484" lon="9.057132187094613"><ele>309.0</ele><time>2026-05-01T14:38:55.999Z</time></trkpt><trkpt lat="44.90784599683336" lon="9.057253421389486"><ele>309.0</ele><time>2026-05-01T14:38:56.999Z</time></trkpt><trkpt lat="44.907834870136384" lon="9.05738057291815"><ele>309.0</ele><time>2026-05-01T14:38:57.999Z</time></trkpt><trkpt lat="44.90782345790296" lon="9.057491336310465"><ele>309.0</ele><time>2026-05-01T14:38:58.999Z</time></trkpt><trkpt lat="44.90781091703708" lon="9.057595073788438"><ele>309.0</ele><time>2026-05-01T14:38:59.999Z</time></trkpt><trkpt lat="44.90779917291154" lon="9.057694511647199"><ele>309.0</ele><time>2026-05-01T14:39:00.999Z</time></trkpt><trkpt lat="44.90778431412044" lon="9.05779624307303"><ele>310.0</ele><time>2026-05-01T14:39:01.999Z</time></trkpt><trkpt lat="44.90777096642338" lon="9.0579526432017"><ele>311.0</ele><time>2026-05-01T14:39:03.999Z</time></trkpt><trkpt lat="44.90778670320093" lon="9.058107213019419"><ele>312.0</ele><time>2026-05-01T14:39:05.999Z</time></trkpt><trkpt lat="44.90784783139652" lon="9.058240643013857"><ele>313.0</ele><time>2026-05-01T14:39:07.999Z</time></trkpt><trkpt lat="44.90790319953881" lon="9.058306651858743"><ele>314.0</ele><time>2026-05-01T14:39:08.999Z</time></trkpt><trkpt lat="44.90796859325402" lon="9.058402657542828"><ele>314.0</ele><time>2026-05-01T14:39:09.999Z</time></trkpt><trkpt lat="44.90801065359093" lon="9.05849388696474"><ele>314.0</ele><time>2026-05-01T14:39:10.999Z</time></trkpt><trkpt lat="44.90803121395297" lon="9.058580562630699"><ele>314.0</ele><time>2026-05-01T14:39:11.999Z</time></trkpt><trkpt lat="44.908127559122285" lon="9.058695406093022"><ele>314.0</ele><time>2026-05-01T14:39:13.999Z</time></trkpt><trkpt lat="44.9082694483953" lon="9.058764293062843"><ele>314.0</ele><time>2026-05-01T14:39:15.999Z</time></trkpt><trkpt lat="44.908344328255474" lon="9.058803290464727"><ele>321.4</ele><time>2026-05-01T14:39:16.999Z</time></trkpt><trkpt lat="44.90842299960034" lon="9.058892561250937"><ele>328.79999999999995</ele><time>2026-05-01T14:39:18.999Z</time></trkpt><trkpt lat="44.908522627614026" lon="9.058969865913856"><ele>336.20000000000005</ele><time>2026-05-01T14:39:19.999Z</time></trkpt><trkpt lat="44.90858228440096" lon="9.059072001038054"><ele>343.6</ele><time>2026-05-01T14:39:21.999Z</time></trkpt><trkpt lat="44.90858331126793" lon="9.059224296736787"><ele>351.0</ele><time>2026-05-01T14:39:23.999Z</time></trkpt><trkpt lat="44.90854081698001" lon="9.059327638898969"><ele>351.4</ele><time>2026-05-01T14:39:24.998Z</time></trkpt><trkpt lat="44.90850323885592" lon="9.059455830460715"><ele>351.8</ele><time>2026-05-01T14:39:25.998Z</time></trkpt><trkpt lat="44.908496813352286" lon="9.059589897070664"><ele>352.2</ele><time>2026-05-01T14:39:26.998Z</time></trkpt><trkpt lat="44.908513017729945" lon="9.059687688502407"><ele>352.59999999999997</ele><time>2026-05-01T14:39:27.998Z</time></trkpt><trkpt lat="44.908511904638104" lon="9.05983942431323"><ele>353.0</ele><time>2026-05-01T14:39:29.998Z</time></trkpt><trkpt lat="44.908411048152594" lon="9.0599147529339"><ele>349.33333333333337</ele><time>2026-05-01T14:39:31.998Z</time></trkpt><trkpt lat="44.90834663696266" lon="9.059870690821205"><ele>345.6666666666667</ele><time>2026-05-01T14:39:33.998Z</time></trkpt><trkpt lat="44.90828542828284" lon="9.05990417447738"><ele>342.0</ele><time>2026-05-01T14:39:48.998Z</time></trkpt><trkpt lat="44.90821480649208" lon="9.05997413593064"><ele>338.3333333333333</ele><time>2026-05-01T14:39:50.998Z</time></trkpt><trkpt lat="44.90815279054663" lon="9.060021043113318"><ele>334.66666666666663</ele><time>2026-05-01T14:39:51.998Z</time></trkpt><trkpt lat="44.90807993965763" lon="9.06007330742915"><ele>331.0</ele><time>2026-05-01T14:39:52.998Z</time></trkpt><trkpt lat="44.90800370818985" lon="9.060174250409483"><ele>331.0</ele><time>2026-05-01T14:39:54.998Z</time></trkpt><trkpt lat="44.90795018982236" lon="9.060261216109385"><ele>331.0</ele><time>2026-05-01T14:39:56.998Z</time></trkpt><trkpt lat="44.90790877679757" lon="9.060341006731655"><ele>331.0</ele><time>2026-05-01T14:39:57.998Z</time></trkpt><trkpt lat="44.907852347971605" lon="9.06048267409412"><ele>331.0</ele><time>2026-05-01T14:39:59.998Z</time></trkpt><trkpt lat="44.90779916017898" lon="9.060563262777261"><ele>331.0</ele><time>2026-05-01T14:40:00.998Z</time></trkpt><trkpt lat="44.907740091546465" lon="9.06063683180039"><ele>331.0</ele><time>2026-05-01T14:40:01.997Z</time></trkpt><trkpt lat="44.907688635659035" lon="9.06070619050326"><ele>332.16666666666663</ele><time>2026-05-01T14:40:02.997Z</time></trkpt><trkpt lat="44.90763932738636" lon="9.060807595617796"><ele>333.3333333333333</ele><time>2026-05-01T14:40:04.997Z</time></trkpt><trkpt lat="44.90760463097042" lon="9.060907252163314"><ele>334.5</ele><time>2026-05-01T14:40:05.997Z</time></trkpt><trkpt lat="44.90760022207168" lon="9.06099652448145"><ele>335.6666666666667</ele><time>2026-05-01T14:40:06.997Z</time></trkpt><trkpt lat="44.90758231743915" lon="9.06110038337021"><ele>336.83333333333337</ele><time>2026-05-01T14:40:07.997Z</time></trkpt><trkpt lat="44.907574379310226" lon="9.06120251842706"><ele>338.0</ele><time>2026-05-01T14:40:08.997Z</time></trkpt><trkpt lat="44.90756501348315" lon="9.061306091006417"><ele>338.0</ele><time>2026-05-01T14:40:09.997Z</time></trkpt><trkpt lat="44.90755865300326" lon="9.061424122809528"><ele>338.0</ele><time>2026-05-01T14:40:10.997Z</time></trkpt><trkpt lat="44.90755980477148" lon="9.061518720833076"><ele>338.0</ele><time>2026-05-01T14:40:11.997Z</time></trkpt><trkpt lat="44.907500712838406" lon="9.061649222422146"><ele>338.0</ele><time>2026-05-01T14:40:14Z</time></trkpt><trkpt lat="44.90741058351156" lon="9.061658157981642"><ele>338.0</ele><time>2026-05-01T14:40:16Z</time></trkpt><trkpt lat="44.90730593157298" lon="9.061651431581481"><ele>338.0</ele><time>2026-05-01T14:40:18Z</time></trkpt><trkpt lat="44.90719027154609" lon="9.061616103054575"><ele>338.0</ele><time>2026-05-01T14:40:20Z</time></trkpt><trkpt lat="44.90712516223945" lon="9.061612767947176"><ele>338.0</ele><time>2026-05-01T14:40:21Z</time></trkpt><trkpt lat="44.90705036098258" lon="9.061604068488277"><ele>338.0</ele><time>2026-05-01T14:40:22Z</time></trkpt><trkpt lat="44.906972876144806" lon="9.061578753998269"><ele>338.0</ele><time>2026-05-01T14:40:23Z</time></trkpt><trkpt lat="44.90689779005094" lon="9.061579072468085"><ele>338.0</ele><time>2026-05-01T14:40:24Z</time></trkpt><trkpt lat="44.90682862682869" lon="9.061565302745654"><ele>336.4</ele><time>2026-05-01T14:40:25Z</time></trkpt><trkpt lat="44.9067367137044" lon="9.061538300762875"><ele>334.79999999999995</ele><time>2026-05-01T14:40:27Z</time></trkpt><trkpt lat="44.90663364091181" lon="9.061549519875465"><ele>333.2</ele><time>2026-05-01T14:40:29Z</time></trkpt><trkpt lat="44.90656131159289" lon="9.061560120744993"><ele>331.6</ele><time>2026-05-01T14:40:30Z</time></trkpt><trkpt lat="44.90645079819635" lon="9.061628017900073"><ele>330.0</ele><time>2026-05-01T14:40:32Z</time></trkpt><trkpt lat="44.906362164542024" lon="9.061740715575237"><ele>332.5714285714286</ele><time>2026-05-01T14:40:34Z</time></trkpt><trkpt lat="44.90630782892135" lon="9.061810740356053"><ele>335.14285714285717</ele><time>2026-05-01T14:40:35Z</time></trkpt><trkpt lat="44.90624454725122" lon="9.061873755650746"><ele>337.7142857142857</ele><time>2026-05-01T14:40:36Z</time></trkpt><trkpt lat="44.9061926025735" lon="9.061928018073278"><ele>340.28571428571433</ele><time>2026-05-01T14:40:37Z</time></trkpt><trkpt lat="44.906111430919026" lon="9.061923984449932"><ele>342.8571428571429</ele><time>2026-05-01T14:40:40Z</time></trkpt><trkpt lat="44.9060424587862" lon="9.061903189369243"><ele>345.42857142857144</ele><time>2026-05-01T14:40:42Z</time></trkpt><trkpt lat="44.90596744026413" lon="9.06191233456806"><ele>348.0</ele><time>2026-05-01T14:40:43Z</time></trkpt><trkpt lat="44.905889874029754" lon="9.061908343038526"><ele>348.1666666666667</ele><time>2026-05-01T14:40:44Z</time></trkpt><trkpt lat="44.90578227473051" lon="9.061884734669553"><ele>348.3333333333333</ele><time>2026-05-01T14:40:46Z</time></trkpt><trkpt lat="44.90571436122242" lon="9.061812259558614"><ele>348.5</ele><time>2026-05-01T14:40:48Z</time></trkpt><trkpt lat="44.90565746849659" lon="9.061735567138639"><ele>348.66666666666663</ele><time>2026-05-01T14:40:50Z</time></trkpt><trkpt lat="44.90560977082863" lon="9.061674295411198"><ele>348.8333333333333</ele><time>2026-05-01T14:40:52Z</time></trkpt><trkpt lat="44.90556514540387" lon="9.061596082143552"><ele>349.0</ele><time>2026-05-01T14:41:54.998Z</time></trkpt><trkpt lat="44.9054671297971" lon="9.061636991714384"><ele>349.5</ele><time>2026-05-01T14:41:56.998Z</time></trkpt><trkpt lat="44.905351871907506" lon="9.061583045036837"><ele>350.0</ele><time>2026-05-01T14:41:58.998Z</time></trkpt><trkpt lat="44.90528379150903" lon="9.06152814748718"><ele>350.5</ele><time>2026-05-01T14:41:59.998Z</time></trkpt><trkpt lat="44.90521491378562" lon="9.06147205121569"><ele>351.0</ele><time>2026-05-01T14:42:00.998Z</time></trkpt><trkpt lat="44.90515121904006" lon="9.06141879089932"><ele>351.5</ele><time>2026-05-01T14:42:01.998Z</time></trkpt><trkpt lat="44.90509000670051" lon="9.061365637663833"><ele>352.0</ele><time>2026-05-01T14:42:02.998Z</time></trkpt><trkpt lat="44.905030391036505" lon="9.06131379015081"><ele>352.0</ele><time>2026-05-01T14:42:03.998Z</time></trkpt><trkpt lat="44.90492984834912" lon="9.061254182933771"><ele>352.0</ele><time>2026-05-01T14:42:05.998Z</time></trkpt><trkpt lat="44.90485447094147" lon="9.061298191378906"><ele>352.0</ele><time>2026-05-01T14:42:07.997Z</time></trkpt><trkpt lat="44.904778028329815" lon="9.061434451205997"><ele>352.0</ele><time>2026-05-01T14:42:09.997Z</time></trkpt><trkpt lat="44.90471261995099" lon="9.061559574885662"><ele>352.0</ele><time>2026-05-01T14:42:11.997Z</time></trkpt><trkpt lat="44.90459808133972" lon="9.061535339338128"><ele>352.0</ele><time>2026-05-01T14:42:13.997Z</time></trkpt><trkpt lat="44.9045364747544" lon="9.061466151221563"><ele>352.0</ele><time>2026-05-01T14:42:14.997Z</time></trkpt><trkpt lat="44.904466177123126" lon="9.061398752852888"><ele>352.0</ele><time>2026-05-01T14:42:15.997Z</time></trkpt><trkpt lat="44.90438294333916" lon="9.061346085775881"><ele>352.0</ele><time>2026-05-01T14:42:16.997Z</time></trkpt><trkpt lat="44.90431102609074" lon="9.061319237225232"><ele>352.0</ele><time>2026-05-01T14:42:18Z</time></trkpt><trkpt lat="44.9042330223405" lon="9.061291479627572"><ele>352.0</ele><time>2026-05-01T14:42:19Z</time></trkpt><trkpt lat="44.90415612840117" lon="9.061256701517808"><ele>352.8333333333333</ele><time>2026-05-01T14:42:20Z</time></trkpt><trkpt lat="44.904090106574394" lon="9.061241590637652"><ele>353.66666666666663</ele><time>2026-05-01T14:42:21Z</time></trkpt><trkpt lat="44.90398028003609" lon="9.061246844370919"><ele>354.5</ele><time>2026-05-01T14:42:23Z</time></trkpt><trkpt lat="44.90395280122188" lon="9.061346619838893"><ele>355.3333333333333</ele><time>2026-05-01T14:42:25Z</time></trkpt><trkpt lat="44.904025378736826" lon="9.06146484598592"><ele>356.1666666666667</ele><time>2026-05-01T14:42:27Z</time></trkpt><trkpt lat="44.9040894170368" lon="9.061520992368731"><ele>357.0</ele><time>2026-05-01T14:42:28Z</time></trkpt><trkpt lat="44.904148196902426" lon="9.061587151465966"><ele>358.0</ele><time>2026-05-01T14:42:29Z</time></trkpt><trkpt lat="44.90420995275158" lon="9.061671852848198"><ele>359.0</ele><time>2026-05-01T14:42:30Z</time></trkpt><trkpt lat="44.90427385660168" lon="9.061763473215494"><ele>360.0</ele><time>2026-05-01T14:42:31Z</time></trkpt><trkpt lat="44.90434863951477" lon="9.061849104468454"><ele>361.0</ele><time>2026-05-01T14:42:32Z</time></trkpt><trkpt lat="44.90440756419226" lon="9.061949526793844"><ele>362.0</ele><time>2026-05-01T14:42:33Z</time></trkpt><trkpt lat="44.90448289972752" lon="9.062035404689633"><ele>362.0</ele><time>2026-05-01T14:42:34Z</time></trkpt><trkpt lat="44.90457083989953" lon="9.062133317486083"><ele>362.0</ele><time>2026-05-01T14:42:35Z</time></trkpt><trkpt lat="44.90465096791341" lon="9.06221905567419"><ele>362.0</ele><time>2026-05-01T14:42:36Z</time></trkpt><trkpt lat="44.904733184565494" lon="9.062296110838455"><ele>362.0</ele><time>2026-05-01T14:42:37Z</time></trkpt><trkpt lat="44.90481540788362" lon="9.062372435287998"><ele>362.0</ele><time>2026-05-01T14:42:38Z</time></trkpt><trkpt lat="44.90490225757593" lon="9.062461294942912"><ele>364.40000000000003</ele><time>2026-05-01T14:42:39Z</time></trkpt><trkpt lat="44.904958721357275" lon="9.062541386505211"><ele>366.8</ele><time>2026-05-01T14:42:40Z</time></trkpt><trkpt lat="44.90501642804335" lon="9.062657187411036"><ele>369.2</ele><time>2026-05-01T14:42:41Z</time></trkpt><trkpt lat="44.905074100373845" lon="9.062754751048685"><ele>371.6</ele><time>2026-05-01T14:42:42Z</time></trkpt><trkpt lat="44.905123812413834" lon="9.062871126422403"><ele>374.0</ele><time>2026-05-01T14:42:43Z</time></trkpt><trkpt lat="44.905190437684745" lon="9.06295663892118"><ele>374.0</ele><time>2026-05-01T14:42:44Z</time></trkpt><trkpt lat="44.905268820385515" lon="9.062993890019474"><ele>374.0</ele><time>2026-05-01T14:42:45Z</time></trkpt><trkpt lat="44.9053518431958" lon="9.063009010602583"><ele>374.0</ele><time>2026-05-01T14:42:46Z</time></trkpt><trkpt lat="44.90543129439963" lon="9.063104777499719"><ele>374.0</ele><time>2026-05-01T14:42:48Z</time></trkpt><trkpt lat="44.90539254599963" lon="9.063217509475974"><ele>374.0</ele><time>2026-05-01T14:42:50Z</time></trkpt><trkpt lat="44.905295018200874" lon="9.0632034527461"><ele>374.0</ele><time>2026-05-01T14:42:51Z</time></trkpt><trkpt lat="44.905219350649446" lon="9.06319875117593"><ele>374.0</ele><time>2026-05-01T14:42:52Z</time></trkpt><trkpt lat="44.905136430965634" lon="9.063147336946708"><ele>374.0</ele><time>2026-05-01T14:42:53Z</time></trkpt><trkpt lat="44.90505082730698" lon="9.063080662167224"><ele>374.0</ele><time>2026-05-01T14:42:54Z</time></trkpt><trkpt lat="44.904966961177784" lon="9.063007822713619"><ele>374.0</ele><time>2026-05-01T14:42:55Z</time></trkpt><trkpt lat="44.90487960362939" lon="9.062925249219335"><ele>376.6</ele><time>2026-05-01T14:42:56Z</time></trkpt><trkpt lat="44.9047954355556" lon="9.062833623561977"><ele>379.2</ele><time>2026-05-01T14:42:57Z</time></trkpt><trkpt lat="44.90471479207187" lon="9.062733966004238"><ele>381.8</ele><time>2026-05-01T14:42:58Z</time></trkpt><trkpt lat="44.904634806545" lon="9.062654576099307"><ele>384.40000000000003</ele><time>2026-05-01T14:42:58.999Z</time></trkpt><trkpt lat="44.904545088292004" lon="9.062615536261466"><ele>387.0</ele><time>2026-05-01T14:42:59.999Z</time></trkpt><trkpt lat="44.904451581232784" lon="9.062602538790639"><ele>387.0</ele><time>2026-05-01T14:43:00.999Z</time></trkpt><trkpt lat="44.90436147776071" lon="9.062563710834198"><ele>387.0</ele><time>2026-05-01T14:43:01.999Z</time></trkpt><trkpt lat="44.90428326654648" lon="9.062530036202867"><ele>387.0</ele><time>2026-05-01T14:43:02.999Z</time></trkpt><trkpt lat="44.90421088346518" lon="9.062470394996696"><ele>387.0</ele><time>2026-05-01T14:43:03.999Z</time></trkpt><trkpt lat="44.90414604543981" lon="9.06242800180234"><ele>387.0</ele><time>2026-05-01T14:43:04.999Z</time></trkpt><trkpt lat="44.90407700815402" lon="9.062421152802461"><ele>387.0</ele><time>2026-05-01T14:43:05.999Z</time></trkpt><trkpt lat="44.903989060331064" lon="9.062452953248364"><ele>387.0</ele><time>2026-05-01T14:43:07.999Z</time></trkpt><trkpt lat="44.9039831717308" lon="9.062549430732327"><ele>387.0</ele><time>2026-05-01T14:43:08.999Z</time></trkpt><trkpt lat="44.90408849643386" lon="9.062683994108491"><ele>387.0</ele><time>2026-05-01T14:43:10.999Z</time></trkpt><trkpt lat="44.90416449415886" lon="9.062733148771368"><ele>387.0</ele><time>2026-05-01T14:43:11.999Z</time></trkpt><trkpt lat="44.90424140364125" lon="9.06279482526086"><ele>387.0</ele><time>2026-05-01T14:43:12.999Z</time></trkpt><trkpt lat="44.904312840632855" lon="9.06287143218194"><ele>387.0</ele><time>2026-05-01T14:43:13.999Z</time></trkpt><trkpt lat="44.90436664181294" lon="9.062969202272987"><ele>387.0</ele><time>2026-05-01T14:43:14.999Z</time></trkpt><trkpt lat="44.90444217732263" lon="9.063044126567895"><ele>387.0</ele><time>2026-05-01T14:43:15.999Z</time></trkpt><trkpt lat="44.90451280520625" lon="9.063126341274879"><ele>387.0</ele><time>2026-05-01T14:43:16.999Z</time></trkpt><trkpt lat="44.90456971550275" lon="9.063233866356505"><ele>387.0</ele><time>2026-05-01T14:43:17.999Z</time></trkpt><trkpt lat="44.90464766085126" lon="9.063316330103499"><ele>393.40000000000003</ele><time>2026-05-01T14:43:18.999Z</time></trkpt><trkpt lat="44.90470349753682" lon="9.06343386723412"><ele>399.8</ele><time>2026-05-01T14:43:19.999Z</time></trkpt><trkpt lat="44.904786032154384" lon="9.063532660917526"><ele>406.2</ele><time>2026-05-01T14:43:20.999Z</time></trkpt><trkpt lat="44.90484563069297" lon="9.063634452157286"><ele>412.6</ele><time>2026-05-01T14:43:21.999Z</time></trkpt><trkpt lat="44.9049094523813" lon="9.063740006027613"><ele>419.0</ele><time>2026-05-01T14:43:22.999Z</time></trkpt><trkpt lat="44.90496679919555" lon="9.063863785307891"><ele>419.0</ele><time>2026-05-01T14:43:23.999Z</time></trkpt><trkpt lat="44.90504856675221" lon="9.063952879224631"><ele>419.0</ele><time>2026-05-01T14:43:24.999Z</time></trkpt><trkpt lat="44.905117595305654" lon="9.064060486748893"><ele>419.0</ele><time>2026-05-01T14:43:25.999Z</time></trkpt><trkpt lat="44.90518259829412" lon="9.064144039499418"><ele>419.0</ele><time>2026-05-01T14:43:26.999Z</time></trkpt><trkpt lat="44.90525549812916" lon="9.064234172271922"><ele>419.0</ele><time>2026-05-01T14:43:27.999Z</time></trkpt><trkpt lat="44.90530070311705" lon="9.064319936696688"><ele>419.79999999999995</ele><time>2026-05-01T14:43:28.999Z</time></trkpt><trkpt lat="44.90533767048363" lon="9.064417877725148"><ele>420.59999999999997</ele><time>2026-05-01T14:43:29.999Z</time></trkpt><trkpt lat="44.90534306160995" lon="9.064547426814562"><ele>421.4</ele><time>2026-05-01T14:43:30.999Z</time></trkpt><trkpt lat="44.90534392198093" lon="9.064669485550148"><ele>422.2</ele><time>2026-05-01T14:43:31.999Z</time></trkpt><trkpt lat="44.90532423441573" lon="9.064797848338168"><ele>423.0</ele><time>2026-05-01T14:43:32.999Z</time></trkpt><trkpt lat="44.905345533119714" lon="9.064967741893762"><ele>426.0</ele><time>2026-05-01T14:43:33.999Z</time></trkpt><trkpt lat="44.90538100413744" lon="9.06509233703628"><ele>429.0</ele><time>2026-05-01T14:43:34.999Z</time></trkpt><trkpt lat="44.90545808478776" lon="9.065194401362078"><ele>431.99999999999994</ele><time>2026-05-01T14:43:35.998Z</time></trkpt><trkpt lat="44.9054953732117" lon="9.065309299864156"><ele>435.0</ele><time>2026-05-01T14:43:36.998Z</time></trkpt><trkpt lat="44.90553878743043" lon="9.065441418993002"><ele>438.0</ele><time>2026-05-01T14:43:37.998Z</time></trkpt><trkpt lat="44.90557861170377" lon="9.065567929797572"><ele>438.0</ele><time>2026-05-01T14:43:38.998Z</time></trkpt><trkpt lat="44.9056066455171" lon="9.06570532281424"><ele>437.99999999999994</ele><time>2026-05-01T14:43:39.998Z</time></trkpt><trkpt lat="44.90565065257804" lon="9.065832197094043"><ele>437.99999999999994</ele><time>2026-05-01T14:43:40.998Z</time></trkpt><trkpt lat="44.90569791641533" lon="9.065954591571519"><ele>438.0</ele><time>2026-05-01T14:43:41.998Z</time></trkpt><trkpt lat="44.90574525448984" lon="9.066069777101452"><ele>438.0</ele><time>2026-05-01T14:43:42.998Z</time></trkpt><trkpt lat="44.90580536644916" lon="9.066176364569008"><ele>439.0</ele><time>2026-05-01T14:43:43.998Z</time></trkpt><trkpt lat="44.9058325363835" lon="9.06631080800772"><ele>439.99999999999994</ele><time>2026-05-01T14:43:44.998Z</time></trkpt><trkpt lat="44.905864954092245" lon="9.066440013472404"><ele>440.99999999999994</ele><time>2026-05-01T14:43:45.998Z</time></trkpt><trkpt lat="44.90592066706499" lon="9.066554230568311"><ele>442.0</ele><time>2026-05-01T14:43:46.998Z</time></trkpt><trkpt lat="44.905964666000095" lon="9.066688118998547"><ele>443.0</ele><time>2026-05-01T14:43:47.998Z</time></trkpt><trkpt lat="44.90602019201815" lon="9.06681732437792"><ele>445.0</ele><time>2026-05-01T14:43:48.998Z</time></trkpt><trkpt lat="44.90607300588686" lon="9.066939900963737"><ele>446.99999999999994</ele><time>2026-05-01T14:43:49.998Z</time></trkpt><trkpt lat="44.90612564172488" lon="9.067060684537628"><ele>448.99999999999994</ele><time>2026-05-01T14:43:50.998Z</time></trkpt><trkpt lat="44.90618187106036" lon="9.067182317159446"><ele>451.0</ele><time>2026-05-01T14:43:51.998Z</time></trkpt><trkpt lat="44.90623615232724" lon="9.067306250351777"><ele>453.0</ele><time>2026-05-01T14:43:52.998Z</time></trkpt><trkpt lat="44.90629167154403" lon="9.067425052377322"><ele>455.79999999999995</ele><time>2026-05-01T14:43:53.998Z</time></trkpt><trkpt lat="44.906362081196534" lon="9.067537887206681"><ele>458.59999999999997</ele><time>2026-05-01T14:43:54.998Z</time></trkpt><trkpt lat="44.90644419329702" lon="9.06764583666005"><ele>461.40000000000003</ele><time>2026-05-01T14:43:55.998Z</time></trkpt><trkpt lat="44.90652825752357" lon="9.067750076110181"><ele>464.20000000000005</ele><time>2026-05-01T14:43:56.998Z</time></trkpt><trkpt lat="44.90661655449448" lon="9.067848218229178"><ele>467.0</ele><time>2026-05-01T14:43:57.998Z</time></trkpt><trkpt lat="44.90671053700964" lon="9.067935482587252"><ele>468.40000000000003</ele><time>2026-05-01T14:43:58.998Z</time></trkpt><trkpt lat="44.9068068416205" lon="9.068013547071267"><ele>469.80000000000007</ele><time>2026-05-01T14:43:59.998Z</time></trkpt><trkpt lat="44.90691038338404" lon="9.068082644485852"><ele>471.2</ele><time>2026-05-01T14:44:00.998Z</time></trkpt><trkpt lat="44.90701133690582" lon="9.068149279507576"><ele>472.6</ele><time>2026-05-01T14:44:01.998Z</time></trkpt><trkpt lat="44.90710985734544" lon="9.068216257549672"><ele>474.0</ele><time>2026-05-01T14:44:02.998Z</time></trkpt><trkpt lat="44.90718928208769" lon="9.06829017298272"><ele>475.4</ele><time>2026-05-01T14:44:03.998Z</time></trkpt><trkpt lat="44.907255274185445" lon="9.068385825124038"><ele>476.79999999999995</ele><time>2026-05-01T14:44:04.998Z</time></trkpt><trkpt lat="44.90730125453085" lon="9.068498983603215"><ele>478.20000000000005</ele><time>2026-05-01T14:44:05.998Z</time></trkpt><trkpt lat="44.90732741068494" lon="9.068639624083815"><ele>479.6</ele><time>2026-05-01T14:44:06.998Z</time></trkpt><trkpt lat="44.907362526043194" lon="9.068751720196335"><ele>481.0</ele><time>2026-05-01T14:44:07.998Z</time></trkpt><trkpt lat="44.90740739579071" lon="9.068856862615243"><ele>481.00000000000006</ele><time>2026-05-01T14:44:08.998Z</time></trkpt><trkpt lat="44.907444112927394" lon="9.068950936548463"><ele>481.0</ele><time>2026-05-01T14:44:09.998Z</time></trkpt><trkpt lat="44.90747368224385" lon="9.069086654615708"><ele>481.0</ele><time>2026-05-01T14:44:10.998Z</time></trkpt><trkpt lat="44.90751130392985" lon="9.069192323196443"><ele>481.0</ele><time>2026-05-01T14:44:11.998Z</time></trkpt><trkpt lat="44.90756215406753" lon="9.069291666689212"><ele>481.00000000000006</ele><time>2026-05-01T14:44:12.997Z</time></trkpt><trkpt lat="44.90760028454428" lon="9.06939816497441"><ele>481.0</ele><time>2026-05-01T14:44:13.997Z</time></trkpt><trkpt lat="44.907647312695104" lon="9.06955634509207"><ele>482.1666666666667</ele><time>2026-05-01T14:44:15.997Z</time></trkpt><trkpt lat="44.90770581631945" lon="9.069674041106417"><ele>483.33333333333337</ele><time>2026-05-01T14:44:17.997Z</time></trkpt><trkpt lat="44.90774910420087" lon="9.069768700832437"><ele>484.5</ele><time>2026-05-01T14:44:20.997Z</time></trkpt><trkpt lat="44.90780795889422" lon="9.069880670369212"><ele>485.66666666666663</ele><time>2026-05-01T14:44:24Z</time></trkpt><trkpt lat="44.907846936031596" lon="9.069955030629618"><ele>486.8333333333333</ele><time>2026-05-01T14:44:26Z</time></trkpt><trkpt lat="44.907884863455095" lon="9.070062704961998"><ele>488.0</ele><time>2026-05-01T14:44:28Z</time></trkpt><trkpt lat="44.90790732445579" lon="9.0701569248486"><ele>487.99999999999994</ele><time>2026-05-01T14:44:30Z</time></trkpt><trkpt lat="44.90792472630774" lon="9.070251030687876"><ele>488.0</ele><time>2026-05-01T14:44:32Z</time></trkpt><trkpt lat="44.90794097027262" lon="9.070337782305131"><ele>488.0</ele><time>2026-05-01T14:44:35Z</time></trkpt><trkpt lat="44.907958552260546" lon="9.070494594733015"><ele>488.0</ele><time>2026-05-01T14:44:59Z</time></trkpt><trkpt lat="44.90794966077549" lon="9.070636936383734"><ele>487.99999999999994</ele><time>2026-05-01T14:45:01Z</time></trkpt><trkpt lat="44.90796547231538" lon="9.070771461807121"><ele>488.0</ele><time>2026-05-01T14:45:03Z</time></trkpt><trkpt lat="44.90799841595869" lon="9.070894994309324"><ele>488.0</ele><time>2026-05-01T14:45:05Z</time></trkpt><trkpt lat="44.90795500009842" lon="9.070820931814517"><ele>488.0</ele><time>2026-05-01T14:45:12.999Z</time></trkpt><trkpt lat="44.907946242833944" lon="9.070681544666956"><ele>488.0</ele><time>2026-05-01T14:45:17.999Z</time></trkpt><trkpt lat="44.907973801985214" lon="9.070793375351585"><ele>488.0</ele><time>2026-05-01T14:45:18.999Z</time></trkpt><trkpt lat="44.907721213438215" lon="9.070772355319754"><ele>488.0</ele><time>2026-05-01T14:45:19.999Z</time></trkpt><trkpt lat="44.907875679377106" lon="9.070321838341478"><ele>488.0</ele><time>2026-05-01T14:45:21.999Z</time></trkpt><trkpt lat="44.90794425398343" lon="9.070297087493493"><ele>488.0</ele><time>2026-05-01T14:45:22.999Z</time></trkpt><trkpt lat="44.90793119494472" lon="9.070152693847302"><ele>487.99999999999994</ele><time>2026-05-01T14:45:26.999Z</time></trkpt><trkpt lat="44.90790965780311" lon="9.070033926182004"><ele>488.0</ele><time>2026-05-01T14:45:28.999Z</time></trkpt><trkpt lat="44.90787226323241" lon="9.069951359192949"><ele>488.0</ele><time>2026-05-01T14:45:30.999Z</time></trkpt><trkpt lat="44.90781997841926" lon="9.069852496211318"><ele>488.0</ele><time>2026-05-01T14:45:32.999Z</time></trkpt><trkpt lat="44.9077767223588" lon="9.06976182046869"><ele>487.99999999999994</ele><time>2026-05-01T14:45:34.999Z</time></trkpt><trkpt lat="44.90773638468259" lon="9.069674077352738"><ele>488.0</ele><time>2026-05-01T14:45:37.999Z</time></trkpt><trkpt lat="44.90769373250561" lon="9.069576694425699"><ele>487.99999999999994</ele><time>2026-05-01T14:45:40.999Z</time></trkpt><trkpt lat="44.9076585936898" lon="9.069488407444645"><ele>488.0</ele><time>2026-05-01T14:45:43.999Z</time></trkpt><trkpt lat="44.907613350641306" lon="9.069368818589426"><ele>488.0</ele><time>2026-05-01T14:45:46.998Z</time></trkpt><trkpt lat="44.907577090998984" lon="9.069271724047278"><ele>488.0</ele><time>2026-05-01T14:45:48.998Z</time></trkpt><trkpt lat="44.90754100743191" lon="9.069171167230541"><ele>487.99999999999994</ele><time>2026-05-01T14:45:50.998Z</time></trkpt><trkpt lat="44.907500001565374" lon="9.069055619000247"><ele>488.0</ele><time>2026-05-01T14:45:52.998Z</time></trkpt><trkpt lat="44.90746674922413" lon="9.068958725564888"><ele>486.8333333333333</ele><time>2026-05-01T14:45:54.998Z</time></trkpt><trkpt lat="44.90743336976545" lon="9.06886172723672"><ele>485.66666666666663</ele><time>2026-05-01T14:45:56.998Z</time></trkpt><trkpt lat="44.90738824427368" lon="9.068717677036867"><ele>484.5</ele><time>2026-05-01T14:45:58.998Z</time></trkpt><trkpt lat="44.907360315156595" lon="9.068628521127385"><ele>483.33333333333337</ele><time>2026-05-01T14:45:59.998Z</time></trkpt><trkpt lat="44.907329207022784" lon="9.06853441285644"><ele>482.1666666666667</ele><time>2026-05-01T14:46:00.998Z</time></trkpt><trkpt lat="44.90729213473704" lon="9.068430899385035"><ele>481.0</ele><time>2026-05-01T14:46:01.998Z</time></trkpt><trkpt lat="44.90724346983949" lon="9.068331867632084"><ele>479.83333333333337</ele><time>2026-05-01T14:46:03.998Z</time></trkpt><trkpt lat="44.90718092280314" lon="9.068268768824293"><ele>478.6666666666667</ele><time>2026-05-01T14:46:04.998Z</time></trkpt><trkpt lat="44.90711420545526" lon="9.068201266070528"><ele>477.5</ele><time>2026-05-01T14:46:05.998Z</time></trkpt><trkpt lat="44.90703626495979" lon="9.068143571203898"><ele>476.33333333333337</ele><time>2026-05-01T14:46:06.998Z</time></trkpt><trkpt lat="44.90695770299577" lon="9.068096863130888"><ele>475.1666666666667</ele><time>2026-05-01T14:46:07.998Z</time></trkpt><trkpt lat="44.90687666629694" lon="9.068046326440857"><ele>474.0</ele><time>2026-05-01T14:46:08.998Z</time></trkpt><trkpt lat="44.90680981843744" lon="9.067975262623397"><ele>472.8333333333333</ele><time>2026-05-01T14:46:09.998Z</time></trkpt><trkpt lat="44.906742645560406" lon="9.067924980860726"><ele>471.66666666666663</ele><time>2026-05-01T14:46:10.998Z</time></trkpt><trkpt lat="44.90667807454922" lon="9.067869426937861"><ele>470.5</ele><time>2026-05-01T14:46:11.998Z</time></trkpt><trkpt lat="44.906611927930186" lon="9.067806847326663"><ele>469.3333333333333</ele><time>2026-05-01T14:46:12.998Z</time></trkpt><trkpt lat="44.90654332689596" lon="9.06773125496527"><ele>468.16666666666663</ele><time>2026-05-01T14:46:13.998Z</time></trkpt><trkpt lat="44.90647371660821" lon="9.067643174109744"><ele>467.0</ele><time>2026-05-01T14:46:14.998Z</time></trkpt><trkpt lat="44.90640891830087" lon="9.067547775369105"><ele>467.0</ele><time>2026-05-01T14:46:15.998Z</time></trkpt><trkpt lat="44.90634778153841" lon="9.067456871499829"><ele>467.00000000000006</ele><time>2026-05-01T14:46:16.998Z</time></trkpt><trkpt lat="44.90629982404946" lon="9.067375420995795"><ele>467.00000000000006</ele><time>2026-05-01T14:46:17.998Z</time></trkpt><trkpt lat="44.90624126413054" lon="9.06726340966194"><ele>467.0</ele><time>2026-05-01T14:46:18.998Z</time></trkpt><trkpt lat="44.906191524119066" lon="9.067155617113578"><ele>467.0</ele><time>2026-05-01T14:46:19.998Z</time></trkpt><trkpt lat="44.906140328158514" lon="9.067035933574102"><ele>464.20000000000005</ele><time>2026-05-01T14:46:20.998Z</time></trkpt><trkpt lat="44.90608795197265" lon="9.066911046437674"><ele>461.40000000000003</ele><time>2026-05-01T14:46:21.998Z</time></trkpt><trkpt lat="44.90603019892356" lon="9.066773338490131"><ele>458.59999999999997</ele><time>2026-05-01T14:46:22.997Z</time></trkpt><trkpt lat="44.90597263856741" lon="9.066636090094548"><ele>455.79999999999995</ele><time>2026-05-01T14:46:23.997Z</time></trkpt><trkpt lat="44.90592008773997" lon="9.066499660481226"><ele>453.0</ele><time>2026-05-01T14:46:24.997Z</time></trkpt><trkpt lat="44.905868183691545" lon="9.066377972530816"><ele>451.59999999999997</ele><time>2026-05-01T14:46:25.997Z</time></trkpt><trkpt lat="44.905848240911595" lon="9.066243658942048"><ele>450.19999999999993</ele><time>2026-05-01T14:46:26.997Z</time></trkpt><trkpt lat="44.90580767674824" lon="9.066126126716014"><ele>448.8</ele><time>2026-05-01T14:46:27.997Z</time></trkpt><trkpt lat="44.90574457743306" lon="9.066015650361738"><ele>447.4</ele><time>2026-05-01T14:46:28.997Z</time></trkpt><trkpt lat="44.90569432315932" lon="9.065884483882199"><ele>446.0</ele><time>2026-05-01T14:46:30.001Z</time></trkpt><trkpt lat="44.90564596489426" lon="9.065754085871253"><ele>444.4</ele><time>2026-05-01T14:46:31.001Z</time></trkpt><trkpt lat="44.905599771717824" lon="9.065620946733697"><ele>442.8</ele><time>2026-05-01T14:46:32.001Z</time></trkpt><trkpt lat="44.905556914015875" lon="9.065487200479371"><ele>441.19999999999993</ele><time>2026-05-01T14:46:33.001Z</time></trkpt><trkpt lat="44.90551993120523" lon="9.065363079047636"><ele>439.59999999999997</ele><time>2026-05-01T14:46:34.001Z</time></trkpt><trkpt lat="44.9054809881708" lon="9.065237126784416"><ele>438.0</ele><time>2026-05-01T14:46:35.001Z</time></trkpt><trkpt lat="44.9054430521606" lon="9.065118074290233"><ele>438.0</ele><time>2026-05-01T14:46:36.001Z</time></trkpt><trkpt lat="44.90540634296428" lon="9.065000486045536"><ele>437.99999999999994</ele><time>2026-05-01T14:46:37.001Z</time></trkpt><trkpt lat="44.905386563843976" lon="9.064877108312176"><ele>437.99999999999994</ele><time>2026-05-01T14:46:38.001Z</time></trkpt><trkpt lat="44.905375372443714" lon="9.064752687014575"><ele>438.0</ele><time>2026-05-01T14:46:39.001Z</time></trkpt><trkpt lat="44.905366851703874" lon="9.064617378637475"><ele>438.0</ele><time>2026-05-01T14:46:40.001Z</time></trkpt><trkpt lat="44.905356465073716" lon="9.064479160090523"><ele>435.0</ele><time>2026-05-01T14:46:41.001Z</time></trkpt><trkpt lat="44.905332030038956" lon="9.064349342352507"><ele>431.99999999999994</ele><time>2026-05-01T14:46:42.001Z</time></trkpt><trkpt lat="44.90528002117202" lon="9.064251793190435"><ele>429.0</ele><time>2026-05-01T14:46:43.001Z</time></trkpt><trkpt lat="44.905209844094294" lon="9.064151784570594"><ele>426.0</ele><time>2026-05-01T14:46:44.001Z</time></trkpt><trkpt lat="44.90515493618534" lon="9.06405867759261"><ele>423.0</ele><time>2026-05-01T14:46:45Z</time></trkpt><trkpt lat="44.90508660326377" lon="9.06396775010137"><ele>422.2</ele><time>2026-05-01T14:46:46Z</time></trkpt><trkpt lat="44.9050205827569" lon="9.063874954782833"><ele>421.4</ele><time>2026-05-01T14:46:47Z</time></trkpt><trkpt lat="44.90496286334952" lon="9.063787098529552"><ele>420.59999999999997</ele><time>2026-05-01T14:46:48Z</time></trkpt><trkpt lat="44.90489930109492" lon="9.063680101353825"><ele>419.79999999999995</ele><time>2026-05-01T14:46:49Z</time></trkpt><trkpt lat="44.90482863930875" lon="9.063562697450614"><ele>419.0</ele><time>2026-05-01T14:46:50Z</time></trkpt><trkpt lat="44.90474455859909" lon="9.063458998885256"><ele>419.0</ele><time>2026-05-01T14:46:51Z</time></trkpt><trkpt lat="44.90467426126265" lon="9.063338656700441"><ele>419.0</ele><time>2026-05-01T14:46:52Z</time></trkpt><trkpt lat="44.904603689569626" lon="9.063236021666137"><ele>419.0</ele><time>2026-05-01T14:46:53Z</time></trkpt><trkpt lat="44.904527432736714" lon="9.063131696830203"><ele>419.0</ele><time>2026-05-01T14:46:54Z</time></trkpt><trkpt lat="44.90445169493952" lon="9.063032990966319"><ele>419.0</ele><time>2026-05-01T14:46:55Z</time></trkpt><trkpt lat="44.90437368188073" lon="9.062941166355095"><ele>415.49999999999994</ele><time>2026-05-01T14:46:56Z</time></trkpt><trkpt lat="44.90430311136678" lon="9.062851780910085"><ele>412.0</ele><time>2026-05-01T14:46:57Z</time></trkpt><trkpt lat="44.90423200755954" lon="9.062775870749661"><ele>408.5</ele><time>2026-05-01T14:46:58Z</time></trkpt><trkpt lat="44.904162467600344" lon="9.06271362443467"><ele>405.0</ele><time>2026-05-01T14:46:59Z</time></trkpt><trkpt lat="44.90409573392321" lon="9.06266821910622"><ele>401.49999999999994</ele><time>2026-05-01T14:47:00Z</time></trkpt><trkpt lat="44.90405196662733" lon="9.06259713760686"><ele>398.0</ele><time>2026-05-01T14:47:01Z</time></trkpt><trkpt lat="44.904002593300774" lon="9.062496843230269"><ele>397.99999999999994</ele><time>2026-05-01T14:47:03Z</time></trkpt><trkpt lat="44.9040924021694" lon="9.062412773736366"><ele>398.0</ele><time>2026-05-01T14:47:05Z</time></trkpt><trkpt lat="44.90415185940164" lon="9.062459051500728"><ele>398.0</ele><time>2026-05-01T14:47:06Z</time></trkpt><trkpt lat="44.904212469898695" lon="9.062511836281718"><ele>398.0</ele><time>2026-05-01T14:47:07Z</time></trkpt><trkpt lat="44.90428258186326" lon="9.062559705991882"><ele>397.99999999999994</ele><time>2026-05-01T14:47:08Z</time></trkpt><trkpt lat="44.904365553797916" lon="9.062597681166741"><ele>398.0</ele><time>2026-05-01T14:47:09Z</time></trkpt><trkpt lat="44.90446114812593" lon="9.06262380654703"><ele>395.79999999999995</ele><time>2026-05-01T14:47:10Z</time></trkpt><trkpt lat="44.9045456359505" lon="9.062640195812335"><ele>393.6</ele><time>2026-05-01T14:47:11Z</time></trkpt><trkpt lat="44.90463644831103" lon="9.062682490475478"><ele>391.4</ele><time>2026-05-01T14:47:12Z</time></trkpt><trkpt lat="44.904716919928546" lon="9.062756380897175"><ele>389.20000000000005</ele><time>2026-05-01T14:47:13Z</time></trkpt><trkpt lat="44.904786418518746" lon="9.06284152636417"><ele>387.0</ele><time>2026-05-01T14:47:14Z</time></trkpt><trkpt lat="44.90485669265766" lon="9.06292878914217"><ele>387.0</ele><time>2026-05-01T14:47:15Z</time></trkpt><trkpt lat="44.90494741590382" lon="9.063020943953452"><ele>387.0</ele><time>2026-05-01T14:47:16Z</time></trkpt><trkpt lat="44.90502311761493" lon="9.063096617907004"><ele>387.0</ele><time>2026-05-01T14:47:17Z</time></trkpt><trkpt lat="44.905105583172535" lon="9.063142682652861"><ele>387.0</ele><time>2026-05-01T14:47:17.999Z</time></trkpt><trkpt lat="44.905185957943175" lon="9.063203612131526"><ele>387.0</ele><time>2026-05-01T14:47:18.999Z</time></trkpt><trkpt lat="44.905268163389756" lon="9.06323544802788"><ele>383.75</ele><time>2026-05-01T14:47:19.999Z</time></trkpt><trkpt lat="44.90534411191375" lon="9.063231383799502"><ele>380.5</ele><time>2026-05-01T14:47:20.999Z</time></trkpt><trkpt lat="44.90544358481864" lon="9.063147759482694"><ele>377.25</ele><time>2026-05-01T14:47:22.999Z</time></trkpt><trkpt lat="44.905394808905676" lon="9.062993796130378"><ele>374.0</ele><time>2026-05-01T14:47:24.999Z</time></trkpt><trkpt lat="44.905257268424734" lon="9.062959995710616"><ele>374.0</ele><time>2026-05-01T14:47:26.999Z</time></trkpt><trkpt lat="44.905190167129575" lon="9.062924162652177"><ele>374.0</ele><time>2026-05-01T14:47:27.999Z</time></trkpt><trkpt lat="44.90511942212081" lon="9.062850838550219"><ele>374.0</ele><time>2026-05-01T14:47:28.999Z</time></trkpt><trkpt lat="44.90508546814464" lon="9.062728154938672"><ele>374.0</ele><time>2026-05-01T14:47:29.999Z</time></trkpt><trkpt lat="44.90502470771956" lon="9.062613554531172"><ele>374.0</ele><time>2026-05-01T14:47:30.999Z</time></trkpt><trkpt lat="44.90497151938456" lon="9.06250287071395"><ele>374.0</ele><time>2026-05-01T14:47:31.999Z</time></trkpt><trkpt lat="44.90489767611196" lon="9.062404459602352"><ele>371.6</ele><time>2026-05-01T14:47:32.999Z</time></trkpt><trkpt lat="44.90482228843367" lon="9.06233304564536"><ele>369.2</ele><time>2026-05-01T14:47:33.999Z</time></trkpt><trkpt lat="44.90473407215869" lon="9.062266678642773"><ele>366.8</ele><time>2026-05-01T14:47:34.999Z</time></trkpt><trkpt lat="44.90466050810525" lon="9.062192673038652"><ele>364.40000000000003</ele><time>2026-05-01T14:47:35.999Z</time></trkpt><trkpt lat="44.904594165183504" lon="9.062099550077235"><ele>362.0</ele><time>2026-05-01T14:47:36.999Z</time></trkpt><trkpt lat="44.90450788248122" lon="9.062020300678318"><ele>362.0</ele><time>2026-05-01T14:47:37.999Z</time></trkpt><trkpt lat="44.90443239486072" lon="9.061934953272546"><ele>362.0</ele><time>2026-05-01T14:47:38.999Z</time></trkpt><trkpt lat="44.90435929908593" lon="9.061842176083509"><ele>362.0</ele><time>2026-05-01T14:47:39.999Z</time></trkpt><trkpt lat="44.90428230618876" lon="9.061747857679181"><ele>362.0</ele><time>2026-05-01T14:47:40.999Z</time></trkpt><trkpt lat="44.90421275982565" lon="9.061662160056647"><ele>362.0</ele><time>2026-05-01T14:47:41.999Z</time></trkpt><trkpt lat="44.90414938134289" lon="9.061570156050562"><ele>361.1666666666667</ele><time>2026-05-01T14:47:42.999Z</time></trkpt><trkpt lat="44.904078860252255" lon="9.061487005031156"><ele>360.33333333333337</ele><time>2026-05-01T14:47:43.999Z</time></trkpt><trkpt lat="44.904022276319154" lon="9.061413129031287"><ele>359.5</ele><time>2026-05-01T14:47:44.999Z</time></trkpt><trkpt lat="44.903964391101326" lon="9.061311082353784"><ele>358.6666666666667</ele><time>2026-05-01T14:47:46.999Z</time></trkpt><trkpt lat="44.903993355782866" lon="9.061208118440517"><ele>357.8333333333333</ele><time>2026-05-01T14:47:48.999Z</time></trkpt><trkpt lat="44.90409602645505" lon="9.061238759235216"><ele>357.0</ele><time>2026-05-01T14:47:49.999Z</time></trkpt><trkpt lat="44.904160394853754" lon="9.061269277384572"><ele>357.0</ele><time>2026-05-01T14:47:50.999Z</time></trkpt><trkpt lat="44.90423763808002" lon="9.061282522575727"><ele>357.0</ele><time>2026-05-01T14:47:51.999Z</time></trkpt><trkpt lat="44.904322667847325" lon="9.061318427405176"><ele>357.0</ele><time>2026-05-01T14:47:52.999Z</time></trkpt><trkpt lat="44.90439136927856" lon="9.06135610871937"><ele>357.0</ele><time>2026-05-01T14:47:53.998Z</time></trkpt><trkpt lat="44.90446230905771" lon="9.061402944206868"><ele>357.0</ele><time>2026-05-01T14:47:54.998Z</time></trkpt><trkpt lat="44.904528495246225" lon="9.061450449983262"><ele>357.0</ele><time>2026-05-01T14:47:55.998Z</time></trkpt><trkpt lat="44.90463407147235" lon="9.061539133224818"><ele>356.0</ele><time>2026-05-01T14:47:57.998Z</time></trkpt><trkpt lat="44.904734665249904" lon="9.061577905909058"><ele>355.0</ele><time>2026-05-01T14:47:59.998Z</time></trkpt><trkpt lat="44.90480819016647" lon="9.061382394301567"><ele>354.0</ele><time>2026-05-01T14:48:01.998Z</time></trkpt><trkpt lat="44.904841704804596" lon="9.06130183435389"><ele>353.0</ele><time>2026-05-01T14:48:02.998Z</time></trkpt><trkpt lat="44.904951123704514" lon="9.061254106342334"><ele>352.0</ele><time>2026-05-01T14:48:04.998Z</time></trkpt><trkpt lat="44.905009606361105" lon="9.061295184219608"><ele>352.0</ele><time>2026-05-01T14:48:05.998Z</time></trkpt><trkpt lat="44.90506914177252" lon="9.061353701454534"><ele>352.0</ele><time>2026-05-01T14:48:06.998Z</time></trkpt><trkpt lat="44.90512257762495" lon="9.061406502726678"><ele>352.0</ele><time>2026-05-01T14:48:07.998Z</time></trkpt><trkpt lat="44.905182057307194" lon="9.061466955574543"><ele>352.0</ele><time>2026-05-01T14:48:08.998Z</time></trkpt><trkpt lat="44.90524911026021" lon="9.061524646945776"><ele>352.0</ele><time>2026-05-01T14:48:09.998Z</time></trkpt><trkpt lat="44.90531576963238" lon="9.061567697674429"><ele>352.0</ele><time>2026-05-01T14:48:10.998Z</time></trkpt><trkpt lat="44.90537202942358" lon="9.061610848403987"><ele>352.0</ele><time>2026-05-01T14:48:11.998Z</time></trkpt><trkpt lat="44.905427571062425" lon="9.06165777701001"><ele>351.40000000000003</ele><time>2026-05-01T14:48:12.998Z</time></trkpt><trkpt lat="44.90552133336228" lon="9.061683476798539"><ele>350.8</ele><time>2026-05-01T14:48:14.998Z</time></trkpt><trkpt lat="44.90559599048075" lon="9.061661618100615"><ele>350.2</ele><time>2026-05-01T14:48:16.998Z</time></trkpt><trkpt lat="44.90556271123427" lon="9.061472298418298"><ele>349.6</ele><time>2026-05-01T14:48:17.998Z</time></trkpt><trkpt lat="44.905544714857974" lon="9.061360641470905"><ele>349.0</ele><time>2026-05-01T14:48:18.998Z</time></trkpt><trkpt lat="44.9055428113864" lon="9.061235439741472"><ele>346.8333333333333</ele><time>2026-05-01T14:48:19.998Z</time></trkpt><trkpt lat="44.90555578855371" lon="9.061101547609326"><ele>344.66666666666663</ele><time>2026-05-01T14:48:20.998Z</time></trkpt><trkpt lat="44.905574143618324" lon="9.060985223026501"><ele>342.5</ele><time>2026-05-01T14:48:21.998Z</time></trkpt><trkpt lat="44.90557050681425" lon="9.060865934736265"><ele>340.3333333333333</ele><time>2026-05-01T14:48:22.998Z</time></trkpt><trkpt lat="44.905549060342686" lon="9.06076013720655"><ele>338.1666666666667</ele><time>2026-05-01T14:48:23.998Z</time></trkpt><trkpt lat="44.90550421313179" lon="9.060659057707769"><ele>336.0</ele><time>2026-05-01T14:48:24.998Z</time></trkpt><trkpt lat="44.90544867074886" lon="9.06056152451949"><ele>333.20000000000005</ele><time>2026-05-01T14:48:25.998Z</time></trkpt><trkpt lat="44.90539485588445" lon="9.060464148925684"><ele>330.40000000000003</ele><time>2026-05-01T14:48:26.998Z</time></trkpt><trkpt lat="44.90534310361602" lon="9.060356141825427"><ele>327.6</ele><time>2026-05-01T14:48:27.998Z</time></trkpt><trkpt lat="44.90530198648749" lon="9.060232310758117"><ele>324.8</ele><time>2026-05-01T14:48:28.998Z</time></trkpt><trkpt lat="44.905271200787766" lon="9.060105130831252"><ele>322.0</ele><time>2026-05-01T14:48:29.998Z</time></trkpt><trkpt lat="44.90524005613304" lon="9.059976271869347"><ele>321.0</ele><time>2026-05-01T14:48:30.997Z</time></trkpt><trkpt lat="44.90520630798023" lon="9.059847775774337"><ele>320.0</ele><time>2026-05-01T14:48:31.997Z</time></trkpt><trkpt lat="44.9051702690494" lon="9.059718391662622"><ele>319.0</ele><time>2026-05-01T14:48:32.997Z</time></trkpt><trkpt lat="44.905136611466595" lon="9.059577748112526"><ele>318.0</ele><time>2026-05-01T14:48:33.997Z</time></trkpt><trkpt lat="44.905100692270636" lon="9.059438799945616"><ele>317.0</ele><time>2026-05-01T14:48:34.997Z</time></trkpt><trkpt lat="44.90506966869873" lon="9.0593043299299"><ele>317.0</ele><time>2026-05-01T14:48:36.001Z</time></trkpt><trkpt lat="44.90503895152978" lon="9.05917422671245"><ele>317.0</ele><time>2026-05-01T14:48:37.001Z</time></trkpt><trkpt lat="44.905005333983496" lon="9.05905228105342"><ele>317.0</ele><time>2026-05-01T14:48:38.001Z</time></trkpt><trkpt lat="44.90496058347345" lon="9.058940168789889"><ele>317.0</ele><time>2026-05-01T14:48:39.001Z</time></trkpt><trkpt lat="44.904899447365835" lon="9.058836588874732"><ele>317.0</ele><time>2026-05-01T14:48:40.001Z</time></trkpt><trkpt lat="44.90482794491441" lon="9.058747091237182"><ele>313.4</ele><time>2026-05-01T14:48:41.001Z</time></trkpt><trkpt lat="44.90474652135691" lon="9.058663761893216"><ele>309.79999999999995</ele><time>2026-05-01T14:48:42.001Z</time></trkpt><trkpt lat="44.90466204102519" lon="9.058573156790617"><ele>306.2</ele><time>2026-05-01T14:48:43.001Z</time></trkpt><trkpt lat="44.90458048720095" lon="9.058482153302085"><ele>302.59999999999997</ele><time>2026-05-01T14:48:44.001Z</time></trkpt><trkpt lat="44.90450856450233" lon="9.058394611019546"><ele>299.0</ele><time>2026-05-01T14:48:45.001Z</time></trkpt><trkpt lat="44.90444258688959" lon="9.058314267088544"><ele>297.5</ele><time>2026-05-01T14:48:46.001Z</time></trkpt><trkpt lat="44.904372968162505" lon="9.058228742644566"><ele>296.0</ele><time>2026-05-01T14:48:47.001Z</time></trkpt><trkpt lat="44.904312439107194" lon="9.058173484833905"><ele>294.5</ele><time>2026-05-01T14:48:48.001Z</time></trkpt><trkpt lat="44.90423701958325" lon="9.058118877006113"><ele>293.0</ele><time>2026-05-01T14:48:49.001Z</time></trkpt><trkpt lat="44.90416310548042" lon="9.058066629928666"><ele>291.5</ele><time>2026-05-01T14:48:50.001Z</time></trkpt><trkpt lat="44.90407339437423" lon="9.058026288644172"><ele>290.0</ele><time>2026-05-01T14:48:51.001Z</time></trkpt><trkpt lat="44.9039859640319" lon="9.057988870398065"><ele>290.0</ele><time>2026-05-01T14:48:52.001Z</time></trkpt><trkpt lat="44.9039001940221" lon="9.05794804852942"><ele>290.0</ele><time>2026-05-01T14:48:53.001Z</time></trkpt><trkpt lat="44.90381259048212" lon="9.057937025701067"><ele>290.0</ele><time>2026-05-01T14:48:54Z</time></trkpt><trkpt lat="44.903725987277085" lon="9.05792697470088"><ele>290.0</ele><time>2026-05-01T14:48:55Z</time></trkpt><trkpt lat="44.90363944256276" lon="9.057916930495214"><ele>290.0</ele><time>2026-05-01T14:48:56Z</time></trkpt><trkpt lat="44.90354359173186" lon="9.05790580626259"><ele>290.0</ele><time>2026-05-01T14:48:57Z</time></trkpt><trkpt lat="44.90345209802429" lon="9.057895187669"><ele>290.14285714285717</ele><time>2026-05-01T14:48:58Z</time></trkpt><trkpt lat="44.90338064158766" lon="9.057886894612096"><ele>290.28571428571433</ele><time>2026-05-01T14:48:59Z</time></trkpt><trkpt lat="44.90331316343535" lon="9.05787789558013"><ele>290.42857142857144</ele><time>2026-05-01T14:49:00Z</time></trkpt><trkpt lat="44.90325191072472" lon="9.057856254426097"><ele>290.57142857142856</ele><time>2026-05-01T14:49:01Z</time></trkpt><trkpt lat="44.9031856871133" lon="9.057832046142696"><ele>290.71428571428567</ele><time>2026-05-01T14:49:02Z</time></trkpt><trkpt lat="44.90311750535384" lon="9.057833994676242"><ele>290.85714285714283</ele><time>2026-05-01T14:49:03Z</time></trkpt><trkpt lat="44.90304822529491" lon="9.057819993552874"><ele>291.0</ele><time>2026-05-01T14:49:04Z</time></trkpt><trkpt lat="44.90297440687539" lon="9.05782422340881"><ele>291.0</ele><time>2026-05-01T14:49:05Z</time></trkpt><trkpt lat="44.902901361976774" lon="9.057842697845045"><ele>291.0</ele><time>2026-05-01T14:49:06Z</time></trkpt><trkpt lat="44.902837381481476" lon="9.057881702248666"><ele>291.0</ele><time>2026-05-01T14:49:07Z</time></trkpt><trkpt lat="44.90277776844228" lon="9.057935702564171"><ele>291.0</ele><time>2026-05-01T14:49:08Z</time></trkpt><trkpt lat="44.9026820958115" lon="9.057994557330264"><ele>291.0</ele><time>2026-05-01T14:49:10Z</time></trkpt><trkpt lat="44.902569401623005" lon="9.05805166151825"><ele>291.0</ele><time>2026-05-01T14:49:12Z</time></trkpt><trkpt lat="44.902506916931394" lon="9.058089099362377"><ele>291.1666666666667</ele><time>2026-05-01T14:49:13Z</time></trkpt><trkpt lat="44.90242982914146" lon="9.058119442102004"><ele>291.3333333333333</ele><time>2026-05-01T14:49:14Z</time></trkpt><trkpt lat="44.90235967170318" lon="9.058168565656427"><ele>291.5</ele><time>2026-05-01T14:49:15Z</time></trkpt><trkpt lat="44.90228578013954" lon="9.058250273634329"><ele>291.66666666666663</ele><time>2026-05-01T14:49:16Z</time></trkpt><trkpt lat="44.90222185431357" lon="9.058343498120282"><ele>291.8333333333333</ele><time>2026-05-01T14:49:17Z</time></trkpt><trkpt lat="44.90216113405338" lon="9.05844347104718"><ele>292.0</ele><time>2026-05-01T14:49:18Z</time></trkpt><trkpt lat="44.90209319880941" lon="9.058542775534978"><ele>292.0</ele><time>2026-05-01T14:49:19Z</time></trkpt><trkpt lat="44.90201583048745" lon="9.058637577292073"><ele>292.0</ele><time>2026-05-01T14:49:20Z</time></trkpt><trkpt lat="44.90193832722239" lon="9.058707394568602"><ele>292.0</ele><time>2026-05-01T14:49:21Z</time></trkpt><trkpt lat="44.90185920025741" lon="9.058764603587496"><ele>292.0</ele><time>2026-05-01T14:49:22Z</time></trkpt><trkpt lat="44.901775467053646" lon="9.058822130655567"><ele>292.0</ele><time>2026-05-01T14:49:23Z</time></trkpt><trkpt lat="44.901695426074916" lon="9.058897276277596"><ele>291.8333333333333</ele><time>2026-05-01T14:49:24Z</time></trkpt><trkpt lat="44.90163472006775" lon="9.058982003325697"><ele>291.66666666666663</ele><time>2026-05-01T14:49:25Z</time></trkpt><trkpt lat="44.90158316298679" lon="9.059064024895388"><ele>291.5</ele><time>2026-05-01T14:49:26Z</time></trkpt><trkpt lat="44.901511937494455" lon="9.05913725893194"><ele>291.3333333333333</ele><time>2026-05-01T14:49:27Z</time></trkpt><trkpt lat="44.90143149354966" lon="9.059184561739475"><ele>291.1666666666667</ele><time>2026-05-01T14:49:28Z</time></trkpt><trkpt lat="44.901346896700815" lon="9.059202257406705"><ele>291.0</ele><time>2026-05-01T14:49:28.999Z</time></trkpt><trkpt lat="44.90125198162757" lon="9.059203940668782"><ele>291.0</ele><time>2026-05-01T14:49:29.999Z</time></trkpt><trkpt lat="44.90116528795098" lon="9.05919130849554"><ele>291.0</ele><time>2026-05-01T14:49:30.999Z</time></trkpt><trkpt lat="44.901090253045176" lon="9.059202261420667"><ele>291.0</ele><time>2026-05-01T14:49:31.999Z</time></trkpt><trkpt lat="44.90101209540125" lon="9.059245735334459"><ele>291.0</ele><time>2026-05-01T14:49:32.999Z</time></trkpt><trkpt lat="44.900942423180105" lon="9.059310216944443"><ele>291.0</ele><time>2026-05-01T14:49:33.999Z</time></trkpt><trkpt lat="44.90086860257411" lon="9.059392865236344"><ele>291.0</ele><time>2026-05-01T14:49:34.999Z</time></trkpt><trkpt lat="44.900797434397816" lon="9.059489598572215"><ele>286.8</ele><time>2026-05-01T14:49:35.999Z</time></trkpt><trkpt lat="44.90072594918214" lon="9.059589828723414"><ele>282.6</ele><time>2026-05-01T14:49:36.999Z</time></trkpt><trkpt lat="44.900656951861734" lon="9.059672833296089"><ele>278.4</ele><time>2026-05-01T14:49:37.999Z</time></trkpt><trkpt lat="44.90059078583382" lon="9.059748858225229"><ele>274.2</ele><time>2026-05-01T14:49:38.999Z</time></trkpt><trkpt lat="44.90051649780673" lon="9.059838698450912"><ele>270.0</ele><time>2026-05-01T14:49:39.999Z</time></trkpt><trkpt lat="44.90044736011782" lon="9.0598980470534"><ele>270.0</ele><time>2026-05-01T14:49:40.999Z</time></trkpt><trkpt lat="44.900371299860545" lon="9.0599490602656"><ele>270.0</ele><time>2026-05-01T14:49:41.999Z</time></trkpt><trkpt lat="44.90028077392348" lon="9.059976826087514"><ele>270.0</ele><time>2026-05-01T14:49:42.999Z</time></trkpt><trkpt lat="44.900198060816955" lon="9.059999398825422"><ele>270.0</ele><time>2026-05-01T14:49:43.999Z</time></trkpt><trkpt lat="44.900109764593005" lon="9.060018028492504"><ele>270.0</ele><time>2026-05-01T14:49:44.999Z</time></trkpt><trkpt lat="44.90001936450094" lon="9.060036373067804"><ele>270.0</ele><time>2026-05-01T14:49:45.999Z</time></trkpt><trkpt lat="44.89993547000593" lon="9.060059435319808"><ele>269.5</ele><time>2026-05-01T14:49:46.999Z</time></trkpt><trkpt lat="44.899851191226155" lon="9.06010781549663"><ele>269.0</ele><time>2026-05-01T14:49:47.999Z</time></trkpt><trkpt lat="44.89977084360075" lon="9.060170207584111"><ele>268.5</ele><time>2026-05-01T14:49:48.999Z</time></trkpt><trkpt lat="44.89969072618998" lon="9.060230004264078"><ele>268.0</ele><time>2026-05-01T14:49:49.999Z</time></trkpt><trkpt lat="44.899613879211955" lon="9.060250413925347"><ele>267.5</ele><time>2026-05-01T14:49:50.999Z</time></trkpt><trkpt lat="44.899542726835676" lon="9.060274948594925"><ele>267.0</ele><time>2026-05-01T14:49:51.999Z</time></trkpt><trkpt lat="44.899477489314684" lon="9.060267678238608"><ele>267.0</ele><time>2026-05-01T14:49:52.999Z</time></trkpt><trkpt lat="44.8994089708157" lon="9.060238814534623"><ele>267.0</ele><time>2026-05-01T14:49:53.999Z</time></trkpt><trkpt lat="44.89934757440084" lon="9.060187097403935"><ele>267.0</ele><time>2026-05-01T14:49:54.999Z</time></trkpt><trkpt lat="44.89928493857989" lon="9.06013060205331"><ele>267.0</ele><time>2026-05-01T14:49:55.999Z</time></trkpt><trkpt lat="44.89921475880409" lon="9.060072537626933"><ele>267.0</ele><time>2026-05-01T14:49:56.999Z</time></trkpt><trkpt lat="44.899147833505936" lon="9.060017989621668"><ele>267.0</ele><time>2026-05-01T14:49:57.999Z</time></trkpt><trkpt lat="44.899076777510615" lon="9.05996086921808"><ele>263.3333333333333</ele><time>2026-05-01T14:49:58.999Z</time></trkpt><trkpt lat="44.89900700159043" lon="9.059904777821025"><ele>259.6666666666667</ele><time>2026-05-01T14:49:59.999Z</time></trkpt><trkpt lat="44.89893681004911" lon="9.059848352312553"><ele>256.0</ele><time>2026-05-01T14:50:00.999Z</time></trkpt><trkpt lat="44.898867682251684" lon="9.059792781920834"><ele>252.33333333333334</ele><time>2026-05-01T14:50:01.999Z</time></trkpt><trkpt lat="44.89880303657886" lon="9.059740814640241"><ele>248.66666666666669</ele><time>2026-05-01T14:50:02.999Z</time></trkpt><trkpt lat="44.8987245401777" lon="9.059677713028885"><ele>245.0</ele><time>2026-05-01T14:50:03.999Z</time></trkpt><trkpt lat="44.89865721871377" lon="9.059621513384332"><ele>245.00000000000003</ele><time>2026-05-01T14:50:04.998Z</time></trkpt><trkpt lat="44.89858382774901" lon="9.059559221079065"><ele>245.0</ele><time>2026-05-01T14:50:05.998Z</time></trkpt><trkpt lat="44.89850784007563" lon="9.059492439475092"><ele>245.0</ele><time>2026-05-01T14:50:06.998Z</time></trkpt><trkpt lat="44.89843860300595" lon="9.05942955294151"><ele>245.0</ele><time>2026-05-01T14:50:07.998Z</time></trkpt><trkpt lat="44.89837428448642" lon="9.059370579803293"><ele>245.00000000000003</ele><time>2026-05-01T14:50:08.998Z</time></trkpt><trkpt lat="44.898297825545676" lon="9.059295972282252"><ele>245.0</ele><time>2026-05-01T14:50:09.998Z</time></trkpt><trkpt lat="44.89822848032809" lon="9.059229985823603"><ele>243.50000000000003</ele><time>2026-05-01T14:50:10.998Z</time></trkpt><trkpt lat="44.89814886343342" lon="9.059154471994153"><ele>242.0</ele><time>2026-05-01T14:50:11.998Z</time></trkpt><trkpt lat="44.898077719983156" lon="9.05908794135305"><ele>240.5</ele><time>2026-05-01T14:50:12.998Z</time></trkpt><trkpt lat="44.89801071383247" lon="9.059026731860556"><ele>239.0</ele><time>2026-05-01T14:50:13.998Z</time></trkpt><trkpt lat="44.897934872552675" lon="9.058957451287544"><ele>237.50000000000003</ele><time>2026-05-01T14:50:14.998Z</time></trkpt><trkpt lat="44.897866239929755" lon="9.058894755982694"><ele>236.0</ele><time>2026-05-01T14:50:15.998Z</time></trkpt><trkpt lat="44.897794658781294" lon="9.058829366854305"><ele>234.83333333333334</ele><time>2026-05-01T14:50:16.998Z</time></trkpt><trkpt lat="44.89772185218786" lon="9.05876463258706"><ele>233.66666666666669</ele><time>2026-05-01T14:50:17.998Z</time></trkpt><trkpt lat="44.89765709940724" lon="9.058707056340198"><ele>232.5</ele><time>2026-05-01T14:50:18.998Z</time></trkpt><trkpt lat="44.89758325705164" lon="9.058640726365116"><ele>231.33333333333331</ele><time>2026-05-01T14:50:19.998Z</time></trkpt><trkpt lat="44.8975211863661" lon="9.058582558763852"><ele>230.16666666666666</ele><time>2026-05-01T14:50:20.998Z</time></trkpt><trkpt lat="44.89745633672872" lon="9.058521786634335"><ele>229.0</ele><time>2026-05-01T14:50:21.998Z</time></trkpt><trkpt lat="44.89739216735763" lon="9.058461652123537"><ele>228.0</ele><time>2026-05-01T14:50:22.998Z</time></trkpt><trkpt lat="44.8973290696178" lon="9.058404285533861"><ele>227.0</ele><time>2026-05-01T14:50:23.998Z</time></trkpt><trkpt lat="44.89726594484985" lon="9.058349173508555"><ele>226.0</ele><time>2026-05-01T14:50:24.998Z</time></trkpt><trkpt lat="44.89720190203346" lon="9.058299495409006"><ele>225.0</ele><time>2026-05-01T14:50:25.998Z</time></trkpt><trkpt lat="44.89712877072202" lon="9.058250968332178"><ele>224.0</ele><time>2026-05-01T14:50:26.998Z</time></trkpt><trkpt lat="44.89706642986132" lon="9.058209554730043"><ele>223.0</ele><time>2026-05-01T14:50:27.998Z</time></trkpt><trkpt lat="44.89700517440756" lon="9.05816886210764"><ele>222.0</ele><time>2026-05-01T14:50:28.998Z</time></trkpt><trkpt lat="44.89694287496653" lon="9.058127475394233"><ele>220.66666666666666</ele><time>2026-05-01T14:50:29.998Z</time></trkpt><trkpt lat="44.89687599444647" lon="9.058076390746331"><ele>219.33333333333331</ele><time>2026-05-01T14:50:30.998Z</time></trkpt><trkpt lat="44.89682136982018" lon="9.058028300718659"><ele>218.0</ele><time>2026-05-01T14:50:31.998Z</time></trkpt><trkpt lat="44.896759797932624" lon="9.05796555223883"><ele>216.66666666666666</ele><time>2026-05-01T14:50:32.998Z</time></trkpt><trkpt lat="44.89670351015497" lon="9.057894814302466"><ele>215.33333333333331</ele><time>2026-05-01T14:50:33.998Z</time></trkpt><trkpt lat="44.89663444487545" lon="9.05774687164237"><ele>214.0</ele><time>2026-05-01T14:50:35.998Z</time></trkpt><trkpt lat="44.89659239921873" lon="9.057671805536648"><ele>212.66666666666666</ele><time>2026-05-01T14:50:36.998Z</time></trkpt><trkpt lat="44.89655243212575" lon="9.057600450516711"><ele>211.33333333333331</ele><time>2026-05-01T14:50:37.998Z</time></trkpt><trkpt lat="44.89651546887053" lon="9.057526464287326"><ele>210.0</ele><time>2026-05-01T14:50:38.998Z</time></trkpt><trkpt lat="44.896467620215965" lon="9.057464350576858"><ele>208.66666666666669</ele><time>2026-05-01T14:50:39.998Z</time></trkpt><trkpt lat="44.89640827772692" lon="9.05732091500532"><ele>207.33333333333334</ele><time>2026-05-01T14:50:42.001Z</time></trkpt><trkpt lat="44.896348038169464" lon="9.057183665473321"><ele>206.0</ele><time>2026-05-01T14:50:44.001Z</time></trkpt><trkpt lat="44.89624612208736" lon="9.057089889890761"><ele>205.0</ele><time>2026-05-01T14:50:46.001Z</time></trkpt><trkpt lat="44.896149901438406" lon="9.057017671423369"><ele>204.0</ele><time>2026-05-01T14:50:48.001Z</time></trkpt><trkpt lat="44.89605993087036" lon="9.05694504554164"><ele>203.0</ele><time>2026-05-01T14:50:50.001Z</time></trkpt><trkpt lat="44.895959431904686" lon="9.05689516478517"><ele>202.0</ele><time>2026-05-01T14:50:52.001Z</time></trkpt><trkpt lat="44.895884903084855" lon="9.056819667783959"><ele>201.0</ele><time>2026-05-01T14:50:54.001Z</time></trkpt><trkpt lat="44.895814995122194" lon="9.056789038124174"><ele>200.66666666666666</ele><time>2026-05-01T14:50:57Z</time></trkpt><trkpt lat="44.89575327307538" lon="9.056730597669596"><ele>200.33333333333331</ele><time>2026-05-01T14:51:33.998Z</time></trkpt><trkpt lat="44.89570844676829" lon="9.056844411538037"><ele>200.0</ele><time>2026-05-01T14:51:34.998Z</time></trkpt><trkpt lat="44.895693276075036" lon="9.056940538539546"><ele>199.66666666666666</ele><time>2026-05-01T14:51:35.998Z</time></trkpt><trkpt lat="44.89566832663304" lon="9.05704017930101"><ele>199.33333333333331</ele><time>2026-05-01T14:51:36.998Z</time></trkpt><trkpt lat="44.89563757606847" lon="9.0571471556478"><ele>199.0</ele><time>2026-05-01T14:51:37.998Z</time></trkpt><trkpt lat="44.89560710279319" lon="9.057257803302187"><ele>199.0</ele><time>2026-05-01T14:51:38.998Z</time></trkpt><trkpt lat="44.89557865212521" lon="9.057339490577476"><ele>199.0</ele><time>2026-05-01T14:51:39.998Z</time></trkpt><trkpt lat="44.89553908631299" lon="9.057469291681407"><ele>199.0</ele><time>2026-05-01T14:51:40.998Z</time></trkpt><trkpt lat="44.89549480388443" lon="9.057612990820815"><ele>199.0</ele><time>2026-05-01T14:51:41.998Z</time></trkpt><trkpt lat="44.89545554451665" lon="9.05773969819279"><ele>199.0</ele><time>2026-05-01T14:51:42.998Z</time></trkpt><trkpt lat="44.895419016865645" lon="9.057857589206582"><ele>199.16666666666666</ele><time>2026-05-01T14:51:43.998Z</time></trkpt><trkpt lat="44.89538235331395" lon="9.057973574967349"><ele>199.33333333333331</ele><time>2026-05-01T14:51:44.998Z</time></trkpt><trkpt lat="44.89534629074438" lon="9.058087597973893"><ele>199.5</ele><time>2026-05-01T14:51:45.998Z</time></trkpt><trkpt lat="44.89531504691155" lon="9.058186385150451"><ele>199.66666666666669</ele><time>2026-05-01T14:51:46.998Z</time></trkpt><trkpt lat="44.895280332270005" lon="9.05829614645537"><ele>199.83333333333334</ele><time>2026-05-01T14:51:47.998Z</time></trkpt><trkpt lat="44.89524538887737" lon="9.058406630975057"><ele>200.0</ele><time>2026-05-01T14:51:48.998Z</time></trkpt><trkpt lat="44.89522935979945" lon="9.058511943191908"><ele>200.00000000000003</ele><time>2026-05-01T14:51:49.998Z</time></trkpt><trkpt lat="44.89519128521483" lon="9.058606369679467"><ele>200.0</ele><time>2026-05-01T14:51:50.998Z</time></trkpt><trkpt lat="44.895160195893354" lon="9.058709036002007"><ele>200.0</ele><time>2026-05-01T14:51:51.998Z</time></trkpt><trkpt lat="44.895123800837126" lon="9.058811452667072"><ele>200.0</ele><time>2026-05-01T14:51:52.998Z</time></trkpt><trkpt lat="44.89509837551677" lon="9.058905539862122"><ele>200.0</ele><time>2026-05-01T14:51:53.998Z</time></trkpt><trkpt lat="44.8950685609151" lon="9.058994322555504"><ele>200.00000000000003</ele><time>2026-05-01T14:51:54.998Z</time></trkpt><trkpt lat="44.89504103865123" lon="9.05907679441463"><ele>200.0</ele><time>2026-05-01T14:51:55.998Z</time></trkpt><trkpt lat="44.89498546450875" lon="9.0592135673319"><ele>200.00000000000003</ele><time>2026-05-01T14:51:57.998Z</time></trkpt><trkpt lat="44.89505344690584" lon="9.05933535533939"><ele>200.0</ele><time>2026-05-01T14:51:59.998Z</time></trkpt><trkpt lat="44.89511173331925" lon="9.059391149662193"><ele>200.0</ele><time>2026-05-01T14:52:02.998Z</time></trkpt><trkpt lat="44.895065666772375" lon="9.059321324625998"><ele>200.0</ele><time>2026-05-01T14:52:07.997Z</time></trkpt><trkpt lat="44.89503109558169" lon="9.059242093829097"><ele>200.00000000000003</ele><time>2026-05-01T14:52:35.997Z</time></trkpt><trkpt lat="44.894990019847114" lon="9.059158307965564"><ele>200.0</ele><time>2026-05-01T14:52:42.997Z</time></trkpt><trkpt lat="44.895511216101035" lon="9.059297587682819"><ele>200.0</ele><time>2026-05-01T14:52:45.996Z</time></trkpt><trkpt lat="44.89544039664403" lon="9.057873736856454"><ele>200.0</ele><time>2026-05-01T14:52:54Z</time></trkpt><trkpt lat="44.89548111385125" lon="9.057740854783924"><ele>200.0</ele><time>2026-05-01T14:52:55Z</time></trkpt><trkpt lat="44.89551964909708" lon="9.057612296933629"><ele>200.0</ele><time>2026-05-01T14:52:56Z</time></trkpt><trkpt lat="44.895560991309196" lon="9.057485144019562"><ele>200.0</ele><time>2026-05-01T14:52:57Z</time></trkpt><trkpt lat="44.89560301264674" lon="9.057362247873986"><ele>200.0</ele><time>2026-05-01T14:52:58Z</time></trkpt><trkpt lat="44.89563648668522" lon="9.057247543643365"><ele>199.8</ele><time>2026-05-01T14:52:59Z</time></trkpt><trkpt lat="44.895668946999685" lon="9.057130928392988"><ele>199.6</ele><time>2026-05-01T14:53:00Z</time></trkpt><trkpt lat="44.895708095569425" lon="9.057002511111426"><ele>199.39999999999998</ele><time>2026-05-01T14:53:00.999Z</time></trkpt><trkpt lat="44.89574517165912" lon="9.056873903932836"><ele>199.2</ele><time>2026-05-01T14:53:01.999Z</time></trkpt><trkpt lat="44.89578113978441" lon="9.056759763849364"><ele>199.0</ele><time>2026-05-01T14:53:02.999Z</time></trkpt><trkpt lat="44.895818453237204" lon="9.05665210061063"><ele>198.83333333333331</ele><time>2026-05-01T14:53:03.999Z</time></trkpt><trkpt lat="44.89586268773165" lon="9.056556051526071"><ele>198.66666666666666</ele><time>2026-05-01T14:53:04.999Z</time></trkpt><trkpt lat="44.89591045985284" lon="9.056453971694948"><ele>198.5</ele><time>2026-05-01T14:53:05.999Z</time></trkpt><trkpt lat="44.895957671468885" lon="9.056366726576886"><ele>198.33333333333331</ele><time>2026-05-01T14:53:06.999Z</time></trkpt><trkpt lat="44.896014083290005" lon="9.056303831867726"><ele>198.16666666666666</ele><time>2026-05-01T14:53:07.999Z</time></trkpt><trkpt lat="44.89606972249455" lon="9.056220271575713"><ele>198.0</ele><time>2026-05-01T14:53:08.999Z</time></trkpt><trkpt lat="44.896114597808065" lon="9.056153370460182"><ele>198.0</ele><time>2026-05-01T14:53:09.999Z</time></trkpt><trkpt lat="44.896172481048744" lon="9.056069344042152"><ele>198.0</ele><time>2026-05-01T14:53:10.999Z</time></trkpt><trkpt lat="44.89622761896259" lon="9.055974960182887"><ele>198.0</ele><time>2026-05-01T14:53:11.999Z</time></trkpt><trkpt lat="44.89627763531484" lon="9.055897477755593"><ele>198.0</ele><time>2026-05-01T14:53:12.999Z</time></trkpt><trkpt lat="44.8963302866636" lon="9.055817982092854"><ele>198.0</ele><time>2026-05-01T14:53:13.999Z</time></trkpt><trkpt lat="44.89638849952653" lon="9.055735164740959"><ele>198.0</ele><time>2026-05-01T14:53:14.999Z</time></trkpt><trkpt lat="44.896453459808164" lon="9.055661640202686"><ele>197.60000000000002</ele><time>2026-05-01T14:53:15.999Z</time></trkpt><trkpt lat="44.89651634373103" lon="9.055572475235365"><ele>197.20000000000002</ele><time>2026-05-01T14:53:16.999Z</time></trkpt><trkpt lat="44.89657596740427" lon="9.055484866101832"><ele>196.8</ele><time>2026-05-01T14:53:17.999Z</time></trkpt><trkpt lat="44.8966452532418" lon="9.055392957340803"><ele>196.4</ele><time>2026-05-01T14:53:18.999Z</time></trkpt><trkpt lat="44.89671574630831" lon="9.055303210916684"><ele>196.0</ele><time>2026-05-01T14:53:19.999Z</time></trkpt><trkpt lat="44.89679182274644" lon="9.055213097353414"><ele>195.60000000000002</ele><time>2026-05-01T14:53:20.999Z</time></trkpt><trkpt lat="44.89686594023277" lon="9.055117060153997"><ele>195.2</ele><time>2026-05-01T14:53:21.999Z</time></trkpt><trkpt lat="44.896940022851595" lon="9.055021741945453"><ele>194.8</ele><time>2026-05-01T14:53:22.999Z</time></trkpt><trkpt lat="44.8970147788887" lon="9.054926926774522"><ele>194.39999999999998</ele><time>2026-05-01T14:53:23.999Z</time></trkpt><trkpt lat="44.89709370548102" lon="9.05483674903654"><ele>194.0</ele><time>2026-05-01T14:53:24.999Z</time></trkpt><trkpt lat="44.897172471543556" lon="9.054751755955797"><ele>193.79999999999998</ele><time>2026-05-01T14:53:25.999Z</time></trkpt><trkpt lat="44.897271586794446" lon="9.05467704866394"><ele>193.6</ele><time>2026-05-01T14:53:26.999Z</time></trkpt><trkpt lat="44.897368058674175" lon="9.054618812920612"><ele>193.4</ele><time>2026-05-01T14:53:27.999Z</time></trkpt><trkpt lat="44.89746458095444" lon="9.05456158558207"><ele>193.2</ele><time>2026-05-01T14:53:28.999Z</time></trkpt><trkpt lat="44.89756216246232" lon="9.054506531194264"><ele>193.0</ele><time>2026-05-01T14:53:29.999Z</time></trkpt><trkpt lat="44.897658695789396" lon="9.054451598016248"><ele>193.0</ele><time>2026-05-01T14:53:30.999Z</time></trkpt><trkpt lat="44.897753678415384" lon="9.054395242357355"><ele>193.0</ele><time>2026-05-01T14:53:31.999Z</time></trkpt><trkpt lat="44.89784852127768" lon="9.054338681799507"><ele>193.0</ele><time>2026-05-01T14:53:32.999Z</time></trkpt><trkpt lat="44.89794377297641" lon="9.054280521578324"><ele>193.0</ele><time>2026-05-01T14:53:33.999Z</time></trkpt><trkpt lat="44.89803897093318" lon="9.054225627515455"><ele>193.0</ele><time>2026-05-01T14:53:34.999Z</time></trkpt><trkpt lat="44.89813247883391" lon="9.054170798023755"><ele>192.2</ele><time>2026-05-01T14:53:35.998Z</time></trkpt><trkpt lat="44.898230445406874" lon="9.054114951062441"><ele>191.4</ele><time>2026-05-01T14:53:36.998Z</time></trkpt><trkpt lat="44.89832405298917" lon="9.054059261241795"><ele>190.6</ele><time>2026-05-01T14:53:37.998Z</time></trkpt><trkpt lat="44.898418472689755" lon="9.054001462074162"><ele>189.79999999999998</ele><time>2026-05-01T14:53:38.998Z</time></trkpt><trkpt lat="44.89851377352426" lon="9.053943266236866"><ele>189.0</ele><time>2026-05-01T14:53:39.998Z</time></trkpt><trkpt lat="44.898612359608634" lon="9.053885957854625"><ele>189.0</ele><time>2026-05-01T14:53:40.998Z</time></trkpt><trkpt lat="44.89871146626552" lon="9.05382971387822"><ele>189.0</ele><time>2026-05-01T14:53:41.998Z</time></trkpt><trkpt lat="44.898805327036015" lon="9.053767398726682"><ele>189.0</ele><time>2026-05-01T14:53:42.998Z</time></trkpt><trkpt lat="44.89889734008472" lon="9.053708725406068"><ele>189.0</ele><time>2026-05-01T14:53:43.998Z</time></trkpt><trkpt lat="44.89899210734029" lon="9.053643021245307"><ele>189.0</ele><time>2026-05-01T14:53:44.998Z</time></trkpt><trkpt lat="44.89907854739819" lon="9.05357599132652"><ele>189.0</ele><time>2026-05-01T14:53:45.998Z</time></trkpt><trkpt lat="44.899156249190185" lon="9.053502829077543"><ele>189.0</ele><time>2026-05-01T14:53:46.998Z</time></trkpt><trkpt lat="44.899231777801894" lon="9.053426973737126"><ele>189.0</ele><time>2026-05-01T14:53:47.998Z</time></trkpt><trkpt lat="44.89930119242036" lon="9.05336735908057"><ele>189.0</ele><time>2026-05-01T14:53:48.998Z</time></trkpt><trkpt lat="44.899374227361356" lon="9.053326966209152"><ele>189.0</ele><time>2026-05-01T14:53:49.998Z</time></trkpt><trkpt lat="44.89944752516754" lon="9.053307139285037"><ele>189.0</ele><time>2026-05-01T14:53:50.998Z</time></trkpt><trkpt lat="44.89952976706338" lon="9.053282601869748"><ele>188.6</ele><time>2026-05-01T14:53:51.998Z</time></trkpt><trkpt lat="44.89961921784808" lon="9.053245661949466"><ele>188.2</ele><time>2026-05-01T14:53:52.998Z</time></trkpt><trkpt lat="44.89970275098368" lon="9.053198572388977"><ele>187.79999999999998</ele><time>2026-05-01T14:53:53.998Z</time></trkpt><trkpt lat="44.899793115781" lon="9.053145762663569"><ele>187.39999999999998</ele><time>2026-05-01T14:53:54.998Z</time></trkpt><trkpt lat="44.89988841212143" lon="9.053094209703229"><ele>187.0</ele><time>2026-05-01T14:53:55.998Z</time></trkpt><trkpt lat="44.89998280658382" lon="9.053045010652784"><ele>187.0</ele><time>2026-05-01T14:53:56.998Z</time></trkpt><trkpt lat="44.90007742602577" lon="9.052997666578644"><ele>187.0</ele><time>2026-05-01T14:53:57.998Z</time></trkpt><trkpt lat="44.9001747602139" lon="9.05295027217988"><ele>187.0</ele><time>2026-05-01T14:53:58.998Z</time></trkpt><trkpt lat="44.900273095532484" lon="9.052893296445689"><ele>187.0</ele><time>2026-05-01T14:53:59.998Z</time></trkpt><trkpt lat="44.900370750303146" lon="9.05283325947114"><ele>187.0</ele><time>2026-05-01T14:54:00.998Z</time></trkpt><trkpt lat="44.900470966522235" lon="9.052774311402754"><ele>187.0</ele><time>2026-05-01T14:54:01.998Z</time></trkpt><trkpt lat="44.90057286067296" lon="9.052714410586534"><ele>187.0</ele><time>2026-05-01T14:54:02.998Z</time></trkpt><trkpt lat="44.90067675375386" lon="9.05265087341844"><ele>187.0</ele><time>2026-05-01T14:54:03.998Z</time></trkpt><trkpt lat="44.90077628618985" lon="9.052590919538043"><ele>187.0</ele><time>2026-05-01T14:54:04.998Z</time></trkpt><trkpt lat="44.90088042871383" lon="9.052528295410186"><ele>187.0</ele><time>2026-05-01T14:54:05.998Z</time></trkpt><trkpt lat="44.90098966398303" lon="9.052465406679477"><ele>187.25</ele><time>2026-05-01T14:54:06.998Z</time></trkpt><trkpt lat="44.901100199300835" lon="9.052402758100355"><ele>187.5</ele><time>2026-05-01T14:54:07.998Z</time></trkpt><trkpt lat="44.901209129030406" lon="9.052342561691576"><ele>187.75</ele><time>2026-05-01T14:54:08.998Z</time></trkpt><trkpt lat="44.90131915542173" lon="9.05227488622543"><ele>188.0</ele><time>2026-05-01T14:54:09.998Z</time></trkpt><trkpt lat="44.9014373791484" lon="9.052202697958588"><ele>188.0</ele><time>2026-05-01T14:54:10.998Z</time></trkpt><trkpt lat="44.90155830176905" lon="9.052128117485942"><ele>188.0</ele><time>2026-05-01T14:54:11.997Z</time></trkpt><trkpt lat="44.901670892943024" lon="9.052058866671096"><ele>188.0</ele><time>2026-05-01T14:54:12.997Z</time></trkpt><trkpt lat="44.90178462889217" lon="9.05199164413123"><ele>188.0</ele><time>2026-05-01T14:54:13.997Z</time></trkpt><trkpt lat="44.90189634419302" lon="9.051926670217814"><ele>188.75</ele><time>2026-05-01T14:54:14.997Z</time></trkpt><trkpt lat="44.90200882809133" lon="9.051859997226048"><ele>189.5</ele><time>2026-05-01T14:54:15.997Z</time></trkpt><trkpt lat="44.902121568217126" lon="9.051792462194504"><ele>190.25</ele><time>2026-05-01T14:54:16.997Z</time></trkpt><trkpt lat="44.90223422687379" lon="9.051724813369226"><ele>191.0</ele><time>2026-05-01T14:54:17.997Z</time></trkpt><trkpt lat="44.902347989587646" lon="9.05165280696068"><ele>190.5</ele><time>2026-05-01T14:54:18.997Z</time></trkpt><trkpt lat="44.90246363083661" lon="9.051583291411083"><ele>190.0</ele><time>2026-05-01T14:54:19.997Z</time></trkpt><trkpt lat="44.902576171109" lon="9.051514566357158"><ele>189.5</ele><time>2026-05-01T14:54:20.997Z</time></trkpt><trkpt lat="44.90269334493496" lon="9.051442385969828"><ele>189.0</ele><time>2026-05-01T14:54:21.997Z</time></trkpt><trkpt lat="44.90280180284639" lon="9.051373632806117"><ele>189.0</ele><time>2026-05-01T14:54:22.997Z</time></trkpt><trkpt lat="44.90291971065527" lon="9.051302410782741"><ele>189.0</ele><time>2026-05-01T14:54:23.997Z</time></trkpt><trkpt lat="44.90303542623808" lon="9.051235656875132"><ele>189.0</ele><time>2026-05-01T14:54:24.997Z</time></trkpt><trkpt lat="44.9031497218636" lon="9.051169346672516"><ele>189.0</ele><time>2026-05-01T14:54:25.997Z</time></trkpt><trkpt lat="44.90326438950863" lon="9.051098617078315"><ele>189.0</ele><time>2026-05-01T14:54:26.997Z</time></trkpt><trkpt lat="44.90337642060262" lon="9.051027939668122"><ele>189.0</ele><time>2026-05-01T14:54:27.997Z</time></trkpt><trkpt lat="44.90348950608444" lon="9.050958825139045"><ele>189.0</ele><time>2026-05-01T14:54:28.997Z</time></trkpt><trkpt lat="44.903602045765176" lon="9.050889508312386"><ele>189.0</ele><time>2026-05-01T14:54:29.997Z</time></trkpt><trkpt lat="44.90371397232961" lon="9.050822834728717"><ele>188.5</ele><time>2026-05-01T14:54:30.997Z</time></trkpt><trkpt lat="44.90382499896248" lon="9.050757490150096"><ele>188.0</ele><time>2026-05-01T14:54:31.997Z</time></trkpt><trkpt lat="44.9039395314806" lon="9.05068965417466"><ele>187.5</ele><time>2026-05-01T14:54:32.997Z</time></trkpt><trkpt lat="44.90405203123154" lon="9.050620005558546"><ele>187.0</ele><time>2026-05-01T14:54:33.997Z</time></trkpt><trkpt lat="44.90416215753351" lon="9.050554226815553"><ele>187.75</ele><time>2026-05-01T14:54:34.997Z</time></trkpt><trkpt lat="44.90427638734097" lon="9.050484448702301"><ele>188.5</ele><time>2026-05-01T14:54:35.997Z</time></trkpt><trkpt lat="44.90438786084756" lon="9.050418395219056"><ele>189.25</ele><time>2026-05-01T14:54:36.997Z</time></trkpt><trkpt lat="44.904496595283085" lon="9.05035337988106"><ele>190.0</ele><time>2026-05-01T14:54:37.997Z</time></trkpt><trkpt lat="44.904610644041625" lon="9.050287407056075"><ele>190.0</ele><time>2026-05-01T14:54:38.997Z</time></trkpt><trkpt lat="44.90472576988007" lon="9.050220677920583"><ele>190.0</ele><time>2026-05-01T14:54:39.997Z</time></trkpt><trkpt lat="44.904839790803486" lon="9.0501516985544"><ele>190.0</ele><time>2026-05-01T14:54:40.997Z</time></trkpt><trkpt lat="44.90495268258461" lon="9.050087073601128"><ele>190.0</ele><time>2026-05-01T14:54:41.997Z</time></trkpt><trkpt lat="44.90506484825571" lon="9.050017707428587"><ele>189.0</ele><time>2026-05-01T14:54:42.997Z</time></trkpt><trkpt lat="44.90517778662736" lon="9.049948979747182"><ele>188.0</ele><time>2026-05-01T14:54:43.997Z</time></trkpt><trkpt lat="44.90527896235272" lon="9.049887704668494"><ele>187.0</ele><time>2026-05-01T14:54:44.997Z</time></trkpt><trkpt lat="44.905381947920866" lon="9.049825111569815"><ele>186.0</ele><time>2026-05-01T14:54:45.997Z</time></trkpt><trkpt lat="44.90547813457894" lon="9.049767087375377"><ele>186.0</ele><time>2026-05-01T14:54:46.997Z</time></trkpt><trkpt lat="44.9055764520552" lon="9.049707743376992"><ele>186.0</ele><time>2026-05-01T14:54:47.996Z</time></trkpt><trkpt lat="44.905675650559814" lon="9.049652284783662"><ele>186.0</ele><time>2026-05-01T14:54:48.996Z</time></trkpt><trkpt lat="44.90577094228867" lon="9.04958948435617"><ele>186.0</ele><time>2026-05-01T14:54:49.996Z</time></trkpt><trkpt lat="44.90586507201148" lon="9.049519334958774"><ele>186.0</ele><time>2026-05-01T14:54:50.996Z</time></trkpt><trkpt lat="44.90595475289449" lon="9.04944598738833"><ele>186.0</ele><time>2026-05-01T14:54:51.996Z</time></trkpt><trkpt lat="44.906039879496696" lon="9.049366344428401"><ele>186.0</ele><time>2026-05-01T14:54:52.999Z</time></trkpt><trkpt lat="44.90612380081026" lon="9.049281914095516"><ele>186.0</ele><time>2026-05-01T14:54:53.999Z</time></trkpt><trkpt lat="44.90620807865002" lon="9.04919456970308"><ele>186.0</ele><time>2026-05-01T14:54:54.999Z</time></trkpt><trkpt lat="44.90630026508287" lon="9.049105888185249"><ele>186.0</ele><time>2026-05-01T14:54:55.999Z</time></trkpt><trkpt lat="44.906391747854435" lon="9.049018766020636"><ele>186.0</ele><time>2026-05-01T14:54:56.999Z</time></trkpt><trkpt lat="44.90648343851544" lon="9.048926898444524"><ele>186.0</ele><time>2026-05-01T14:54:57.999Z</time></trkpt><trkpt lat="44.90657457100654" lon="9.048839963444346"><ele>186.0</ele><time>2026-05-01T14:54:58.999Z</time></trkpt><trkpt lat="44.90667230236384" lon="9.04875082628339"><ele>186.0</ele><time>2026-05-01T14:54:59.999Z</time></trkpt><trkpt lat="44.90676754747965" lon="9.048660254503021"><ele>186.75</ele><time>2026-05-01T14:55:00.999Z</time></trkpt><trkpt lat="44.90686251026684" lon="9.048568056163614"><ele>187.5</ele><time>2026-05-01T14:55:01.999Z</time></trkpt><trkpt lat="44.9069525267242" lon="9.048477262525495"><ele>188.25</ele><time>2026-05-01T14:55:02.999Z</time></trkpt><trkpt lat="44.90704063563675" lon="9.048379147513122"><ele>189.0</ele><time>2026-05-01T14:55:03.999Z</time></trkpt><trkpt lat="44.90713087746581" lon="9.048285643831907"><ele>189.0</ele><time>2026-05-01T14:55:04.999Z</time></trkpt><trkpt lat="44.90722376160633" lon="9.048200914979214"><ele>189.0</ele><time>2026-05-01T14:55:05.999Z</time></trkpt><trkpt lat="44.9073211023542" lon="9.048112011136084"><ele>189.0</ele><time>2026-05-01T14:55:06.999Z</time></trkpt><trkpt lat="44.90742319633664" lon="9.048023523474244"><ele>189.0</ele><time>2026-05-01T14:55:07.999Z</time></trkpt><trkpt lat="44.90752681074738" lon="9.04792349964676"><ele>189.75</ele><time>2026-05-01T14:55:08.999Z</time></trkpt><trkpt lat="44.90763060461231" lon="9.047819195528335"><ele>190.5</ele><time>2026-05-01T14:55:09.999Z</time></trkpt><trkpt lat="44.90773540519491" lon="9.04772215651598"><ele>191.25</ele><time>2026-05-01T14:55:10.999Z</time></trkpt><trkpt lat="44.90783734750929" lon="9.047631467888639"><ele>192.0</ele><time>2026-05-01T14:55:11.999Z</time></trkpt><trkpt lat="44.907935612434585" lon="9.047545573695476"><ele>192.0</ele><time>2026-05-01T14:55:12.999Z</time></trkpt><trkpt lat="44.90803227500757" lon="9.047465132743897"><ele>192.0</ele><time>2026-05-01T14:55:13.999Z</time></trkpt><trkpt lat="44.9081721910982" lon="9.04728199131282"><ele>192.0</ele><time>2026-05-01T14:55:14.999Z</time></trkpt><trkpt lat="44.90828442904364" lon="9.047170373381245"><ele>192.0</ele><time>2026-05-01T14:55:15.999Z</time></trkpt><trkpt lat="44.90839424271642" lon="9.047058578662758"><ele>191.5</ele><time>2026-05-01T14:55:16.999Z</time></trkpt><trkpt lat="44.90850478749316" lon="9.046946895674205"><ele>191.0</ele><time>2026-05-01T14:55:17.999Z</time></trkpt><trkpt lat="44.90862227583563" lon="9.04683082598248"><ele>190.5</ele><time>2026-05-01T14:55:18.999Z</time></trkpt><trkpt lat="44.908742475768" lon="9.046712448568838"><ele>190.0</ele><time>2026-05-01T14:55:19.999Z</time></trkpt><trkpt lat="44.908865801887146" lon="9.04659227178097"><ele>190.0</ele><time>2026-05-01T14:55:20.999Z</time></trkpt><trkpt lat="44.908990180258954" lon="9.04647331918737"><ele>190.0</ele><time>2026-05-01T14:55:21.999Z</time></trkpt><trkpt lat="44.90911477697613" lon="9.046348539613383"><ele>190.0</ele><time>2026-05-01T14:55:22.999Z</time></trkpt><trkpt lat="44.90923394239294" lon="9.04623113534351"><ele>190.0</ele><time>2026-05-01T14:55:23.999Z</time></trkpt><trkpt lat="44.90935172872229" lon="9.046116098785669"><ele>190.0</ele><time>2026-05-01T14:55:24.999Z</time></trkpt><trkpt lat="44.90947083016704" lon="9.046001655157065"><ele>190.0</ele><time>2026-05-01T14:55:25.999Z</time></trkpt><trkpt lat="44.909587798902365" lon="9.045888194284705"><ele>190.0</ele><time>2026-05-01T14:55:26.999Z</time></trkpt><trkpt lat="44.90970644823787" lon="9.045770316965081"><ele>190.0</ele><time>2026-05-01T14:55:27.999Z</time></trkpt><trkpt lat="44.90982078609583" lon="9.045654168975567"><ele>189.75</ele><time>2026-05-01T14:55:28.999Z</time></trkpt><trkpt lat="44.90993815647691" lon="9.045536354692691"><ele>189.5</ele><time>2026-05-01T14:55:29.999Z</time></trkpt><trkpt lat="44.91005627825478" lon="9.045423205635878"><ele>189.25</ele><time>2026-05-01T14:55:30.999Z</time></trkpt><trkpt lat="44.91017717848171" lon="9.045309633730641"><ele>189.0</ele><time>2026-05-01T14:55:31.999Z</time></trkpt><trkpt lat="44.91029588619277" lon="9.045187353128545"><ele>189.75</ele><time>2026-05-01T14:55:32.999Z</time></trkpt><trkpt lat="44.910416029984354" lon="9.045067849514146"><ele>190.5</ele><time>2026-05-01T14:55:33.999Z</time></trkpt><trkpt lat="44.910537259319675" lon="9.044952737675988"><ele>191.25</ele><time>2026-05-01T14:55:34.999Z</time></trkpt><trkpt lat="44.910655751568534" lon="9.04484045235462"><ele>192.0</ele><time>2026-05-01T14:55:35.999Z</time></trkpt><trkpt lat="44.910768441328145" lon="9.044726736904135"><ele>192.0</ele><time>2026-05-01T14:55:36.999Z</time></trkpt><trkpt lat="44.91088305550004" lon="9.044618436095815"><ele>192.0</ele><time>2026-05-01T14:55:37.999Z</time></trkpt><trkpt lat="44.910994203854656" lon="9.044503194113005"><ele>192.0</ele><time>2026-05-01T14:55:38.999Z</time></trkpt><trkpt lat="44.91110864427782" lon="9.044393335224992"><ele>192.0</ele><time>2026-05-01T14:55:39.999Z</time></trkpt><trkpt lat="44.91122325123754" lon="9.044279074167772"><ele>192.0</ele><time>2026-05-01T14:55:40.999Z</time></trkpt><trkpt lat="44.91133396104468" lon="9.044176284931263"><ele>192.0</ele><time>2026-05-01T14:55:41.999Z</time></trkpt><trkpt lat="44.91144763490188" lon="9.044071646179873"><ele>192.0</ele><time>2026-05-01T14:55:42.998Z</time></trkpt><trkpt lat="44.91156239000116" lon="9.043956163993194"><ele>192.0</ele><time>2026-05-01T14:55:43.998Z</time></trkpt><trkpt lat="44.91167470829505" lon="9.043843543650762"><ele>191.25</ele><time>2026-05-01T14:55:44.998Z</time></trkpt><trkpt lat="44.91178769047474" lon="9.043731695471338"><ele>190.5</ele><time>2026-05-01T14:55:45.998Z</time></trkpt><trkpt lat="44.91190107658072" lon="9.043619077953757"><ele>189.75</ele><time>2026-05-01T14:55:46.998Z</time></trkpt><trkpt lat="44.91201267428673" lon="9.043519059368819"><ele>189.0</ele><time>2026-05-01T14:55:47.998Z</time></trkpt><trkpt lat="44.91212930323967" lon="9.043402076568022"><ele>188.25</ele><time>2026-05-01T14:55:48.998Z</time></trkpt><trkpt lat="44.91224280234127" lon="9.043293550718793"><ele>187.5</ele><time>2026-05-01T14:55:49.998Z</time></trkpt><trkpt lat="44.9123602648162" lon="9.043178371491603"><ele>186.75</ele><time>2026-05-01T14:55:50.998Z</time></trkpt><trkpt lat="44.91247759285073" lon="9.043061032369312"><ele>186.0</ele><time>2026-05-01T14:55:51.998Z</time></trkpt><trkpt lat="44.912595469567506" lon="9.042945253953064"><ele>186.0</ele><time>2026-05-01T14:55:52.998Z</time></trkpt><trkpt lat="44.912715889247764" lon="9.04282919789274"><ele>186.0</ele><time>2026-05-01T14:55:53.998Z</time></trkpt><trkpt lat="44.91283332314264" lon="9.042715945384526"><ele>186.0</ele><time>2026-05-01T14:55:54.998Z</time></trkpt><trkpt lat="44.91295170351161" lon="9.042596580996191"><ele>186.0</ele><time>2026-05-01T14:55:55.998Z</time></trkpt><trkpt lat="44.91307150660198" lon="9.042465948352943"><ele>186.25</ele><time>2026-05-01T14:55:56.998Z</time></trkpt><trkpt lat="44.91318588952852" lon="9.042362601120214"><ele>186.5</ele><time>2026-05-01T14:55:57.998Z</time></trkpt><trkpt lat="44.91330128254257" lon="9.042237062166913"><ele>186.75</ele><time>2026-05-01T14:55:58.998Z</time></trkpt><trkpt lat="44.91341723493256" lon="9.042127411245513"><ele>187.0</ele><time>2026-05-01T14:55:59.998Z</time></trkpt><trkpt lat="44.913534181182364" lon="9.04200653153362"><ele>187.0</ele><time>2026-05-01T14:56:00.998Z</time></trkpt><trkpt lat="44.91364896328577" lon="9.041902541544038"><ele>187.0</ele><time>2026-05-01T14:56:01.998Z</time></trkpt><trkpt lat="44.913766513251595" lon="9.041787937564825"><ele>187.0</ele><time>2026-05-01T14:56:02.998Z</time></trkpt><trkpt lat="44.91388034369682" lon="9.041679033211274"><ele>187.0</ele><time>2026-05-01T14:56:03.998Z</time></trkpt><trkpt lat="44.9139958893838" lon="9.041571581767935"><ele>186.5</ele><time>2026-05-01T14:56:04.998Z</time></trkpt><trkpt lat="44.91411133089845" lon="9.041463384131966"><ele>186.0</ele><time>2026-05-01T14:56:05.998Z</time></trkpt><trkpt lat="44.91422650423963" lon="9.041352733215547"><ele>185.5</ele><time>2026-05-01T14:56:06.998Z</time></trkpt><trkpt lat="44.91434151162359" lon="9.04124126774315"><ele>185.0</ele><time>2026-05-01T14:56:07.998Z</time></trkpt><trkpt lat="44.91445722620593" lon="9.041128124746995"><ele>184.25</ele><time>2026-05-01T14:56:08.998Z</time></trkpt><trkpt lat="44.91457439164633" lon="9.041009398721274"><ele>183.5</ele><time>2026-05-01T14:56:09.998Z</time></trkpt><trkpt lat="44.91469280558863" lon="9.040891664377176"><ele>182.75</ele><time>2026-05-01T14:56:10.998Z</time></trkpt><trkpt lat="44.914809222222075" lon="9.04077137771644"><ele>182.0</ele><time>2026-05-01T14:56:11.998Z</time></trkpt><trkpt lat="44.914926886068" lon="9.040645527097988"><ele>182.0</ele><time>2026-05-01T14:56:12.998Z</time></trkpt><trkpt lat="44.91504932804726" lon="9.040531559480263"><ele>182.0</ele><time>2026-05-01T14:56:13.998Z</time></trkpt><trkpt lat="44.915170210539344" lon="9.040412813773495"><ele>182.0</ele><time>2026-05-01T14:56:14.998Z</time></trkpt><trkpt lat="44.91529076113178" lon="9.040292457098953"><ele>182.0</ele><time>2026-05-01T14:56:15.998Z</time></trkpt><trkpt lat="44.91540830070592" lon="9.040171543243767"><ele>182.0</ele><time>2026-05-01T14:56:16.998Z</time></trkpt><trkpt lat="44.915522314532375" lon="9.04005985099856"><ele>182.0</ele><time>2026-05-01T14:56:17.998Z</time></trkpt><trkpt lat="44.91564028155803" lon="9.03995144290901"><ele>182.0</ele><time>2026-05-01T14:56:18.998Z</time></trkpt><trkpt lat="44.91575973583185" lon="9.039839407580743"><ele>182.0</ele><time>2026-05-01T14:56:19.997Z</time></trkpt><trkpt lat="44.91588014637886" lon="9.039722205397247"><ele>182.5</ele><time>2026-05-01T14:56:20.997Z</time></trkpt><trkpt lat="44.91599955894323" lon="9.039618495638427"><ele>183.0</ele><time>2026-05-01T14:56:21.997Z</time></trkpt><trkpt lat="44.91611288511572" lon="9.039489516218504"><ele>183.5</ele><time>2026-05-01T14:56:22.997Z</time></trkpt><trkpt lat="44.91623129648407" lon="9.03937634525367"><ele>184.0</ele><time>2026-05-01T14:56:23.997Z</time></trkpt><trkpt lat="44.91634936620114" lon="9.039261217479373"><ele>184.0</ele><time>2026-05-01T14:56:24.997Z</time></trkpt><trkpt lat="44.916462969654035" lon="9.039146774588819"><ele>184.0</ele><time>2026-05-01T14:56:25.997Z</time></trkpt><trkpt lat="44.91657823545245" lon="9.039049027653194"><ele>184.0</ele><time>2026-05-01T14:56:26.997Z</time></trkpt><trkpt lat="44.916691968099165" lon="9.038916416867444"><ele>184.0</ele><time>2026-05-01T14:56:27.997Z</time></trkpt><trkpt lat="44.916806020013254" lon="9.038804313425661"><ele>184.25</ele><time>2026-05-01T14:56:28.997Z</time></trkpt><trkpt lat="44.91692738915817" lon="9.038688278550037"><ele>184.5</ele><time>2026-05-01T14:56:29.997Z</time></trkpt><trkpt lat="44.91705183010967" lon="9.03857289176892"><ele>184.75</ele><time>2026-05-01T14:56:30.997Z</time></trkpt><trkpt lat="44.91717138795493" lon="9.038457650273015"><ele>185.0</ele><time>2026-05-01T14:56:31.997Z</time></trkpt><trkpt lat="44.91728986114283" lon="9.038340164800388"><ele>184.5</ele><time>2026-05-01T14:56:32.997Z</time></trkpt><trkpt lat="44.91740091955383" lon="9.038221773755575"><ele>184.0</ele><time>2026-05-01T14:56:33.997Z</time></trkpt><trkpt lat="44.917507647799496" lon="9.038086231701309"><ele>183.5</ele><time>2026-05-01T14:56:34.997Z</time></trkpt><trkpt lat="44.91760217717819" lon="9.037940336938266"><ele>183.0</ele><time>2026-05-01T14:56:35.997Z</time></trkpt><trkpt lat="44.9176868386232" lon="9.037772487694118"><ele>183.0</ele><time>2026-05-01T14:56:36.997Z</time></trkpt><trkpt lat="44.91775229807342" lon="9.037599612809384"><ele>183.0</ele><time>2026-05-01T14:56:37.997Z</time></trkpt><trkpt lat="44.917827918703125" lon="9.037407152378739"><ele>183.0</ele><time>2026-05-01T14:56:38.997Z</time></trkpt><trkpt lat="44.91790724092334" lon="9.037255017876635"><ele>183.0</ele><time>2026-05-01T14:56:39.997Z</time></trkpt><trkpt lat="44.91797778291029" lon="9.037093108122509"><ele>183.0</ele><time>2026-05-01T14:56:40.997Z</time></trkpt><trkpt lat="44.91805987001349" lon="9.036937728465162"><ele>183.0</ele><time>2026-05-01T14:56:41.997Z</time></trkpt><trkpt lat="44.9181234675648" lon="9.036770280080189"><ele>183.0</ele><time>2026-05-01T14:56:42.997Z</time></trkpt><trkpt lat="44.9182040367157" lon="9.036615401601184"><ele>183.0</ele><time>2026-05-01T14:56:43.997Z</time></trkpt><trkpt lat="44.91827544589354" lon="9.036451584015632"><ele>182.0</ele><time>2026-05-01T14:56:44.997Z</time></trkpt><trkpt lat="44.918350554667676" lon="9.036288835547584"><ele>181.0</ele><time>2026-05-01T14:56:45.997Z</time></trkpt><trkpt lat="44.91842184432764" lon="9.036121637787614"><ele>180.0</ele><time>2026-05-01T14:56:46.997Z</time></trkpt><trkpt lat="44.9185008668625" lon="9.035953137842153"><ele>179.0</ele><time>2026-05-01T14:56:47.997Z</time></trkpt><trkpt lat="44.91857013325121" lon="9.035782986321417"><ele>179.0</ele><time>2026-05-01T14:56:48.997Z</time></trkpt><trkpt lat="44.91864957066428" lon="9.035612139859866"><ele>179.0</ele><time>2026-05-01T14:56:49.997Z</time></trkpt><trkpt lat="44.91873184185224" lon="9.035441831236517"><ele>179.0</ele><time>2026-05-01T14:56:50.997Z</time></trkpt><trkpt lat="44.91880382601832" lon="9.03526443333764"><ele>179.0</ele><time>2026-05-01T14:56:51.997Z</time></trkpt><trkpt lat="44.91888286168728" lon="9.035091048484738"><ele>177.5</ele><time>2026-05-01T14:56:52.997Z</time></trkpt><trkpt lat="44.91896406742087" lon="9.034916678139425"><ele>176.0</ele><time>2026-05-01T14:56:53.997Z</time></trkpt><trkpt lat="44.9190295501558" lon="9.034738790373407"><ele>174.5</ele><time>2026-05-01T14:56:54.997Z</time></trkpt><trkpt lat="44.91911279263661" lon="9.034562347049336"><ele>173.0</ele><time>2026-05-01T14:56:55.997Z</time></trkpt><trkpt lat="44.91918582416432" lon="9.034388450629562"><ele>173.0</ele><time>2026-05-01T14:56:56.996Z</time></trkpt><trkpt lat="44.91926217859623" lon="9.034220508109861"><ele>173.0</ele><time>2026-05-01T14:56:57.996Z</time></trkpt><trkpt lat="44.919340911952204" lon="9.034051102528956"><ele>173.0</ele><time>2026-05-01T14:56:58.999Z</time></trkpt><trkpt lat="44.91941587104242" lon="9.033883182726228"><ele>173.0</ele><time>2026-05-01T14:56:59.999Z</time></trkpt><trkpt lat="44.919485997743216" lon="9.033712304167029"><ele>173.0</ele><time>2026-05-01T14:57:00.999Z</time></trkpt><trkpt lat="44.9195658739543" lon="9.033547501691958"><ele>173.0</ele><time>2026-05-01T14:57:01.999Z</time></trkpt><trkpt lat="44.91964075687397" lon="9.033381594943451"><ele>173.0</ele><time>2026-05-01T14:57:02.999Z</time></trkpt><trkpt lat="44.91971227175925" lon="9.033212749490291"><ele>173.0</ele><time>2026-05-01T14:57:03.999Z</time></trkpt><trkpt lat="44.91978711179419" lon="9.033045773242089"><ele>172.25</ele><time>2026-05-01T14:57:04.999Z</time></trkpt><trkpt lat="44.91986235962464" lon="9.032880131903648"><ele>171.5</ele><time>2026-05-01T14:57:05.999Z</time></trkpt><trkpt lat="44.91993863383782" lon="9.03272159745461"><ele>170.75</ele><time>2026-05-01T14:57:06.999Z</time></trkpt><trkpt lat="44.92001634005583" lon="9.032561822309152"><ele>170.0</ele><time>2026-05-01T14:57:07.999Z</time></trkpt><trkpt lat="44.92009722656967" lon="9.032405259044555"><ele>169.75</ele><time>2026-05-01T14:57:08.999Z</time></trkpt><trkpt lat="44.920172829033945" lon="9.032259876015711"><ele>169.5</ele><time>2026-05-01T14:57:09.999Z</time></trkpt><trkpt lat="44.920263388986506" lon="9.032124800880172"><ele>169.25</ele><time>2026-05-01T14:57:10.999Z</time></trkpt><trkpt lat="44.920346667186486" lon="9.031995884506406"><ele>169.0</ele><time>2026-05-01T14:57:11.999Z</time></trkpt><trkpt lat="44.92041650280313" lon="9.031879306355279"><ele>169.0</ele><time>2026-05-01T14:57:12.999Z</time></trkpt><trkpt lat="44.92048712378093" lon="9.031776220501346"><ele>169.0</ele><time>2026-05-01T14:57:13.999Z</time></trkpt><trkpt lat="44.92054458340826" lon="9.031670870952587"><ele>169.0</ele><time>2026-05-01T14:57:14.999Z</time></trkpt><trkpt lat="44.92059056358117" lon="9.031574509710756"><ele>169.0</ele><time>2026-05-01T14:57:15.999Z</time></trkpt><trkpt lat="44.92070829077484" lon="9.031527258787946"><ele>169.0</ele><time>2026-05-01T14:57:16.999Z</time></trkpt><trkpt lat="44.92076877771094" lon="9.0314830174788"><ele>168.0</ele><time>2026-05-01T14:57:18.999Z</time></trkpt><trkpt lat="44.92079872208659" lon="9.031103498522207"><ele>167.0</ele><time>2026-05-01T14:57:20.999Z</time></trkpt><trkpt lat="44.92105348180183" lon="9.031031923191955"><ele>166.75</ele><time>2026-05-01T14:57:21.999Z</time></trkpt><trkpt lat="44.92116545915668" lon="9.030932594487243"><ele>166.5</ele><time>2026-05-01T14:57:22.999Z</time></trkpt><trkpt lat="44.921275974322754" lon="9.030826201759357"><ele>166.25</ele><time>2026-05-01T14:57:23.999Z</time></trkpt><trkpt lat="44.921387764895876" lon="9.030707297257164"><ele>166.0</ele><time>2026-05-01T14:57:24.999Z</time></trkpt><trkpt lat="44.92149628814159" lon="9.03058153838077"><ele>165.75</ele><time>2026-05-01T14:57:25.999Z</time></trkpt><trkpt lat="44.92160417265667" lon="9.030451496600591"><ele>165.5</ele><time>2026-05-01T14:57:26.999Z</time></trkpt><trkpt lat="44.92171098127092" lon="9.03032272771479"><ele>165.25</ele><time>2026-05-01T14:57:27.999Z</time></trkpt><trkpt lat="44.92181971499764" lon="9.030188864382625"><ele>165.0</ele><time>2026-05-01T14:57:28.999Z</time></trkpt><trkpt lat="44.921927041194586" lon="9.030057801145384"><ele>164.5</ele><time>2026-05-01T14:57:29.999Z</time></trkpt><trkpt lat="44.92203303827721" lon="9.0299187706427"><ele>164.0</ele><time>2026-05-01T14:57:30.999Z</time></trkpt><trkpt lat="44.922138468711786" lon="9.029791173430683"><ele>163.5</ele><time>2026-05-01T14:57:31.999Z</time></trkpt><trkpt lat="44.922244035590886" lon="9.029657303357624"><ele>163.0</ele><time>2026-05-01T14:57:32.999Z</time></trkpt><trkpt lat="44.922350499842025" lon="9.029522748245887"><ele>163.0</ele><time>2026-05-01T14:57:33.999Z</time></trkpt><trkpt lat="44.92245928146478" lon="9.02939233101181"><ele>163.0</ele><time>2026-05-01T14:57:34.999Z</time></trkpt><trkpt lat="44.922567766609724" lon="9.0292555868587"><ele>163.0</ele><time>2026-05-01T14:57:35.999Z</time></trkpt><trkpt lat="44.92267810565042" lon="9.02911784577351"><ele>163.0</ele><time>2026-05-01T14:57:36.999Z</time></trkpt><trkpt lat="44.92278342812481" lon="9.028981817945573"><ele>162.75</ele><time>2026-05-01T14:57:37.999Z</time></trkpt><trkpt lat="44.92289409242696" lon="9.028853717091705"><ele>162.5</ele><time>2026-05-01T14:57:38.999Z</time></trkpt><trkpt lat="44.92300024638537" lon="9.028721043654974"><ele>162.25</ele><time>2026-05-01T14:57:39.999Z</time></trkpt><trkpt lat="44.92311181012644" lon="9.0285954209219"><ele>162.0</ele><time>2026-05-01T14:57:40.999Z</time></trkpt><trkpt lat="44.92322000794798" lon="9.028456250186066"><ele>162.0</ele><time>2026-05-01T14:57:41.999Z</time></trkpt><trkpt lat="44.92332680525298" lon="9.028321509988558"><ele>162.0</ele><time>2026-05-01T14:57:42.999Z</time></trkpt><trkpt lat="44.923436725643" lon="9.028183954779225"><ele>162.0</ele><time>2026-05-01T14:57:43.999Z</time></trkpt><trkpt lat="44.92354027779866" lon="9.028038556404363"><ele>162.0</ele><time>2026-05-01T14:57:44.999Z</time></trkpt><trkpt lat="44.92365957825091" lon="9.027912128393275"><ele>161.25</ele><time>2026-05-01T14:57:45.999Z</time></trkpt><trkpt lat="44.92377002249718" lon="9.027775163909233"><ele>160.5</ele><time>2026-05-01T14:57:46.999Z</time></trkpt><trkpt lat="44.92388662527576" lon="9.027638820316936"><ele>159.75</ele><time>2026-05-01T14:57:47.999Z</time></trkpt><trkpt lat="44.923990139593144" lon="9.027485791223626"><ele>159.0</ele><time>2026-05-01T14:57:48.999Z</time></trkpt><trkpt lat="44.924102452000604" lon="9.027345638941316"><ele>158.75</ele><time>2026-05-01T14:57:49.999Z</time></trkpt><trkpt lat="44.92421659059226" lon="9.027201544474247"><ele>158.5</ele><time>2026-05-01T14:57:50.999Z</time></trkpt><trkpt lat="44.92432931469752" lon="9.027066972608957"><ele>158.25</ele><time>2026-05-01T14:57:51.998Z</time></trkpt><trkpt lat="44.92443238512231" lon="9.026932041483638"><ele>158.0</ele><time>2026-05-01T14:57:52.998Z</time></trkpt><trkpt lat="44.92454503544931" lon="9.026794323596537"><ele>158.0</ele><time>2026-05-01T14:57:53.998Z</time></trkpt><trkpt lat="44.92466821512499" lon="9.026669125695548"><ele>158.0</ele><time>2026-05-01T14:57:54.998Z</time></trkpt><trkpt lat="44.92478009219587" lon="9.02653451252423"><ele>158.0</ele><time>2026-05-01T14:57:55.998Z</time></trkpt><trkpt lat="44.92488615485598" lon="9.026388639340091"><ele>158.0</ele><time>2026-05-01T14:57:56.998Z</time></trkpt><trkpt lat="44.92498769479167" lon="9.02625127112489"><ele>158.0</ele><time>2026-05-01T14:57:57.998Z</time></trkpt><trkpt lat="44.92510548059629" lon="9.026117324952871"><ele>158.0</ele><time>2026-05-01T14:57:58.998Z</time></trkpt><trkpt lat="44.92523350051228" lon="9.02598325281721"><ele>158.0</ele><time>2026-05-01T14:57:59.998Z</time></trkpt><trkpt lat="44.925345882584836" lon="9.02584290400619"><ele>157.75</ele><time>2026-05-01T14:58:00.998Z</time></trkpt><trkpt lat="44.92546471369299" lon="9.025702721455897"><ele>157.5</ele><time>2026-05-01T14:58:01.998Z</time></trkpt><trkpt lat="44.92556802484634" lon="9.025568391910218"><ele>157.25</ele><time>2026-05-01T14:58:02.998Z</time></trkpt><trkpt lat="44.92566294895802" lon="9.025439826381534"><ele>157.0</ele><time>2026-05-01T14:58:03.998Z</time></trkpt><trkpt lat="44.925780793432395" lon="9.025302818145864"><ele>157.0</ele><time>2026-05-01T14:58:04.998Z</time></trkpt><trkpt lat="44.92587781055818" lon="9.025176776367722"><ele>157.0</ele><time>2026-05-01T14:58:05.998Z</time></trkpt><trkpt lat="44.92598577659935" lon="9.025048332532025"><ele>157.0</ele><time>2026-05-01T14:58:06.998Z</time></trkpt><trkpt lat="44.92608343895163" lon="9.024917591962007"><ele>157.0</ele><time>2026-05-01T14:58:07.998Z</time></trkpt><trkpt lat="44.926197266857486" lon="9.024782630760207"><ele>157.0</ele><time>2026-05-01T14:58:08.998Z</time></trkpt><trkpt lat="44.926296070291336" lon="9.024657107248347"><ele>157.0</ele><time>2026-05-01T14:58:09.998Z</time></trkpt><trkpt lat="44.92641284567905" lon="9.024508325883906"><ele>157.0</ele><time>2026-05-01T14:58:10.998Z</time></trkpt><trkpt lat="44.9265164932533" lon="9.024394848884937"><ele>157.0</ele><time>2026-05-01T14:58:11.998Z</time></trkpt><trkpt lat="44.92662576959936" lon="9.02426694318796"><ele>156.75</ele><time>2026-05-01T14:58:12.998Z</time></trkpt><trkpt lat="44.926735045366414" lon="9.024126075946045"><ele>156.5</ele><time>2026-05-01T14:58:13.998Z</time></trkpt><trkpt lat="44.92684250280437" lon="9.024004519550838"><ele>156.25</ele><time>2026-05-01T14:58:14.998Z</time></trkpt><trkpt lat="44.9269522317319" lon="9.023856894733052"><ele>156.0</ele><time>2026-05-01T14:58:15.998Z</time></trkpt><trkpt lat="44.927061823405296" lon="9.023738610065672"><ele>156.0</ele><time>2026-05-01T14:58:16.998Z</time></trkpt><trkpt lat="44.9271724759155" lon="9.02360817686767"><ele>156.0</ele><time>2026-05-01T14:58:17.998Z</time></trkpt><trkpt lat="44.92727557266098" lon="9.023469446573852"><ele>156.0</ele><time>2026-05-01T14:58:18.998Z</time></trkpt><trkpt lat="44.927378493851634" lon="9.023338182283682"><ele>156.0</ele><time>2026-05-01T14:58:19.998Z</time></trkpt><trkpt lat="44.927483810958684" lon="9.023217936601899"><ele>155.75</ele><time>2026-05-01T14:58:20.998Z</time></trkpt><trkpt lat="44.92758597931696" lon="9.023077933004025"><ele>155.5</ele><time>2026-05-01T14:58:21.998Z</time></trkpt><trkpt lat="44.92769522180966" lon="9.022954401269708"><ele>155.25</ele><time>2026-05-01T14:58:22.998Z</time></trkpt><trkpt lat="44.927795997969575" lon="9.022824854944115"><ele>155.0</ele><time>2026-05-01T14:58:23.998Z</time></trkpt><trkpt lat="44.92790006811234" lon="9.022696424922472"><ele>155.0</ele><time>2026-05-01T14:58:24.998Z</time></trkpt><trkpt lat="44.92800324734145" lon="9.022568087274879"><ele>155.0</ele><time>2026-05-01T14:58:25.998Z</time></trkpt><trkpt lat="44.928107395811054" lon="9.022440754506585"><ele>155.0</ele><time>2026-05-01T14:58:26.998Z</time></trkpt><trkpt lat="44.92821036864055" lon="9.02231455354642"><ele>155.0</ele><time>2026-05-01T14:58:27.998Z</time></trkpt><trkpt lat="44.92831230341856" lon="9.022191417929573"><ele>155.25</ele><time>2026-05-01T14:58:28.998Z</time></trkpt><trkpt lat="44.928409238565756" lon="9.022062798852025"><ele>155.5</ele><time>2026-05-01T14:58:29.997Z</time></trkpt><trkpt lat="44.92850572520853" lon="9.021940569633307"><ele>155.75</ele><time>2026-05-01T14:58:30.997Z</time></trkpt><trkpt lat="44.92860501349797" lon="9.021809786563152"><ele>156.0</ele><time>2026-05-01T14:58:31.997Z</time></trkpt><trkpt lat="44.9287123504558" lon="9.021687866352373"><ele>155.5</ele><time>2026-05-01T14:58:32.997Z</time></trkpt><trkpt lat="44.9288085096882" lon="9.021570617558222"><ele>155.0</ele><time>2026-05-01T14:58:33.997Z</time></trkpt><trkpt lat="44.928891882853605" lon="9.021467201514927"><ele>154.5</ele><time>2026-05-01T14:58:34.997Z</time></trkpt><trkpt lat="44.92897736286386" lon="9.021364220546326"><ele>154.0</ele><time>2026-05-01T14:58:35.997Z</time></trkpt><trkpt lat="44.92906292440116" lon="9.02125400184445"><ele>154.0</ele><time>2026-05-01T14:58:36.997Z</time></trkpt><trkpt lat="44.92915027875374" lon="9.021147350335184"><ele>154.0</ele><time>2026-05-01T14:58:37.997Z</time></trkpt><trkpt lat="44.92923036600643" lon="9.021048243353198"><ele>154.0</ele><time>2026-05-01T14:58:38.997Z</time></trkpt><trkpt lat="44.92931316532014" lon="9.020944621390518"><ele>154.0</ele><time>2026-05-01T14:58:39.997Z</time></trkpt><trkpt lat="44.929385543011634" lon="9.020852951538945"><ele>154.0</ele><time>2026-05-01T14:58:40.997Z</time></trkpt><trkpt lat="44.929447845674275" lon="9.020780528873345"><ele>153.6</ele><time>2026-05-01T14:58:41.997Z</time></trkpt><trkpt lat="44.92950717822456" lon="9.020708516599758"><ele>153.2</ele><time>2026-05-01T14:58:42.997Z</time></trkpt><trkpt lat="44.929594335868906" lon="9.020606860194077"><ele>152.79999999999998</ele><time>2026-05-01T14:58:44.997Z</time></trkpt><trkpt lat="44.9296806267726" lon="9.020488165867759"><ele>152.4</ele><time>2026-05-01T14:58:46.997Z</time></trkpt><trkpt lat="44.92973102055044" lon="9.020427426666133"><ele>152.0</ele><time>2026-05-01T14:58:47.997Z</time></trkpt><trkpt lat="44.929791255410876" lon="9.020367703664476"><ele>152.0</ele><time>2026-05-01T14:58:49.997Z</time></trkpt><trkpt lat="44.92985415477839" lon="9.020315968489903"><ele>152.0</ele><time>2026-05-01T14:58:51.997Z</time></trkpt><trkpt lat="44.92996200601452" lon="9.020286101514262"><ele>152.0</ele><time>2026-05-01T14:58:53.997Z</time></trkpt><trkpt lat="44.93009281495556" lon="9.020286747111937"><ele>152.0</ele><time>2026-05-01T14:58:55.997Z</time></trkpt><trkpt lat="44.93016796263901" lon="9.02028830675787"><ele>152.0</ele><time>2026-05-01T14:58:56.997Z</time></trkpt><trkpt lat="44.93024525739817" lon="9.02029775374572"><ele>151.6</ele><time>2026-05-01T14:58:57.997Z</time></trkpt><trkpt lat="44.93031791079218" lon="9.020339345485311"><ele>151.2</ele><time>2026-05-01T14:58:58.997Z</time></trkpt><trkpt lat="44.930403358443975" lon="9.02041862941351"><ele>150.8</ele><time>2026-05-01T14:58:59.997Z</time></trkpt><trkpt lat="44.93048980681914" lon="9.020501822589692"><ele>150.4</ele><time>2026-05-01T14:59:00.997Z</time></trkpt><trkpt lat="44.93058949151507" lon="9.020575198431555"><ele>150.0</ele><time>2026-05-01T14:59:01.997Z</time></trkpt><trkpt lat="44.93069919567632" lon="9.020617517221618"><ele>150.0</ele><time>2026-05-01T14:59:02.997Z</time></trkpt><trkpt lat="44.93081454699056" lon="9.02065559719368"><ele>150.0</ele><time>2026-05-01T14:59:03.997Z</time></trkpt><trkpt lat="44.93093976508459" lon="9.020695178233806"><ele>150.0</ele><time>2026-05-01T14:59:05Z</time></trkpt><trkpt lat="44.93105470963011" lon="9.020731256802629"><ele>150.0</ele><time>2026-05-01T14:59:06Z</time></trkpt><trkpt lat="44.9311833537527" lon="9.020783463091016"><ele>149.5</ele><time>2026-05-01T14:59:07Z</time></trkpt><trkpt lat="44.93131691051903" lon="9.020833336821415"><ele>149.0</ele><time>2026-05-01T14:59:08Z</time></trkpt><trkpt lat="44.93144759175318" lon="9.020881195133272"><ele>148.5</ele><time>2026-05-01T14:59:09Z</time></trkpt><trkpt lat="44.93157085372695" lon="9.02092812561589"><ele>148.0</ele><time>2026-05-01T14:59:10Z</time></trkpt><trkpt lat="44.93169537463852" lon="9.020976363077592"><ele>148.20000000000002</ele><time>2026-05-01T14:59:11Z</time></trkpt><trkpt lat="44.931811906129035" lon="9.02102981324345"><ele>148.4</ele><time>2026-05-01T14:59:12Z</time></trkpt><trkpt lat="44.93192468606809" lon="9.021070549809739"><ele>148.60000000000002</ele><time>2026-05-01T14:59:13Z</time></trkpt><trkpt lat="44.93202892049872" lon="9.021108161677526"><ele>148.8</ele><time>2026-05-01T14:59:14Z</time></trkpt><trkpt lat="44.932123738222394" lon="9.02115084067027"><ele>149.0</ele><time>2026-05-01T14:59:15Z</time></trkpt><trkpt lat="44.932221401742154" lon="9.02118393361794"><ele>149.0</ele><time>2026-05-01T14:59:16Z</time></trkpt><trkpt lat="44.93230721118599" lon="9.021217635298111"><ele>149.0</ele><time>2026-05-01T14:59:17Z</time></trkpt><trkpt lat="44.932386437370816" lon="9.021248170672814"><ele>149.0</ele><time>2026-05-01T14:59:18Z</time></trkpt><trkpt lat="44.932483826833334" lon="9.021286522512886"><ele>149.0</ele><time>2026-05-01T14:59:19Z</time></trkpt><trkpt lat="44.932590117121045" lon="9.021329188053244"><ele>149.0</ele><time>2026-05-01T14:59:20Z</time></trkpt><trkpt lat="44.93269687084256" lon="9.021365562064872"><ele>148.25</ele><time>2026-05-01T14:59:21Z</time></trkpt><trkpt lat="44.93281970037744" lon="9.021419768811093"><ele>147.5</ele><time>2026-05-01T14:59:22Z</time></trkpt><trkpt lat="44.93293077000757" lon="9.021463264354685"><ele>146.75</ele><time>2026-05-01T14:59:22.999Z</time></trkpt><trkpt lat="44.93306625206876" lon="9.021518941135968"><ele>146.0</ele><time>2026-05-01T14:59:23.999Z</time></trkpt><trkpt lat="44.93319627803847" lon="9.02157290101298"><ele>146.0</ele><time>2026-05-01T14:59:24.999Z</time></trkpt><trkpt lat="44.93330953181806" lon="9.021623456467317"><ele>146.0</ele><time>2026-05-01T14:59:25.999Z</time></trkpt><trkpt lat="44.93343964715631" lon="9.02167212313641"><ele>146.0</ele><time>2026-05-01T14:59:26.999Z</time></trkpt><trkpt lat="44.93356558971325" lon="9.021718850309304"><ele>146.0</ele><time>2026-05-01T14:59:27.999Z</time></trkpt><trkpt lat="44.933700648807566" lon="9.021768963078125"><ele>147.0</ele><time>2026-05-01T14:59:28.999Z</time></trkpt><trkpt lat="44.933828363274316" lon="9.02181970718758"><ele>148.0</ele><time>2026-05-01T14:59:29.999Z</time></trkpt><trkpt lat="44.933949553483146" lon="9.021867728718394"><ele>149.0</ele><time>2026-05-01T14:59:30.999Z</time></trkpt><trkpt lat="44.934071969711844" lon="9.021916793376874"><ele>150.0</ele><time>2026-05-01T14:59:31.999Z</time></trkpt><trkpt lat="44.934192171763094" lon="9.021965251615537"><ele>149.25</ele><time>2026-05-01T14:59:32.999Z</time></trkpt><trkpt lat="44.934321369275075" lon="9.02200312830654"><ele>148.5</ele><time>2026-05-01T14:59:33.999Z</time></trkpt><trkpt lat="44.93445113589873" lon="9.02203238732339"><ele>147.75</ele><time>2026-05-01T14:59:34.999Z</time></trkpt><trkpt lat="44.934582518072595" lon="9.022057436455624"><ele>147.0</ele><time>2026-05-01T14:59:35.999Z</time></trkpt><trkpt lat="44.93471101651932" lon="9.022084242104043"><ele>147.0</ele><time>2026-05-01T14:59:36.999Z</time></trkpt><trkpt lat="44.93484371282389" lon="9.022110759543958"><ele>147.0</ele><time>2026-05-01T14:59:37.999Z</time></trkpt><trkpt lat="44.93497265604481" lon="9.02213775136912"><ele>147.0</ele><time>2026-05-01T14:59:38.999Z</time></trkpt><trkpt lat="44.93510291143772" lon="9.022163649984252"><ele>147.0</ele><time>2026-05-01T14:59:39.999Z</time></trkpt><trkpt lat="44.93524007183071" lon="9.022184316786744"><ele>146.5</ele><time>2026-05-01T14:59:40.999Z</time></trkpt><trkpt lat="44.93535621381145" lon="9.022218237073849"><ele>146.0</ele><time>2026-05-01T14:59:41.999Z</time></trkpt><trkpt lat="44.935489968135755" lon="9.02224897207536"><ele>145.5</ele><time>2026-05-01T14:59:42.999Z</time></trkpt><trkpt lat="44.93562673425425" lon="9.022274662779733"><ele>145.0</ele><time>2026-05-01T14:59:43.999Z</time></trkpt><trkpt lat="44.93576000653505" lon="9.022301454560912"><ele>143.5</ele><time>2026-05-01T14:59:44.999Z</time></trkpt><trkpt lat="44.93589233626422" lon="9.02233295752857"><ele>142.0</ele><time>2026-05-01T14:59:45.999Z</time></trkpt><trkpt lat="44.93602464428108" lon="9.022367269005128"><ele>140.5</ele><time>2026-05-01T14:59:46.999Z</time></trkpt><trkpt lat="44.93616015129822" lon="9.022395258359492"><ele>139.0</ele><time>2026-05-01T14:59:47.999Z</time></trkpt><trkpt lat="44.93629227356643" lon="9.022428600337426"><ele>139.0</ele><time>2026-05-01T14:59:48.999Z</time></trkpt><trkpt lat="44.93642199732256" lon="9.022452323217335"><ele>139.0</ele><time>2026-05-01T14:59:49.999Z</time></trkpt><trkpt lat="44.936558466081706" lon="9.022478911647065"><ele>139.0</ele><time>2026-05-01T14:59:50.999Z</time></trkpt><trkpt lat="44.936692029100996" lon="9.022508299861391"><ele>139.0</ele><time>2026-05-01T14:59:51.999Z</time></trkpt><trkpt lat="44.93683217046071" lon="9.0225324435423"><ele>140.0</ele><time>2026-05-01T14:59:52.999Z</time></trkpt><trkpt lat="44.93696119125358" lon="9.02256583462969"><ele>141.0</ele><time>2026-05-01T14:59:53.999Z</time></trkpt><trkpt lat="44.93708941605477" lon="9.022603985048827"><ele>142.0</ele><time>2026-05-01T14:59:54.999Z</time></trkpt><trkpt lat="44.93722094774354" lon="9.02265817324589"><ele>143.0</ele><time>2026-05-01T14:59:55.999Z</time></trkpt><trkpt lat="44.937342106801296" lon="9.022733285910496"><ele>143.0</ele><time>2026-05-01T14:59:56.999Z</time></trkpt><trkpt lat="44.93746817514656" lon="9.022819546117272"><ele>143.0</ele><time>2026-05-01T14:59:57.999Z</time></trkpt><trkpt lat="44.93759040398526" lon="9.02291145915529"><ele>143.0</ele><time>2026-05-01T14:59:58.999Z</time></trkpt><trkpt lat="44.937706283512995" lon="9.023005924504632"><ele>143.0</ele><time>2026-05-01T14:59:59.999Z</time></trkpt><trkpt lat="44.9378358332259" lon="9.023108576821985"><ele>143.0</ele><time>2026-05-01T15:00:00.999Z</time></trkpt><trkpt lat="44.93796627441664" lon="9.023218831789304"><ele>143.0</ele><time>2026-05-01T15:00:01.999Z</time></trkpt><trkpt lat="44.93810219351406" lon="9.023321391388393"><ele>143.0</ele><time>2026-05-01T15:00:02.999Z</time></trkpt><trkpt lat="44.93822793066145" lon="9.023428694358492"><ele>143.0</ele><time>2026-05-01T15:00:03.998Z</time></trkpt><trkpt lat="44.938358574515384" lon="9.023545189440977"><ele>143.0</ele><time>2026-05-01T15:00:04.998Z</time></trkpt><trkpt lat="44.93847332396429" lon="9.02366544303518"><ele>143.0</ele><time>2026-05-01T15:00:05.998Z</time></trkpt><trkpt lat="44.938605739796415" lon="9.023793107831448"><ele>142.75</ele><time>2026-05-01T15:00:06.998Z</time></trkpt><trkpt lat="44.93872492629089" lon="9.023924718660261"><ele>142.5</ele><time>2026-05-01T15:00:07.998Z</time></trkpt><trkpt lat="44.93883090361323" lon="9.024063558825981"><ele>142.25</ele><time>2026-05-01T15:00:08.998Z</time></trkpt><trkpt lat="44.93892916191833" lon="9.02420671412419"><ele>142.0</ele><time>2026-05-01T15:00:09.998Z</time></trkpt><trkpt lat="44.93904177568656" lon="9.024340675365512"><ele>142.0</ele><time>2026-05-01T15:00:10.998Z</time></trkpt><trkpt lat="44.939162926757476" lon="9.024460966929707"><ele>142.0</ele><time>2026-05-01T15:00:11.998Z</time></trkpt><trkpt lat="44.939267303870174" lon="9.024594744272536"><ele>142.0</ele><time>2026-05-01T15:00:12.998Z</time></trkpt><trkpt lat="44.93938067607733" lon="9.02471596706637"><ele>142.0</ele><time>2026-05-01T15:00:13.998Z</time></trkpt><trkpt lat="44.939488115062666" lon="9.02484573193636"><ele>142.0</ele><time>2026-05-01T15:00:14.998Z</time></trkpt><trkpt lat="44.93960365511246" lon="9.02497162622812"><ele>142.0</ele><time>2026-05-01T15:00:15.998Z</time></trkpt><trkpt lat="44.93972463071551" lon="9.025085511984246"><ele>142.0</ele><time>2026-05-01T15:00:16.998Z</time></trkpt><trkpt lat="44.93984520428358" lon="9.025200016170492"><ele>142.0</ele><time>2026-05-01T15:00:17.998Z</time></trkpt><trkpt lat="44.93997595222514" lon="9.025302279139098"><ele>141.33333333333334</ele><time>2026-05-01T15:00:18.998Z</time></trkpt><trkpt lat="44.940117608724016" lon="9.025379262949512"><ele>140.66666666666666</ele><time>2026-05-01T15:00:19.998Z</time></trkpt><trkpt lat="44.94025326085576" lon="9.025461533903107"><ele>140.0</ele><time>2026-05-01T15:00:20.998Z</time></trkpt><trkpt lat="44.940382404451505" lon="9.025578180794195"><ele>140.0</ele><time>2026-05-01T15:00:21.998Z</time></trkpt><trkpt lat="44.94051622465986" lon="9.025672889663893"><ele>140.0</ele><time>2026-05-01T15:00:22.998Z</time></trkpt><trkpt lat="44.94065382321139" lon="9.025770109208265"><ele>140.0</ele><time>2026-05-01T15:00:23.998Z</time></trkpt><trkpt lat="44.94078098390271" lon="9.025859804741897"><ele>140.0</ele><time>2026-05-01T15:00:24.998Z</time></trkpt><trkpt lat="44.94090506376371" lon="9.025946472856933"><ele>140.5</ele><time>2026-05-01T15:00:25.998Z</time></trkpt><trkpt lat="44.94103404749446" lon="9.026036566269681"><ele>141.0</ele><time>2026-05-01T15:00:26.998Z</time></trkpt><trkpt lat="44.94116492286744" lon="9.026127933191567"><ele>141.5</ele><time>2026-05-01T15:00:27.998Z</time></trkpt><trkpt lat="44.94129903304211" lon="9.026209412542642"><ele>142.0</ele><time>2026-05-01T15:00:28.998Z</time></trkpt><trkpt lat="44.941440533103545" lon="9.026273295793478"><ele>142.0</ele><time>2026-05-01T15:00:29.998Z</time></trkpt><trkpt lat="44.94158872636312" lon="9.026320297866873"><ele>142.0</ele><time>2026-05-01T15:00:30.998Z</time></trkpt><trkpt lat="44.941739184943756" lon="9.026350309066075"><ele>142.0</ele><time>2026-05-01T15:00:31.998Z</time></trkpt><trkpt lat="44.9418818088293" lon="9.026393501507277"><ele>141.5</ele><time>2026-05-01T15:00:32.998Z</time></trkpt><trkpt lat="44.94202882414704" lon="9.026423439154495"><ele>141.0</ele><time>2026-05-01T15:00:33.998Z</time></trkpt><trkpt lat="44.94217259018778" lon="9.026449688092098"><ele>140.5</ele><time>2026-05-01T15:00:34.998Z</time></trkpt><trkpt lat="44.942317350555776" lon="9.02648878549122"><ele>140.0</ele><time>2026-05-01T15:00:35.998Z</time></trkpt><trkpt lat="44.94246699885735" lon="9.026535607768814"><ele>140.33333333333331</ele><time>2026-05-01T15:00:36.998Z</time></trkpt><trkpt lat="44.942614431690416" lon="9.026581239031197"><ele>140.66666666666666</ele><time>2026-05-01T15:00:37.998Z</time></trkpt><trkpt lat="44.94275868747584" lon="9.026634563786518"><ele>141.0</ele><time>2026-05-01T15:00:38.998Z</time></trkpt><trkpt lat="44.942907135829486" lon="9.026669813112536"><ele>141.75</ele><time>2026-05-01T15:00:39.998Z</time></trkpt><trkpt lat="44.943050924779826" lon="9.02669765382582"><ele>142.5</ele><time>2026-05-01T15:00:40.998Z</time></trkpt><trkpt lat="44.94319748057852" lon="9.026734086126302"><ele>143.25</ele><time>2026-05-01T15:00:41.997Z</time></trkpt><trkpt lat="44.94334385539158" lon="9.026762148229185"><ele>144.0</ele><time>2026-05-01T15:00:42.997Z</time></trkpt><trkpt lat="44.943491192252466" lon="9.026803425851329"><ele>144.0</ele><time>2026-05-01T15:00:43.997Z</time></trkpt><trkpt lat="44.943638879839845" lon="9.026832033315733"><ele>144.0</ele><time>2026-05-01T15:00:44.997Z</time></trkpt><trkpt lat="44.943785385703485" lon="9.026876857183774"><ele>144.0</ele><time>2026-05-01T15:00:45.997Z</time></trkpt><trkpt lat="44.94393458975407" lon="9.026925450192557"><ele>144.0</ele><time>2026-05-01T15:00:46.997Z</time></trkpt><trkpt lat="44.94408336919218" lon="9.026961622533257"><ele>144.0</ele><time>2026-05-01T15:00:47.997Z</time></trkpt><trkpt lat="44.94423659243086" lon="9.027018526469554"><ele>144.0</ele><time>2026-05-01T15:00:48.997Z</time></trkpt><trkpt lat="44.94438179797333" lon="9.027049277058865"><ele>143.25</ele><time>2026-05-01T15:00:49.997Z</time></trkpt><trkpt lat="44.944525445156174" lon="9.027087926664096"><ele>142.5</ele><time>2026-05-01T15:00:50.997Z</time></trkpt><trkpt lat="44.94467114866914" lon="9.027131107263465"><ele>141.75</ele><time>2026-05-01T15:00:51.997Z</time></trkpt><trkpt lat="44.94480916845753" lon="9.027167311355287"><ele>141.0</ele><time>2026-05-01T15:00:52.997Z</time></trkpt><trkpt lat="44.94495218752321" lon="9.027219412256878"><ele>141.66666666666666</ele><time>2026-05-01T15:00:53.997Z</time></trkpt><trkpt lat="44.945092546556296" lon="9.027276029199282"><ele>142.33333333333331</ele><time>2026-05-01T15:00:54.997Z</time></trkpt><trkpt lat="44.945238023588196" lon="9.02734365040877"><ele>143.0</ele><time>2026-05-01T15:00:55.997Z</time></trkpt><trkpt lat="44.94539128800446" lon="9.027413395015982"><ele>143.0</ele><time>2026-05-01T15:00:56.997Z</time></trkpt><trkpt lat="44.94553349224283" lon="9.027469982634905"><ele>143.0</ele><time>2026-05-01T15:00:57.997Z</time></trkpt><trkpt lat="44.94569163959117" lon="9.027547304683068"><ele>143.0</ele><time>2026-05-01T15:00:58.997Z</time></trkpt><trkpt lat="44.945830839089105" lon="9.02760042675187"><ele>143.0</ele><time>2026-05-01T15:00:59.997Z</time></trkpt><trkpt lat="44.9459866804978" lon="9.027667253465225"><ele>143.0</ele><time>2026-05-01T15:01:00.997Z</time></trkpt><trkpt lat="44.946124253596224" lon="9.02772778910143"><ele>143.0</ele><time>2026-05-01T15:01:01.997Z</time></trkpt><trkpt lat="44.946273924261384" lon="9.027794041021377"><ele>143.0</ele><time>2026-05-01T15:01:02.997Z</time></trkpt><trkpt lat="44.94641219458033" lon="9.027850197408661"><ele>143.0</ele><time>2026-05-01T15:01:03.997Z</time></trkpt><trkpt lat="44.9465670837163" lon="9.027912208335382"><ele>143.0</ele><time>2026-05-01T15:01:04.997Z</time></trkpt><trkpt lat="44.946710362550604" lon="9.02797909103404"><ele>142.33333333333331</ele><time>2026-05-01T15:01:05.997Z</time></trkpt><trkpt lat="44.94687022660689" lon="9.028035725864664"><ele>141.66666666666666</ele><time>2026-05-01T15:01:06.997Z</time></trkpt><trkpt lat="44.94703616283896" lon="9.028097504061932"><ele>141.0</ele><time>2026-05-01T15:01:07.997Z</time></trkpt><trkpt lat="44.947176440980336" lon="9.028163019851503"><ele>141.0</ele><time>2026-05-01T15:01:08.997Z</time></trkpt><trkpt lat="44.94733718936216" lon="9.02824541853188"><ele>141.0</ele><time>2026-05-01T15:01:09.997Z</time></trkpt><trkpt lat="44.94747300622766" lon="9.028283259807326"><ele>141.0</ele><time>2026-05-01T15:01:11Z</time></trkpt><trkpt lat="44.94761728504639" lon="9.028352614082635"><ele>142.0</ele><time>2026-05-01T15:01:12Z</time></trkpt><trkpt lat="44.94776906040265" lon="9.02843209482513"><ele>143.0</ele><time>2026-05-01T15:01:13Z</time></trkpt><trkpt lat="44.9479137120959" lon="9.02849446217867"><ele>144.0</ele><time>2026-05-01T15:01:14Z</time></trkpt><trkpt lat="44.94805166911288" lon="9.028553758690649"><ele>144.0</ele><time>2026-05-01T15:01:15Z</time></trkpt><trkpt lat="44.94818081029822" lon="9.028609243925006"><ele>144.0</ele><time>2026-05-01T15:01:16Z</time></trkpt><trkpt lat="44.94831273305811" lon="9.028666515341406"><ele>144.0</ele><time>2026-05-01T15:01:17Z</time></trkpt><trkpt lat="44.94843551019709" lon="9.028719816380073"><ele>144.0</ele><time>2026-05-01T15:01:18Z</time></trkpt><trkpt lat="44.94856496530932" lon="9.028775411908859"><ele>144.0</ele><time>2026-05-01T15:01:19Z</time></trkpt><trkpt lat="44.94869358039811" lon="9.028831040373957"><ele>144.0</ele><time>2026-05-01T15:01:20Z</time></trkpt><trkpt lat="44.94881223053681" lon="9.028882531298045"><ele>144.0</ele><time>2026-05-01T15:01:21Z</time></trkpt><trkpt lat="44.94891014211338" lon="9.028925022296125"><ele>144.0</ele><time>2026-05-01T15:01:22Z</time></trkpt><trkpt lat="44.94898949714492" lon="9.0289594602335"><ele>144.0</ele><time>2026-05-01T15:01:23Z</time></trkpt><trkpt lat="44.94907029252354" lon="9.02899452323244"><ele>144.0</ele><time>2026-05-01T15:01:25Z</time></trkpt><trkpt lat="44.94914824667044" lon="9.028763552284408"><ele>144.0</ele><time>2026-05-01T15:01:26Z</time></trkpt><trkpt lat="44.949148246671676" lon="9.028662985358135"><ele>144.0</ele><time>2026-05-01T15:01:27Z</time></trkpt><trkpt lat="44.94914838188102" lon="9.028561291483356"><ele>144.0</ele><time>2026-05-01T15:01:28Z</time></trkpt><trkpt lat="44.9491492553273" lon="9.02839143740535"><ele>144.0</ele><time>2026-05-01T15:01:29.999Z</time></trkpt><trkpt lat="44.94914952197143" lon="9.028299237763175"><ele>143.8</ele><time>2026-05-01T15:01:30.999Z</time></trkpt><trkpt lat="44.9491378140494" lon="9.02815177671352"><ele>143.60000000000002</ele><time>2026-05-01T15:01:32.999Z</time></trkpt><trkpt lat="44.94915093877989" lon="9.028008065242142"><ele>143.4</ele><time>2026-05-01T15:01:34.999Z</time></trkpt><trkpt lat="44.949134267952424" lon="9.02785666621804"><ele>143.20000000000002</ele><time>2026-05-01T15:01:36.999Z</time></trkpt><trkpt lat="44.94913953171034" lon="9.027701768037852"><ele>143.0</ele><time>2026-05-01T15:01:38.999Z</time></trkpt><trkpt lat="44.94914971745397" lon="9.02761319020787"><ele>143.0</ele><time>2026-05-01T15:01:39.999Z</time></trkpt><trkpt lat="44.94913374644127" lon="9.027509305095325"><ele>143.0</ele><time>2026-05-01T15:01:40.999Z</time></trkpt><trkpt lat="44.949138612061084" lon="9.027387512063642"><ele>143.0</ele><time>2026-05-01T15:01:41.999Z</time></trkpt><trkpt lat="44.94913974423542" lon="9.027270404841255"><ele>143.0</ele><time>2026-05-01T15:01:42.999Z</time></trkpt><trkpt lat="44.94913865602216" lon="9.027165639226086"><ele>143.0</ele><time>2026-05-01T15:01:43.999Z</time></trkpt><trkpt lat="44.949154711978444" lon="9.027072929501394"><ele>143.0</ele><time>2026-05-01T15:01:44.999Z</time></trkpt><trkpt lat="44.949149779576125" lon="9.026931731694665"><ele>143.0</ele><time>2026-05-01T15:01:45.999Z</time></trkpt><trkpt lat="44.949150485981875" lon="9.02680431632611"><ele>143.0</ele><time>2026-05-01T15:01:46.999Z</time></trkpt><trkpt lat="44.94916027744907" lon="9.02668531381136"><ele>143.0</ele><time>2026-05-01T15:01:47.999Z</time></trkpt><trkpt lat="44.949166999018125" lon="9.02653743243387"><ele>143.0</ele><time>2026-05-01T15:01:48.999Z</time></trkpt><trkpt lat="44.949138411720725" lon="9.026401279781505"><ele>143.0</ele><time>2026-05-01T15:01:49.999Z</time></trkpt><trkpt lat="44.94914394150898" lon="9.02625787430712"><ele>143.0</ele><time>2026-05-01T15:01:50.999Z</time></trkpt><trkpt lat="44.94914099546939" lon="9.026106154240816"><ele>143.0</ele><time>2026-05-01T15:01:51.999Z</time></trkpt><trkpt lat="44.94913988359309" lon="9.025959582203118"><ele>143.0</ele><time>2026-05-01T15:01:52.999Z</time></trkpt><trkpt lat="44.94915063826547" lon="9.025830670733818"><ele>143.0</ele><time>2026-05-01T15:01:53.999Z</time></trkpt><trkpt lat="44.94915446026145" lon="9.025701501442501"><ele>143.0</ele><time>2026-05-01T15:01:54.999Z</time></trkpt><trkpt lat="44.9491548688884" lon="9.025574739915136"><ele>143.0</ele><time>2026-05-01T15:01:55.999Z</time></trkpt><trkpt lat="44.94914281320828" lon="9.025474327031977"><ele>143.0</ele><time>2026-05-01T15:01:56.999Z</time></trkpt><trkpt lat="44.94913425256927" lon="9.025374250530245"><ele>143.0</ele><time>2026-05-01T15:01:57.999Z</time></trkpt><trkpt lat="44.94915347049671" lon="9.025260869425356"><ele>143.0</ele><time>2026-05-01T15:01:58.999Z</time></trkpt><trkpt lat="44.94914199159625" lon="9.025088279777208"><ele>143.0</ele><time>2026-05-01T15:02:00.999Z</time></trkpt><trkpt lat="44.94914112575975" lon="9.024920739722555"><ele>142.66666666666666</ele><time>2026-05-01T15:02:02.999Z</time></trkpt><trkpt lat="44.94913026338132" lon="9.024819816322136"><ele>142.33333333333331</ele><time>2026-05-01T15:02:03.999Z</time></trkpt><trkpt lat="44.9491094514114" lon="9.024723082037948"><ele>142.0</ele><time>2026-05-01T15:02:04.999Z</time></trkpt><trkpt lat="44.94905437677561" lon="9.024623038270715"><ele>141.66666666666666</ele><time>2026-05-01T15:02:06.999Z</time></trkpt><trkpt lat="44.9490565078461" lon="9.0244433591906"><ele>141.33333333333334</ele><time>2026-05-01T15:02:07.999Z</time></trkpt><trkpt lat="44.94902632865137" lon="9.024342492755517"><ele>141.0</ele><time>2026-05-01T15:02:08.999Z</time></trkpt><trkpt lat="44.94899331979441" lon="9.024241004437162"><ele>141.0</ele><time>2026-05-01T15:02:09.999Z</time></trkpt><trkpt lat="44.94896516066268" lon="9.024144076909085"><ele>141.0</ele><time>2026-05-01T15:02:10.998Z</time></trkpt><trkpt lat="44.948941650724336" lon="9.024059832391432"><ele>141.0</ele><time>2026-05-01T15:02:11.998Z</time></trkpt><trkpt lat="44.94889845114755" lon="9.02390356328446"><ele>141.0</ele><time>2026-05-01T15:02:13.998Z</time></trkpt><trkpt lat="44.94886277586255" lon="9.023753336972563"><ele>141.0</ele><time>2026-05-01T15:02:15.998Z</time></trkpt><trkpt lat="44.94882170241555" lon="9.023672243949383"><ele>141.0</ele><time>2026-05-01T15:02:16.998Z</time></trkpt><trkpt lat="44.94877863081092" lon="9.023589758167793"><ele>141.0</ele><time>2026-05-01T15:02:17.998Z</time></trkpt><trkpt lat="44.94873031211245" lon="9.023431361659409"><ele>141.0</ele><time>2026-05-01T15:02:19.998Z</time></trkpt><trkpt lat="44.948686356460186" lon="9.023290751464936"><ele>141.0</ele><time>2026-05-01T15:02:21.998Z</time></trkpt><trkpt lat="44.948686344493474" lon="9.023120875882933"><ele>141.0</ele><time>2026-05-01T15:02:23.998Z</time></trkpt><trkpt lat="44.94870368017955" lon="9.023029134440863"><ele>141.0</ele><time>2026-05-01T15:02:24.998Z</time></trkpt><trkpt lat="44.948729188016415" lon="9.022865878776832"><ele>139.8</ele><time>2026-05-01T15:02:26.998Z</time></trkpt><trkpt lat="44.94873935275975" lon="9.022728388298303"><ele>138.6</ele><time>2026-05-01T15:02:28.998Z</time></trkpt><trkpt lat="44.94873745840884" lon="9.022583288298316"><ele>137.4</ele><time>2026-05-01T15:02:30.998Z</time></trkpt><trkpt lat="44.94875932056323" lon="9.022429184704574"><ele>136.2</ele><time>2026-05-01T15:02:32.998Z</time></trkpt><trkpt lat="44.94877214161834" lon="9.022272180130217"><ele>135.0</ele><time>2026-05-01T15:02:34.998Z</time></trkpt><trkpt lat="44.948807297313564" lon="9.022138693448222"><ele>134.0</ele><time>2026-05-01T15:02:36.998Z</time></trkpt><trkpt lat="44.94888438944957" lon="9.022042489158435"><ele>133.0</ele><time>2026-05-01T15:02:38.998Z</time></trkpt><trkpt lat="44.94896688449581" lon="9.021923665145877"><ele>132.0</ele><time>2026-05-01T15:02:40.998Z</time></trkpt><trkpt lat="44.94904063504405" lon="9.021776687687284"><ele>131.0</ele><time>2026-05-01T15:02:42.998Z</time></trkpt><trkpt lat="44.9491153698849" lon="9.021663223463324"><ele>131.0</ele><time>2026-05-01T15:02:44.998Z</time></trkpt><trkpt lat="44.949181958481354" lon="9.021578114246438"><ele>131.0</ele><time>2026-05-01T15:02:46.998Z</time></trkpt><trkpt lat="44.94923211885516" lon="9.021498368997152"><ele>131.0</ele><time>2026-05-01T15:02:48.997Z</time></trkpt><trkpt lat="44.949296697798715" lon="9.021498493915617"><ele>131.0</ele><time>2026-05-01T15:03:02.997Z</time></trkpt><trkpt lat="44.949236306730356" lon="9.021596177288234"><ele>131.0</ele><time>2026-05-01T15:03:05.997Z</time></trkpt><trkpt lat="44.94915941017017" lon="9.02162256943138"><ele>131.0</ele><time>2026-05-01T15:03:06.997Z</time></trkpt><trkpt lat="44.949100834145625" lon="9.021683480364693"><ele>131.0</ele><time>2026-05-01T15:03:07.997Z</time></trkpt><trkpt lat="44.94904604159675" lon="9.021745943537656"><ele>131.0</ele><time>2026-05-01T15:03:08.997Z</time></trkpt><trkpt lat="44.94899344119204" lon="9.021829011049821"><ele>131.0</ele><time>2026-05-01T15:03:10.997Z</time></trkpt><trkpt lat="44.94891481626321" lon="9.021941385340483"><ele>131.0</ele><time>2026-05-01T15:03:12.997Z</time></trkpt><trkpt lat="44.9488753033691" lon="9.02209905842128"><ele>131.0</ele><time>2026-05-01T15:03:14.997Z</time></trkpt><trkpt lat="44.94890741102678" lon="9.02219442245031"><ele>131.0</ele><time>2026-05-01T15:03:17Z</time></trkpt><trkpt lat="44.94897598404673" lon="9.022283570725303"><ele>131.0</ele><time>2026-05-01T15:03:19Z</time></trkpt><trkpt lat="44.949060575270856" lon="9.022413884520423"><ele>131.0</ele><time>2026-05-01T15:03:21Z</time></trkpt><trkpt lat="44.94914649524855" lon="9.022502956942377"><ele>131.0</ele><time>2026-05-01T15:03:23Z</time></trkpt><trkpt lat="44.949230183013974" lon="9.022437001467393"><ele>131.0</ele><time>2026-05-01T15:03:26Z</time></trkpt><trkpt lat="44.94931219267494" lon="9.02234952267323"><ele>135.0</ele><time>2026-05-01T15:03:28Z</time></trkpt><trkpt lat="44.9493735404938" lon="9.022296112178443"><ele>135.0</ele><time>2026-05-01T15:03:29Z</time></trkpt><trkpt lat="44.949445400882176" lon="9.022254317362467"><ele>135.0</ele><time>2026-05-01T15:03:31Z</time></trkpt><trkpt lat="44.949508963334715" lon="9.022213303584264"><ele>135.0</ele><time>2026-05-01T15:03:33Z</time></trkpt><trkpt lat="44.9495826613805" lon="9.022240860058453"><ele>135.0</ele><time>2026-05-01T15:03:36Z</time></trkpt></trkseg></trk></gpx>